GFSSGP_sfc_wetblb_000.txt.gz
Wetbulb
75.78 76.82 77.20 73.78 61.70 59.25 56.66 58.54 63.22 62.46 63.63 67.38 67.87 66.54 65.98 67.19 64.87 61.74 73.85 75.71 75.54 75.12 76.69 77.09 78.69 79.17 79.08 79.21 78.83 78.87 78.73 79.06 79.25 79.30 79.16 78.96 78.96 78.52 78.55 79.00 78.75 78.70 78.20 77.99 77.87 77.81 77.81 77.56 77.58
76.74 75.13 75.28 69.54 57.06 54.70 57.37 61.12 60.37 62.91 66.94 69.15 68.39 67.68 66.60 64.88 69.66 70.38 72.52 76.26 76.31 75.93 76.64 77.45 77.73 78.65 79.09 79.13 79.28 79.25 78.54 78.78 79.38 79.27 79.17 79.28 78.88 78.70 78.68 78.17 78.19 78.28 78.14 77.76 77.51 77.48 77.62 77.21 77.10
75.57 75.39 70.72 61.34 58.01 54.45 57.06 62.15 63.94 65.96 66.90 65.00 66.14 68.95 67.08 66.12 70.45 71.86 75.46 76.61 76.49 76.36 76.93 78.24 78.57 79.10 79.13 78.93 79.35 78.85 78.86 79.18 79.01 78.91 79.10 78.92 78.67 78.62 78.26 77.92 77.98 77.90 77.62 77.59 77.48 77.37 77.23 76.76 76.60
75.46 73.49 70.48 59.28 57.44 60.51 61.54 63.77 65.30 64.27 65.18 66.63 66.53 65.18 69.72 72.72 71.65 73.90 76.38 76.57 76.23 77.79 78.37 77.41 78.08 79.14 79.36 79.69 78.94 78.37 78.42 79.11 79.45 79.36 79.07 78.54 78.04 78.04 77.96 77.93 77.90 77.62 77.43 77.29 77.10 76.98 76.65 76.18 76.21
75.10 70.99 59.38 58.23 60.02 62.36 64.09 64.29 63.88 62.52 63.10 64.52 65.60 64.14 67.22 72.40 74.48 75.31 76.17 76.60 76.37 76.78 78.22 78.43 78.77 79.30 79.04 79.75 78.71 78.83 78.26 78.48 79.07 78.74 78.00 77.98 77.82 77.68 77.60 77.21 77.16 77.10 77.04 76.79 76.73 76.57 76.31 76.31 75.95
68.75 67.65 57.29 55.96 59.94 63.60 65.39 66.23 64.06 63.98 65.39 65.84 65.54 66.25 68.06 73.74 73.34 74.94 76.01 76.21 77.04 77.17 78.06 78.63 78.23 78.97 79.36 78.84 78.42 79.47 79.16 78.60 79.06 78.64 77.92 77.85 77.74 77.51 77.26 76.91 76.96 76.71 76.40 76.21 76.15 76.13 75.98 76.13 76.32
65.61 61.96 57.33 58.12 60.60 62.32 64.46 67.33 64.07 63.60 64.29 65.03 67.97 64.91 67.87 71.44 73.79 75.14 75.80 76.54 75.86 77.10 77.15 78.25 78.41 78.78 78.74 78.98 78.58 79.11 79.18 78.59 78.69 78.24 77.98 77.67 77.75 77.53 77.21 77.04 76.49 76.15 75.92 75.95 76.12 76.43 75.93 75.92 76.48
68.23 63.20 57.53 58.44 57.74 60.73 66.07 66.18 66.63 65.63 65.35 69.92 69.60 64.32 65.90 70.78 74.06 74.77 75.38 75.69 75.90 76.11 76.05 77.11 77.84 78.07 78.49 78.30 78.38 77.98 78.06 78.15 77.87 77.75 77.72 77.74 77.67 77.34 77.54 76.95 77.10 76.63 76.48 76.98 77.07 77.63 76.60 76.29 75.93
67.39 58.94 56.15 57.03 58.36 62.60 66.95 65.16 68.54 69.25 68.80 69.60 70.10 68.95 71.71 73.04 73.88 73.47 73.56 74.25 75.17 75.49 76.57 77.54 77.51 77.94 78.30 78.14 78.00 77.90 77.74 77.64 77.35 77.38 77.29 77.46 76.63 77.75 77.58 78.08 76.71 76.57 76.93 76.99 77.13 77.29 77.37 76.75 76.70
62.20 58.22 57.30 61.56 62.32 63.95 65.68 66.12 67.43 67.34 68.60 68.47 69.46 71.97 72.65 72.45 72.43 71.70 71.67 72.08 73.55 74.52 75.43 76.36 76.97 77.57 78.10 77.28 78.36 77.98 77.32 76.74 76.72 77.19 78.00 77.10 77.64 78.19 77.82 77.74 76.68 77.13 77.26 77.38 77.51 76.65 76.89 75.84 75.67
60.09 57.56 62.87 64.54 65.63 66.76 66.18 66.50 67.68 66.00 65.08 68.87 68.22 69.98 71.18 71.29 71.53 71.39 71.70 72.31 72.90 74.67 75.37 76.30 77.20 77.87 77.32 77.22 77.45 77.18 77.24 77.09 77.28 78.42 78.37 78.11 77.67 77.72 77.24 76.59 77.08 77.02 77.33 76.11 76.89 76.71 76.21 75.03 75.32
58.56 64.96 65.34 66.75 67.06 66.17 65.14 67.12 67.56 68.32 68.15 71.26 71.16 71.69 71.52 70.77 70.47 70.75 71.20 72.00 72.84 74.05 74.91 76.40 77.51 77.90 78.17 77.58 76.91 77.02 76.86 77.02 76.64 77.13 78.66 78.60 76.77 76.57 76.37 76.04 76.19 76.36 75.93 75.78 75.92 75.93 75.90 75.90 75.35
62.31 65.46 67.24 67.82 66.79 66.36 65.82 65.66 67.56 68.39 70.76 72.04 72.08 71.95 71.58 71.31 71.31 71.94 72.40 72.79 73.49 73.74 75.07 76.04 77.31 77.43 77.92 78.06 77.00 76.70 76.75 76.23 76.32 76.61 77.27 77.39 76.44 76.17 76.24 76.87 76.29 75.54 75.93 76.09 76.49 75.93 75.76 75.68 74.74
64.89 66.09 66.20 66.07 64.45 64.67 63.53 64.97 65.58 69.43 71.68 71.09 71.26 71.38 72.01 71.90 72.23 72.26 72.08 72.04 73.11 73.87 74.54 76.22 77.14 77.87 77.92 78.60 78.39 78.33 77.22 77.51 76.81 76.34 76.64 77.86 77.29 76.31 75.93 76.49 75.58 75.60 75.90 76.81 76.11 77.37 75.79 75.38 75.15
66.57 63.94 65.71 64.84 65.80 63.35 63.99 62.00 64.29 70.25 71.49 70.27 70.54 71.53 72.08 72.70 73.35 73.28 74.01 73.89 74.83 75.20 75.74 76.04 77.02 77.59 77.23 77.35 78.13 77.82 77.22 76.67 76.27 76.23 77.42 77.63 78.31 77.21 77.62 75.66 75.26 76.20 76.02 75.98 75.81 76.16 75.86 75.25 75.08
62.09 62.38 59.11 63.80 65.36 64.52 66.04 58.75 65.64 69.39 69.64 69.05 70.03 70.97 71.52 72.47 73.22 74.21 74.91 75.44 76.08 76.19 76.68 77.50 77.56 77.31 77.15 77.67 78.50 77.51 77.20 76.87 76.12 75.75 75.93 76.83 77.58 77.49 77.35 74.44 74.84 75.79 76.03 74.96 74.62 76.19 74.23 74.60 74.20
60.05 55.48 56.66 60.36 65.82 64.30 63.98 60.42 65.64 68.37 67.83 67.86 69.30 70.36 71.06 72.04 73.18 74.41 75.00 75.93 76.21 76.22 76.92 77.60 77.98 77.40 77.31 77.92 77.94 77.53 77.81 76.80 76.70 76.48 77.53 77.52 77.54 77.43 77.16 76.53 74.27 75.88 74.42 74.11 73.71 74.05 74.40 74.90 74.67
53.70 54.75 56.73 57.08 62.44 63.78 61.59 62.59 64.69 66.98 66.60 66.67 68.40 69.35 70.30 70.73 71.77 74.07 74.96 75.59 76.55 77.30 77.84 77.85 77.56 78.04 78.50 77.95 78.31 79.42 79.05 80.04 79.94 79.10 77.06 77.64 77.37 77.01 77.01 75.73 75.68 75.82 74.20 73.40 73.42 74.56 74.56 73.93 73.41
55.14 54.50 55.59 58.05 61.48 61.40 61.07 63.24 63.55 65.60 66.24 65.76 66.26 68.52 69.31 70.17 72.28 73.76 74.85 75.71 75.89 76.42 76.81 77.40 77.36 77.83 77.64 76.90 76.46 76.07 75.51 76.48 76.99 76.96 77.67 77.70 77.65 77.42 77.40 77.37 76.12 77.31 75.89 75.03 75.32 74.84 73.34 72.60 73.69
54.40 53.47 54.07 58.65 61.48 61.87 62.80 62.60 65.03 65.52 64.45 66.16 66.27 67.83 68.79 70.27 71.41 73.17 74.22 75.04 75.49 75.92 76.63 77.16 77.57 78.33 78.25 77.49 78.47 77.27 76.38 75.86 76.03 77.30 77.07 76.41 75.91 76.10 75.39 75.40 74.45 74.89 73.86 74.41 74.48 74.86 72.92 71.92 74.01
54.78 53.72 54.17 55.65 61.24 62.60 62.54 61.06 63.84 65.94 66.92 67.11 68.23 69.02 70.11 70.29 70.78 72.14 72.94 74.11 75.09 75.36 76.30 76.82 77.64 77.89 78.36 77.81 77.05 75.10 73.77 74.40 72.38 73.34 72.75 74.76 74.78 74.52 74.45 74.34 74.21 74.23 73.70 72.52 73.69 73.56 72.59 71.00 72.08
53.37 56.81 55.83 56.01 58.97 53.99 61.93 52.20 62.38 64.63 65.29 66.52 67.16 68.91 69.65 70.70 71.66 72.19 72.52 73.60 74.17 75.14 76.68 78.43 78.76 78.25 76.57 74.89 73.65 72.68 69.44 68.78 70.51 71.08 71.50 72.67 73.02 73.13 73.39 73.54 73.54 74.02 73.15 72.70 72.63 72.47 72.27 72.51 70.53
55.08 59.13 58.31 58.35 58.69 58.18 59.50 55.51 57.42 64.14 63.16 64.92 66.92 67.88 68.91 70.53 71.55 71.61 71.71 72.91 74.15 75.97 76.66 76.77 76.12 74.98 74.08 73.59 72.53 69.81 70.01 69.74 70.30 69.86 70.56 71.77 72.06 72.40 72.30 73.10 72.48 72.81 72.17 72.61 71.92 71.55 72.15 72.52 71.38
60.49 59.98 59.26 59.16 56.44 51.41 54.29 54.94 53.11 57.64 62.23 64.24 66.98 68.41 69.23 69.99 71.16 72.42 72.71 73.67 74.61 75.20 74.53 73.32 73.63 73.47 73.20 71.15 70.75 70.60 69.78 69.34 68.32 69.13 68.72 68.63 69.44 70.43 71.89 71.20 71.31 71.57 71.38 71.33 71.25 71.92 71.73 72.61 72.64
58.13 55.39 49.62 48.45 48.44 47.91 54.96 53.33 54.25 57.92 63.24 64.60 65.62 68.19 69.66 70.06 70.51 71.38 72.51 73.05 73.30 73.44 72.12 71.56 72.56 72.40 72.71 69.63 69.28 69.18 69.18 69.39 69.46 69.24 67.50 68.59 67.83 68.10 68.85 69.67 69.46 69.22 70.45 70.54 70.86 71.48 71.09 70.58 71.10
55.02 54.00 49.82 44.46 45.61 47.95 54.78 49.45 54.55 61.76 63.70 64.60 66.71 68.64 69.79 69.60 70.08 71.06 72.79 72.67 72.95 72.34 71.50 71.15 71.99 71.77 70.84 69.76 70.13 70.80 70.28 68.42 68.56 69.11 68.59 67.56 67.22 67.57 69.09 69.08 69.20 69.35 69.48 69.70 69.82 69.42 69.48 70.55 71.20
54.69 52.35 55.13 50.20 51.24 48.03 50.70 54.62 58.97 62.13 62.46 63.49 65.78 67.64 69.08 68.46 69.45 70.72 72.19 72.48 72.25 71.03 71.18 71.43 71.81 71.43 70.46 69.60 71.04 70.92 70.86 70.40 69.26 69.97 70.19 68.31 69.15 67.81 67.76 68.62 68.75 68.91 69.13 69.65 69.57 68.43 68.67 68.72 69.63
56.85 57.51 51.16 51.78 46.12 45.11 48.90 49.58 53.05 56.81 58.47 62.71 63.81 66.44 69.15 68.39 69.25 70.60 71.35 71.60 71.06 70.64 71.22 71.38 71.71 71.06 70.53 70.16 70.31 69.04 69.22 69.74 69.57 69.44 69.02 69.08 69.40 69.28 68.86 68.71 68.60 68.54 68.74 68.64 69.09 68.90 68.74 68.55 68.32
54.39 53.88 55.05 54.35 52.39 47.71 46.60 50.48 58.00 57.22 58.91 60.25 64.51 66.93 68.93 67.99 68.05 69.87 71.29 71.86 70.27 70.54 70.47 70.59 70.61 70.29 69.82 70.19 69.79 69.32 68.91 68.79 68.62 68.20 69.06 69.33 69.59 69.40 68.94 69.16 69.00 68.67 68.56 68.58 68.05 67.77 67.01 66.60 66.76
57.04 55.30 55.65 51.31 51.75 51.96 50.66 49.95 59.34 59.18 59.95 61.14 62.70 67.10 68.91 69.77 67.54 67.92 70.86 71.23 69.42 69.71 69.12 69.20 69.49 69.15 69.18 69.13 68.90 68.58 68.94 69.05 68.35 68.09 68.52 69.09 68.63 69.40 69.05 69.11 69.24 68.76 68.56 68.62 68.11 67.00 66.71 66.02 65.25

GFSSGP_sfc_wetblb_003.txt.gz
Wetbulb
76.25 77.86 76.90 74.16 61.91 60.04 56.80 58.33 62.43 61.95 63.21 66.67 67.89 66.63 66.54 67.54 64.26 61.95 73.59 74.21 74.99 74.69 76.23 76.70 78.73 78.32 78.38 78.78 78.83 78.62 78.80 78.53 78.75 79.27 78.73 78.50 77.57 77.64 77.96 78.13 77.95 78.23 77.63 77.77 77.74 77.49 77.46 77.54 77.67
77.88 75.93 75.56 70.88 58.39 54.75 55.62 59.97 59.93 63.11 66.51 67.75 67.23 67.82 67.06 65.64 70.50 71.88 72.55 75.48 76.18 75.45 76.18 76.83 78.54 78.82 78.11 78.72 78.72 79.18 78.90 78.66 78.79 79.22 78.68 78.40 77.47 77.82 78.26 78.04 78.29 78.20 77.90 77.66 77.43 77.54 77.38 76.80 76.52
77.13 76.01 71.26 60.89 57.60 55.17 56.29 61.37 62.91 64.57 65.03 66.35 65.51 68.33 67.99 67.42 71.21 73.04 75.70 76.41 76.29 76.01 77.70 78.12 78.39 79.11 78.47 78.68 78.54 79.42 79.25 78.57 78.47 78.94 78.64 78.11 77.47 77.26 78.01 77.93 77.82 77.82 77.63 77.49 77.38 77.19 76.77 76.04 75.79
75.65 74.43 66.73 58.75 55.99 58.81 60.64 63.05 63.28 62.90 64.59 66.35 66.83 65.59 70.33 72.74 72.71 74.90 76.55 76.77 76.94 76.64 77.55 78.36 78.61 78.92 79.02 78.79 78.60 78.28 79.14 78.55 78.47 78.40 77.86 77.77 77.21 77.74 77.66 77.58 77.55 77.58 77.44 77.35 77.05 76.74 76.52 76.04 75.88
75.59 71.10 59.67 58.95 57.19 60.67 62.83 63.30 63.37 62.66 63.62 64.27 66.67 65.60 67.68 72.65 75.26 76.25 76.40 76.66 75.80 76.66 77.24 78.02 79.29 79.47 79.33 78.72 78.56 78.40 79.21 78.54 78.56 77.86 77.53 77.66 77.94 77.69 77.41 77.27 77.16 77.05 76.91 76.65 76.54 76.26 76.13 75.76 75.91
69.70 65.55 57.82 56.24 58.29 62.48 63.29 63.80 64.14 64.09 64.56 65.37 65.83 67.06 68.32 73.67 73.95 75.69 76.58 76.44 77.23 76.40 77.22 77.73 78.70 79.39 79.55 78.57 78.74 78.55 78.54 78.22 78.16 77.81 77.63 77.63 77.69 77.44 77.08 76.80 76.85 76.57 76.22 75.84 76.05 76.04 75.60 75.68 75.96
65.49 60.38 57.55 57.89 59.39 61.04 63.19 64.81 63.60 64.03 64.47 64.97 68.02 65.63 69.23 71.65 73.87 74.77 76.25 75.20 75.65 76.32 77.41 77.79 77.99 78.15 78.50 78.83 79.05 79.15 78.97 78.24 77.90 77.74 77.57 77.52 77.74 77.38 77.08 76.71 76.43 76.00 75.85 75.76 75.87 75.95 75.49 75.82 75.96
66.73 62.55 56.71 59.08 58.08 59.75 64.68 64.77 65.92 65.71 64.99 69.13 69.50 64.21 66.42 71.34 73.94 74.49 75.86 75.19 76.41 76.82 77.02 78.20 78.18 78.24 78.38 78.11 77.92 78.53 78.56 78.25 77.82 77.69 77.58 77.68 77.46 77.61 77.33 77.55 77.16 76.15 75.99 76.58 76.82 76.85 76.57 76.04 76.02
67.31 59.30 56.10 58.25 58.74 61.58 65.51 65.24 68.47 70.03 67.64 68.29 69.16 68.47 71.25 72.85 73.78 73.46 74.09 75.02 75.03 76.20 76.52 76.98 76.42 77.17 79.08 78.37 78.43 78.51 78.45 78.06 77.74 77.52 77.27 77.39 76.41 76.98 77.63 78.55 76.54 76.26 76.48 76.62 76.79 76.80 76.63 76.93 76.82
62.49 58.60 57.73 61.70 62.56 62.69 65.14 66.08 67.44 68.61 68.94 67.83 69.11 70.87 72.10 72.57 72.36 71.73 71.70 73.36 73.48 74.53 75.72 75.72 76.46 76.75 77.93 77.27 78.18 78.18 77.36 76.84 76.76 76.78 78.30 76.76 78.51 79.00 77.19 77.57 77.16 77.21 77.13 77.33 77.10 77.24 76.96 76.07 75.29
61.60 57.68 61.05 62.00 64.06 65.06 64.41 64.11 65.85 64.79 67.03 68.19 68.13 69.16 70.89 71.58 71.79 71.34 71.77 72.54 73.11 74.60 75.05 75.61 77.19 77.49 77.19 78.37 77.11 77.08 76.94 76.41 76.90 78.18 78.85 78.08 76.41 77.87 76.27 75.21 77.71 76.48 76.69 76.20 76.49 76.74 76.50 75.68 74.16
59.99 61.90 63.44 63.31 63.98 64.63 63.19 65.92 65.90 68.95 69.19 71.23 70.39 70.52 70.90 70.78 71.03 71.11 71.38 72.30 73.57 74.36 74.80 76.06 77.31 78.11 77.68 77.29 76.11 76.14 75.66 76.04 75.88 76.24 78.59 77.61 75.61 77.72 76.65 75.90 76.13 77.03 75.45 75.63 75.79 74.76 75.64 74.96 75.10
61.98 62.79 63.83 64.07 64.76 64.15 64.89 65.44 67.61 68.36 70.40 71.28 71.24 70.74 70.25 70.56 70.87 71.88 72.29 72.85 73.73 73.91 74.72 75.92 77.45 77.96 78.18 78.44 76.47 76.95 75.93 75.42 75.53 75.97 77.34 76.63 77.29 76.82 76.17 76.56 75.42 75.86 75.06 75.65 75.87 75.93 74.50 75.41 74.86
63.42 63.62 63.14 64.07 63.50 64.15 64.22 64.90 68.22 69.25 70.83 70.38 70.61 70.68 71.11 70.94 71.12 71.57 71.83 72.05 72.85 73.91 74.52 75.78 76.72 77.92 78.61 78.27 78.63 77.53 75.74 77.46 76.81 76.95 76.52 77.80 76.11 78.44 75.63 76.70 75.39 76.41 75.65 76.16 75.64 76.82 75.33 75.30 74.76
63.37 61.20 62.35 62.92 63.70 62.31 63.73 61.79 65.03 70.30 70.67 69.92 70.56 71.40 71.94 72.35 72.85 71.99 72.05 71.99 73.11 73.91 74.50 75.78 77.10 77.96 78.07 78.38 78.98 79.06 76.55 75.55 76.08 75.77 78.09 76.50 77.47 77.59 77.81 75.65 74.93 75.23 75.87 76.71 75.93 75.62 76.25 74.28 74.31
60.56 60.82 58.15 62.47 63.01 64.14 59.70 59.26 66.05 69.87 69.90 69.36 70.38 71.28 71.71 72.70 73.06 74.02 74.00 73.75 74.28 74.76 75.61 76.61 75.93 77.44 77.62 77.92 78.32 77.87 77.05 76.20 76.63 75.50 75.63 76.37 77.21 79.17 78.36 74.54 73.70 75.08 75.48 75.42 75.33 74.80 73.98 73.92 73.94
59.33 55.92 56.96 59.34 63.01 63.45 59.18 60.69 65.82 68.03 68.03 68.33 69.53 69.97 70.46 71.20 72.35 73.80 74.65 74.37 75.74 76.30 76.87 76.85 77.22 77.01 78.12 78.45 78.32 78.03 79.37 76.61 76.41 77.27 77.35 78.14 77.81 77.26 77.77 75.28 74.51 76.07 74.63 74.10 73.89 73.86 73.43 73.33 73.26
55.47 56.17 57.59 57.81 60.85 61.14 59.92 60.29 65.27 66.64 66.06 67.18 68.23 69.04 69.45 70.17 71.44 72.99 74.21 75.26 75.81 76.36 77.23 77.37 77.16 78.23 78.30 79.73 78.68 78.27 79.43 76.90 77.31 77.22 76.88 78.66 78.84 77.71 78.28 77.69 76.48 77.02 76.12 75.62 74.79 75.21 74.36 72.94 72.81
57.88 56.15 56.54 57.83 61.11 60.30 59.81 61.09 64.06 66.29 65.81 65.56 67.03 68.44 68.56 69.31 71.45 72.92 73.86 75.07 75.59 76.43 77.22 77.53 77.71 78.98 78.51 78.38 77.29 78.85 75.45 77.49 76.69 79.21 77.87 77.60 77.52 77.57 77.42 76.91 76.38 76.80 74.82 75.74 75.51 74.46 74.55 73.13 74.01
55.23 54.95 55.91 58.43 60.36 59.70 59.27 61.28 63.25 64.94 65.58 65.80 66.00 67.15 67.71 68.71 70.06 72.21 73.53 74.45 74.87 75.59 76.67 77.53 78.03 78.89 78.86 77.99 78.72 78.03 76.61 75.28 75.06 76.05 76.98 77.23 75.85 76.94 75.55 75.75 74.70 76.24 72.69 75.65 74.24 74.14 71.67 71.98 72.59
54.91 53.98 54.35 55.26 58.28 59.57 59.52 58.91 62.16 63.79 65.34 66.18 66.21 67.14 67.86 68.36 68.63 70.64 72.38 73.29 74.04 75.30 76.48 77.34 78.32 78.79 79.33 78.94 78.74 76.84 76.08 75.43 72.99 72.86 73.11 74.25 74.11 73.89 74.75 74.62 74.24 74.37 74.19 70.73 73.49 73.13 72.46 70.27 72.56
53.02 56.24 55.64 54.85 55.97 53.29 58.57 51.95 60.44 63.61 62.65 63.67 65.45 66.24 66.89 67.98 68.65 69.24 70.29 71.60 72.59 74.46 76.42 77.75 78.51 79.22 78.06 76.37 74.86 74.47 70.72 68.68 71.01 70.68 71.07 72.09 72.54 72.84 73.22 73.49 73.21 73.63 72.91 73.14 72.58 72.18 72.07 71.75 69.64
55.34 57.53 55.72 55.38 55.02 55.45 55.68 54.23 58.84 59.49 62.52 63.39 64.03 66.06 67.68 68.71 69.01 69.13 68.84 71.04 72.49 74.34 75.50 77.28 78.15 76.50 75.52 74.34 73.41 70.39 71.13 68.53 68.86 69.35 70.64 73.08 73.60 72.48 72.06 72.80 72.76 72.44 71.86 73.08 72.19 71.88 72.39 72.49 71.02
59.34 57.55 57.08 57.13 55.44 50.97 55.54 54.51 55.17 59.43 63.21 64.86 65.88 65.35 66.65 68.47 69.26 70.41 70.60 71.71 72.64 74.56 75.59 76.15 75.20 75.24 74.51 72.81 72.20 71.04 69.96 69.71 68.04 69.32 68.61 68.72 68.79 69.84 71.73 71.35 71.57 71.94 71.50 71.23 70.98 71.76 71.28 72.21 72.55
57.52 55.30 50.38 49.43 49.62 49.75 55.29 53.19 55.88 58.29 61.68 61.49 64.83 66.47 67.05 68.08 68.90 70.05 70.55 71.61 73.23 73.67 74.58 73.55 74.09 73.69 73.71 71.74 70.26 69.25 69.92 70.37 70.16 70.14 68.36 69.10 67.86 68.14 70.08 70.61 70.57 69.88 70.93 70.65 71.63 71.76 70.72 70.47 70.03
55.41 55.07 50.86 46.45 47.51 49.85 54.99 50.77 53.60 58.10 61.79 63.97 65.22 66.58 68.13 68.87 69.47 69.96 71.37 72.32 73.35 73.43 73.46 72.22 73.27 73.46 72.97 71.03 71.51 71.78 71.26 68.81 68.81 69.66 69.10 68.12 67.97 68.01 70.28 69.99 69.99 70.09 70.12 70.08 71.12 69.75 69.35 71.13 69.99
55.23 52.61 56.38 51.92 52.73 50.28 52.28 55.10 57.61 61.22 60.56 62.36 63.44 65.29 67.86 68.93 69.94 70.03 71.28 73.14 72.97 73.25 72.68 72.00 73.34 73.53 72.20 70.96 72.73 72.12 71.61 71.07 70.23 70.84 70.70 68.83 70.21 69.00 69.23 69.55 69.63 70.11 69.93 69.80 70.57 68.35 69.21 69.32 70.32
57.20 57.48 51.69 52.35 47.10 46.83 50.48 51.18 52.41 57.85 58.48 60.27 61.71 63.65 66.52 69.56 70.47 70.26 70.83 73.09 72.95 73.29 71.87 71.63 72.36 72.44 71.97 71.42 71.66 69.82 69.46 70.39 70.76 70.41 69.96 70.10 70.20 70.24 69.77 69.39 69.37 69.59 69.79 70.60 70.84 69.58 69.85 69.50 67.45
54.65 54.37 55.64 55.07 53.79 49.35 48.03 51.32 58.60 57.80 59.02 59.13 60.92 62.82 66.21 68.83 70.54 69.92 70.98 72.48 72.96 72.60 71.15 70.07 71.12 71.38 71.35 71.26 71.14 70.03 69.54 69.64 69.99 69.21 69.21 69.86 70.48 70.43 69.82 69.46 69.03 69.26 69.27 69.70 70.03 69.15 68.67 67.53 68.25
56.86 55.25 55.54 51.68 51.92 53.12 52.07 51.54 59.10 59.01 59.65 60.43 61.31 63.07 66.16 70.16 71.25 70.55 71.19 71.88 71.95 70.94 70.58 69.42 69.47 69.94 70.46 70.68 70.56 69.55 69.78 69.68 69.04 69.03 69.00 69.73 69.31 70.02 69.59 69.35 69.29 68.92 68.94 70.00 68.62 67.81 67.74 67.13 65.90

GFSSGP_sfc_wetblb_006.txt.gz
Wetbulb
75.70 76.39 77.02 73.48 63.94 59.39 54.98 56.55 61.99 60.79 62.27 65.77 67.05 65.30 61.19 64.19 63.23 59.36 72.21 74.15 74.89 74.24 75.01 76.68 78.80 78.80 78.34 78.30 78.31 78.58 78.36 78.98 79.06 78.84 78.75 78.52 78.67 79.19 78.99 78.90 78.94 78.91 78.46 78.01 77.76 77.59 77.57 77.42 77.15
74.84 76.81 74.67 70.53 57.97 52.69 54.34 60.11 59.32 61.83 64.05 67.00 67.52 67.71 66.62 64.32 69.22 70.09 71.52 74.35 74.94 74.64 75.24 75.77 78.65 78.90 78.80 78.45 78.36 78.55 78.70 78.90 78.88 78.99 78.62 78.66 78.78 78.92 78.89 78.79 78.35 78.21 78.19 77.60 77.60 77.29 76.91 76.54 76.18
73.44 75.92 69.81 62.99 57.58 53.83 54.80 59.97 61.08 62.98 65.23 65.56 65.56 68.46 67.49 66.81 70.66 71.46 73.89 75.04 75.66 75.93 76.54 77.30 78.99 78.88 78.66 78.79 79.20 79.15 79.07 79.09 79.09 78.97 78.74 78.65 78.42 77.52 77.83 77.70 77.72 77.73 77.78 77.54 77.24 76.77 76.49 75.96 75.64
74.80 71.61 70.32 57.29 54.97 58.06 58.35 60.35 61.97 63.04 64.73 66.88 66.94 64.49 69.58 72.77 71.85 73.69 74.82 75.59 75.85 76.19 76.44 78.16 79.03 78.92 79.10 78.93 79.03 79.29 79.13 79.05 79.21 78.84 78.77 78.35 78.11 77.90 77.66 77.74 77.71 77.40 77.29 77.21 77.02 76.52 76.07 75.68 75.45
74.13 68.32 59.95 57.10 57.25 59.52 60.88 61.46 62.54 61.87 63.06 64.97 66.91 64.56 66.90 72.98 74.99 75.30 75.48 75.72 75.12 75.59 76.39 77.51 79.72 79.86 79.44 79.34 79.43 79.35 79.18 78.97 78.74 78.46 77.91 78.50 78.37 77.74 77.74 77.58 77.41 77.05 76.90 76.54 76.25 75.94 75.49 75.43 75.71
65.54 67.12 57.59 55.87 57.41 60.39 60.34 62.00 62.65 62.66 64.47 65.39 65.59 65.79 67.11 73.48 73.40 74.91 76.06 75.89 76.10 75.43 76.19 76.75 78.98 79.23 79.07 79.13 78.80 79.34 78.92 78.68 78.57 78.51 78.55 78.45 77.82 77.55 77.24 76.93 76.82 76.56 75.91 75.56 75.62 75.44 75.17 75.23 75.57
62.72 61.71 58.09 57.97 57.85 57.06 59.42 62.75 62.12 62.74 63.71 65.34 67.74 64.28 67.90 70.89 73.12 75.45 75.90 75.76 76.44 76.47 76.54 77.15 76.89 78.07 78.90 79.37 78.85 78.94 79.06 78.61 78.20 78.33 78.15 77.79 77.63 77.38 77.27 76.93 76.54 75.63 75.50 75.49 75.82 76.15 75.85 76.27 76.54
65.72 63.96 57.49 58.65 59.05 57.38 61.79 62.51 64.26 64.29 64.05 68.90 69.25 63.76 64.76 70.05 73.72 74.41 75.18 74.69 75.49 76.24 76.74 77.37 77.45 77.36 77.74 77.57 79.32 78.83 79.04 78.70 78.27 77.62 77.24 77.35 77.66 77.69 77.21 76.76 77.31 76.36 75.90 75.98 76.56 76.80 76.96 77.28 77.57
68.61 59.37 57.04 57.38 58.80 61.08 65.00 63.45 65.65 67.07 66.27 67.69 69.04 68.14 70.12 71.58 73.32 73.12 73.62 74.31 74.87 74.95 75.94 75.88 76.77 77.85 78.59 77.62 77.26 78.94 78.44 78.60 77.90 77.41 77.55 77.77 76.06 75.45 70.80 69.59 73.98 77.40 76.79 76.65 77.04 77.41 77.83 77.74 77.73
61.30 57.76 58.31 61.03 62.17 61.29 60.66 63.35 65.54 65.75 66.09 66.11 66.24 69.85 71.08 71.49 71.42 72.10 70.99 71.39 72.87 73.88 74.92 76.03 76.38 77.11 77.68 76.14 77.47 78.02 77.53 76.83 76.96 76.99 77.76 76.93 77.05 76.95 74.49 70.78 74.35 77.32 77.24 77.91 77.60 77.48 78.05 76.29 74.61
60.87 57.47 60.40 62.70 64.26 64.56 61.46 65.17 65.36 64.45 63.94 66.32 65.53 67.92 69.66 70.30 70.61 70.39 72.11 71.89 73.57 74.54 74.79 75.31 77.58 78.51 77.67 76.14 77.19 77.52 77.21 76.69 76.91 78.69 79.09 79.22 79.00 73.32 77.22 73.84 74.69 77.60 78.32 76.12 77.48 76.73 76.08 74.93 74.55
59.09 62.63 62.08 62.11 64.65 63.18 62.70 66.19 63.02 63.45 63.51 69.52 68.56 69.49 69.70 69.47 69.60 69.89 70.43 71.05 73.16 73.75 74.90 75.63 75.71 77.05 77.66 75.54 77.01 77.02 76.73 76.97 74.02 76.99 79.06 79.25 77.24 78.63 78.10 76.90 77.54 77.64 75.54 77.38 76.90 75.49 76.70 75.76 76.12
60.63 61.80 62.37 64.17 64.16 63.78 65.36 65.05 64.98 62.53 68.41 69.17 68.93 69.53 69.31 69.51 69.84 70.62 71.16 71.79 73.47 73.35 74.59 76.43 76.96 77.67 79.70 76.65 79.23 75.29 75.34 75.14 76.76 77.29 77.49 77.60 77.99 77.77 77.48 77.84 77.07 76.88 76.94 75.32 76.27 76.82 75.79 75.31 75.40
62.47 62.30 61.74 63.11 62.30 64.04 63.46 64.84 66.09 67.61 69.30 68.39 68.50 68.54 69.22 69.67 70.25 70.71 70.95 71.68 72.61 73.87 74.24 76.04 76.93 78.89 79.43 79.51 79.90 80.16 76.34 75.10 78.71 77.57 75.71 77.95 76.34 77.36 77.07 75.96 76.39 77.34 75.40 77.44 76.22 76.54 75.61 74.99 75.10
62.56 59.77 61.37 61.31 62.98 62.72 63.62 62.31 63.79 68.14 69.21 68.20 68.57 69.30 69.58 70.08 70.71 70.54 71.21 71.94 73.27 73.38 74.44 76.10 76.38 78.17 78.63 78.87 79.93 80.02 78.15 75.97 77.58 76.14 78.11 78.29 77.84 78.52 77.89 76.65 75.55 75.58 77.30 77.69 76.84 76.01 75.20 74.70 74.27
59.80 60.11 56.35 61.49 62.99 62.26 63.03 58.93 65.62 68.24 68.46 68.06 68.80 69.45 69.88 70.69 71.19 71.74 71.82 72.49 72.90 73.86 74.89 74.88 74.74 76.96 78.11 78.66 78.78 78.33 77.51 77.00 78.33 78.39 76.38 77.41 78.33 78.78 77.11 76.03 75.01 75.95 76.57 75.25 75.86 75.33 73.77 73.96 73.40
58.50 54.86 56.66 59.02 62.68 61.40 61.45 60.08 65.65 67.98 67.28 66.71 68.32 68.72 69.79 70.31 71.98 72.73 73.37 73.71 74.89 75.85 76.41 75.36 76.16 77.00 78.08 78.43 79.02 78.27 79.15 78.04 79.08 77.02 78.09 76.96 79.29 78.50 77.36 75.99 76.22 76.80 74.91 74.39 73.97 73.66 73.88 72.31 71.72
54.69 55.62 57.60 57.75 60.82 62.17 60.47 60.55 64.40 65.94 66.15 66.13 67.15 67.69 68.50 69.17 69.72 72.92 73.79 73.76 74.72 75.56 75.23 76.24 76.36 79.38 77.76 78.55 79.63 79.27 78.81 77.37 77.99 78.30 77.29 78.09 78.73 78.06 77.01 76.39 75.63 75.39 74.72 74.03 73.56 72.81 73.04 72.66 72.60
58.42 56.92 56.81 58.82 62.10 61.26 60.14 60.47 62.85 64.17 65.15 65.76 66.48 66.90 67.30 67.83 71.39 72.62 74.06 74.83 75.11 75.49 77.38 75.77 76.52 80.70 79.90 78.05 76.46 77.40 75.82 77.84 77.22 78.27 78.47 78.43 78.65 77.42 77.25 76.51 76.09 75.59 73.88 74.33 74.44 73.82 72.61 71.22 73.12
56.62 55.44 55.44 58.67 60.71 60.41 60.61 60.00 63.04 63.63 63.97 65.67 66.53 66.89 67.23 68.33 69.04 70.78 72.10 72.43 73.38 76.02 77.10 78.23 78.84 79.43 79.48 79.60 79.14 78.41 78.27 77.69 77.30 76.78 77.93 77.80 76.29 75.87 77.19 77.17 74.97 73.96 73.03 73.12 73.47 73.59 71.25 71.04 71.33
55.50 53.84 54.35 56.22 58.70 59.25 58.22 58.57 58.48 63.24 64.52 65.24 66.20 67.65 67.86 67.96 68.15 70.24 71.48 72.25 73.53 74.92 76.35 77.65 78.72 78.79 79.63 79.85 80.08 78.66 77.88 77.88 75.64 76.35 73.09 74.16 74.12 74.84 75.97 75.77 75.10 74.59 73.96 71.01 71.78 72.20 70.28 68.64 71.07
52.46 55.92 55.33 54.81 55.21 51.85 58.33 50.74 58.10 60.89 61.62 63.65 64.40 65.57 66.64 67.56 69.00 69.76 70.94 72.18 73.08 74.77 76.61 77.92 79.04 79.68 79.51 79.63 78.53 76.87 74.09 70.78 74.64 74.71 73.55 73.07 74.58 74.30 74.13 74.45 74.44 74.35 73.04 72.01 72.11 71.27 70.85 70.92 68.24
53.71 56.60 55.15 54.93 53.49 53.16 53.81 52.33 57.03 61.49 59.70 61.22 63.46 64.82 65.95 67.27 68.06 68.69 69.71 71.41 72.65 74.75 75.37 77.41 79.22 79.11 78.10 77.47 76.35 74.29 73.91 71.25 71.99 72.15 72.99 74.22 73.40 74.17 73.23 74.74 73.97 72.71 72.14 71.69 71.50 71.29 70.75 70.13 69.29
56.97 57.12 55.85 54.82 53.31 49.39 52.79 53.79 54.13 57.66 62.12 61.68 63.22 64.54 66.07 66.90 68.12 69.00 70.35 71.52 71.89 74.04 75.01 76.96 77.40 77.12 77.00 75.85 75.13 74.08 73.25 72.60 71.07 71.67 71.02 70.50 71.64 71.83 73.53 72.14 72.79 72.89 71.84 71.32 70.43 71.45 70.70 70.15 69.69
56.35 54.80 50.01 48.49 48.44 47.94 54.36 52.93 56.97 60.90 62.16 63.89 63.48 63.85 66.01 67.48 68.55 69.42 69.30 70.12 71.69 73.00 74.74 76.11 75.57 75.12 75.45 74.55 73.96 72.88 72.54 73.72 73.18 72.13 71.54 72.10 69.94 71.30 71.78 73.05 73.19 71.26 71.54 71.37 71.09 70.28 69.80 69.33 68.50
54.55 54.44 50.18 46.57 47.12 49.33 55.36 51.80 56.20 60.99 64.30 65.92 67.17 67.23 66.51 66.58 68.92 69.60 71.07 70.90 72.32 73.52 75.18 74.54 74.37 74.02 74.24 74.02 74.13 73.49 74.49 72.60 72.35 73.65 71.54 70.60 70.18 70.91 73.05 72.24 72.44 71.66 71.71 71.36 71.34 69.82 69.52 69.90 69.33
54.72 52.59 55.86 52.02 52.58 49.55 52.11 55.46 57.99 59.55 59.39 59.56 61.60 61.97 65.54 65.89 67.70 69.46 71.25 71.13 72.98 73.40 74.29 74.35 74.07 74.35 73.93 73.03 74.71 74.21 74.29 73.71 73.19 73.92 73.71 71.07 73.56 70.07 70.63 71.53 71.39 71.50 71.20 70.77 71.14 69.14 68.74 69.52 68.85
56.16 57.35 51.29 52.04 48.03 46.62 50.07 51.56 52.41 58.72 58.51 59.66 59.59 60.60 63.75 67.52 67.94 68.98 70.09 71.59 73.54 73.88 74.26 74.00 74.44 74.21 73.27 73.22 73.17 72.88 73.20 73.24 73.47 73.34 72.41 72.49 72.52 72.62 71.79 71.27 70.82 70.64 70.64 71.01 70.09 69.12 68.35 68.04 67.67
54.45 53.63 54.34 53.75 52.41 48.37 47.36 49.90 59.41 60.94 60.82 59.22 60.27 61.78 62.54 64.19 67.80 70.35 70.89 72.47 73.92 73.49 73.49 72.35 72.97 73.39 72.35 72.61 73.33 73.44 71.79 71.84 72.59 71.78 71.62 72.07 73.13 73.00 72.01 71.29 70.44 69.76 69.22 70.11 69.35 69.43 68.20 66.55 67.84
56.19 55.05 55.68 51.34 51.95 53.47 52.92 50.91 59.62 59.88 59.58 59.95 61.02 61.52 64.03 66.16 68.06 71.40 71.31 72.93 73.16 72.94 72.53 71.35 70.93 71.49 71.79 72.18 73.25 72.55 72.23 72.24 72.37 71.77 71.62 72.55 72.02 72.44 71.62 71.00 70.18 68.88 68.94 69.08 68.04 67.63 67.77 67.02 66.27

GFSSGP_sfc_wetblb_009.txt.gz
Wetbulb
75.82 75.54 74.71 70.92 62.33 58.38 53.08 56.77 61.57 59.75 60.43 64.48 65.35 62.45 63.11 65.22 61.82 56.86 70.95 72.46 73.54 74.12 75.99 76.52 78.34 78.49 78.63 78.75 78.22 78.10 78.14 78.78 78.91 78.93 79.32 79.41 79.32 79.23 79.30 79.23 79.08 78.84 78.85 77.86 77.63 77.63 77.60 77.21 77.16
73.65 73.17 72.48 67.44 57.30 49.88 50.74 57.51 56.91 62.25 64.50 66.10 65.61 66.17 65.04 62.64 68.01 68.89 69.98 72.87 73.70 74.27 75.47 76.43 78.07 78.37 78.42 78.49 78.43 78.88 78.80 78.94 78.96 78.98 79.05 79.20 79.26 79.10 79.10 78.14 78.05 78.69 78.19 77.44 77.33 77.23 76.92 76.67 76.48
73.43 73.00 67.03 63.58 52.40 50.61 50.86 57.62 60.02 64.62 66.10 66.17 65.31 67.81 66.16 64.58 69.31 70.06 72.41 73.68 73.90 73.84 75.94 76.80 78.93 78.66 78.87 78.57 78.78 79.52 78.99 79.30 78.90 78.97 79.17 78.96 78.76 78.21 77.82 77.84 77.65 77.68 78.09 77.27 77.09 76.84 76.76 76.51 76.21
67.34 67.80 67.16 55.29 51.03 55.14 56.45 59.84 62.46 63.59 65.39 67.21 67.65 64.61 68.78 71.22 70.37 72.22 74.86 75.20 74.16 74.60 76.28 78.53 79.30 79.49 79.40 79.46 79.46 79.50 79.39 79.10 79.02 79.01 78.68 78.61 78.41 78.00 77.61 77.61 77.36 77.33 77.25 77.09 76.90 76.62 76.43 76.10 76.15
70.94 65.53 57.26 52.09 54.08 56.85 58.80 60.84 62.18 62.67 64.11 66.53 67.56 64.55 65.96 71.00 73.03 73.84 74.35 74.88 73.95 74.48 76.21 77.26 79.12 79.15 79.24 79.52 79.54 79.39 79.19 79.03 78.99 78.80 78.45 78.72 78.82 78.00 77.83 77.37 76.99 76.71 76.65 76.49 76.12 75.81 75.68 75.87 75.62
60.79 61.13 55.50 51.21 53.94 56.71 59.09 62.26 63.20 63.93 65.03 66.70 66.62 66.09 66.75 72.02 71.99 73.06 74.38 74.28 74.66 74.46 76.31 77.22 79.19 79.53 79.63 79.02 78.69 79.56 78.93 78.64 78.65 78.76 79.06 78.68 78.84 78.44 78.20 77.01 76.63 75.98 75.66 75.57 75.59 76.68 76.59 76.34 76.36
60.62 59.40 54.55 54.86 54.08 55.67 58.90 63.21 61.95 62.89 64.16 64.75 69.39 64.59 67.29 70.48 72.91 73.99 74.08 74.35 74.52 74.71 75.36 76.50 77.04 77.91 79.16 79.43 79.18 78.77 78.98 78.61 78.97 79.01 78.73 78.58 77.94 77.50 77.37 77.07 76.88 76.08 76.02 76.03 76.17 77.48 77.45 77.21 77.35
64.55 59.22 56.34 57.15 55.70 53.92 60.52 61.79 63.94 64.10 63.67 68.90 68.85 63.29 63.59 70.04 73.61 74.58 74.20 73.82 73.69 74.29 74.68 74.66 75.32 76.09 76.74 77.28 78.94 78.26 78.72 78.31 78.85 78.70 78.11 78.44 77.55 76.87 75.68 75.03 76.24 77.21 77.07 76.78 77.13 77.55 77.43 78.27 77.92
67.12 55.89 54.91 55.66 56.37 57.01 63.07 61.13 65.03 67.27 65.65 67.12 67.84 67.60 68.89 73.04 73.69 72.65 72.51 73.24 72.86 74.21 74.12 74.41 74.06 74.79 75.15 76.17 77.65 78.98 78.74 78.89 78.69 77.97 78.33 77.67 74.71 70.66 70.74 73.94 74.09 75.58 77.68 77.43 77.59 77.46 77.02 77.92 77.01
62.32 57.17 56.36 61.08 61.59 59.80 63.50 64.31 64.23 64.34 64.72 64.60 66.17 68.39 70.62 71.41 71.30 70.74 71.37 70.51 71.20 71.78 73.35 74.27 74.47 74.61 74.99 76.06 75.87 75.99 76.21 75.89 75.16 75.09 74.76 74.62 73.40 72.65 73.42 73.17 73.63 75.37 77.84 78.35 78.30 77.12 77.64 77.49 73.80
63.92 58.28 61.74 62.08 62.76 64.01 63.07 63.80 65.11 64.49 61.81 64.56 64.38 66.08 68.17 69.91 70.20 70.51 71.11 71.44 71.21 72.15 72.73 72.67 73.48 74.12 74.67 74.49 74.44 74.87 74.35 74.48 74.74 74.44 74.52 74.17 74.53 72.43 74.04 71.52 73.62 73.75 76.04 74.47 75.54 75.16 74.72 74.28 73.43
58.22 62.12 63.05 62.93 64.20 63.64 61.34 62.64 61.01 63.25 63.89 67.89 67.76 68.04 68.00 67.34 68.75 69.27 69.37 69.86 71.67 71.61 72.46 73.91 74.88 74.68 74.17 75.09 74.42 74.32 74.35 73.80 73.42 74.12 74.99 73.70 73.23 72.69 72.80 72.35 72.58 72.98 72.85 73.67 72.12 71.44 73.31 72.67 72.51
58.29 59.41 61.82 63.08 63.29 63.78 64.53 60.99 61.21 62.35 64.86 68.51 68.47 68.45 67.47 67.04 67.14 68.66 69.18 70.63 69.77 71.32 73.40 73.96 73.96 74.91 73.95 73.49 74.84 73.29 74.24 74.51 74.05 74.18 74.53 74.95 73.44 72.49 72.19 72.68 71.66 72.68 72.78 71.64 72.28 72.58 71.94 72.48 72.95
60.93 59.06 61.41 61.48 62.58 64.64 63.50 61.26 62.08 63.15 66.16 66.93 67.26 66.84 67.20 67.26 67.50 67.64 68.50 69.25 70.02 70.47 73.23 74.49 73.90 75.49 74.55 74.57 74.35 74.81 74.44 72.02 73.97 73.69 74.03 74.94 74.42 74.02 72.96 71.85 72.06 73.25 72.19 73.40 72.38 72.24 71.97 71.50 72.11
61.27 56.73 59.41 60.91 61.67 62.76 64.64 61.37 62.50 65.85 66.34 65.66 66.30 66.84 67.52 67.78 68.56 67.88 68.79 68.91 69.54 69.88 73.51 73.85 74.21 75.19 74.14 74.15 74.64 75.02 74.49 73.88 71.52 72.91 73.82 72.22 72.20 73.17 72.89 71.63 72.09 72.01 72.71 72.87 72.99 72.89 72.80 72.14 72.36
56.68 55.42 51.40 58.63 60.48 63.00 62.55 56.71 64.08 66.28 65.36 64.66 66.05 66.98 67.45 67.31 68.36 68.86 69.87 69.46 70.34 69.91 72.26 73.99 75.71 75.26 74.49 74.43 75.05 74.76 74.55 73.57 73.81 74.43 73.73 74.17 74.90 72.94 72.68 71.75 71.65 72.33 72.31 71.82 71.36 71.28 70.66 70.43 70.27
53.34 49.10 53.44 56.11 59.50 59.70 59.40 58.53 64.04 66.52 65.95 65.26 66.09 66.70 67.52 67.65 68.41 68.86 70.56 69.99 70.26 72.55 72.71 72.14 73.25 74.14 74.62 75.18 75.14 74.73 74.89 74.16 74.19 73.40 74.94 74.81 75.53 74.79 72.77 72.53 72.89 73.04 71.86 71.02 70.88 70.94 69.86 69.32 69.64
49.29 50.56 54.82 54.84 58.10 58.59 57.72 59.11 63.15 65.30 65.56 65.29 66.13 66.98 67.72 68.03 68.50 70.09 70.69 71.85 72.28 73.57 72.34 73.41 72.81 74.13 75.54 74.32 74.35 74.77 73.80 73.34 73.57 74.20 72.69 73.34 73.77 74.03 72.31 71.77 71.48 71.70 71.17 70.66 70.66 69.46 69.75 69.62 69.37
55.29 54.16 54.86 57.96 59.42 57.87 56.54 59.32 61.79 63.54 63.48 62.66 63.46 64.61 65.83 67.08 69.60 70.94 71.47 72.03 72.95 72.54 72.50 72.86 73.34 74.79 73.69 73.06 72.01 72.35 70.23 72.62 72.83 73.36 74.22 73.80 73.45 73.65 72.25 71.62 71.75 70.66 70.43 70.07 70.47 69.63 68.77 67.62 68.50
53.52 55.38 54.25 57.37 60.27 57.77 56.71 57.58 60.75 61.91 61.79 63.50 63.79 63.95 64.91 65.18 69.32 70.38 70.84 70.95 72.01 72.10 73.00 73.11 73.70 74.37 73.73 73.89 73.88 73.50 73.37 73.17 73.20 73.45 74.01 73.27 73.42 73.62 73.67 71.70 69.28 68.70 68.70 67.55 66.55 67.28 66.12 67.00 68.09
51.72 49.77 53.28 55.11 59.24 59.67 58.23 54.87 56.99 61.52 62.42 64.13 65.20 65.18 65.42 66.29 67.34 69.22 70.35 70.57 71.91 72.62 73.16 73.54 74.25 73.98 74.38 73.86 74.77 73.85 73.14 72.26 69.80 69.92 70.04 69.41 69.29 70.32 69.63 69.02 68.48 68.59 68.25 67.14 67.24 67.15 66.19 64.70 66.27
46.52 53.84 53.53 53.54 55.36 49.35 57.49 46.96 53.72 57.33 57.86 62.09 63.85 64.55 64.71 65.97 66.48 67.37 67.45 67.86 72.24 72.95 74.16 74.96 74.34 74.08 74.77 74.94 72.73 71.20 69.11 62.41 67.09 67.45 67.14 66.98 69.31 68.24 68.19 68.02 68.78 67.73 67.53 67.06 66.97 68.03 66.08 65.59 64.03
50.13 54.17 52.11 51.54 48.72 48.10 51.28 45.81 52.28 56.23 54.79 58.81 61.53 64.34 65.00 65.94 66.59 67.38 68.04 68.99 71.38 73.54 73.72 74.61 74.17 74.96 73.93 68.97 68.82 65.81 62.25 63.33 65.22 65.38 64.30 63.02 65.25 67.73 69.31 69.13 67.87 67.12 66.66 66.30 66.61 65.88 65.81 65.54 64.41
55.27 51.34 51.03 48.94 45.44 40.41 46.09 46.67 49.02 53.64 56.57 59.19 61.73 63.72 64.91 65.85 66.94 67.84 69.11 69.98 71.31 72.87 74.35 74.90 74.24 71.22 70.69 67.37 65.80 63.67 62.40 62.61 62.76 63.79 62.85 64.02 63.94 65.08 68.43 67.85 66.28 66.47 66.27 66.25 65.52 66.01 65.39 64.57 64.25
51.03 47.68 41.91 40.44 40.24 40.39 46.05 45.83 49.76 58.05 60.31 59.92 60.27 61.75 62.07 65.70 66.67 67.10 67.59 68.54 70.42 71.59 73.30 74.65 71.73 69.43 68.88 67.27 67.17 64.75 63.86 63.50 62.78 63.27 64.30 63.59 63.11 65.15 65.53 65.74 66.16 64.52 65.17 65.59 65.56 64.86 64.57 64.64 63.57
48.34 47.46 43.29 38.91 39.87 44.29 50.37 46.12 50.58 60.98 62.10 62.86 62.76 62.24 63.01 62.13 66.10 66.51 66.99 67.62 70.01 71.26 73.28 72.78 70.68 69.75 68.37 67.64 65.47 64.35 64.55 63.94 64.66 66.63 65.23 63.13 62.70 64.27 65.60 65.03 65.97 65.71 66.18 65.97 65.46 64.30 63.82 64.31 63.67
49.31 46.47 50.20 44.68 47.22 42.72 47.33 50.51 55.88 59.45 59.56 61.77 62.31 61.70 61.63 62.38 65.03 66.03 67.01 67.49 69.77 71.04 72.61 71.55 70.46 69.86 68.66 67.69 66.36 65.55 65.77 65.39 65.84 65.56 64.88 63.83 66.00 65.22 65.55 65.48 65.00 65.64 66.09 66.01 64.61 64.17 63.80 63.08 62.90
50.99 52.75 46.01 43.99 38.90 38.50 44.60 48.93 48.24 51.82 54.46 56.67 60.78 60.33 61.36 62.02 65.47 66.43 66.77 68.20 69.83 71.72 71.94 71.25 70.83 69.87 69.41 68.10 67.75 67.78 67.38 66.69 65.91 65.48 64.43 64.76 64.34 65.79 65.24 65.57 65.42 65.35 64.83 65.13 64.77 63.32 63.58 62.66 62.64
49.03 47.49 48.31 46.66 44.88 39.82 40.40 45.31 53.73 55.63 55.75 55.10 55.45 59.24 60.65 62.73 63.75 65.58 67.90 68.91 70.14 71.48 71.15 70.66 70.53 70.07 68.93 68.59 68.08 67.69 67.80 66.80 66.35 65.38 64.78 64.99 65.50 66.22 65.71 65.64 65.09 64.74 64.75 64.91 64.40 63.56 63.76 63.18 62.57
51.49 48.96 49.22 44.08 42.79 45.33 44.94 47.09 57.76 57.50 57.01 57.18 57.84 59.24 59.27 61.38 63.49 66.15 66.97 67.80 70.27 70.45 70.27 70.10 70.59 69.73 68.18 68.45 68.24 66.66 64.37 64.84 65.69 64.93 64.82 65.09 64.90 65.49 65.25 65.06 64.96 64.78 64.39 64.23 63.57 62.50 63.45 62.46 61.77

GFSSGP_sfc_wetblb_012.txt.gz
Wetbulb
77.79 75.73 74.10 69.97 60.53 55.27 52.85 56.76 59.22 58.99 59.39 64.34 65.54 63.78 62.92 65.07 60.82 56.76 70.09 72.62 74.32 74.47 75.65 76.59 78.25 78.51 78.22 78.65 77.91 78.15 78.92 78.99 79.09 79.12 79.16 79.24 78.76 78.66 78.89 78.75 78.16 78.28 77.73 77.48 77.59 77.45 77.07 76.66 76.52
74.55 74.10 71.90 66.62 55.76 47.29 49.89 58.98 58.55 60.89 62.84 65.27 65.92 66.01 64.08 62.78 67.65 68.11 69.47 73.41 74.97 74.73 75.52 76.35 78.05 78.65 78.14 78.16 78.59 78.93 78.67 78.41 79.00 79.13 79.17 78.98 78.89 78.92 78.18 77.72 77.85 77.72 77.54 77.38 77.10 76.86 76.64 76.06 75.87
73.39 72.20 66.33 61.71 52.43 49.81 53.34 59.56 61.35 63.05 65.17 64.98 64.58 67.10 65.45 64.31 68.56 69.34 71.93 73.82 74.79 74.70 75.35 75.99 78.43 78.72 78.29 78.58 79.00 78.85 78.74 78.47 78.83 78.86 78.99 79.12 78.19 77.72 77.89 77.65 77.31 77.36 77.34 76.88 76.78 76.56 76.23 75.62 75.65
70.21 66.97 64.04 54.92 49.38 57.15 59.12 61.88 63.95 63.21 64.66 67.52 67.00 63.56 67.77 70.90 69.90 71.33 72.98 73.74 74.31 74.85 75.66 77.90 78.71 78.21 78.45 78.98 78.88 79.05 78.68 78.68 78.58 78.58 78.21 77.99 77.76 77.38 77.63 77.46 77.51 77.31 77.12 76.69 76.39 76.31 75.84 75.43 75.40
68.99 62.45 54.69 49.42 51.79 58.74 62.40 64.10 64.13 63.73 65.13 65.70 66.52 63.68 65.36 70.46 73.30 73.16 73.13 73.83 73.36 74.74 76.17 76.74 78.36 78.37 78.59 78.86 79.47 79.10 78.72 78.27 78.35 78.25 77.96 78.16 77.98 77.52 77.63 77.46 77.11 76.84 76.50 76.40 75.90 75.43 75.04 74.96 75.01
60.43 60.23 53.63 48.67 51.83 57.91 62.07 64.15 65.21 65.59 65.86 65.74 65.04 64.83 65.26 71.73 72.46 73.27 73.87 73.25 74.56 74.62 75.83 76.37 78.10 78.23 78.70 78.88 78.41 79.05 78.43 77.87 78.08 78.33 78.29 78.37 77.82 77.56 77.35 76.84 76.76 76.51 76.04 75.67 75.29 75.21 75.12 75.31 75.14
60.24 56.68 53.19 53.58 54.50 57.44 61.24 65.04 64.53 65.09 65.30 65.34 67.92 62.98 66.18 69.24 72.28 73.62 73.66 73.87 74.84 75.90 76.04 76.38 76.54 77.31 78.41 79.20 78.48 78.12 78.21 77.79 77.88 78.29 78.05 77.96 77.36 76.88 76.64 76.51 76.42 76.20 75.81 75.61 75.84 76.37 76.73 76.53 76.55
62.84 59.40 54.08 52.81 52.95 54.14 62.01 62.15 65.54 65.91 65.41 70.00 69.32 63.44 63.48 68.74 72.47 73.37 73.19 73.10 73.86 74.90 75.58 75.68 75.64 76.21 76.48 77.20 78.69 77.74 77.97 77.76 77.65 77.77 77.65 77.57 77.07 76.75 76.31 74.92 76.48 76.78 76.71 76.54 76.45 76.86 76.83 77.03 76.79
65.12 54.52 53.00 55.41 55.18 55.60 60.98 61.82 65.82 68.22 67.21 67.92 68.64 67.90 69.75 71.76 72.76 71.93 71.49 71.81 72.41 73.93 74.27 74.70 75.05 75.45 75.69 76.19 76.93 78.57 78.00 78.12 77.79 77.41 77.39 77.88 74.87 73.44 70.48 72.83 74.74 75.72 76.66 76.09 77.48 77.03 76.46 77.04 76.54
61.24 55.92 56.51 60.15 59.96 58.41 62.34 63.09 63.46 64.24 64.91 64.85 66.20 69.47 71.68 72.14 71.42 70.23 70.12 69.93 70.68 71.62 72.35 73.42 74.43 74.92 75.29 77.07 75.66 75.99 75.55 75.67 75.13 74.83 74.43 74.38 73.49 72.33 72.02 73.07 75.27 74.93 75.29 76.92 77.48 76.68 77.20 76.28 74.11
61.35 58.32 60.37 60.74 62.11 63.25 62.12 63.14 65.17 63.35 61.60 64.69 64.68 68.12 70.36 70.78 70.31 70.38 70.60 70.64 71.08 72.18 72.72 72.55 73.23 73.81 73.80 74.31 74.27 74.48 74.58 74.42 74.01 73.57 73.45 73.29 73.38 72.30 73.41 72.00 71.62 72.11 74.70 73.73 74.56 74.07 73.94 73.14 72.95
58.45 61.16 62.17 61.80 64.86 61.80 61.42 62.68 59.59 63.71 63.95 67.10 68.87 70.01 70.24 69.56 69.69 70.16 69.97 70.45 70.67 71.50 72.15 72.80 73.31 73.83 73.60 74.59 74.44 74.17 73.74 73.63 73.29 73.23 73.40 72.99 72.56 71.10 70.71 71.43 71.34 71.81 72.25 72.13 71.47 71.15 71.84 72.14 72.58
58.88 60.56 63.10 64.16 62.74 61.70 62.13 60.05 60.72 63.20 66.49 67.57 68.72 69.17 68.78 68.94 69.67 71.05 71.11 71.30 71.68 70.82 71.56 72.70 73.88 73.60 72.98 73.63 73.62 73.51 74.09 73.75 73.35 73.13 73.08 73.72 73.42 71.55 71.41 71.66 71.08 70.80 71.68 70.68 71.48 71.70 71.23 70.94 71.15
61.81 61.42 61.80 63.55 62.07 61.94 59.67 59.85 61.50 64.49 67.03 66.46 66.53 66.48 67.34 68.70 68.48 67.47 69.37 69.72 70.16 71.55 72.70 73.92 73.87 73.45 72.69 72.45 73.29 72.81 72.98 74.27 73.13 73.57 73.45 73.60 73.69 73.20 71.05 71.30 70.36 71.62 71.58 72.22 71.99 71.37 70.86 70.78 71.47
62.02 58.42 61.46 62.24 62.65 62.43 63.55 60.33 60.47 64.31 66.35 65.19 65.61 65.87 66.27 66.57 67.57 67.61 69.20 68.28 69.78 71.85 73.21 73.32 73.28 73.63 72.93 73.39 73.33 73.62 73.62 73.01 71.28 73.05 73.11 74.00 73.53 72.31 72.67 70.65 70.24 70.39 71.30 71.57 71.79 71.22 71.06 70.41 70.87
56.03 56.51 51.92 58.19 62.74 63.22 61.68 55.98 61.89 64.85 64.49 63.62 65.23 65.92 66.22 66.03 66.93 68.25 69.20 68.45 69.19 71.65 71.88 73.09 74.37 73.66 72.45 72.84 73.58 73.90 73.84 72.81 72.03 72.03 72.31 73.38 72.83 72.38 71.95 70.08 70.38 71.04 71.12 71.23 69.39 69.78 69.66 69.27 69.20
50.35 48.02 52.81 55.39 60.25 61.40 59.35 57.17 62.16 64.11 63.83 63.08 64.27 65.13 65.89 65.79 66.33 67.95 69.20 69.20 68.95 70.89 72.23 73.19 73.01 72.86 72.98 73.57 74.02 73.78 73.61 73.29 72.66 72.15 72.74 73.48 74.51 74.39 72.02 70.96 71.45 71.17 69.75 69.19 69.46 69.28 68.83 68.04 68.26
46.86 49.47 54.09 53.59 57.22 58.80 58.92 58.20 62.06 63.43 63.04 63.07 63.89 64.68 65.19 65.51 66.14 67.67 68.80 69.73 69.25 70.05 71.73 72.70 72.49 73.16 73.69 73.75 73.35 73.59 73.03 73.09 72.41 72.89 72.53 73.20 72.28 72.69 72.17 72.08 70.35 70.54 69.77 69.16 68.87 68.06 67.95 68.24 67.66
51.30 53.41 52.89 56.15 58.10 58.89 58.57 58.80 61.37 63.17 63.33 62.99 63.46 64.19 64.91 65.63 67.09 68.27 69.25 69.76 70.41 70.67 69.74 70.73 71.20 72.72 72.88 72.00 71.03 70.42 69.95 70.72 71.62 71.83 72.84 72.39 72.60 72.79 71.28 70.27 70.57 70.12 68.77 67.74 67.04 67.34 66.78 66.40 66.98
49.98 52.42 53.35 55.50 57.92 55.84 57.87 58.34 61.39 62.88 63.31 64.18 64.13 64.84 65.45 66.02 66.63 68.08 68.90 70.16 70.46 69.97 69.93 70.61 71.54 72.70 72.55 72.07 71.18 71.75 71.28 71.09 71.56 72.02 72.66 72.73 72.61 72.35 72.45 70.42 68.60 68.05 67.03 65.62 65.74 65.27 64.20 64.93 66.26
49.33 52.55 53.91 52.96 56.71 56.99 58.20 54.32 56.55 61.36 63.58 62.69 65.19 66.24 66.63 66.45 66.43 67.43 68.42 69.10 70.30 69.65 71.00 70.99 72.40 72.22 72.18 72.52 72.49 72.02 71.57 70.69 68.45 68.10 68.91 69.47 69.95 70.27 68.28 67.80 67.01 67.01 65.87 65.35 65.35 65.29 64.27 62.69 64.14
44.67 53.09 56.46 55.91 54.31 48.76 55.66 47.17 52.95 57.82 58.78 59.60 61.99 64.02 64.99 66.87 67.75 68.17 68.54 68.13 70.01 70.81 72.11 71.83 72.31 72.26 72.77 72.03 72.14 70.49 67.74 65.94 64.89 65.30 64.71 65.70 67.42 66.91 66.79 66.81 67.14 66.52 66.04 65.09 65.06 66.18 64.62 63.80 61.55
49.40 52.48 51.15 56.03 53.63 49.46 51.78 47.64 54.18 54.72 54.80 57.18 59.39 62.97 63.99 67.37 67.93 68.33 68.73 69.03 70.75 72.04 72.57 72.83 71.93 71.94 72.62 72.22 70.93 68.75 63.13 62.37 63.96 64.40 63.01 61.43 63.26 66.18 67.76 67.71 66.35 65.34 64.64 64.27 64.30 63.50 63.53 63.70 62.75
53.93 49.78 48.04 46.27 44.10 40.94 49.52 49.23 44.80 52.44 55.36 57.02 58.85 63.34 64.04 66.45 68.10 69.08 69.92 69.67 70.91 72.17 72.92 73.20 71.62 71.52 71.67 67.30 66.14 62.38 61.61 61.45 62.29 61.74 60.18 62.59 61.00 65.97 66.66 66.01 64.57 65.03 64.67 64.21 63.67 64.01 63.24 62.78 62.58
49.24 43.16 38.47 38.82 37.48 37.94 42.34 49.51 51.76 55.87 59.13 58.83 58.61 62.88 64.15 65.91 66.57 67.91 67.67 68.34 70.50 71.18 72.19 72.97 71.73 70.67 68.53 65.37 63.60 61.59 61.64 61.18 60.82 60.48 61.87 61.65 63.44 63.67 64.01 64.14 64.69 62.91 63.37 63.74 63.81 63.21 62.18 62.59 62.15
45.72 44.31 39.06 35.84 37.09 40.39 45.17 41.99 47.45 57.39 60.80 60.57 61.47 64.19 64.67 65.02 65.69 66.38 66.42 67.73 70.40 71.03 71.47 72.74 71.46 70.25 67.65 65.05 64.00 62.68 62.61 61.70 61.66 62.65 63.58 60.69 61.14 63.41 64.03 64.07 64.16 64.29 64.41 64.63 64.25 63.08 62.41 62.90 62.47
46.34 43.41 47.33 42.36 42.01 40.55 43.10 47.79 53.48 56.74 58.48 59.60 59.72 63.01 62.67 64.49 65.33 65.88 67.09 67.70 69.53 70.70 71.28 72.10 70.93 69.32 67.42 65.41 63.63 62.25 62.46 63.57 64.36 64.38 63.18 62.08 63.79 64.19 64.25 64.55 63.92 64.06 64.89 64.34 63.37 62.88 62.52 62.00 61.73
48.58 48.90 43.06 40.48 36.91 35.21 40.90 44.15 45.95 52.66 55.82 58.08 58.71 59.74 60.43 64.18 65.26 65.88 66.76 67.55 69.37 71.02 71.82 72.50 71.03 69.12 66.93 65.49 63.83 63.59 63.56 63.67 64.47 63.72 63.20 63.63 62.74 63.67 63.41 64.16 63.71 63.85 63.79 63.33 63.04 62.43 62.23 61.81 61.29
47.02 44.71 43.48 44.00 41.00 38.13 36.76 42.81 50.96 52.37 56.92 57.65 59.65 60.69 59.47 60.75 64.26 65.73 66.45 67.40 69.39 70.63 71.95 71.79 70.58 68.58 66.41 66.31 65.27 64.70 64.88 64.79 64.27 63.72 63.31 63.37 63.15 63.86 64.39 64.43 64.12 63.37 63.15 63.59 63.14 62.60 62.41 61.77 61.15
48.69 47.09 45.16 41.45 39.66 40.85 41.17 43.46 53.67 54.99 56.84 58.93 59.40 60.78 59.68 60.51 62.52 65.07 66.00 66.63 68.47 69.58 71.49 71.05 70.12 68.46 67.51 67.04 66.03 65.48 65.89 65.62 64.27 63.81 63.52 63.41 63.33 64.05 63.90 63.83 63.59 63.61 63.68 62.80 62.20 61.93 62.26 61.38 61.10

GFSSGP_sfc_wetblb_015.txt.gz
Wetbulb
76.60 75.35 73.22 69.71 59.41 55.03 52.68 54.65 58.37 58.67 59.61 64.19 65.70 63.98 62.63 63.69 59.81 54.97 69.18 71.87 72.97 72.92 74.18 75.74 77.28 77.31 77.35 77.81 77.91 77.77 77.97 77.89 78.57 79.01 78.46 78.70 78.24 77.99 77.91 78.00 77.80 77.68 77.28 77.32 77.12 76.49 76.28 76.14 76.11
75.61 74.02 71.58 65.69 50.33 49.10 51.81 58.16 57.52 59.76 62.88 65.55 66.33 65.24 63.79 61.63 66.92 67.58 68.80 73.09 74.41 74.58 74.84 75.84 77.37 78.08 77.42 78.14 78.27 78.35 78.29 77.97 78.85 78.77 78.89 78.49 78.00 77.89 77.75 77.65 77.57 77.28 77.12 76.91 76.42 76.20 75.81 75.43 75.51
74.14 73.50 65.49 60.55 50.16 49.23 51.39 57.92 59.29 62.12 64.96 64.91 64.05 66.67 65.07 63.64 67.64 68.23 71.43 74.00 74.28 74.13 74.99 76.19 78.04 78.23 77.64 77.70 78.41 78.34 78.09 77.81 77.95 78.03 77.95 77.91 77.53 77.29 77.32 77.24 76.88 76.96 76.82 76.55 76.17 75.76 75.46 75.18 74.91
69.53 67.13 62.55 49.98 50.80 55.97 57.68 59.58 61.64 62.26 64.60 66.75 65.79 62.79 67.42 70.41 68.91 70.68 73.04 74.32 73.78 74.13 75.33 77.47 77.98 77.77 77.93 77.95 78.20 77.87 77.84 77.81 78.28 78.36 77.83 77.43 77.38 77.43 77.24 76.91 77.02 76.88 76.69 76.06 75.65 75.48 75.21 75.10 75.07
67.63 60.33 50.31 50.10 53.59 59.05 61.58 62.84 62.53 61.49 63.93 64.91 65.79 62.87 65.21 70.09 71.31 72.09 72.81 73.59 73.22 73.75 75.38 76.05 78.53 78.41 78.26 77.72 78.03 77.79 77.64 77.76 78.01 77.64 77.46 77.27 77.08 77.08 77.14 77.05 76.81 76.48 76.06 75.76 75.43 75.19 74.99 74.99 74.85
58.65 57.86 50.51 47.14 53.38 59.99 62.28 63.80 63.26 64.45 65.09 65.02 64.23 64.21 65.66 70.47 70.55 71.75 72.94 73.07 74.54 74.60 75.13 75.66 77.78 78.39 78.35 77.75 77.50 77.57 77.32 77.20 77.38 77.54 77.72 77.58 77.32 77.17 77.15 76.76 76.43 75.96 75.49 75.41 75.13 75.65 75.42 75.20 75.26
58.37 54.51 51.80 51.08 54.48 57.80 60.98 65.72 63.86 63.52 63.64 63.91 66.55 62.57 67.09 69.14 71.40 72.49 72.11 73.32 74.14 75.25 74.94 74.85 75.11 76.49 78.15 78.82 77.45 77.50 77.42 77.28 77.24 77.76 77.64 77.51 77.19 77.01 76.69 76.62 76.35 75.85 75.77 75.77 76.02 76.43 76.62 76.48 76.40
60.59 55.52 51.19 51.84 54.87 55.36 62.84 63.96 65.65 64.88 64.40 68.52 68.00 62.19 63.67 69.32 72.42 72.98 72.62 73.13 74.17 74.73 75.31 74.94 74.96 75.07 75.29 76.19 77.93 77.40 77.31 76.88 77.57 77.73 77.54 77.38 76.85 76.46 76.51 76.28 75.79 76.15 76.38 76.38 76.69 76.31 76.50 76.78 76.98
64.62 52.37 50.85 53.43 53.58 56.10 62.45 62.22 67.01 68.31 65.83 66.30 67.66 66.95 68.83 71.79 72.38 71.19 70.98 72.02 73.04 74.48 74.62 74.59 74.73 75.06 75.38 75.37 76.02 77.60 77.28 77.55 77.47 77.14 77.32 77.41 74.59 73.90 73.91 74.46 75.06 75.42 76.11 75.85 75.99 76.21 77.14 76.69 76.50
59.43 53.06 54.75 58.37 58.47 58.36 61.04 63.74 63.77 63.72 64.39 64.72 65.97 68.44 70.03 71.16 70.68 69.52 69.47 69.76 71.32 72.49 73.39 74.39 74.41 74.57 74.88 76.30 74.83 75.09 74.60 74.94 74.84 74.76 74.40 74.37 73.75 72.80 71.90 72.13 74.55 75.40 75.47 75.94 76.87 76.60 76.91 75.65 73.40
59.48 56.02 59.53 59.80 61.08 61.89 61.86 62.43 64.35 63.49 61.10 64.55 64.93 66.58 68.81 69.55 69.72 69.43 69.75 69.85 70.38 72.07 73.04 73.88 74.40 74.39 74.68 74.92 74.35 74.72 74.31 74.22 73.74 73.44 73.12 73.11 72.89 71.78 72.70 72.58 71.43 71.06 73.86 73.06 73.89 73.09 73.56 72.78 71.85
57.86 60.06 60.36 60.55 63.59 61.47 61.01 62.70 62.32 63.70 62.91 67.36 68.38 69.18 69.19 68.93 68.89 69.35 69.34 69.75 70.20 70.97 71.86 72.24 73.26 73.84 74.21 73.54 74.27 73.91 73.99 73.36 72.82 72.72 72.79 72.04 71.86 71.43 70.28 71.04 70.71 70.91 71.68 71.16 70.92 70.50 71.25 71.61 71.86
56.29 59.06 60.93 62.69 61.89 61.76 61.51 60.07 62.14 62.57 66.16 68.35 69.60 69.67 69.04 68.88 69.19 70.26 70.60 70.85 71.12 70.77 71.71 71.72 72.65 73.07 73.29 73.14 73.47 73.16 73.29 73.68 73.10 72.75 72.44 72.65 71.98 71.74 70.79 70.75 70.82 70.63 71.39 70.02 70.84 70.67 70.72 70.51 70.88
59.60 59.73 60.96 61.28 60.27 60.51 59.67 61.11 62.36 63.96 68.21 68.17 68.69 68.36 69.11 69.07 69.32 69.96 69.90 69.74 70.48 71.04 71.18 72.27 72.52 73.08 72.51 72.63 72.56 72.63 72.89 73.52 73.20 72.36 72.99 72.29 72.80 72.69 70.57 70.19 70.26 70.36 70.97 71.30 70.84 70.54 70.59 70.77 70.91
61.02 57.45 60.73 60.63 59.49 58.15 62.06 58.39 60.05 64.38 67.51 66.85 67.62 68.07 68.71 68.78 69.75 69.64 69.91 69.64 70.61 70.74 71.77 72.68 73.28 72.73 71.92 71.88 72.47 72.49 73.08 72.34 71.64 72.19 72.78 72.60 72.94 72.20 71.09 71.16 69.60 69.84 70.26 70.47 70.84 70.00 69.92 69.72 69.87
56.79 55.67 53.77 58.25 60.80 61.09 60.16 54.26 61.60 64.50 64.38 64.24 65.65 67.22 67.59 67.94 68.55 68.67 69.98 70.01 70.76 70.59 71.28 72.97 74.44 73.04 71.95 71.90 72.38 72.71 73.11 72.46 71.44 71.93 71.57 72.58 72.53 71.61 71.49 69.88 69.24 70.32 69.74 70.39 69.40 69.11 68.91 68.75 68.34
50.80 52.07 51.32 56.15 60.70 60.56 58.35 55.38 61.46 64.23 63.42 62.54 63.54 65.16 65.23 65.83 66.55 67.79 69.44 69.17 69.83 70.93 71.55 72.03 73.17 72.52 72.18 72.36 72.72 72.80 72.87 72.37 71.86 71.88 71.67 72.13 72.34 72.46 72.69 70.17 69.92 70.31 69.40 69.09 69.13 68.95 67.98 67.00 67.11
50.46 49.84 52.95 54.19 59.58 59.15 57.45 56.55 60.67 62.98 62.62 62.29 63.19 63.88 64.36 64.34 64.95 67.75 68.87 68.52 70.11 71.28 71.63 71.91 72.31 71.80 71.78 72.12 72.69 72.31 72.01 71.94 72.19 71.90 72.03 72.41 72.26 72.60 71.02 70.84 71.32 70.14 68.79 67.67 67.24 66.39 66.82 66.66 66.66
50.71 51.49 53.61 56.78 58.64 57.97 57.00 56.73 59.23 61.92 61.94 61.54 62.31 62.93 63.65 64.25 66.01 67.36 68.52 68.93 68.73 70.50 70.67 71.36 70.96 71.46 72.13 71.39 70.40 70.17 70.35 70.84 70.73 71.05 71.93 71.99 72.00 72.07 71.08 69.53 69.48 69.09 67.15 65.59 65.59 65.48 65.25 64.79 65.55
49.39 51.36 52.36 55.01 58.41 57.64 56.25 56.61 59.45 60.77 61.20 62.07 62.28 62.78 63.45 64.13 64.45 65.82 67.33 68.09 68.17 68.69 69.59 69.93 71.07 71.61 72.31 70.98 70.28 70.23 69.56 69.67 70.33 71.08 71.50 72.59 71.81 71.64 70.50 69.61 68.34 67.62 65.83 64.77 64.74 64.12 62.95 63.61 64.96
47.14 47.48 51.08 51.74 56.24 57.49 56.81 53.82 57.03 60.69 61.83 62.49 63.29 64.04 64.40 64.23 64.24 65.17 66.42 67.09 68.54 68.15 68.33 69.59 70.34 71.54 71.84 71.45 70.68 70.87 70.82 69.92 68.32 67.53 69.24 70.48 72.13 72.32 71.60 68.31 66.73 66.12 64.44 64.56 64.04 63.80 62.56 61.14 62.94
43.87 51.10 53.49 53.90 53.00 47.98 56.81 46.85 52.69 57.59 59.45 61.32 62.66 63.39 64.26 64.94 65.78 65.96 66.72 67.33 68.20 68.77 69.62 69.79 70.82 71.08 71.78 71.55 70.74 69.80 68.84 66.46 65.12 65.41 64.08 64.83 67.18 66.58 66.84 66.32 66.42 65.25 64.74 63.91 64.02 64.83 63.21 62.01 60.14
49.59 51.49 50.45 53.53 51.80 49.31 50.48 46.96 50.31 56.05 54.61 59.20 61.50 63.03 64.86 65.65 66.23 65.99 66.93 68.00 68.97 69.50 70.23 70.65 71.07 70.99 71.36 71.05 71.10 70.01 66.39 64.50 63.98 63.41 61.88 62.40 62.62 64.80 66.06 66.84 65.70 64.88 63.83 63.58 63.14 62.77 62.37 62.56 61.79
53.19 49.07 46.09 44.93 46.08 42.75 50.25 48.55 45.92 51.85 56.52 58.80 61.22 61.66 64.80 65.67 66.82 67.12 68.01 68.43 68.60 69.87 70.49 71.19 71.02 71.01 71.21 71.19 69.89 69.36 65.68 62.15 62.50 61.26 60.26 60.21 60.28 64.30 66.35 65.99 64.31 63.66 63.38 63.27 62.83 62.72 61.95 61.87 61.49
47.85 42.81 37.01 37.48 39.75 40.46 46.09 47.91 49.96 54.87 59.63 60.83 60.34 60.18 63.81 65.46 66.67 66.93 67.26 67.33 67.98 69.20 70.09 71.06 70.81 70.44 71.07 70.43 68.05 65.81 62.24 62.01 61.61 60.82 59.28 61.43 62.40 62.76 63.64 63.25 63.65 62.64 62.26 62.78 62.48 62.32 61.16 61.32 60.88
44.61 43.43 37.69 33.54 34.11 39.68 42.66 44.10 51.36 57.16 59.13 62.09 62.21 61.36 63.18 63.89 66.66 67.25 67.94 67.76 68.07 69.35 70.06 70.83 70.68 70.13 70.13 68.07 64.97 61.17 60.90 60.53 60.22 59.78 61.55 60.87 61.52 62.82 63.30 63.11 63.51 62.36 63.17 63.36 63.17 62.26 61.69 61.88 61.47
44.38 41.05 44.89 38.98 37.74 37.58 40.18 44.65 50.25 54.99 54.85 59.65 60.78 59.45 61.54 63.09 65.93 67.04 68.23 68.34 68.39 69.25 70.02 70.84 70.80 70.28 69.47 66.77 63.08 60.90 60.86 61.01 60.59 61.94 62.62 60.61 60.70 63.56 63.54 63.41 63.43 63.32 63.21 63.55 62.42 61.84 61.64 61.44 61.03
47.77 46.93 40.38 38.27 34.81 34.00 38.76 40.99 43.44 48.87 52.88 56.16 58.49 58.05 61.36 63.34 64.59 66.38 67.96 67.79 68.98 70.04 70.60 71.14 71.54 70.57 69.09 64.77 63.87 62.39 61.92 62.92 63.32 63.33 62.34 61.85 62.71 63.01 63.09 62.92 62.81 62.46 63.27 62.54 61.66 61.25 61.70 60.96 60.80
44.57 41.62 40.40 41.06 38.63 36.44 35.59 40.37 48.01 50.91 53.51 55.37 57.62 59.55 61.29 62.92 64.01 65.07 66.65 67.37 67.89 70.21 70.41 70.57 71.21 70.05 66.62 66.26 63.58 62.31 62.07 62.92 63.25 63.00 62.47 62.85 62.22 62.34 62.41 62.78 62.78 62.82 62.49 62.23 61.69 61.41 61.68 60.96 60.30
45.45 44.66 43.51 41.52 37.24 37.16 38.49 40.67 51.09 53.27 55.09 57.52 57.71 59.66 61.92 63.48 64.00 64.98 65.67 66.54 66.43 68.19 69.79 70.14 70.86 69.54 67.64 66.42 64.35 62.89 63.22 63.18 63.23 63.03 62.73 62.50 62.14 62.37 63.09 63.54 63.09 62.85 62.62 62.52 61.73 61.07 61.40 61.10 60.42

GFSSGP_sfc_wetblb_018.txt.gz
Wetbulb
76.50 74.84 72.90 69.91 57.11 55.46 51.49 53.31 57.89 57.79 59.08 63.49 65.60 63.57 61.87 63.00 59.45 53.86 68.38 71.12 71.89 72.19 73.83 75.26 76.63 76.40 76.52 76.43 76.22 76.05 76.96 77.15 77.81 78.11 78.34 78.29 77.54 77.75 77.58 77.72 77.53 77.32 77.09 76.82 76.54 76.40 76.08 75.80 75.59
75.18 72.89 70.96 65.53 52.65 48.81 50.08 56.97 56.09 59.24 62.40 65.33 65.56 64.67 62.96 60.99 66.59 66.83 67.96 72.70 73.28 73.36 73.83 74.54 76.78 76.90 77.19 77.26 77.50 77.82 77.62 77.42 78.63 78.66 78.47 78.19 77.93 77.62 77.69 77.43 77.05 76.84 76.57 76.49 76.36 76.19 75.70 75.37 75.15
74.13 72.95 65.05 58.10 51.50 48.99 50.31 57.07 58.86 62.57 65.16 64.76 63.71 66.18 64.37 62.92 67.12 67.76 70.93 73.38 74.32 73.81 74.47 75.51 77.11 77.80 77.37 77.50 77.99 78.20 78.13 77.78 78.17 78.03 77.65 77.58 77.39 77.28 77.31 76.95 76.46 76.37 76.29 76.43 75.97 75.75 75.47 75.15 75.09
70.53 66.61 61.12 49.82 50.33 55.75 56.27 58.69 61.45 62.05 64.82 65.92 64.97 62.47 67.01 68.72 68.34 70.39 73.28 73.98 73.99 74.22 75.17 76.49 77.55 77.20 77.49 77.58 77.93 77.66 77.91 77.57 77.82 77.89 77.47 77.24 77.18 77.18 76.88 76.41 76.32 76.02 76.13 76.05 75.58 75.42 75.20 75.39 75.28
66.97 59.53 49.90 50.52 53.30 58.39 60.09 61.13 62.34 61.20 63.89 64.34 65.38 62.76 64.42 69.08 71.27 72.49 73.02 73.59 72.82 73.50 75.36 76.02 77.63 77.73 77.78 77.80 78.02 77.97 77.50 77.20 77.64 77.62 77.12 77.16 77.04 76.91 76.57 76.49 76.17 75.78 75.59 75.51 75.29 75.35 75.37 74.90 74.79
57.77 55.81 49.97 48.86 53.90 59.00 60.87 62.19 62.43 63.71 64.45 64.50 63.85 63.74 64.86 69.73 70.07 71.87 72.89 72.73 74.16 74.17 74.84 75.85 77.22 77.94 77.82 77.36 77.35 77.70 77.51 77.73 77.56 77.27 77.26 77.18 77.07 76.79 76.43 75.90 75.57 75.43 75.35 75.41 75.38 75.84 76.05 76.00 75.51
57.20 52.95 50.24 50.93 54.81 57.25 60.08 63.54 62.73 63.10 63.37 63.25 66.06 62.15 65.84 67.80 70.76 72.04 72.24 73.65 74.41 75.05 74.49 74.91 75.52 76.42 77.35 78.18 77.14 77.25 77.22 77.10 77.34 77.59 77.40 77.24 76.94 76.73 76.43 76.28 76.04 75.79 75.91 76.02 76.46 76.17 76.49 76.13 76.01
58.96 53.72 50.16 51.35 54.48 54.66 61.92 63.92 64.61 63.34 63.09 67.79 67.60 61.62 62.70 67.90 71.43 71.75 72.46 72.70 73.65 74.43 74.59 74.25 74.54 75.19 75.54 75.93 77.09 76.93 77.06 76.95 77.21 77.62 77.24 76.94 76.66 76.42 76.34 76.51 75.89 76.17 76.21 76.15 76.54 76.93 76.31 76.84 75.84
61.21 51.23 49.40 52.79 54.29 55.88 62.95 62.52 65.40 67.34 64.74 65.86 67.20 65.90 68.39 70.86 71.82 70.62 71.10 72.03 72.99 73.89 73.91 74.19 74.37 74.35 75.14 75.51 75.64 77.19 77.03 76.65 77.16 77.03 76.96 77.37 75.26 75.22 75.72 75.34 75.36 75.57 75.68 76.35 76.43 77.07 76.83 76.08 75.46
57.17 51.35 52.91 57.02 57.51 58.14 61.35 63.35 63.60 63.06 62.97 63.94 65.23 68.98 70.49 70.91 70.23 69.03 69.05 68.67 70.15 71.69 73.42 73.98 74.13 74.49 74.89 75.98 75.34 75.24 74.85 75.37 75.48 75.64 74.71 75.28 75.19 74.48 74.68 73.00 75.31 75.23 75.75 75.74 76.60 77.01 76.82 75.26 74.25
58.12 54.50 58.40 58.55 59.16 62.44 60.43 62.81 63.79 62.01 60.66 63.58 63.69 66.83 69.26 69.40 69.06 68.73 68.78 69.08 69.37 71.42 72.80 74.03 74.25 74.33 74.83 74.85 74.44 74.62 74.53 74.26 74.69 74.61 74.32 73.99 74.37 73.26 73.42 73.64 73.23 72.52 73.65 73.93 74.54 74.28 74.63 73.98 73.58
56.35 59.88 59.56 59.56 61.75 60.63 61.18 62.41 62.22 63.39 62.23 66.48 66.87 68.42 69.06 68.54 68.36 68.17 68.53 69.46 70.49 71.90 72.70 73.80 74.00 73.98 73.93 74.36 74.31 73.98 74.24 74.14 73.66 73.56 73.75 73.06 72.50 72.47 72.17 71.44 72.49 72.36 72.96 72.77 72.71 72.02 73.06 73.25 72.89
54.19 57.09 59.35 61.97 60.40 60.97 62.35 60.37 62.07 62.91 65.54 67.60 67.79 68.37 68.02 68.38 68.72 69.44 69.83 69.99 70.24 70.60 71.65 72.39 73.04 73.52 73.66 73.27 73.93 73.79 73.88 74.00 73.33 73.43 73.31 73.00 72.53 72.36 72.45 71.48 72.40 72.56 72.79 71.82 72.97 73.06 72.78 72.05 72.44
57.40 58.53 59.99 60.28 59.81 59.81 59.53 60.46 62.15 63.09 67.17 67.03 67.07 66.91 67.83 68.30 69.05 69.39 69.60 69.49 70.04 70.68 71.01 71.72 72.34 73.20 72.99 72.99 73.18 73.49 73.53 73.78 73.74 73.65 73.60 73.11 72.88 72.96 72.11 71.52 71.94 71.35 73.09 72.97 72.94 72.49 72.68 72.55 71.73
59.89 56.98 59.10 58.78 58.03 58.53 61.96 57.61 58.87 64.58 66.83 66.26 66.82 67.45 68.24 68.73 69.40 69.27 69.91 69.80 70.48 71.01 71.55 71.40 71.96 72.82 72.76 72.89 72.95 72.82 73.26 73.51 73.19 73.00 73.31 73.53 72.87 72.61 73.26 71.62 71.54 71.64 72.33 72.02 72.20 71.71 71.51 71.33 71.35
56.14 55.31 51.82 57.24 57.88 59.88 59.13 52.89 60.54 65.89 65.55 65.33 66.58 67.20 67.93 68.39 69.23 70.15 70.64 70.29 70.86 71.08 70.60 72.03 73.15 72.60 72.34 72.34 72.59 72.62 72.93 73.19 72.17 72.41 72.38 73.04 73.35 73.28 72.68 72.25 71.26 72.02 71.57 71.80 71.87 71.37 71.19 70.57 69.88
50.71 48.89 50.81 55.29 58.93 58.62 57.49 53.80 60.76 65.52 65.08 64.81 65.95 66.72 67.61 67.71 68.59 69.85 70.86 70.42 70.40 70.98 70.64 71.45 72.78 72.58 72.38 72.26 72.50 72.80 73.39 72.95 72.78 72.90 73.06 72.89 73.42 73.56 72.85 72.58 70.92 72.17 71.64 71.43 71.31 70.95 70.35 69.24 69.13
47.95 50.29 50.20 53.27 57.56 58.53 56.38 55.25 60.32 62.74 63.84 63.78 64.97 66.05 66.43 66.59 67.21 69.27 69.59 70.69 70.43 70.64 70.93 71.87 72.56 72.71 72.29 72.06 72.58 73.11 72.79 73.04 73.12 73.01 72.93 73.18 73.79 74.19 72.61 71.99 72.02 72.31 70.28 69.50 69.10 68.60 68.79 68.66 68.66
52.37 53.05 53.10 54.94 58.39 56.16 55.50 55.77 59.06 61.21 61.70 61.53 62.00 63.13 64.79 64.93 66.76 68.18 68.56 69.73 69.45 70.06 70.63 71.17 71.41 71.40 71.50 71.57 71.15 71.29 71.42 72.20 72.21 72.19 73.23 73.03 73.24 73.04 72.00 72.15 71.00 70.58 68.95 68.26 67.82 67.59 67.20 66.89 67.54
52.90 51.43 52.78 54.15 57.48 56.52 55.37 55.47 58.34 60.75 61.00 61.47 61.60 61.85 62.93 63.88 63.45 65.44 67.34 67.73 68.47 69.61 70.34 70.81 71.19 71.15 71.73 71.61 71.28 71.30 71.21 71.33 71.68 72.01 72.50 73.22 73.00 72.92 71.33 70.63 70.46 69.23 67.32 67.30 67.23 66.73 65.45 66.03 67.07
48.02 51.83 50.10 53.80 56.00 56.78 55.83 53.22 54.83 59.35 61.29 61.91 62.48 63.12 63.69 63.51 62.56 63.87 65.83 66.69 67.65 68.73 69.63 70.58 71.13 71.16 71.90 71.80 71.19 71.33 71.60 70.92 70.19 69.70 71.23 72.46 72.58 72.64 72.05 70.66 69.00 68.30 67.04 66.67 66.91 66.47 65.38 64.22 65.53
43.90 50.07 53.55 53.27 53.03 48.18 55.01 44.48 51.99 56.40 57.98 59.75 61.18 61.96 62.80 63.65 64.25 64.17 65.41 66.20 66.95 67.95 69.83 70.34 70.88 71.06 71.93 71.89 71.02 70.33 69.66 69.05 69.18 67.82 68.18 68.89 70.49 70.04 70.56 68.90 68.36 67.07 66.49 66.49 66.52 66.60 65.87 64.90 63.52
48.23 50.97 51.14 53.39 51.40 49.51 50.37 46.39 49.37 55.77 54.99 57.69 60.21 61.61 62.93 64.02 64.61 64.45 65.46 66.66 67.76 68.68 68.53 69.20 69.70 70.50 71.67 71.85 71.68 70.46 69.05 68.57 66.02 65.58 65.16 66.18 66.19 66.81 67.69 67.88 67.09 66.65 66.46 66.00 66.36 65.60 65.65 65.35 64.56
51.24 47.10 45.46 44.92 46.36 41.79 48.61 49.32 46.57 50.88 56.40 58.73 60.99 62.52 63.27 64.04 64.92 65.78 66.53 67.25 67.46 68.81 68.91 69.09 69.18 69.88 70.91 71.41 71.19 70.56 69.20 65.73 64.51 63.54 62.41 62.59 63.31 65.89 67.13 67.79 67.25 66.18 65.47 65.98 65.42 65.36 65.05 65.18 64.68
45.99 42.47 37.00 37.34 38.73 39.48 46.28 47.21 51.19 53.14 57.87 60.34 60.42 61.93 63.81 64.79 65.19 65.52 65.49 66.18 67.10 67.73 68.46 69.26 69.24 69.29 70.86 70.98 70.90 70.95 69.69 65.60 65.14 63.70 61.93 62.18 62.75 64.93 66.18 66.32 65.20 65.22 65.74 65.45 65.14 65.18 64.54 64.41 64.40
44.01 43.20 37.45 33.58 34.29 40.27 44.08 45.12 51.04 58.02 58.65 60.37 61.76 62.16 63.51 63.72 65.46 65.86 65.99 66.64 67.14 68.02 68.50 68.99 69.36 69.34 70.50 71.05 70.68 69.59 67.75 65.02 64.19 63.44 61.78 62.96 63.72 65.00 65.80 65.07 65.38 64.63 64.80 65.31 65.47 64.98 64.49 64.40 64.64
42.65 40.70 43.75 37.65 34.52 36.24 39.35 44.17 50.44 52.55 53.86 56.29 58.46 60.03 60.78 62.46 65.28 65.83 66.68 67.22 67.40 67.89 68.54 69.00 69.28 69.90 70.27 70.68 69.89 66.49 65.23 62.76 62.48 62.67 62.78 62.89 64.14 64.99 65.27 65.11 65.36 64.89 65.31 65.51 65.71 64.72 64.43 64.52 64.23
45.60 45.52 40.71 36.69 33.07 32.23 37.41 39.86 42.97 48.10 51.55 53.79 55.06 59.02 60.57 61.95 64.36 65.87 67.08 67.44 68.14 68.50 69.16 69.71 70.00 69.84 70.15 70.23 67.99 66.10 63.62 62.57 62.35 62.34 63.10 62.73 63.33 64.27 64.94 64.76 65.16 65.25 65.05 65.40 64.78 64.14 64.45 64.07 63.61
42.38 40.30 38.97 39.50 37.02 34.78 33.66 38.21 46.05 48.81 50.63 52.89 55.11 58.77 59.95 61.01 62.84 65.23 66.99 68.13 68.52 68.88 69.08 69.42 70.09 70.17 69.72 68.52 66.95 65.11 63.06 62.48 62.84 63.20 64.21 63.66 63.77 64.12 64.81 64.92 64.76 64.43 64.47 64.92 64.25 64.09 64.16 63.74 63.62
45.63 42.87 42.43 40.37 35.40 36.00 36.79 39.58 50.02 50.73 52.09 54.51 55.76 58.56 58.93 60.75 62.58 64.59 66.65 67.74 68.06 68.16 68.69 69.29 70.08 70.49 70.28 68.67 66.93 64.86 63.62 63.35 63.55 63.61 64.05 64.08 64.12 64.30 64.74 64.41 64.67 64.87 64.98 64.81 64.14 64.08 64.29 63.57 63.14

GFSSGP_sfc_wetblb_021.txt.gz
Wetbulb
76.45 75.74 74.69 72.36 61.34 60.21 55.27 56.32 61.36 59.96 61.08 65.62 66.26 63.78 62.68 64.47 60.86 58.04 71.04 72.97 73.34 73.72 75.36 75.84 76.53 76.53 76.62 76.06 76.07 75.94 76.29 76.81 77.63 77.63 77.90 77.24 77.08 77.47 77.58 77.52 77.52 77.15 77.00 76.57 76.40 76.19 76.04 76.18 76.04
76.02 73.68 73.59 68.91 57.85 53.63 55.46 59.71 59.01 61.51 64.86 67.36 66.89 65.84 64.23 61.79 66.90 68.13 70.18 73.48 74.19 73.94 75.30 75.58 76.20 76.83 76.73 76.45 76.43 76.86 76.72 76.83 77.87 78.21 78.16 77.47 77.37 77.59 77.53 77.07 76.88 76.94 76.61 76.40 76.35 76.07 76.07 75.85 75.66
74.20 73.91 69.51 61.88 57.44 54.38 55.34 59.97 61.58 64.25 66.74 65.82 64.82 67.06 64.82 63.27 67.57 69.04 72.97 74.22 75.09 75.17 76.14 76.59 76.51 77.16 77.09 76.90 76.63 76.80 77.83 77.39 77.82 77.95 77.61 77.63 77.48 77.32 77.13 76.61 76.61 76.47 76.50 76.40 76.07 75.91 75.74 75.71 75.63
72.47 71.35 67.47 58.99 56.00 59.34 59.43 61.94 64.63 64.72 66.37 66.86 65.45 63.06 67.11 69.80 68.80 71.58 74.17 74.80 74.76 75.61 76.21 76.76 76.98 76.97 77.04 76.94 77.13 77.62 78.12 77.74 78.00 77.88 77.36 77.14 77.01 76.98 76.65 76.29 76.32 76.23 76.01 75.85 75.60 75.80 75.61 75.50 75.33
71.30 66.01 58.68 57.77 58.19 60.94 62.74 63.93 65.28 64.08 64.90 64.98 65.62 62.69 64.03 70.55 72.53 73.38 74.04 74.32 74.33 75.29 76.82 76.92 76.92 77.41 77.70 77.66 77.76 77.99 77.28 77.13 77.39 77.46 76.98 77.01 76.90 76.79 76.38 76.18 75.91 75.83 75.61 75.56 75.59 75.64 75.75 75.58 75.33
65.65 63.03 58.16 54.97 58.05 61.59 63.06 65.38 65.82 65.29 65.77 65.48 64.55 63.88 65.66 72.09 71.38 72.72 74.18 74.62 75.17 75.25 76.48 76.87 76.99 77.49 78.27 77.46 77.19 77.64 77.17 77.09 77.18 77.05 77.03 76.86 76.86 76.61 76.40 75.72 75.59 75.39 75.45 75.75 75.84 76.28 76.07 76.07 76.09
62.74 60.62 56.60 58.19 58.57 60.08 62.22 66.41 65.26 65.29 64.87 64.45 67.22 62.59 66.57 69.28 71.81 73.19 73.81 74.73 75.07 75.86 76.06 76.74 77.10 77.79 77.54 78.21 77.54 77.65 77.68 77.45 77.18 77.24 77.29 76.94 76.67 76.50 75.96 75.83 75.69 75.75 75.89 76.28 76.67 76.45 75.92 75.25 75.28
64.70 61.72 58.15 59.23 57.63 57.71 64.35 66.04 67.57 66.00 64.16 68.94 68.57 62.47 63.34 69.49 72.10 73.06 73.71 74.17 74.49 75.22 76.10 76.98 77.40 77.31 76.95 77.17 77.54 77.46 77.15 77.23 77.43 77.37 77.07 76.85 76.29 75.83 75.89 76.67 75.60 76.08 76.28 76.03 76.33 76.45 75.75 75.62 75.53
64.47 59.16 57.13 58.35 59.11 60.00 65.81 64.39 67.38 69.17 66.49 66.73 68.37 67.54 69.19 71.51 72.08 71.73 72.03 72.77 74.03 74.70 75.63 76.34 76.35 76.80 77.34 77.06 76.80 77.13 77.11 77.00 77.11 77.38 77.08 77.09 77.07 76.87 76.51 76.11 75.57 74.95 75.73 76.09 76.67 76.42 76.64 75.78 75.06
63.37 58.49 58.46 62.35 63.51 62.47 65.27 65.58 65.94 65.43 64.79 65.07 67.12 69.71 70.98 70.99 70.66 69.28 69.91 70.47 71.92 73.07 74.54 75.49 76.00 76.04 76.69 75.69 77.17 77.27 76.72 76.25 76.90 77.21 77.87 77.24 77.15 77.22 76.40 75.86 75.03 76.37 76.32 76.48 76.59 75.98 75.53 75.57 76.54
63.09 59.11 60.94 61.49 64.45 65.77 65.30 65.40 66.94 64.19 62.49 65.47 65.94 67.87 69.58 70.07 69.72 69.18 69.68 70.45 71.43 73.26 73.92 75.33 76.50 77.00 76.67 76.70 77.09 76.95 76.69 76.25 76.94 77.64 77.65 77.56 76.71 76.69 76.53 76.33 76.72 76.72 75.42 76.77 76.27 76.40 76.71 75.47 75.99
59.57 62.70 62.36 62.90 64.95 65.31 64.70 66.64 64.26 64.44 64.67 68.18 69.27 69.71 69.88 69.50 69.69 69.65 69.55 70.44 71.18 72.72 73.70 74.93 75.98 76.85 76.85 76.56 75.84 76.14 75.81 76.12 75.91 76.12 77.32 76.53 75.51 75.86 75.86 76.16 76.06 76.56 76.77 76.64 76.26 76.18 76.32 76.35 75.88
57.79 60.40 62.49 63.54 64.38 65.42 66.28 64.34 63.53 64.08 67.65 69.58 69.89 69.79 69.48 69.87 70.60 71.73 71.51 71.67 72.36 72.20 73.35 74.92 76.05 76.43 76.86 77.07 76.00 75.55 75.91 75.44 76.05 76.01 76.24 75.91 75.07 75.31 75.14 76.42 76.82 76.76 76.67 76.17 77.13 76.49 76.00 75.57 75.38
59.83 61.63 62.98 63.51 63.89 65.18 63.70 64.08 64.72 65.36 68.45 68.26 68.76 68.82 69.50 70.00 70.86 71.28 71.20 71.46 72.20 73.05 73.56 75.08 75.71 76.71 77.15 76.52 77.22 76.34 76.45 76.35 76.34 76.24 75.94 76.45 75.64 75.61 75.00 75.95 76.34 77.76 76.32 76.34 76.87 76.35 76.22 75.35 75.11
62.50 60.38 62.26 62.46 63.68 62.90 64.87 61.22 62.32 66.71 67.84 66.94 67.64 68.72 69.40 70.27 71.44 71.13 71.49 71.80 72.59 73.20 73.92 73.91 75.03 76.00 76.59 76.30 76.32 76.44 76.57 76.74 76.02 76.15 77.23 77.27 75.85 76.53 76.15 77.42 76.87 76.12 76.42 76.27 75.86 76.22 75.38 75.01 74.61
60.20 60.46 56.89 61.36 62.70 63.18 63.20 57.82 63.80 67.44 66.93 65.87 66.72 67.81 68.72 69.92 71.20 72.36 72.66 73.18 73.51 73.38 73.35 74.27 74.16 74.90 75.90 76.17 76.44 76.36 76.43 76.44 76.24 77.91 77.03 77.34 77.32 77.42 77.15 76.08 77.75 76.06 75.92 75.36 75.78 75.00 74.01 73.67 73.07
58.08 54.97 56.52 58.41 62.81 62.13 62.21 59.10 63.80 67.23 66.89 66.29 66.78 67.53 68.52 69.72 71.10 72.42 73.43 73.81 73.95 74.34 74.20 74.15 74.88 74.84 75.64 76.38 76.55 76.66 77.28 76.81 76.60 76.77 78.77 77.09 77.27 77.27 76.93 78.12 77.84 75.10 75.48 76.80 75.19 74.64 73.46 71.99 71.46
54.38 55.26 56.89 57.52 60.49 61.52 60.42 60.49 63.18 66.23 66.48 66.49 67.20 67.42 68.52 69.35 70.59 72.42 73.34 74.04 74.41 74.64 75.00 75.01 75.07 75.77 76.57 76.46 76.64 76.25 76.66 76.59 77.11 76.98 77.02 77.69 78.15 77.37 77.60 77.28 76.30 75.59 75.14 74.06 73.68 72.68 72.46 71.35 70.79
58.14 57.31 56.80 59.28 61.77 60.27 59.81 60.41 62.08 65.43 66.10 66.04 67.06 67.65 68.13 69.23 71.52 72.64 73.19 73.91 73.96 74.41 74.48 74.64 75.06 76.84 76.18 75.08 74.62 74.78 74.64 75.84 76.31 76.94 77.27 77.32 77.44 77.08 77.09 75.53 74.96 74.96 73.84 73.51 73.24 71.89 70.71 70.38 71.54
58.01 57.06 56.92 59.21 61.55 60.56 59.62 59.08 62.64 64.02 65.18 66.35 66.58 67.32 68.15 69.37 70.52 71.49 72.53 73.10 73.55 73.68 74.12 74.68 75.59 76.78 76.36 75.78 75.77 75.61 75.81 75.91 76.35 76.83 77.08 77.30 76.98 77.36 76.49 76.05 74.70 74.51 72.60 72.51 72.53 71.79 68.89 69.99 71.34
56.60 56.69 57.22 57.09 59.62 61.02 59.54 57.65 60.24 63.09 64.72 65.84 66.89 67.60 68.17 68.79 69.22 69.93 70.66 71.94 72.57 72.79 73.68 74.72 76.22 76.84 76.57 76.91 76.06 75.78 75.72 75.82 74.70 75.24 75.59 76.23 76.61 76.85 76.38 75.26 74.75 74.18 73.16 70.88 71.86 71.11 69.81 66.92 69.79
51.38 58.09 58.94 58.21 57.13 53.33 59.89 51.62 58.30 61.61 62.15 63.67 64.93 65.89 66.54 67.51 69.06 69.59 69.83 70.61 71.73 72.63 74.16 75.53 76.05 76.65 76.26 76.92 75.59 75.44 73.98 73.10 74.32 74.62 74.99 75.98 76.73 76.23 75.81 74.99 74.65 73.91 71.75 71.47 71.25 71.15 70.68 69.67 66.68
52.83 56.79 57.42 58.50 57.17 56.18 55.75 53.87 57.09 60.53 59.87 62.23 64.26 65.68 66.43 67.41 68.20 68.55 69.31 70.53 71.70 72.43 73.10 74.35 75.83 76.27 77.02 76.56 76.69 74.92 74.51 74.69 75.02 73.74 73.38 74.07 74.70 75.63 75.39 74.86 73.53 72.37 71.09 71.99 71.02 70.22 69.98 69.74 68.88
54.81 54.33 54.24 56.42 55.89 49.60 54.50 54.46 54.04 57.77 60.31 62.57 64.42 65.60 66.52 67.34 68.08 68.95 70.00 70.73 71.25 72.28 72.69 73.66 75.22 76.13 76.61 75.79 75.78 75.87 75.60 74.86 73.04 72.30 71.56 71.54 71.54 71.29 72.57 72.36 72.35 72.27 71.64 70.66 70.29 70.35 70.10 69.81 69.96
54.02 52.64 47.26 46.40 47.36 46.67 54.33 53.87 55.92 59.90 62.28 63.59 64.33 65.07 66.47 67.49 67.88 68.67 69.17 69.43 70.79 71.66 72.39 73.21 74.62 75.03 75.91 75.25 75.71 75.48 75.71 75.39 74.30 72.98 71.10 70.66 69.69 69.17 70.67 71.99 72.01 71.40 71.28 70.86 70.52 70.34 69.51 69.41 68.65
51.68 51.83 47.72 42.78 43.92 46.87 51.09 50.09 54.91 61.83 63.26 63.89 65.46 66.39 66.92 67.08 68.31 68.83 70.23 70.52 71.07 71.60 72.87 73.52 73.74 74.01 75.25 74.76 76.03 76.31 76.11 74.85 73.05 73.62 71.71 69.69 69.58 69.49 71.65 71.74 71.79 71.29 70.55 70.35 70.14 69.39 69.27 69.56 68.81
51.36 48.68 54.13 49.02 46.61 47.64 50.57 53.64 56.45 59.85 60.38 61.97 63.31 64.48 65.74 67.03 68.04 68.49 69.53 70.32 71.32 72.06 72.56 73.21 73.80 74.25 75.03 74.48 75.89 75.61 76.09 75.30 73.62 73.71 70.84 69.74 70.47 69.74 70.78 71.35 70.99 70.26 69.47 69.75 70.48 69.02 69.45 69.49 69.34
52.06 53.52 47.16 48.28 44.42 42.21 46.34 48.35 50.20 56.13 58.29 61.28 62.09 62.83 65.07 67.02 68.05 68.75 69.93 71.04 72.01 72.41 73.10 73.78 74.23 74.09 74.82 74.64 75.11 74.80 74.78 74.23 74.08 71.30 67.88 69.60 69.82 70.14 70.72 70.49 70.33 69.74 69.81 70.06 70.30 69.14 69.23 68.83 68.56
48.87 48.50 49.33 51.05 49.41 46.13 44.21 47.48 56.64 58.17 60.38 60.52 61.45 62.96 63.89 65.93 67.39 68.95 70.58 71.61 72.30 72.57 72.61 73.06 73.56 74.26 74.53 74.96 75.49 75.34 73.95 72.76 68.21 69.73 66.56 66.95 68.40 68.95 70.00 69.52 69.51 69.71 69.71 69.85 69.61 69.34 68.88 68.39 68.71
50.98 50.07 50.82 47.65 46.51 47.49 48.24 48.56 56.52 58.22 60.14 61.11 61.18 62.39 63.86 65.74 66.99 68.65 69.82 70.62 71.32 72.37 72.09 72.18 73.41 73.52 74.26 74.95 75.01 73.60 71.67 67.16 70.02 68.59 68.26 67.67 67.41 68.13 68.28 68.70 69.20 69.38 69.61 69.67 69.17 68.53 67.76 67.88 67.54

GFSSGP_sfc_wetblb_024.txt.gz
Wetbulb
76.63 77.50 77.19 74.43 63.29 59.81 57.42 58.17 64.07 62.37 63.52 67.25 66.28 63.63 64.27 66.52 64.15 60.66 73.53 73.94 73.87 74.75 76.15 76.32 76.41 75.87 75.82 76.16 76.24 76.63 76.63 76.60 76.49 77.13 76.89 77.10 77.55 77.83 77.81 77.71 77.47 77.48 77.24 76.88 76.60 76.47 76.30 76.13 75.99
77.88 75.67 74.49 70.74 59.67 55.15 57.88 62.36 61.51 64.41 66.69 68.41 68.12 67.09 65.80 64.13 69.20 70.24 71.75 74.43 75.58 75.09 76.00 76.50 76.21 76.28 76.47 76.45 76.39 76.68 76.72 76.46 77.31 77.38 77.17 77.31 77.57 77.84 77.58 77.07 77.20 77.25 76.99 76.66 76.49 76.36 76.02 76.02 75.86
76.38 75.31 71.20 64.67 60.21 56.05 57.14 62.03 63.99 66.48 67.81 66.67 66.30 68.51 66.91 65.50 69.86 71.28 74.29 75.00 75.44 75.66 75.89 77.08 76.26 76.72 76.57 76.74 76.74 77.21 77.27 77.22 77.24 77.57 77.14 77.53 77.69 77.50 76.96 76.69 76.84 76.98 76.63 76.33 76.08 75.94 75.94 75.86 75.86
73.97 73.55 70.76 59.99 56.74 60.13 60.61 63.64 66.19 66.40 67.80 67.57 67.50 64.94 68.79 71.70 71.09 73.64 75.42 76.09 75.68 76.32 76.39 76.68 77.11 77.07 77.46 77.16 77.38 77.47 77.62 77.43 77.31 77.10 77.48 77.37 77.21 77.05 76.55 76.96 76.82 76.47 76.28 76.00 75.75 75.58 75.47 75.25 74.97
74.60 69.86 59.84 57.28 58.20 61.16 64.21 65.96 67.12 65.78 66.54 66.30 67.41 64.51 66.99 71.41 74.14 75.08 75.13 75.27 75.42 76.07 76.68 77.58 77.61 77.29 77.31 77.09 77.46 77.39 77.34 77.29 77.45 77.45 77.29 76.94 76.94 76.66 76.80 76.60 76.22 76.03 75.75 75.67 75.81 75.92 75.78 75.75 75.53
68.92 67.12 56.88 54.32 58.24 61.66 64.35 66.42 66.80 66.55 67.30 66.86 66.22 66.68 67.60 73.16 73.77 75.01 75.79 75.42 75.81 75.16 76.61 76.84 76.70 77.29 77.43 77.16 77.34 77.50 77.20 77.48 77.36 77.12 77.13 77.07 76.88 76.44 76.38 75.94 75.50 75.47 75.44 75.83 76.25 76.17 75.55 75.28 75.19
65.71 63.08 57.35 56.95 58.45 60.23 62.95 67.42 65.83 66.56 66.37 65.65 68.14 65.32 69.05 71.45 74.34 75.34 75.71 75.78 75.83 76.84 75.44 76.61 77.35 77.65 77.33 77.63 77.21 76.93 77.16 77.10 77.18 77.04 77.01 76.84 76.52 76.44 75.88 75.83 75.56 75.83 76.16 76.38 76.38 76.07 75.20 74.60 74.76
68.01 64.07 59.05 58.37 57.53 59.11 64.43 66.19 67.93 66.83 66.16 69.95 69.22 64.32 66.13 70.98 74.07 74.94 75.14 75.26 75.57 76.24 75.45 77.53 78.00 77.53 76.94 77.33 77.46 77.56 77.61 77.31 77.20 77.50 77.09 76.76 76.33 76.03 75.80 76.11 75.74 75.42 75.97 76.22 76.27 76.22 75.16 74.97 75.06
67.97 61.10 59.02 58.61 58.10 61.18 66.10 65.03 68.32 69.86 68.15 68.34 68.96 67.97 70.53 72.41 73.55 73.06 73.15 73.88 74.72 75.29 75.24 76.91 77.18 77.10 77.43 77.34 77.60 77.38 77.19 77.31 77.25 77.39 76.98 77.00 77.06 77.48 76.25 76.18 75.06 74.75 75.95 76.22 76.19 76.05 75.49 75.35 75.25
64.96 61.06 58.98 62.61 62.77 62.90 65.34 65.46 67.31 66.68 66.46 66.69 68.38 70.18 71.46 71.80 72.09 71.43 71.72 72.33 73.30 74.26 75.12 76.36 76.20 76.57 77.09 76.46 77.80 77.48 77.10 77.01 77.39 77.35 77.93 76.91 77.67 78.19 76.91 76.70 75.97 76.47 75.80 76.14 75.54 75.18 75.81 75.80 76.63
65.32 61.62 62.36 63.11 64.75 65.42 65.83 65.55 67.26 65.07 64.00 66.95 67.49 69.06 70.45 70.67 71.18 71.40 71.95 72.90 73.46 74.71 75.15 75.68 76.01 76.96 76.88 76.59 76.70 76.54 76.58 76.57 77.01 78.15 77.90 77.35 77.31 77.75 77.74 78.05 77.52 78.45 76.71 76.59 77.18 76.83 76.11 76.13 76.55
62.24 63.00 62.17 63.51 65.86 65.05 65.25 66.83 64.77 65.36 65.21 68.64 70.12 70.92 70.44 70.01 70.24 70.87 71.54 72.46 73.36 74.28 74.96 75.87 76.75 76.82 77.00 76.79 76.27 76.46 76.11 76.39 76.01 76.20 77.74 76.78 76.32 76.67 76.86 77.22 77.21 77.01 77.22 77.04 77.32 76.98 77.11 76.83 77.25
62.54 61.55 63.12 63.43 65.74 66.10 66.99 65.69 64.23 65.44 68.63 69.53 70.75 70.63 70.03 70.36 70.65 71.49 72.01 72.68 73.60 73.85 74.97 75.90 77.13 77.75 77.75 77.58 76.40 76.13 76.24 75.72 76.04 76.05 76.47 76.42 76.23 76.75 77.16 77.72 76.39 76.92 76.46 76.69 77.18 76.62 76.46 76.68 76.30
63.06 61.91 62.71 63.45 64.95 66.62 65.40 65.64 64.99 66.24 69.89 69.05 69.71 69.80 70.33 70.49 71.03 71.74 71.92 72.28 73.09 73.86 74.49 75.97 76.63 77.35 77.68 77.54 77.85 76.56 76.31 76.17 76.06 75.88 76.13 77.45 76.92 76.74 78.20 76.03 76.28 76.54 76.31 77.49 77.26 76.12 75.87 76.09 75.85
61.57 60.21 62.82 63.52 65.32 65.40 66.23 63.60 64.26 67.93 69.67 68.45 69.08 69.83 70.13 70.63 71.80 72.27 73.15 73.20 73.98 74.27 74.94 75.46 76.45 77.22 77.71 77.76 77.69 77.26 76.50 76.35 76.05 76.54 77.93 78.03 77.78 77.35 78.47 75.83 75.32 75.53 77.43 77.66 77.69 76.11 76.20 75.30 75.05
59.55 60.05 58.24 63.63 65.25 65.71 65.34 60.02 65.31 68.79 68.61 67.78 68.29 69.01 69.22 70.49 71.52 72.94 73.45 74.06 74.74 74.94 75.11 75.83 75.78 76.46 77.42 77.71 77.54 76.99 76.95 77.03 76.96 77.21 77.11 78.16 77.92 78.82 78.68 79.49 75.04 75.90 76.95 76.65 76.06 75.48 73.20 72.19 71.73
59.22 55.84 57.17 60.86 65.11 64.39 64.10 60.62 65.77 68.80 68.42 67.94 68.11 68.31 68.93 70.37 71.75 73.30 73.46 74.25 74.99 75.42 75.59 75.69 75.98 75.76 76.75 77.76 77.87 78.09 78.70 79.11 77.63 80.31 77.59 77.77 77.90 77.52 76.95 75.82 76.17 77.60 76.43 75.46 75.25 73.38 73.16 70.58 69.68
55.72 56.07 57.18 58.62 62.70 63.99 62.60 62.25 64.83 68.02 68.02 67.95 68.46 68.31 68.69 69.73 71.16 73.37 74.00 74.64 75.40 75.83 76.08 76.43 76.08 76.85 77.74 77.42 78.06 79.14 79.98 80.29 77.85 77.79 79.44 78.26 77.42 77.64 77.20 76.03 76.28 76.44 76.56 75.80 75.02 73.77 72.08 70.17 69.90
58.57 57.61 56.84 59.83 63.96 62.77 61.97 62.25 64.40 67.22 67.44 67.30 68.20 68.54 68.70 69.86 72.03 73.68 74.39 75.01 75.32 75.91 76.15 76.53 76.40 77.60 77.70 76.75 76.18 75.98 75.67 79.06 77.19 77.99 78.79 78.18 78.03 77.63 77.84 75.89 76.04 76.17 75.48 75.07 75.59 72.46 69.82 68.45 70.96
57.24 56.94 56.95 60.67 63.44 62.89 61.97 61.74 64.14 65.68 67.18 67.62 67.65 68.50 69.22 70.07 71.42 72.64 73.94 74.43 74.94 75.50 76.30 76.80 76.88 77.65 77.92 77.38 77.20 76.77 76.74 76.65 77.07 77.63 78.49 78.42 78.35 78.25 76.84 77.24 76.37 76.59 74.74 75.73 74.32 71.83 67.74 69.65 71.44
57.13 56.96 57.24 58.46 62.13 63.26 61.23 60.02 61.93 64.18 66.41 68.47 68.82 69.09 69.73 70.25 70.22 71.67 72.82 73.96 74.75 75.29 76.06 76.75 77.62 77.89 78.46 78.65 77.84 77.80 77.80 77.47 76.58 76.66 76.89 77.57 78.31 78.24 78.00 76.92 76.72 76.57 75.07 72.24 72.50 71.70 70.08 67.01 70.06
54.92 59.00 58.71 59.00 59.24 55.65 62.08 53.62 59.61 62.88 64.09 66.24 68.11 68.18 68.92 70.21 71.58 71.74 72.16 73.19 74.24 75.05 76.45 77.26 77.93 78.56 78.55 79.53 78.95 78.23 75.30 74.02 74.42 75.29 75.50 75.69 77.61 77.45 77.38 77.51 76.85 76.67 73.80 72.41 71.79 72.08 70.59 70.13 66.91
55.20 58.75 58.37 59.10 58.74 58.20 58.66 56.26 58.47 61.94 61.99 64.39 67.06 67.91 68.09 69.19 69.75 70.26 71.35 72.36 74.04 74.99 75.53 76.83 78.16 79.32 79.68 80.16 79.61 77.40 76.67 75.83 75.96 75.88 76.22 76.81 77.39 77.56 76.40 77.54 76.57 75.37 71.72 72.77 73.04 72.20 71.31 69.99 68.51
57.32 56.64 57.42 58.16 57.51 52.78 56.90 56.52 56.41 59.47 62.60 63.92 66.45 68.09 68.05 68.09 69.00 69.74 71.14 71.90 72.90 74.28 75.03 76.01 77.82 79.61 79.61 78.97 78.54 78.56 78.48 76.79 75.25 76.02 75.08 73.71 73.64 75.44 77.10 76.68 75.98 74.20 72.19 72.93 72.08 71.97 70.82 70.72 70.55
55.01 54.53 50.97 50.05 50.55 50.40 57.95 55.21 57.21 60.51 62.08 63.98 63.96 67.18 68.75 69.01 68.52 69.18 69.92 70.18 71.58 72.78 74.10 75.14 78.48 79.23 79.07 78.32 78.27 78.20 77.95 77.90 77.36 77.09 75.52 74.04 72.06 72.13 74.14 75.16 74.25 73.19 73.89 73.21 72.25 71.62 71.01 70.41 69.49
52.43 54.25 51.08 46.41 47.84 50.92 56.75 52.38 56.28 62.64 63.83 64.11 64.30 65.98 68.33 69.37 69.83 69.49 70.67 71.27 71.99 72.82 74.58 75.52 77.86 78.54 78.41 77.74 79.05 79.49 78.79 77.29 77.01 77.40 75.98 73.60 71.72 72.02 74.31 73.37 73.66 73.75 73.52 72.98 72.05 70.33 70.10 70.72 69.72
52.69 51.86 56.50 53.28 54.05 51.24 53.14 56.44 59.37 60.99 61.96 62.80 63.42 64.65 66.27 68.76 69.80 70.14 70.83 71.95 72.52 73.83 75.65 76.86 77.93 78.99 79.11 77.69 79.24 78.54 78.46 77.95 77.51 78.01 77.81 74.85 74.76 72.50 73.19 73.55 72.79 73.21 73.15 72.39 71.89 70.22 70.60 70.41 70.21
54.03 56.19 51.40 53.29 48.19 46.66 50.68 52.75 53.83 58.18 59.58 61.13 61.51 63.02 65.35 67.61 69.35 70.28 71.08 71.94 73.26 74.14 75.05 75.97 77.65 78.38 78.18 77.48 77.66 77.22 77.60 78.08 78.21 77.62 76.82 75.67 74.12 73.10 72.24 72.66 72.57 72.41 72.17 71.64 72.17 70.56 70.65 70.26 68.78
50.95 51.76 54.05 54.32 52.62 48.81 47.55 50.79 58.50 58.64 60.06 59.93 60.78 62.37 63.64 65.48 68.51 70.23 71.21 72.29 73.72 74.36 74.74 75.40 76.11 76.47 76.65 78.15 78.42 78.65 77.21 77.36 76.99 76.75 76.39 75.11 73.51 72.65 72.06 72.30 71.81 71.60 70.99 71.48 71.50 71.04 69.72 69.47 69.71
53.35 52.65 54.40 50.93 51.08 52.66 51.75 51.83 59.51 60.40 60.38 60.87 61.27 62.20 63.29 65.01 67.26 69.75 71.24 72.24 72.69 73.73 74.50 74.93 75.64 75.87 76.51 77.99 78.93 77.51 77.94 77.41 76.44 75.52 74.11 73.62 72.13 71.87 71.10 70.55 70.50 70.39 71.07 71.62 70.87 69.85 69.12 68.96 68.69

GFSSGP_sfc_wetblb_027.txt.gz
Wetbulb
76.59 77.48 77.05 72.88 65.27 61.06 58.03 59.33 63.44 61.97 62.83 66.16 67.18 65.68 65.10 65.91 63.21 57.00 71.37 72.60 74.57 74.70 75.61 76.14 76.13 76.32 76.45 76.30 76.34 76.08 76.21 76.22 76.66 77.21 77.19 77.49 77.82 77.87 77.63 77.53 77.36 77.26 76.93 76.77 76.74 76.46 76.38 76.15 75.85
77.20 77.19 76.11 70.24 59.88 53.69 57.04 62.33 60.63 63.49 66.39 67.38 68.18 67.02 65.64 64.83 69.91 70.35 71.41 74.37 74.54 74.02 75.01 75.30 76.43 76.20 76.59 76.73 76.93 76.83 76.64 76.34 76.62 77.08 77.28 77.49 77.71 77.61 77.12 77.12 77.25 77.04 76.76 76.46 76.35 76.21 76.21 76.10 75.88
78.00 77.15 70.07 65.93 58.76 55.04 57.15 61.67 64.47 66.43 68.29 67.03 66.66 68.84 67.45 66.19 70.82 70.78 74.39 74.61 74.53 75.41 75.70 76.00 76.44 76.65 76.80 76.83 77.20 77.02 76.86 76.84 76.95 76.87 77.20 77.53 77.50 77.26 76.57 76.90 76.82 76.65 76.29 76.13 76.05 75.88 75.80 75.41 75.27
75.81 72.84 71.75 60.70 57.81 61.08 62.13 64.01 66.52 66.42 67.57 68.12 68.34 65.58 69.58 72.36 71.36 73.23 74.61 74.68 75.13 75.42 75.48 75.82 76.45 76.82 77.18 77.22 77.50 77.37 77.40 77.37 76.98 76.96 77.51 77.31 77.18 76.66 76.63 76.77 76.55 76.30 76.05 76.04 75.77 75.93 75.82 75.24 74.99
75.13 71.40 63.08 57.71 58.15 62.29 64.54 66.23 66.82 64.48 66.15 67.09 68.25 65.74 67.09 71.69 74.40 74.99 73.79 74.42 74.58 75.40 76.72 76.56 77.08 77.16 77.40 77.60 77.81 77.79 77.65 77.38 76.84 77.18 77.10 76.96 76.99 76.63 76.69 76.07 75.87 75.79 75.93 76.07 76.24 76.21 75.56 75.54 75.29
69.41 68.24 57.64 54.90 57.23 61.79 65.32 66.67 66.43 66.10 66.94 67.10 67.14 67.28 67.96 73.65 73.68 74.79 75.62 74.67 75.11 75.31 76.91 77.24 77.58 77.61 77.44 77.59 77.38 77.36 77.14 77.01 77.09 76.87 76.91 76.82 76.63 76.38 75.79 75.39 75.39 75.59 76.09 76.34 76.59 75.69 75.09 74.88 75.00
67.36 63.28 58.40 57.58 58.06 59.43 62.81 66.24 65.44 66.05 65.89 66.70 69.69 66.02 69.65 71.98 74.29 74.88 75.17 74.52 74.94 76.05 76.18 76.86 77.43 77.99 77.40 77.47 77.26 76.98 77.04 77.17 76.93 76.82 76.71 76.71 76.46 76.10 75.37 75.28 75.40 75.84 76.09 76.08 76.07 75.80 74.91 74.57 74.79
68.84 64.64 58.22 59.54 57.77 57.86 63.57 65.24 66.47 66.04 66.10 69.77 71.29 66.02 66.79 72.15 74.52 74.65 74.15 74.17 73.77 76.12 76.00 76.49 77.11 77.25 78.17 77.16 76.79 76.74 77.01 76.93 76.63 76.99 76.96 76.60 76.55 76.35 75.93 75.96 75.82 74.86 75.30 75.72 75.85 75.82 75.04 74.53 75.12
69.69 61.15 58.97 58.05 59.21 60.53 64.32 63.28 66.73 69.02 67.43 67.78 68.76 69.83 71.68 73.40 74.05 74.00 73.74 72.68 74.60 75.39 75.78 76.32 75.35 76.26 76.84 76.68 76.75 77.57 77.34 77.04 77.04 77.52 77.01 76.85 76.12 76.77 77.74 76.50 75.02 74.27 76.46 75.96 76.25 76.14 75.98 76.20 76.35
66.13 58.34 60.07 62.80 63.21 62.88 63.39 63.72 65.76 65.59 66.05 66.45 67.22 71.06 72.59 72.92 72.73 71.82 71.73 72.53 73.40 74.24 74.74 75.74 76.13 76.18 76.51 76.15 77.83 77.54 77.11 76.92 76.99 76.95 77.79 76.54 77.25 77.59 76.89 76.54 76.16 76.60 76.91 76.64 76.52 76.59 76.79 77.40 76.14
65.41 60.15 63.50 63.04 64.37 65.31 63.88 63.37 66.09 64.93 63.49 66.52 66.61 69.17 71.16 71.67 71.84 71.46 71.82 72.46 73.16 74.98 75.26 76.32 76.64 76.83 76.31 78.11 76.25 76.64 76.46 76.62 76.74 77.96 77.90 77.40 77.40 77.50 76.83 76.37 77.77 76.40 77.22 76.32 76.44 76.13 75.86 75.69 75.93
62.87 64.62 62.81 64.21 64.04 64.76 63.73 64.32 62.92 64.53 64.93 68.24 69.41 70.61 70.74 70.71 71.01 71.32 71.68 72.72 73.54 74.17 74.62 75.31 76.40 77.14 77.28 76.74 75.80 76.11 75.67 75.78 75.63 76.56 78.11 77.49 76.39 76.47 77.29 76.38 76.03 77.86 77.64 77.05 78.23 75.62 77.80 76.94 76.66
63.80 63.26 63.08 63.71 64.38 65.05 66.13 63.38 62.60 63.99 66.58 68.49 70.04 70.65 70.10 70.55 70.93 72.00 72.67 73.35 74.11 74.00 74.59 75.35 76.50 77.26 77.50 77.87 76.36 75.97 75.68 75.50 75.72 76.04 76.96 76.54 76.18 77.28 77.43 77.15 76.41 75.94 76.51 76.21 75.32 76.39 77.23 76.01 76.22
64.30 63.79 62.65 63.37 64.19 64.83 63.55 64.07 64.17 65.96 67.78 68.01 69.25 69.63 70.07 70.01 70.61 71.47 72.04 72.69 73.64 74.68 74.93 75.83 76.54 77.52 77.65 78.18 78.72 76.88 76.49 76.42 75.85 75.89 76.15 77.68 77.17 78.39 77.45 76.26 75.75 75.96 76.47 76.91 76.95 76.75 76.09 75.67 76.53
63.75 60.69 62.45 62.70 63.87 63.57 65.41 62.56 62.02 67.16 68.06 67.37 68.35 68.90 69.30 69.97 70.98 71.19 72.12 72.51 73.57 74.46 75.36 75.70 76.44 77.33 77.80 77.77 77.64 77.03 76.43 75.85 75.62 75.71 77.56 77.57 78.28 78.34 77.66 76.47 76.17 76.57 77.67 78.10 77.32 77.54 77.34 75.41 75.41
60.31 61.26 58.45 62.16 62.91 64.84 64.26 59.51 65.02 68.47 67.33 66.25 67.63 68.40 68.82 69.89 70.56 72.05 72.72 73.31 74.16 74.56 74.96 76.11 76.09 76.66 77.25 78.60 77.96 77.17 76.63 76.48 76.17 76.66 76.35 78.14 78.31 78.58 77.94 76.18 75.79 76.68 78.08 76.88 76.33 75.83 75.36 72.76 71.59
58.98 56.37 57.34 59.32 63.35 64.50 63.52 58.73 65.30 68.43 67.50 66.28 66.98 67.89 68.65 69.43 70.82 72.18 73.23 73.72 74.24 75.18 75.54 75.69 76.46 76.15 77.21 78.85 78.12 77.90 79.33 77.03 77.41 77.42 76.48 78.18 78.16 78.73 77.89 75.97 77.62 78.31 76.78 75.86 76.17 74.10 74.32 71.25 69.15
56.36 56.59 58.21 59.47 61.02 63.87 61.97 62.59 65.70 67.45 67.32 66.33 66.87 67.47 68.37 68.83 70.14 72.28 73.08 73.65 74.50 75.29 75.91 76.53 76.43 77.87 79.36 78.35 78.86 77.58 78.41 78.15 77.96 76.78 77.02 78.19 78.50 77.98 79.03 76.63 77.02 76.99 75.37 76.03 73.53 74.31 72.49 70.01 70.39
59.43 58.80 56.87 60.57 61.41 62.28 61.82 61.98 64.21 67.06 67.42 66.34 66.54 67.05 67.54 68.60 71.23 72.39 73.37 73.39 74.37 75.14 75.46 76.24 77.22 79.91 77.98 76.15 75.46 75.93 75.20 77.66 76.76 76.92 76.91 78.60 78.37 78.30 78.90 76.21 75.43 76.37 75.77 74.48 74.67 72.61 72.24 68.51 71.25
58.12 58.02 57.93 59.55 61.55 61.90 61.76 61.61 63.83 66.43 67.02 67.43 67.09 67.11 67.30 68.10 69.81 71.64 73.09 73.38 74.07 74.95 76.06 77.47 78.23 80.01 78.84 77.46 78.04 77.36 77.21 75.84 76.95 77.18 78.13 79.12 78.13 79.31 77.53 78.24 77.33 76.07 73.77 75.21 73.53 72.22 68.82 67.76 71.10
57.01 57.45 58.10 57.04 62.19 62.95 61.52 59.81 61.99 64.62 67.03 68.23 68.25 68.44 68.67 68.23 68.70 70.80 72.31 73.28 74.02 74.52 75.94 77.98 79.68 80.15 79.91 80.26 79.21 78.04 77.97 77.11 75.91 74.56 74.70 76.33 77.28 76.88 78.09 77.70 76.93 77.32 74.59 73.15 73.34 71.49 70.21 66.81 68.75
54.50 58.88 58.60 58.00 57.82 55.98 61.01 54.38 60.43 62.67 63.69 66.01 67.68 68.43 68.02 68.79 69.40 70.39 71.87 72.91 73.60 74.57 76.22 78.76 79.92 80.48 80.35 80.94 78.71 79.41 75.78 73.90 73.62 74.88 75.00 75.63 76.25 75.98 77.72 77.12 76.17 76.37 74.95 74.06 72.07 71.20 70.45 69.96 67.02
55.83 59.34 58.81 58.75 57.32 58.20 57.37 55.45 57.50 61.88 61.28 63.00 66.36 68.43 68.92 69.21 69.53 69.45 70.75 72.76 73.85 74.69 75.42 77.30 80.21 80.83 80.98 80.66 79.93 77.83 77.50 75.04 74.87 74.58 78.79 77.36 78.59 76.34 75.42 75.86 77.20 75.72 73.12 73.97 72.19 71.64 71.43 69.65 68.10
58.32 57.88 58.75 58.44 57.27 52.32 57.49 55.81 56.94 58.60 61.93 63.43 65.84 67.88 69.24 68.91 69.98 70.78 71.46 72.66 73.36 74.41 75.08 76.52 79.58 80.95 81.52 81.10 80.84 80.72 80.22 77.54 75.63 75.88 75.28 74.28 73.61 74.53 76.07 75.86 76.61 77.12 73.97 72.63 72.19 72.19 71.04 70.77 70.49
55.86 55.21 51.04 50.22 50.68 50.51 58.13 56.55 57.95 61.62 62.99 64.20 64.11 66.03 68.73 69.91 69.41 70.40 70.81 71.00 72.95 74.10 75.43 76.01 79.01 80.39 81.63 80.89 80.59 80.22 80.73 80.66 79.64 78.04 75.30 76.85 72.40 72.50 77.11 77.22 76.88 74.68 75.35 73.34 72.99 72.54 71.33 70.93 69.70
53.83 54.39 51.05 46.95 48.22 50.85 56.89 54.13 57.44 63.37 64.23 64.56 64.42 65.48 67.54 69.56 69.96 69.77 70.69 70.75 72.19 73.63 75.94 76.71 78.12 80.04 81.09 80.91 80.81 81.49 81.49 77.74 77.30 78.43 76.02 74.55 72.57 72.92 77.20 75.75 75.35 74.31 74.77 74.48 73.54 70.92 70.36 71.87 70.13
53.33 52.15 56.30 53.17 54.38 51.82 54.16 57.37 60.04 62.58 62.57 63.85 64.21 64.44 64.60 68.17 69.69 70.03 70.38 70.71 70.88 73.32 75.53 76.51 77.73 79.81 80.93 80.31 81.41 81.12 81.15 80.25 77.58 79.17 79.82 76.56 77.99 73.41 75.54 75.10 74.50 74.55 73.43 73.18 73.07 70.33 70.94 71.00 71.05
53.16 56.16 51.45 53.65 49.01 48.79 51.92 53.75 55.34 59.72 60.53 62.48 62.92 62.83 63.74 65.51 68.34 70.14 70.58 71.21 72.48 72.34 74.85 76.91 78.18 79.90 80.52 80.57 80.97 80.17 80.53 80.63 80.63 80.90 80.22 79.03 78.28 76.33 75.69 74.46 73.86 73.80 72.78 73.66 73.36 72.27 72.56 71.56 69.82
50.99 51.64 53.88 54.03 53.33 49.95 48.90 52.80 60.38 60.77 61.79 61.22 62.29 63.18 63.66 64.24 66.40 69.26 71.06 71.75 73.41 73.21 74.14 75.77 77.58 79.11 80.17 80.28 80.18 80.01 79.89 79.71 80.10 79.30 79.57 79.36 79.05 77.17 75.39 75.05 74.41 73.86 71.94 72.88 72.72 72.72 71.44 70.82 71.22
53.87 51.91 52.99 53.26 51.67 53.21 53.26 52.71 61.02 61.15 62.02 62.31 62.56 63.16 63.83 64.62 65.49 67.52 69.94 71.60 72.52 74.57 73.71 74.13 75.77 76.68 78.59 79.40 80.42 79.90 80.38 79.90 79.24 79.36 79.65 79.63 78.36 77.19 75.57 74.95 74.05 73.09 72.73 72.61 71.90 70.70 70.29 69.65 69.57

GFSSGP_sfc_wetblb_030.txt.gz
Wetbulb
76.12 75.87 75.48 71.45 62.44 61.47 56.18 57.80 63.94 61.85 62.93 66.68 66.36 64.21 63.41 64.27 60.75 58.23 70.84 72.27 73.46 73.38 74.54 75.18 76.45 76.69 76.29 76.08 76.20 76.96 77.37 78.00 78.23 78.45 78.65 78.54 78.33 78.21 78.22 77.97 77.57 77.46 77.05 76.65 76.45 76.40 76.26 76.03 75.90
75.97 76.19 73.37 67.09 58.67 53.61 56.87 62.61 60.26 63.22 65.39 67.98 67.68 66.57 64.69 62.11 67.53 68.40 69.73 72.99 74.01 73.76 74.45 74.47 76.90 76.75 76.78 77.02 77.15 77.31 76.98 77.17 78.05 78.26 78.34 78.39 77.97 77.76 77.28 77.28 77.05 76.86 76.54 76.34 76.15 76.15 75.98 76.06 75.62
75.51 75.75 65.37 61.60 59.55 53.61 57.05 62.93 62.83 65.78 67.83 66.54 65.11 67.73 66.17 64.32 68.76 69.78 72.74 73.65 73.83 73.47 74.55 75.57 76.66 76.68 77.15 77.57 77.81 77.82 77.34 77.61 78.00 78.09 77.70 77.63 77.39 76.84 77.06 76.98 76.79 76.45 76.18 76.01 75.96 75.82 75.60 75.18 75.15
74.02 71.78 69.53 61.29 56.93 60.97 61.85 63.15 65.20 64.95 67.03 67.69 66.99 64.48 69.10 71.67 70.15 72.43 73.42 73.79 73.47 73.82 74.39 76.11 76.81 77.07 77.16 77.93 77.80 77.73 77.76 77.44 77.75 77.62 77.44 77.22 76.87 76.62 76.84 76.40 76.18 75.95 75.96 76.04 76.04 76.09 75.59 75.26 74.79
75.00 70.62 63.67 58.82 58.72 62.44 64.03 65.44 65.92 64.14 65.55 66.33 66.80 64.43 65.72 70.77 73.18 73.64 73.62 73.94 73.38 74.23 74.36 75.36 77.40 77.84 77.85 78.31 78.05 78.06 77.86 77.11 77.73 77.36 77.12 76.93 76.65 76.54 76.37 75.95 75.64 75.83 76.20 76.31 76.57 75.92 75.33 75.06 74.81
68.67 68.38 60.44 54.58 57.12 62.73 64.55 66.28 65.21 64.94 66.17 66.51 65.84 65.20 66.36 72.50 72.28 73.43 74.53 73.85 74.98 74.48 74.93 75.31 77.41 78.08 78.01 78.17 78.34 78.05 77.40 76.97 77.08 77.00 76.79 76.73 76.54 76.40 75.70 75.29 75.15 75.46 76.02 76.22 76.25 75.46 74.70 74.41 74.43
67.06 65.13 60.53 56.50 56.76 59.56 62.03 67.22 64.19 64.12 65.70 65.53 68.50 63.85 67.26 70.15 72.76 73.65 73.68 74.83 74.34 75.34 75.43 76.27 76.36 77.48 78.05 78.37 77.79 77.33 77.11 77.11 77.00 76.68 76.65 76.62 76.51 76.21 75.81 75.18 75.32 75.01 75.35 75.62 75.62 75.23 74.63 74.78 75.07
68.73 64.54 60.36 58.80 56.41 57.09 62.53 64.43 65.97 65.34 64.84 70.12 69.75 64.12 64.57 70.33 73.36 73.93 74.23 73.96 74.00 74.60 75.64 76.75 76.93 76.76 76.84 76.32 77.28 77.14 77.16 76.92 76.54 76.40 76.51 77.01 76.71 76.40 76.11 77.01 76.26 75.15 74.95 75.34 75.94 76.23 76.16 76.48 76.96
70.18 59.84 58.51 58.69 58.23 58.79 63.75 62.09 67.39 67.76 65.81 68.08 68.93 68.54 70.58 71.67 73.15 72.15 72.22 72.81 73.71 74.00 74.35 74.99 76.15 77.07 76.33 75.96 76.01 77.06 76.87 76.76 76.48 76.93 77.20 77.39 75.23 75.84 76.16 77.93 76.68 75.73 76.54 76.62 76.73 77.18 77.93 77.82 77.99
60.54 56.41 58.90 62.19 62.70 60.71 62.81 63.18 64.05 64.45 64.32 66.09 67.52 70.28 70.70 71.70 70.93 70.74 70.97 71.54 72.07 72.62 73.85 74.49 74.78 75.07 76.28 74.90 76.52 77.29 76.45 75.90 76.37 76.87 77.28 76.12 74.60 75.95 76.87 77.92 78.33 77.25 76.16 77.29 77.07 78.21 77.07 76.17 74.99
59.72 57.23 61.70 62.84 64.18 63.70 62.22 63.11 64.66 63.69 62.61 64.84 66.27 68.07 69.57 70.24 71.06 71.65 71.32 72.40 73.15 74.49 74.28 75.17 75.76 75.81 75.22 76.09 76.55 76.55 76.51 76.41 76.57 77.54 78.17 78.76 77.45 76.44 75.26 76.25 75.83 77.07 76.69 74.56 76.36 74.13 74.38 76.68 75.29
58.57 59.67 61.50 63.80 64.80 63.48 61.99 63.27 63.57 63.75 64.74 67.70 69.35 70.07 70.07 69.12 69.11 69.34 71.13 71.76 73.42 73.82 74.35 74.83 75.91 76.30 76.43 75.62 75.81 76.73 76.11 76.41 76.17 76.97 79.51 79.34 78.24 77.15 77.99 77.57 74.80 77.06 76.63 74.88 72.78 74.77 76.17 76.30 76.87
62.62 62.40 65.15 63.73 63.19 63.90 64.21 61.84 61.38 63.48 66.39 68.59 69.96 70.16 69.64 69.44 69.35 70.14 70.89 71.73 74.22 73.15 74.12 75.49 76.98 78.23 79.88 79.12 77.06 76.38 77.52 75.55 76.67 76.32 77.41 77.04 77.57 74.99 76.18 75.51 77.18 77.14 76.21 76.21 73.99 73.35 76.92 74.96 75.94
61.16 64.23 63.70 63.05 62.94 64.37 63.29 61.96 61.56 63.48 66.61 67.74 68.64 68.59 69.26 69.39 69.63 70.69 71.36 71.87 72.97 73.82 74.13 75.86 76.23 78.01 79.56 79.86 81.42 80.72 79.41 73.99 77.04 74.29 76.69 79.01 79.04 74.51 74.94 78.41 77.26 74.29 75.21 75.09 77.27 77.15 76.80 76.99 76.06
60.47 60.44 62.22 62.22 62.52 62.61 63.71 60.49 60.47 64.38 65.55 66.30 67.37 68.09 68.55 69.26 70.12 70.75 71.88 72.49 73.80 74.28 74.90 75.65 75.93 77.33 77.84 78.69 79.54 79.63 78.38 76.22 76.87 76.02 77.63 78.77 79.54 79.07 79.53 77.87 77.61 75.04 75.48 78.28 75.19 75.68 74.79 75.34 75.50
57.01 59.29 57.82 61.30 61.52 62.75 62.00 57.61 61.92 65.78 63.96 65.03 66.39 67.26 67.95 68.80 69.44 71.23 72.29 73.23 74.24 74.47 75.56 76.65 75.08 76.70 77.49 78.50 79.22 77.37 76.35 77.95 75.69 77.16 77.82 75.33 79.18 80.20 79.72 78.35 77.09 78.01 78.18 74.51 74.48 75.88 73.56 72.46 71.45
56.07 54.19 56.81 58.40 62.15 62.21 61.34 57.82 63.52 66.31 63.60 64.16 65.63 66.34 67.07 68.39 69.87 71.12 71.62 73.12 73.90 74.97 76.27 75.67 76.85 76.31 77.18 78.33 78.25 78.21 78.15 78.72 80.05 74.84 78.33 78.66 76.65 79.08 77.61 77.06 75.94 77.07 75.34 76.14 74.40 75.10 72.61 71.09 69.55
52.05 54.68 56.58 57.63 60.94 61.17 60.37 56.74 61.08 63.46 64.81 63.63 64.53 66.11 66.96 67.35 68.58 71.14 72.05 72.84 73.71 74.75 76.31 76.70 76.77 78.57 77.85 77.56 78.55 78.18 76.82 76.94 77.80 79.23 77.63 77.95 78.71 77.42 76.48 77.26 76.98 76.00 76.36 75.34 74.44 71.96 73.48 70.91 70.67
55.58 56.71 56.21 59.43 59.94 59.96 61.42 60.00 59.84 62.46 65.04 63.81 63.93 65.19 65.84 67.08 69.85 71.48 72.23 73.26 73.72 74.69 75.88 76.20 77.11 78.47 78.51 77.43 75.29 75.68 76.25 76.62 77.11 77.18 79.79 78.18 77.90 78.24 77.99 78.41 75.84 74.98 76.07 75.37 73.72 73.73 71.00 70.24 72.56
55.54 55.55 57.06 59.77 61.41 61.19 60.07 60.41 62.24 63.37 64.79 64.88 64.69 64.96 65.71 66.93 68.81 70.81 72.21 72.88 73.10 74.38 75.26 76.89 77.08 79.33 78.27 77.33 76.75 75.85 75.76 75.50 76.66 76.89 77.54 77.35 78.00 77.79 78.54 78.27 75.89 75.19 73.51 74.40 74.67 72.82 70.45 69.02 72.16
54.91 55.01 56.61 57.32 60.64 61.16 59.67 57.99 60.96 64.70 65.77 65.76 66.12 66.84 66.49 67.00 67.08 70.10 71.52 72.27 72.83 74.26 75.43 76.27 77.18 78.66 77.65 78.69 77.04 77.60 79.28 79.84 74.68 75.45 75.18 77.50 77.77 78.27 78.06 77.20 77.17 75.77 75.54 74.44 74.39 73.04 71.32 68.30 71.15
52.37 57.04 57.37 58.11 57.51 54.07 59.75 52.30 60.07 62.10 64.14 64.77 65.11 65.94 66.59 67.22 68.30 69.02 70.76 72.40 72.69 74.23 76.36 76.82 77.63 78.06 78.38 78.17 78.23 77.56 75.01 74.90 75.94 77.16 75.39 77.52 78.20 77.78 77.67 78.52 77.29 75.60 76.14 74.49 73.54 72.98 71.34 70.52 67.52
54.47 57.92 57.14 57.16 56.53 57.73 57.37 54.39 58.30 62.54 60.96 63.64 64.63 65.99 66.72 68.22 68.08 68.17 70.33 72.16 73.30 74.64 75.42 77.11 77.55 78.05 78.48 77.95 78.61 78.08 76.45 74.19 76.58 76.12 77.79 77.69 78.39 77.37 77.55 77.05 77.45 77.44 75.48 74.08 72.43 72.71 71.67 71.33 69.57
57.17 56.29 56.48 56.67 55.68 51.81 56.35 53.42 55.05 59.22 61.36 62.79 64.93 65.11 68.11 67.71 68.88 69.44 70.62 72.58 73.16 74.22 75.45 76.28 77.40 77.69 78.42 78.61 78.05 78.20 76.57 75.85 75.98 76.96 76.11 75.79 75.76 75.93 78.08 76.51 77.52 76.97 75.29 74.02 71.73 71.98 71.95 71.06 70.97
54.65 53.36 49.72 49.02 50.12 49.22 56.81 55.30 57.08 61.74 63.03 63.28 62.60 65.28 68.41 69.54 69.03 69.64 69.79 70.94 73.00 73.36 74.29 75.99 77.52 77.43 78.27 78.69 78.35 77.68 78.27 77.82 76.54 79.05 76.90 74.85 73.15 73.52 75.48 77.40 76.58 75.72 75.34 74.54 73.59 71.63 72.37 71.04 70.45
52.29 52.68 50.39 45.77 47.77 50.23 56.15 52.86 57.42 63.62 63.87 63.01 63.99 64.30 67.41 68.82 69.75 70.32 70.91 70.96 72.94 73.48 74.42 75.24 76.87 77.41 78.41 78.33 78.81 78.76 78.19 78.33 77.96 77.82 76.84 74.72 75.24 73.84 75.21 75.99 76.44 75.53 74.50 74.40 73.17 71.45 70.41 70.92 70.45
51.78 50.21 54.39 51.36 52.91 50.84 53.48 56.49 60.30 63.08 61.98 63.97 64.57 64.55 64.71 66.20 69.31 69.99 71.73 72.15 72.43 73.74 74.12 74.94 77.22 77.53 78.42 78.95 78.94 79.07 78.99 78.13 77.38 78.32 77.47 77.83 76.40 77.18 75.19 75.21 75.62 74.91 74.08 73.17 73.39 71.36 70.58 71.29 71.68
52.56 54.90 49.25 50.50 46.72 46.81 51.43 53.50 54.84 60.73 60.26 62.97 62.45 63.89 65.21 65.44 69.06 69.68 70.22 71.73 72.45 73.73 74.88 75.58 76.31 77.76 78.74 79.31 79.29 78.82 79.19 79.23 78.33 77.95 77.80 76.23 78.55 76.51 75.54 74.79 74.80 74.13 74.04 73.60 73.59 71.34 72.64 71.48 71.34
50.81 49.60 51.03 51.98 51.94 48.75 48.14 52.16 60.67 60.88 63.37 63.45 63.53 64.33 65.26 64.61 67.75 69.62 70.31 71.34 72.37 72.98 74.10 74.74 75.39 77.45 78.36 79.11 79.13 79.02 78.90 79.40 78.48 77.85 77.43 77.60 77.47 76.79 74.84 74.23 73.85 73.73 73.42 73.23 72.35 71.75 71.49 70.64 70.41
53.42 51.86 51.20 47.92 50.26 51.93 51.48 52.63 60.07 64.42 63.85 64.65 64.11 65.08 65.74 65.86 65.73 67.21 70.58 71.32 71.92 71.85 72.81 73.79 74.81 75.21 77.81 78.84 78.80 79.04 79.34 79.12 78.55 77.24 78.36 78.63 76.92 76.78 74.68 74.37 73.79 73.17 72.75 72.64 71.98 70.40 69.76 70.31 69.87

GFSSGP_sfc_wetblb_033.txt.gz
Wetbulb
75.78 75.13 74.65 70.55 61.22 60.13 55.67 56.94 62.38 61.06 62.07 65.40 66.82 64.50 62.13 63.67 60.46 55.99 68.08 70.93 72.07 72.12 73.58 74.74 76.47 76.57 76.46 77.09 77.61 78.04 78.31 78.18 78.63 78.79 78.91 78.69 77.91 77.89 78.36 77.76 77.14 76.87 76.55 76.38 76.27 76.13 75.75 75.69 75.39
74.59 74.39 70.96 66.57 58.41 53.41 55.47 60.54 59.96 61.61 64.97 66.24 65.53 64.54 62.72 61.27 66.48 66.70 68.44 72.14 72.83 72.96 73.35 74.06 76.51 76.97 76.33 76.65 77.52 77.89 77.37 77.41 78.21 78.73 78.75 78.26 77.37 77.94 77.34 77.07 76.84 76.41 76.36 76.03 75.72 75.70 75.47 75.50 75.28
74.42 73.79 63.14 61.12 57.94 53.27 55.86 60.91 62.53 64.15 66.57 65.74 64.29 65.99 64.07 62.74 67.56 68.29 71.09 72.42 72.69 72.85 73.32 74.72 76.96 77.64 76.86 76.56 77.28 77.52 77.79 77.07 77.51 78.24 78.23 77.70 76.92 77.07 76.96 76.68 76.41 76.05 76.08 75.75 75.50 75.39 75.00 74.76 74.87
72.26 71.65 68.52 60.49 55.09 59.01 60.56 62.37 64.83 64.51 66.29 67.40 66.49 62.66 66.70 69.68 68.48 70.86 72.87 73.02 71.89 72.63 74.52 76.63 77.16 77.27 77.63 77.24 77.27 76.93 77.04 77.01 77.87 78.36 77.70 77.12 76.74 76.83 76.55 76.42 75.95 75.75 75.89 76.00 75.89 75.39 75.09 74.84 74.78
72.61 68.38 60.57 59.11 57.39 61.14 62.88 64.68 65.17 63.65 65.05 65.18 66.23 62.74 64.39 69.22 71.50 71.85 71.75 72.29 71.61 72.26 74.45 75.48 77.83 77.54 78.12 77.43 77.39 77.31 76.94 76.78 77.95 78.01 77.20 77.10 76.89 76.83 76.36 75.89 75.67 75.61 76.09 76.31 76.17 75.47 74.85 75.14 75.25
66.89 66.55 58.69 56.04 57.83 62.15 63.06 65.42 65.42 64.62 65.42 65.62 64.71 64.17 64.32 70.50 70.63 71.58 72.60 71.94 72.32 72.38 73.61 74.74 77.49 77.80 77.78 77.61 77.64 77.63 76.94 76.81 77.85 77.83 77.50 77.74 77.28 77.04 76.91 75.72 75.69 75.58 75.74 75.79 75.83 75.97 76.36 76.53 76.63
65.79 62.31 58.40 58.28 57.30 59.79 62.76 65.58 64.65 64.30 64.42 64.60 67.29 62.47 65.89 68.73 71.23 72.05 72.13 72.75 72.81 73.06 73.31 74.44 75.38 76.68 78.21 78.66 77.77 77.56 77.08 76.94 77.24 77.52 77.37 77.54 76.90 76.39 76.34 76.92 76.09 75.60 75.43 75.46 75.43 77.25 77.30 76.72 76.85
65.37 61.15 57.33 57.20 55.15 57.51 63.36 63.33 65.81 65.22 64.47 69.05 69.03 63.17 63.35 68.54 71.85 72.48 72.56 72.64 72.59 73.15 73.62 74.16 74.47 75.24 75.01 75.68 77.73 77.11 77.34 77.08 76.87 76.65 76.60 76.87 76.58 76.50 76.36 77.43 77.29 75.40 74.88 75.53 76.19 77.66 77.80 76.91 77.26
64.59 57.31 54.51 56.88 55.38 56.54 63.20 62.23 66.61 68.85 66.36 67.24 68.11 67.76 69.21 71.19 71.79 70.98 70.73 71.70 72.32 73.03 73.54 73.99 73.95 73.97 73.70 73.85 75.58 77.52 77.46 77.45 76.87 76.57 77.28 76.79 74.97 74.23 75.09 76.42 76.66 76.41 75.58 76.07 76.87 77.38 77.84 76.60 75.00
60.44 55.76 56.15 61.50 60.51 56.93 63.54 63.64 64.38 64.96 64.58 64.64 66.67 69.50 70.70 70.92 70.02 68.92 69.38 69.35 70.44 71.27 72.75 73.73 73.78 73.40 73.38 74.66 73.63 73.83 74.44 74.17 73.94 74.50 74.14 74.84 73.85 72.91 73.95 75.52 77.03 76.47 76.67 74.68 77.93 77.86 76.61 75.00 73.10
60.45 57.04 61.10 60.92 62.78 62.59 60.49 61.63 64.03 63.66 62.62 65.01 64.85 66.89 69.31 69.43 68.92 68.54 69.12 69.40 69.48 70.81 72.39 73.62 74.08 73.90 72.65 72.28 73.18 74.10 73.80 73.51 73.60 73.75 74.17 73.63 74.79 73.80 73.80 73.19 73.41 73.05 73.74 73.98 74.84 74.08 73.14 74.54 73.08
58.41 61.80 62.11 61.56 63.63 62.95 59.76 61.31 62.20 62.96 64.54 68.27 68.21 68.80 68.95 67.64 68.30 68.94 69.32 69.97 69.69 71.00 71.21 71.93 71.98 72.88 72.39 73.21 73.04 73.82 73.66 73.57 73.11 74.12 75.04 73.73 73.68 72.42 72.68 73.10 71.89 73.45 74.71 72.48 71.76 72.94 72.61 73.87 73.63
59.36 59.89 61.55 62.56 62.40 61.89 61.66 61.28 61.88 63.26 67.82 68.62 68.29 67.85 67.90 67.36 68.75 70.04 70.73 71.47 71.21 70.85 71.83 72.60 72.53 72.49 73.95 74.01 72.71 73.08 73.76 74.13 73.46 74.52 73.80 72.89 72.22 72.21 73.23 72.86 73.74 72.42 74.00 72.97 70.36 72.02 72.44 72.66 72.76
62.86 61.60 62.12 62.73 61.77 61.98 59.95 59.32 62.23 64.12 67.91 67.47 67.53 66.71 66.90 66.50 68.75 69.63 70.10 69.95 70.75 71.35 71.82 73.65 72.91 73.99 73.54 74.12 73.97 75.51 74.41 71.43 74.29 73.65 74.72 73.82 73.13 72.39 73.43 73.23 73.41 72.59 72.49 73.33 73.10 72.44 72.06 73.49 72.76
58.47 58.94 61.76 61.39 60.26 60.68 61.49 56.77 59.02 64.66 67.06 66.45 66.83 67.22 67.53 67.15 67.26 66.92 70.67 70.37 70.24 70.51 71.69 73.01 73.52 74.13 73.55 73.45 74.33 73.50 73.62 72.43 73.07 72.07 74.73 74.10 73.87 73.03 72.68 72.44 72.31 73.38 73.03 73.75 72.69 72.35 72.19 71.94 71.82
53.40 51.95 49.53 59.14 58.85 61.16 59.57 54.37 60.42 62.41 65.25 64.75 66.07 66.89 67.39 67.25 67.36 67.97 69.75 70.81 70.85 70.77 72.24 73.16 74.44 73.50 72.81 73.37 74.62 73.26 72.64 72.02 72.07 73.53 73.72 75.15 75.61 74.62 73.14 72.91 72.56 74.04 73.15 71.20 71.59 71.23 69.26 68.83 65.78
48.79 46.16 48.70 56.44 60.15 60.52 59.45 55.92 61.24 64.06 64.11 63.80 64.86 65.60 66.22 66.39 66.98 68.34 70.18 70.63 71.15 70.70 71.94 71.80 72.77 72.99 73.16 74.12 74.95 73.78 73.46 73.80 73.84 73.23 74.16 73.30 75.11 75.45 74.03 73.55 73.01 74.40 73.28 73.16 71.73 71.03 68.82 64.27 63.30
45.07 46.26 49.32 54.41 57.83 60.16 57.40 57.03 60.69 62.61 61.48 62.71 64.07 64.76 65.05 65.48 66.28 68.54 69.52 70.98 71.79 71.63 72.58 72.43 72.36 73.65 73.82 74.87 74.08 74.33 73.26 73.81 74.54 72.98 72.81 75.94 74.05 75.72 73.77 73.92 73.65 73.00 72.39 70.65 69.81 68.95 69.48 65.53 64.88
50.60 49.91 49.68 55.84 59.65 58.37 58.04 57.25 58.43 59.47 59.11 59.77 62.71 63.51 64.18 64.97 66.63 68.53 69.21 70.86 71.38 72.16 72.42 71.79 72.05 73.88 73.99 73.75 73.41 72.70 72.04 72.40 72.86 73.67 74.78 74.88 74.22 74.24 73.68 73.48 73.39 73.60 72.20 70.32 71.03 66.71 63.82 63.52 65.93
50.28 49.33 49.81 57.78 59.59 57.59 58.05 57.50 58.64 60.22 60.27 60.58 62.13 62.93 63.72 64.58 65.71 67.44 68.32 69.46 70.40 70.97 72.37 72.00 72.72 74.53 73.81 74.16 73.59 72.21 72.43 72.46 72.80 73.16 74.97 74.14 74.94 74.39 74.16 73.12 72.56 71.52 70.85 70.71 67.75 65.45 64.08 63.64 65.60
49.54 48.57 50.15 55.44 58.63 58.96 57.12 55.48 56.16 59.23 61.50 62.46 62.70 63.93 64.37 64.47 64.82 66.54 67.70 68.73 69.87 70.54 71.98 72.55 73.35 74.58 74.61 74.47 74.00 72.83 73.54 73.90 72.85 73.81 73.85 74.92 74.98 74.94 74.33 74.67 72.63 72.22 71.40 69.68 67.48 66.37 64.14 61.67 63.93
46.61 52.55 53.59 56.38 54.51 49.69 57.68 49.70 55.02 57.94 59.86 61.37 62.19 62.23 63.39 64.33 65.78 66.70 67.86 68.37 69.48 70.85 72.88 73.07 73.85 74.98 73.99 74.41 72.75 71.32 70.91 70.55 71.40 73.62 73.87 73.23 74.82 74.65 74.45 73.60 71.99 71.79 70.53 68.75 66.21 66.40 64.73 62.95 59.86
49.01 53.82 53.34 52.96 53.10 53.72 53.98 50.67 53.29 58.88 58.46 59.60 61.97 62.29 63.09 64.11 65.30 66.52 67.97 68.97 69.96 71.74 72.38 73.84 73.71 75.17 73.92 73.97 73.83 71.98 70.81 71.52 70.96 69.90 71.93 73.60 73.23 74.18 74.01 73.88 72.93 71.30 70.96 68.31 66.73 64.70 65.29 64.86 64.00
52.24 51.52 51.61 51.39 50.24 44.55 52.44 51.41 50.30 53.11 59.28 61.02 62.25 63.31 63.73 64.12 65.06 66.12 68.40 69.75 69.76 71.97 72.90 73.65 73.43 73.86 74.57 73.28 73.71 73.67 72.27 70.22 69.07 71.68 71.42 72.17 70.61 71.49 73.47 73.23 72.67 71.40 68.40 66.61 66.70 67.29 65.29 65.28 64.59
49.40 45.73 42.77 41.82 43.18 41.68 52.30 51.14 52.63 56.75 59.44 63.13 62.82 63.06 64.23 65.11 65.00 65.19 67.21 68.65 69.45 70.09 72.63 73.46 73.32 72.95 74.72 74.18 73.88 74.35 74.44 72.29 71.57 72.07 71.29 70.36 69.97 69.25 71.68 71.77 72.49 71.28 70.28 68.93 67.67 65.76 65.11 65.94 65.26
46.77 45.59 42.77 36.28 40.51 43.64 49.25 48.02 52.44 60.17 61.46 62.71 64.08 63.63 63.56 63.94 65.78 65.60 66.10 68.20 69.59 70.15 71.91 73.37 73.35 73.23 74.57 74.70 73.94 74.12 74.25 75.37 73.54 73.00 72.92 71.03 70.96 70.22 70.91 73.14 72.78 71.90 70.00 68.78 68.25 66.57 66.97 66.84 65.04
45.56 44.52 47.70 42.06 45.71 42.67 46.71 49.82 55.60 60.07 59.27 60.73 60.82 61.88 62.19 63.66 65.86 66.51 66.51 67.82 69.67 70.00 71.57 72.68 73.65 73.89 74.62 75.03 74.95 74.48 74.25 74.42 75.35 73.73 72.38 72.96 71.12 71.37 71.14 73.25 72.91 71.78 69.90 69.76 68.43 66.85 66.08 66.46 65.77
48.18 47.87 43.50 44.96 38.65 39.25 45.22 46.21 48.85 55.89 56.82 59.57 60.25 60.96 61.92 62.55 64.36 67.28 67.50 67.49 70.01 70.81 71.38 73.00 74.85 74.29 75.10 75.09 75.72 75.78 75.58 75.11 74.99 74.77 73.53 72.71 73.02 72.34 71.34 73.30 72.66 71.45 70.34 69.61 68.34 66.94 67.74 66.43 66.81
45.76 45.68 44.27 44.28 45.33 39.93 39.61 45.39 51.91 55.97 58.57 59.48 61.04 62.03 63.63 64.27 64.50 66.37 68.12 68.37 69.85 71.05 71.46 71.91 74.31 74.65 75.07 75.44 75.33 75.60 76.01 76.22 75.43 74.88 74.20 73.51 72.57 72.29 71.99 72.83 72.25 71.18 70.64 69.83 68.64 67.07 66.69 67.39 65.63
50.54 46.43 44.09 41.98 38.53 42.85 43.64 44.76 54.79 57.67 60.71 61.47 61.49 61.99 63.47 64.57 65.35 65.76 67.96 68.86 68.80 70.46 71.21 71.74 74.56 74.71 75.66 76.03 76.27 75.85 76.00 76.67 76.32 75.37 74.60 74.62 72.93 72.81 72.44 72.02 71.90 71.03 70.56 69.69 68.97 67.66 67.39 66.47 66.06

GFSSGP_sfc_wetblb_036.txt.gz
Wetbulb
75.34 74.84 74.32 69.93 60.69 59.57 55.46 56.58 62.64 60.94 61.21 65.54 66.12 64.11 61.80 63.29 59.71 54.71 68.40 70.34 70.75 71.61 72.95 74.44 76.68 77.16 77.41 77.88 78.31 78.04 77.90 78.03 78.51 78.45 78.15 77.71 77.43 77.37 77.35 77.00 76.68 76.44 76.42 76.20 76.11 76.17 75.83 75.61 75.39
74.83 74.12 70.08 66.23 57.88 52.64 53.75 59.90 58.34 61.78 63.98 64.81 64.70 64.00 62.12 60.40 65.28 66.12 67.68 70.54 71.52 72.31 72.81 73.97 76.44 77.26 77.09 77.61 78.16 78.24 77.57 77.61 78.27 78.32 77.99 77.48 77.41 77.22 77.04 76.77 76.33 76.17 76.00 75.81 75.84 75.62 75.62 75.45 75.39
74.57 71.77 62.99 61.03 57.35 52.10 54.20 60.52 61.95 63.64 65.11 64.52 62.82 65.10 63.51 62.00 66.75 67.74 70.47 71.74 72.49 72.46 72.93 74.04 77.02 77.35 76.92 77.05 77.61 78.02 77.85 77.42 77.61 77.38 77.10 76.97 77.11 77.07 76.88 76.33 76.08 75.95 75.81 75.78 75.70 75.40 75.01 74.98 74.79
72.89 71.24 67.66 59.35 55.69 58.60 60.17 61.96 63.37 63.45 65.49 65.31 64.47 61.70 66.38 69.43 68.00 69.96 71.85 72.32 72.24 72.47 73.88 76.25 77.08 76.63 76.73 76.80 76.93 77.10 77.21 77.16 77.50 77.37 77.08 76.82 76.99 76.75 76.59 76.14 76.04 75.98 75.98 76.04 75.79 75.43 75.15 74.85 74.46
72.24 66.70 59.93 58.37 58.07 60.14 62.74 64.97 64.43 62.82 64.12 63.71 64.72 61.84 63.53 68.48 70.89 71.35 71.36 72.16 71.38 72.68 74.35 75.30 77.87 77.95 77.41 76.85 76.83 76.81 76.92 77.13 77.48 77.18 77.04 76.80 76.88 76.39 76.18 75.71 75.90 75.93 76.04 76.18 75.62 75.15 74.99 74.96 74.99
66.37 64.93 56.86 55.03 57.99 61.09 63.26 65.26 65.00 63.88 64.51 64.42 63.49 63.15 63.43 69.64 70.12 70.93 71.66 71.13 72.48 73.27 74.07 75.49 77.64 78.33 78.00 77.11 77.18 76.94 76.68 77.16 77.29 77.22 77.12 76.82 76.77 76.25 75.79 75.40 75.35 75.46 75.82 75.68 75.79 75.21 75.29 75.04 75.43
63.18 58.13 56.36 56.73 57.59 60.01 62.41 66.46 63.83 63.85 63.73 63.74 65.81 61.25 64.56 67.60 70.11 71.02 71.25 71.61 72.35 73.55 73.70 74.57 75.17 76.30 77.67 78.17 77.54 77.27 76.82 77.05 77.07 76.94 76.94 76.75 76.52 76.17 75.57 75.15 75.43 75.29 75.26 75.37 75.34 75.71 76.53 76.74 76.63
63.99 60.31 56.08 57.48 56.80 58.01 63.86 64.79 65.85 64.44 63.66 68.19 67.63 61.61 61.96 67.45 70.67 71.32 71.06 71.03 71.36 72.32 73.47 73.87 74.36 75.11 75.36 75.98 77.67 77.25 76.98 76.97 76.99 76.98 76.92 77.00 76.61 76.23 75.79 77.36 76.38 75.68 75.28 75.16 75.64 76.21 77.18 77.31 75.11
65.11 57.38 54.35 55.97 58.24 59.75 64.93 63.15 66.58 67.98 65.43 65.91 67.74 66.61 67.95 70.17 71.05 69.97 70.01 69.98 70.81 72.07 72.60 73.54 73.63 73.92 74.23 74.55 75.74 77.25 77.19 77.10 77.06 76.47 76.73 77.05 74.17 73.85 75.08 75.63 76.75 76.49 75.47 76.20 76.04 76.63 77.51 75.15 72.77
60.50 54.75 56.37 59.94 61.23 59.79 63.84 63.98 64.67 64.59 64.45 64.97 65.93 68.67 69.74 70.27 69.79 68.60 69.16 68.56 69.99 70.62 72.00 73.30 73.52 73.44 72.95 75.04 73.54 73.98 74.45 74.37 73.70 73.86 73.56 74.61 73.91 73.30 74.82 75.48 77.26 76.45 76.37 73.85 76.87 77.63 76.04 75.86 71.10
61.25 56.59 60.44 61.83 61.71 62.53 63.80 64.15 65.93 63.90 61.83 64.59 64.46 66.32 68.49 68.91 68.92 68.69 69.30 69.91 70.03 71.10 72.37 73.08 73.10 73.01 72.41 72.59 72.64 72.99 72.98 72.95 72.58 72.85 73.21 73.24 73.91 72.61 74.09 72.14 73.15 71.93 75.37 73.33 74.48 73.63 72.68 73.48 72.32
57.92 61.62 61.76 62.11 62.54 61.72 62.83 65.24 64.19 64.28 64.28 67.51 67.92 68.34 68.26 67.79 67.69 68.50 68.81 69.85 69.96 71.11 71.86 72.69 72.91 72.42 72.14 70.75 72.57 72.48 72.83 72.55 71.93 72.34 72.90 72.65 72.41 71.46 71.86 71.33 71.72 71.33 73.37 71.94 70.82 72.40 71.52 72.29 73.01
59.01 61.13 62.61 63.67 62.93 61.60 62.36 63.24 64.02 64.46 67.02 68.46 68.93 68.55 67.73 67.65 67.94 69.24 69.84 70.19 70.21 70.78 71.49 72.30 72.89 72.31 72.02 71.20 71.52 72.04 72.80 72.63 72.44 72.17 72.83 73.13 71.27 71.93 71.86 71.92 72.27 72.22 72.62 71.28 70.19 70.68 71.16 72.26 72.07
61.43 61.00 61.62 62.98 61.88 61.46 60.21 61.16 63.13 65.06 67.57 67.33 67.66 67.11 67.69 67.54 67.89 68.53 69.21 68.74 69.24 70.57 70.13 72.11 71.29 72.55 71.98 71.78 70.96 71.61 72.68 73.59 72.81 72.90 73.33 73.37 71.61 71.49 72.37 72.36 72.04 71.08 72.78 71.70 72.06 71.72 71.66 71.95 71.89
61.73 56.45 60.52 61.38 61.10 60.41 60.97 59.60 61.47 65.93 66.70 65.97 66.58 67.01 67.16 67.18 68.56 68.23 69.74 69.23 69.59 70.57 70.95 71.13 70.76 72.16 72.29 72.21 71.79 72.76 74.12 72.08 72.89 73.44 73.05 73.67 71.90 71.37 71.56 71.17 71.24 71.93 72.34 72.52 71.44 71.33 70.31 68.75 67.07
48.78 52.48 51.19 59.18 60.87 60.43 57.62 54.26 63.05 65.83 64.80 63.86 65.67 66.43 66.21 66.72 68.15 69.30 70.12 70.49 70.42 70.86 70.72 71.73 72.70 72.47 72.26 72.40 73.18 72.23 72.10 71.13 71.29 71.86 72.89 73.03 73.21 72.83 72.04 71.05 70.95 72.92 71.68 70.83 70.31 70.16 68.11 66.57 63.88
44.81 41.91 45.57 48.76 58.36 60.26 58.45 53.64 63.00 65.36 64.64 63.32 64.01 64.97 65.69 65.54 67.76 68.61 70.50 70.67 70.56 70.56 70.43 71.69 71.99 72.51 72.47 71.82 72.97 71.87 71.62 70.99 71.70 72.28 72.59 73.46 74.48 73.62 72.40 71.84 71.81 72.86 72.13 70.99 70.38 70.03 66.77 62.99 62.10
41.61 42.53 43.59 48.72 58.41 59.38 56.41 55.24 61.39 64.32 64.19 63.71 64.22 64.72 65.23 65.39 65.69 67.83 70.28 71.03 70.47 70.10 71.57 72.05 72.01 71.85 71.73 72.09 72.88 71.90 71.28 72.05 73.01 72.03 72.20 73.21 74.85 74.83 72.65 72.55 72.82 72.28 72.63 70.37 69.20 67.49 66.30 63.55 63.60
46.59 45.71 45.28 49.65 56.90 57.59 55.90 55.97 59.25 62.49 63.28 63.17 63.62 64.10 64.74 65.31 67.04 67.26 70.25 71.05 70.27 70.74 71.25 71.49 71.49 71.28 71.34 71.71 71.28 70.89 70.31 71.07 71.59 72.02 71.99 73.50 73.46 74.15 73.18 71.66 72.54 71.47 70.25 70.41 68.83 65.27 62.21 61.50 63.90
46.97 45.70 45.58 54.87 58.70 57.42 56.24 55.77 58.59 58.87 62.09 63.08 63.08 63.40 64.30 64.97 65.51 66.38 68.38 69.85 69.69 69.44 70.62 70.62 71.27 71.65 71.79 72.35 72.47 71.39 71.64 71.84 71.08 71.99 73.47 73.33 73.41 73.43 73.15 71.59 71.67 71.20 71.33 69.18 66.09 63.23 62.13 62.59 63.86
46.20 45.14 45.50 47.58 56.45 57.19 56.81 54.17 55.27 58.06 58.62 59.82 63.72 64.26 64.47 64.53 64.28 65.54 66.80 68.58 69.85 69.42 70.27 70.65 71.25 72.35 72.39 72.78 72.69 71.21 71.76 70.98 71.13 71.56 72.63 73.22 74.05 74.14 73.03 72.53 71.53 70.59 69.01 68.16 65.58 64.11 61.82 59.98 61.41
43.04 49.57 49.51 49.90 50.49 48.58 55.65 47.23 53.09 56.75 56.27 58.35 60.34 62.57 63.52 64.29 65.22 65.54 66.68 67.66 69.11 69.82 71.28 70.79 71.41 72.91 72.81 73.09 72.57 71.49 70.21 70.10 70.12 70.74 72.37 73.36 73.48 73.56 73.74 72.76 71.26 70.78 69.92 67.17 65.88 65.90 63.97 60.29 59.28
46.20 49.94 49.02 49.80 50.40 48.14 50.72 46.68 49.73 56.62 56.14 56.09 59.29 61.18 63.14 64.33 65.03 65.06 66.53 67.43 69.13 70.02 70.96 71.31 71.39 73.28 73.29 73.15 72.62 71.78 69.78 70.35 71.27 70.62 72.96 71.28 72.54 73.22 73.58 72.45 70.45 70.33 69.10 67.02 65.81 63.22 64.04 62.89 61.73
51.07 47.37 46.61 45.86 46.41 44.29 49.57 50.08 48.31 52.59 55.57 58.01 60.41 61.67 62.61 63.78 64.86 65.71 67.28 67.96 68.43 70.06 71.09 71.47 71.32 72.25 73.09 73.40 72.59 71.66 70.61 69.57 69.66 69.15 69.51 70.53 71.92 72.16 72.54 72.98 70.57 69.82 68.44 67.13 65.23 63.42 63.48 64.52 63.37
47.72 40.34 36.98 36.99 37.44 39.12 48.54 49.06 51.16 56.89 59.36 60.24 60.95 62.19 62.90 63.89 64.33 64.92 65.68 66.83 67.85 68.69 70.25 71.25 71.30 71.56 72.40 73.00 72.64 71.57 70.83 70.30 69.11 68.78 70.07 69.95 69.22 69.70 71.45 71.51 70.79 69.15 66.97 65.81 65.78 64.81 63.86 63.07 62.59
43.17 43.80 38.70 32.07 34.32 37.82 45.21 45.95 51.09 57.85 60.37 62.71 63.59 64.09 63.90 63.08 64.04 64.73 65.84 67.27 67.68 68.66 70.37 71.33 70.90 71.49 72.27 72.16 72.23 72.86 72.89 72.40 70.95 70.05 70.54 71.09 70.58 70.57 71.95 71.11 71.29 68.70 67.57 66.21 65.73 64.32 64.02 64.17 63.46
44.08 40.94 43.97 37.73 39.47 37.87 41.83 47.67 52.96 57.22 57.14 60.71 62.74 63.67 62.83 62.98 63.50 64.35 65.48 66.98 68.07 68.66 70.20 71.11 71.09 71.24 72.34 72.35 71.78 71.68 72.68 73.60 73.38 71.58 71.35 69.91 69.55 69.43 71.37 71.09 71.08 69.48 68.53 67.08 66.14 64.90 64.57 65.23 64.08
47.90 44.93 40.22 35.67 34.35 34.98 38.48 42.83 44.99 51.24 55.48 58.32 61.30 62.59 62.99 63.54 63.88 64.40 65.23 66.83 68.46 68.91 70.72 71.58 71.82 71.33 72.18 72.94 72.84 72.29 72.00 73.16 73.88 73.27 71.80 71.43 70.13 70.29 69.85 70.94 70.93 69.96 68.73 67.68 66.83 65.21 64.72 64.82 64.53
44.64 42.63 41.04 40.91 39.58 38.03 35.72 41.51 48.25 50.23 55.67 57.36 61.07 63.26 63.08 62.78 64.03 64.86 65.46 66.11 68.09 69.48 69.99 71.56 71.77 71.55 71.75 72.86 73.14 72.73 72.34 72.14 73.08 73.93 73.62 72.21 71.79 70.73 69.59 71.52 71.20 70.42 69.01 68.25 66.67 65.49 65.92 64.58 64.53
49.41 46.31 42.96 41.33 36.06 38.05 42.44 42.74 50.62 51.92 56.19 59.15 59.70 62.26 63.03 62.90 65.05 65.70 66.23 66.59 66.44 68.73 69.35 70.93 72.34 72.04 72.29 73.26 73.27 73.39 73.27 73.27 72.31 72.56 73.82 73.58 71.98 71.51 70.71 70.64 71.69 70.74 69.85 68.52 67.59 65.76 66.35 65.78 64.35

GFSSGP_sfc_wetblb_039.txt.gz
Wetbulb
74.79 74.71 73.32 69.15 59.48 59.22 55.00 57.13 60.88 59.66 61.04 63.98 65.31 62.82 61.37 61.88 59.03 54.52 68.32 70.10 70.65 71.52 73.08 74.49 76.75 77.20 77.31 77.05 77.64 77.73 77.60 77.20 77.36 77.02 76.79 76.94 76.91 76.78 76.71 76.51 76.27 76.08 75.95 75.90 75.70 75.57 75.42 75.32 75.18
74.62 73.47 69.36 65.72 57.19 52.21 53.42 59.43 58.28 61.18 62.70 64.39 64.41 63.37 61.37 59.97 65.18 66.01 67.67 69.89 71.64 71.75 72.22 73.55 76.32 77.26 77.23 77.50 77.63 78.06 77.45 77.57 77.43 77.28 77.30 77.15 76.91 76.84 76.49 76.08 76.00 75.84 75.57 75.35 75.13 75.24 75.21 75.37 75.14
74.06 71.97 61.94 60.53 57.38 52.74 54.51 58.89 60.90 62.62 64.27 63.88 62.24 64.94 63.25 62.60 66.19 66.99 69.08 70.88 71.77 71.67 72.63 73.61 76.49 77.31 76.98 77.16 77.35 77.89 77.56 77.28 76.98 76.71 76.87 77.03 76.76 76.46 76.25 75.81 75.70 75.40 75.54 75.48 74.99 74.74 74.61 74.82 74.88
72.30 69.85 66.93 57.86 55.21 58.67 59.08 61.04 62.90 62.08 63.86 64.60 64.26 61.26 65.85 68.56 67.22 69.26 69.97 71.42 71.37 72.04 73.27 74.86 76.46 76.47 76.59 76.91 77.07 77.04 77.07 77.10 76.90 76.75 76.67 76.84 76.54 76.19 75.98 75.82 75.63 75.48 75.63 75.71 75.30 75.05 74.74 74.69 74.66
70.88 66.58 57.99 56.43 57.42 59.38 61.72 63.86 63.47 61.78 62.33 62.88 64.29 61.09 63.21 68.14 70.21 70.11 70.44 71.57 71.03 71.85 73.24 74.18 77.04 77.06 76.70 76.75 76.75 76.72 76.67 76.94 76.98 76.75 76.49 76.65 76.42 76.04 75.85 75.58 75.36 75.33 75.88 75.86 75.19 74.78 74.81 74.89 74.83
63.51 64.13 54.94 53.51 56.17 60.55 63.32 64.43 63.88 62.86 63.35 63.16 62.27 62.33 62.86 69.14 69.11 70.20 71.22 71.12 72.21 72.55 73.65 74.45 76.62 77.26 76.79 76.65 76.59 76.64 76.64 76.96 76.98 76.83 76.52 76.54 76.30 75.79 75.63 75.00 75.06 75.42 75.39 75.30 75.03 74.58 74.70 74.70 74.89
59.97 58.07 54.64 56.27 56.02 58.97 62.02 64.80 62.92 62.61 62.36 62.44 64.88 61.08 64.37 67.11 69.63 70.66 70.95 71.50 72.41 73.69 73.93 74.19 74.67 75.33 76.73 77.00 76.59 76.54 76.72 76.71 76.87 76.83 76.72 76.51 76.36 75.68 75.08 74.94 75.03 75.08 75.03 75.16 75.14 75.33 75.03 74.92 75.08
62.92 60.92 56.21 56.69 55.81 57.70 63.88 64.47 65.54 63.67 62.96 66.76 66.48 60.50 61.46 67.14 70.23 70.60 70.61 70.85 71.80 72.90 73.23 73.51 73.99 74.36 74.27 74.73 77.17 76.63 76.64 76.80 76.75 76.70 76.67 76.40 76.12 75.77 75.58 76.56 75.78 75.75 75.02 74.85 75.64 75.33 75.08 75.85 76.01
65.42 57.14 53.59 55.96 56.86 59.48 64.65 62.97 65.97 67.13 64.17 65.28 66.66 65.01 66.99 69.38 70.13 69.05 68.89 69.32 70.55 71.75 72.51 73.21 73.57 73.63 74.30 74.68 75.53 76.96 76.63 76.78 76.78 76.29 76.46 76.51 73.78 73.54 74.69 75.29 76.33 76.11 75.38 75.77 75.83 76.05 75.49 74.56 74.88
60.17 54.41 55.24 60.21 60.43 61.35 64.20 63.57 63.78 63.20 62.91 64.15 64.44 66.97 68.52 68.97 68.42 67.43 67.24 67.29 68.47 69.84 71.77 72.87 73.04 73.53 73.73 75.46 73.82 73.84 73.66 74.32 73.97 73.71 73.30 74.00 73.34 72.90 74.47 75.09 76.68 75.90 76.02 75.05 74.75 77.24 75.69 74.48 71.53
60.41 55.84 58.99 59.98 61.54 63.42 63.89 63.24 65.25 62.14 60.27 63.56 62.49 64.90 67.26 67.87 67.88 67.65 67.65 68.31 68.50 70.34 71.70 72.80 73.08 72.89 73.02 73.33 72.33 72.75 72.79 72.75 72.65 72.28 72.35 72.10 73.44 72.34 72.54 72.77 71.93 71.13 74.60 71.78 73.68 72.77 71.99 72.36 72.16
57.01 60.79 60.81 60.52 61.40 63.47 62.80 64.55 63.42 63.01 62.88 66.45 66.16 66.94 67.34 67.08 67.12 67.86 67.93 68.68 69.41 70.15 71.01 72.41 73.05 72.68 71.87 71.21 72.26 71.98 71.82 71.73 71.39 71.56 71.78 71.70 71.57 71.57 71.66 71.36 70.70 70.77 72.39 71.38 69.67 71.67 71.22 71.21 72.37
58.65 60.53 62.05 63.28 61.52 61.79 65.25 63.25 63.24 63.31 66.34 67.61 67.40 67.60 66.83 67.27 67.68 68.92 69.38 69.90 70.02 69.96 71.17 71.95 72.53 72.23 71.80 69.95 70.96 70.76 71.32 71.72 71.57 71.20 71.47 72.41 71.57 71.38 71.36 71.01 71.15 71.23 71.65 71.55 70.69 69.81 70.60 71.20 71.47
60.54 61.04 61.35 62.80 61.84 62.62 63.26 63.32 63.44 64.29 67.21 66.55 66.43 66.46 66.93 67.41 67.87 68.40 69.16 69.26 69.46 70.34 70.82 71.98 71.72 72.10 71.56 70.27 70.05 70.49 71.26 71.85 71.54 71.98 71.84 72.87 71.63 70.73 70.86 71.24 71.31 70.74 72.23 71.59 71.02 70.44 70.28 70.31 70.66
59.88 56.58 59.54 60.61 60.54 59.48 61.73 58.66 61.01 65.06 66.57 65.39 65.36 65.91 66.81 67.45 68.13 68.01 69.08 69.36 69.73 70.40 71.01 71.20 71.59 71.74 70.93 70.42 70.20 70.43 71.59 72.78 72.46 72.80 72.10 72.83 71.80 70.96 71.75 71.29 71.22 71.15 72.02 71.35 71.29 70.56 68.86 66.02 64.33
49.66 51.13 46.88 52.70 59.05 60.25 59.08 52.11 61.95 65.31 64.88 64.38 65.04 65.66 66.27 66.74 67.66 68.68 69.63 69.57 69.83 70.28 69.95 71.30 72.61 71.52 71.32 70.56 70.82 71.17 71.92 71.77 72.61 73.44 72.03 72.35 72.23 71.45 71.12 70.40 70.02 71.69 70.70 70.69 69.65 69.15 67.49 64.67 64.05
43.34 41.79 45.04 47.82 58.20 57.55 56.85 53.41 61.94 64.98 64.39 64.06 64.60 64.94 65.77 65.84 67.03 68.20 69.63 69.42 69.60 69.95 69.91 70.28 71.10 70.54 71.40 71.03 71.83 70.99 71.37 70.19 70.51 70.74 71.52 72.22 72.43 72.62 71.41 70.82 70.95 72.00 71.02 69.97 69.57 68.98 66.35 61.68 61.81
40.98 41.49 41.85 45.54 55.48 56.74 53.78 53.47 61.88 63.58 63.59 63.80 64.39 64.99 65.47 65.12 65.99 68.06 69.30 70.41 69.79 70.08 70.33 70.21 70.87 70.44 71.21 71.77 71.76 70.88 70.06 70.14 72.18 71.37 71.40 72.28 72.86 73.84 72.02 71.52 71.22 71.50 71.87 71.08 69.16 66.67 65.32 62.03 62.59
45.92 44.01 43.76 47.30 50.61 54.71 54.53 54.81 60.30 62.53 62.56 62.77 63.54 64.22 64.70 64.66 66.64 68.31 69.13 70.08 70.17 70.00 69.76 70.29 70.35 70.74 70.98 69.96 70.71 69.85 69.03 69.70 71.27 70.72 71.85 72.24 73.64 74.07 72.93 71.10 71.81 70.86 70.31 69.98 67.97 64.59 61.77 60.47 62.88
44.98 43.53 43.06 47.84 55.57 54.38 54.19 54.30 60.38 61.69 61.83 62.33 62.61 63.27 64.15 64.27 65.08 67.03 67.92 69.42 69.61 68.69 69.30 70.09 70.59 70.34 70.98 71.31 71.55 70.53 70.08 70.07 70.40 71.96 71.22 71.95 72.84 73.34 73.73 71.04 70.89 70.80 69.76 68.71 66.99 62.83 61.28 61.62 62.53
43.44 42.97 43.38 44.52 52.87 55.52 54.25 51.68 56.27 61.10 61.39 63.11 63.83 64.26 64.52 64.41 63.71 63.96 66.69 68.52 69.41 68.62 69.16 69.90 70.66 70.70 70.80 71.22 70.98 70.32 70.74 70.19 70.01 70.22 71.10 72.56 72.84 73.49 72.94 71.55 71.05 70.18 69.53 68.15 64.92 62.76 61.21 59.93 60.49
40.95 47.14 47.49 46.87 46.26 43.76 53.67 44.17 52.24 56.68 57.84 60.20 62.28 63.38 64.01 64.47 65.26 65.05 66.19 67.91 68.78 68.87 69.93 70.28 70.67 70.86 70.79 71.11 70.93 70.27 69.28 68.40 69.13 70.30 70.76 71.99 73.13 72.74 72.61 71.80 71.24 70.18 68.67 67.19 65.04 64.73 62.35 59.44 59.71
45.63 48.77 46.95 46.76 43.80 42.31 47.27 44.76 48.75 55.58 54.26 56.43 59.15 62.55 63.84 64.85 65.24 65.16 65.49 67.43 69.04 69.67 69.34 70.23 70.16 70.89 71.19 71.37 71.54 70.81 69.66 70.15 69.22 69.36 70.34 71.39 71.89 72.57 73.03 72.48 71.59 69.76 69.08 67.27 65.55 63.42 62.99 59.41 59.92
49.41 46.32 44.04 42.84 41.35 38.96 44.67 47.21 48.50 50.85 54.93 56.75 58.11 60.81 63.58 64.44 65.09 65.74 66.20 67.30 68.20 69.67 69.29 70.09 69.62 70.54 71.34 71.39 71.66 70.97 70.20 68.82 68.90 68.61 69.12 70.53 70.71 71.79 72.15 72.24 70.15 69.72 68.86 66.69 65.06 62.80 63.29 63.73 62.38
45.50 39.86 35.24 32.90 34.05 37.08 42.66 44.30 49.27 52.99 57.43 58.74 59.05 59.37 62.15 64.35 64.56 64.95 64.85 65.79 67.07 68.16 69.00 69.74 69.43 69.92 71.29 71.45 71.52 71.25 70.74 69.66 69.36 69.12 69.58 68.95 69.40 69.86 71.46 71.87 69.70 68.65 67.91 67.05 64.58 62.51 62.31 63.32 61.27
42.97 42.66 33.33 29.43 31.05 36.39 40.80 40.54 46.69 55.68 58.12 60.49 61.33 61.17 61.60 62.83 64.25 64.61 65.16 65.42 66.43 67.85 68.50 69.37 69.08 69.43 71.37 71.70 71.48 71.54 71.17 70.84 70.29 69.39 69.46 69.61 69.94 70.72 72.08 71.97 71.33 69.20 67.33 66.16 64.73 63.82 63.05 62.45 62.15
42.29 40.59 43.78 34.94 35.26 34.45 38.90 44.41 51.16 55.16 56.20 57.79 59.39 60.52 60.85 62.06 63.47 64.21 65.09 65.50 66.41 66.92 68.19 69.21 69.48 69.76 70.93 71.73 71.81 71.40 71.17 70.83 70.16 69.03 69.20 70.03 70.38 70.86 70.85 71.41 71.06 69.08 67.12 65.31 64.48 63.35 63.13 63.08 62.25
46.40 43.65 37.82 32.60 32.80 33.24 35.22 39.57 42.84 50.11 53.87 55.25 57.86 60.01 61.34 62.81 62.89 63.95 64.81 65.38 66.33 67.27 68.24 69.25 70.06 69.87 70.63 71.40 71.92 71.79 71.55 71.53 71.06 70.24 70.02 69.69 69.43 69.36 70.48 70.54 70.68 69.42 67.29 65.60 64.64 63.79 63.43 64.06 63.26
41.28 42.06 38.73 39.47 35.52 36.07 31.08 38.47 46.57 49.77 52.97 54.34 56.81 60.63 62.09 62.95 63.56 63.56 64.52 65.36 66.23 67.48 67.99 69.09 69.90 69.90 70.28 71.05 71.40 71.47 71.69 72.24 72.53 72.06 71.16 70.33 69.49 68.74 69.39 70.10 70.24 69.53 68.01 66.73 65.83 64.43 64.05 63.47 63.43
47.75 44.68 42.19 36.83 34.70 35.57 39.83 39.09 48.03 50.92 51.40 54.70 56.74 59.22 62.33 64.08 64.29 64.20 64.10 64.77 65.44 66.88 67.78 68.89 69.82 70.12 70.43 71.34 71.42 70.99 71.11 71.14 71.99 72.39 72.70 71.79 70.20 69.32 68.90 69.86 69.82 69.45 68.65 67.74 66.41 65.21 65.59 63.79 62.70

GFSSGP_sfc_wetblb_042.txt.gz
Wetbulb
74.32 74.45 72.88 69.29 59.66 58.51 55.08 55.70 59.98 60.07 60.43 63.21 64.77 61.95 60.60 61.75 59.37 56.43 68.67 69.65 71.59 71.28 72.75 73.67 76.49 77.29 77.07 77.37 77.58 77.23 76.83 76.72 76.80 76.96 77.06 77.17 76.83 76.63 76.42 76.29 76.13 76.02 76.08 75.95 75.73 75.73 75.31 75.20 75.17
73.87 73.07 69.57 65.50 56.87 52.42 54.06 58.90 57.73 60.01 62.36 63.94 63.61 62.75 61.39 59.91 65.26 65.32 67.56 70.11 71.80 72.12 72.85 73.06 76.73 77.49 77.00 77.13 77.60 77.48 76.69 76.71 76.84 77.03 77.13 77.01 76.83 76.59 76.13 75.86 75.61 75.56 75.42 75.26 75.37 75.26 75.34 75.20 75.00
73.61 72.45 61.68 59.43 57.14 52.78 52.90 58.26 59.50 61.81 63.66 62.83 62.10 64.60 63.02 62.24 65.86 67.25 68.84 70.95 71.33 71.67 72.43 73.35 77.22 77.82 76.87 76.95 77.16 77.57 77.58 76.96 77.17 77.21 76.99 76.85 76.51 76.21 75.89 75.61 75.56 75.69 75.55 75.33 74.93 74.71 74.71 74.77 74.16
71.79 69.24 65.46 57.51 54.97 57.63 58.26 60.10 61.76 61.23 63.06 64.34 63.73 61.07 65.24 67.74 66.50 68.63 70.05 71.27 71.23 71.81 73.02 75.23 76.92 76.93 76.86 77.21 77.09 77.42 76.99 76.63 76.55 76.82 76.83 76.48 76.21 76.00 75.78 75.70 75.70 75.50 75.94 75.65 75.26 75.21 74.90 74.63 74.35
69.90 65.37 56.88 54.74 55.62 58.74 60.62 62.91 62.42 60.78 61.91 62.83 63.84 60.85 62.79 67.68 69.14 69.34 70.30 71.12 70.88 71.66 72.96 74.45 77.45 77.27 77.08 76.85 77.07 76.91 76.91 76.71 76.46 76.42 76.61 76.29 76.00 75.70 75.51 75.38 75.54 75.76 76.01 75.49 75.13 75.13 74.94 74.85 74.58
61.16 63.49 54.93 52.33 55.43 59.31 62.29 63.59 63.18 62.05 62.62 62.40 61.91 61.79 63.67 68.00 67.73 69.34 70.74 70.63 71.97 71.94 73.19 73.88 76.62 77.04 76.76 76.81 76.61 76.52 76.80 76.79 76.62 76.26 76.37 76.35 75.73 75.40 74.94 74.88 75.27 75.74 75.58 75.58 75.11 74.69 74.61 74.72 74.94
59.11 57.61 54.73 55.13 55.96 57.66 61.52 64.25 62.05 61.53 61.61 61.48 64.57 60.67 64.48 66.13 68.69 70.00 70.64 71.38 72.04 73.25 73.11 73.51 73.48 74.95 76.49 76.53 76.56 76.59 76.55 76.74 76.65 76.55 76.23 76.26 75.81 75.13 74.91 74.86 75.19 75.30 75.08 75.21 75.11 75.11 74.75 74.80 75.10
62.73 59.27 55.62 56.35 55.21 55.84 62.81 63.67 64.13 62.30 61.91 66.26 65.60 59.45 61.53 66.38 69.48 70.46 70.87 71.06 71.78 72.65 73.13 73.22 73.55 73.48 73.51 74.08 76.40 76.38 76.42 76.52 76.60 76.36 75.78 75.91 75.84 75.30 75.16 76.42 75.44 75.93 75.13 74.90 75.19 74.91 75.05 75.38 75.60
65.35 54.54 52.35 55.57 55.95 58.14 63.93 62.31 65.27 66.03 63.07 64.57 65.56 64.25 65.93 68.68 69.54 68.92 69.18 69.85 71.21 72.17 72.25 73.05 73.27 73.03 73.76 73.97 74.96 76.55 76.45 76.47 76.36 75.94 76.21 76.19 74.80 74.50 75.16 75.53 76.45 76.41 75.40 75.71 74.66 75.52 75.47 74.30 75.60
58.92 53.30 54.42 59.95 60.04 59.90 63.37 62.83 63.09 62.46 61.65 63.04 63.61 66.65 67.95 68.31 68.04 67.21 67.11 67.05 69.10 70.19 71.89 72.65 72.99 73.12 73.79 75.30 74.58 74.31 73.82 74.44 74.74 74.75 74.41 74.78 74.61 73.94 74.89 75.69 76.66 76.96 76.49 76.12 75.52 75.16 75.37 73.21 73.18
59.29 55.15 58.25 59.44 60.85 63.33 63.40 62.46 63.85 61.57 58.69 62.36 62.18 64.56 66.99 67.29 67.14 66.92 67.18 67.40 68.04 70.02 71.92 72.82 72.88 73.30 73.44 74.36 73.47 73.25 73.32 73.54 73.72 73.73 73.43 73.24 74.27 73.58 73.06 73.46 73.37 73.02 73.66 73.48 74.02 73.58 73.50 73.55 73.58
56.59 60.10 60.07 59.84 60.77 63.65 62.33 63.72 62.54 61.92 61.06 65.81 65.55 66.45 66.73 66.18 66.36 66.67 66.66 67.18 67.55 69.28 71.24 72.60 73.09 73.22 72.77 72.66 72.60 72.55 72.58 72.64 72.23 72.48 72.41 72.18 72.28 72.34 72.31 72.49 72.79 72.60 73.05 73.44 71.97 73.24 72.53 73.05 73.23
58.50 60.15 61.30 62.37 60.55 63.46 64.14 63.03 62.70 61.60 65.65 65.87 66.37 66.55 65.90 66.15 66.53 67.58 68.04 68.42 68.35 68.90 70.32 71.79 72.99 72.79 72.60 71.27 71.68 71.66 71.86 72.28 72.04 72.02 71.88 72.31 72.33 71.90 72.43 72.86 72.81 72.52 73.22 73.78 72.94 72.17 72.54 72.95 72.68
59.97 60.23 60.51 61.14 60.71 61.41 62.28 62.42 63.00 63.07 65.81 65.22 65.51 65.34 65.97 66.31 66.86 67.70 68.08 68.23 68.74 69.47 70.06 71.53 72.27 72.63 72.03 71.24 70.28 71.03 71.29 71.82 71.86 71.79 71.73 72.09 73.05 72.22 72.16 72.56 72.66 72.54 72.87 73.75 72.93 73.13 72.99 72.15 71.84
58.18 54.32 56.60 59.58 59.09 59.08 63.50 59.01 60.12 64.34 65.65 64.37 64.69 65.28 66.02 66.50 67.57 67.64 68.56 68.54 69.44 69.88 70.57 71.02 71.59 72.22 71.18 70.34 69.96 70.16 70.80 71.90 71.87 72.14 72.43 72.87 73.08 72.62 73.12 72.61 72.32 72.40 72.55 73.19 73.01 72.54 71.77 68.50 66.49
50.83 52.63 48.41 54.27 56.37 58.96 60.42 54.80 61.91 64.69 64.68 63.41 64.53 65.23 65.66 66.31 67.40 68.22 69.30 69.48 70.05 70.25 70.17 70.92 72.20 71.61 70.84 70.13 69.94 70.59 70.81 71.32 72.28 73.23 73.33 73.18 73.38 73.10 72.49 72.29 72.08 72.75 72.91 72.99 71.99 71.46 69.93 66.60 65.62
42.44 40.88 44.12 47.43 54.10 55.65 57.93 52.99 58.63 64.54 64.05 63.08 63.72 64.56 65.41 65.90 67.32 68.30 69.37 69.90 70.23 70.24 70.16 70.26 71.14 70.91 70.78 70.25 70.42 70.84 71.19 71.65 72.08 72.16 73.00 73.02 73.38 73.25 72.50 71.99 72.05 73.20 72.53 72.09 71.60 70.94 68.85 65.40 65.97
40.59 40.28 41.35 45.14 51.09 55.18 53.14 53.21 59.10 63.06 63.35 63.00 63.22 63.93 64.72 65.25 66.13 68.08 69.10 70.08 70.35 70.14 70.52 70.24 71.15 70.95 71.01 70.86 70.76 71.38 71.01 71.14 71.38 71.35 71.77 72.95 73.16 73.66 72.64 72.50 72.41 73.33 72.73 71.45 70.97 69.74 67.17 65.45 65.68
45.90 43.40 44.05 46.05 49.17 52.94 51.95 52.64 58.76 61.87 62.68 62.38 63.00 63.10 63.72 64.59 66.69 67.93 68.71 69.87 69.56 69.62 69.56 69.41 69.93 70.18 70.47 70.48 70.12 70.33 69.85 70.35 71.33 72.55 72.87 72.86 73.28 74.55 73.59 73.28 72.86 73.01 72.40 72.06 71.11 67.62 66.47 64.47 64.89
44.33 42.64 42.48 45.17 48.54 50.55 50.55 52.16 59.27 60.99 61.75 62.89 63.08 63.65 63.71 64.41 65.22 66.56 67.58 68.82 68.83 68.49 69.19 69.46 69.58 70.09 70.15 70.81 71.10 71.36 71.21 70.51 71.65 72.79 72.53 72.93 73.52 74.17 73.54 72.91 72.37 72.79 71.37 70.97 69.99 67.52 64.94 64.75 64.56
42.26 42.74 42.11 43.43 49.63 53.30 52.34 49.90 56.09 60.27 61.23 62.67 64.06 64.70 64.97 64.88 64.72 65.18 66.59 67.76 69.14 68.49 68.86 69.39 69.68 70.05 70.64 70.86 71.02 70.81 71.00 71.15 70.64 71.26 72.03 71.90 73.23 73.90 74.66 73.77 72.06 72.28 71.91 70.31 69.21 66.53 65.33 64.41 64.06
38.75 45.72 46.10 45.41 43.28 39.46 52.24 43.35 50.30 57.32 58.83 60.42 61.34 63.38 64.30 64.96 65.71 65.30 65.99 66.91 68.14 69.01 69.57 69.69 70.04 70.42 70.71 70.98 70.63 70.21 70.00 69.55 70.16 70.35 71.67 72.73 73.28 73.46 73.99 73.35 72.54 72.03 71.02 70.31 68.55 66.50 65.47 64.19 64.04
44.01 47.35 45.73 45.42 42.50 39.65 43.35 43.90 47.03 55.56 56.14 58.30 60.67 61.98 63.48 64.91 65.48 64.75 65.45 67.18 68.27 69.39 69.33 69.35 69.86 70.37 70.61 70.73 70.91 70.34 70.14 70.12 70.11 70.67 71.19 71.34 72.91 73.61 73.64 73.35 72.79 71.86 70.73 70.48 68.32 66.81 65.73 63.24 63.75
48.43 44.59 41.81 40.51 39.46 35.83 41.09 42.18 41.79 49.66 55.76 58.64 61.09 62.78 63.73 64.42 65.11 65.80 65.59 66.87 67.74 69.28 69.61 69.37 69.48 69.88 70.54 70.36 70.59 70.23 70.01 69.25 69.18 69.43 69.96 70.88 71.82 72.55 73.22 73.45 72.87 72.43 71.33 69.85 68.42 67.32 66.29 64.65 65.04
45.49 39.10 32.31 31.76 32.42 35.82 40.89 42.08 45.51 52.53 57.12 59.26 60.19 61.68 63.37 65.02 65.23 65.50 65.52 65.21 66.69 67.95 68.92 68.84 69.15 68.88 70.15 70.14 70.32 70.64 70.51 70.03 69.93 69.64 69.82 69.92 70.66 71.48 72.39 72.92 72.08 71.32 71.31 70.39 68.44 66.07 65.98 66.19 65.22
41.91 39.97 32.26 27.87 28.52 37.27 39.01 38.32 43.45 52.78 57.85 59.66 60.77 61.84 62.40 63.47 65.32 65.49 66.04 66.07 65.87 67.52 68.55 68.44 68.73 68.55 69.75 70.39 70.53 71.10 71.30 70.74 70.83 70.46 70.46 70.38 70.90 71.97 73.06 72.83 72.76 71.49 70.86 70.25 67.84 65.90 65.02 66.09 65.43
39.80 39.04 41.56 33.97 32.85 32.08 36.33 40.82 48.46 51.94 52.66 56.68 58.73 59.98 60.10 61.25 63.49 65.09 65.99 66.38 66.22 66.91 68.01 68.39 68.62 69.00 69.59 70.37 70.83 71.15 71.55 71.38 70.66 70.87 70.40 70.65 71.51 72.01 72.51 73.01 72.80 71.51 70.62 69.42 67.79 66.12 65.29 65.38 65.32
42.75 44.35 37.28 33.06 30.25 28.58 33.61 36.33 40.66 47.96 50.68 53.34 54.91 58.18 60.11 60.88 61.59 64.22 65.50 66.00 66.41 66.86 68.04 68.97 69.04 68.96 69.61 70.71 71.13 71.30 71.48 71.65 71.48 71.23 69.74 70.29 70.74 71.79 71.85 72.34 72.57 71.41 70.49 68.59 67.41 66.44 66.05 65.70 64.83
40.27 38.25 36.48 39.43 33.87 32.30 29.58 35.40 44.07 48.49 51.11 52.19 54.57 58.36 59.83 60.56 61.44 62.91 64.73 65.98 66.33 66.71 67.38 68.25 68.76 69.00 69.23 70.76 71.25 71.48 71.48 71.75 71.62 71.18 70.50 70.42 70.67 70.86 71.02 71.79 71.84 71.47 70.07 68.66 67.20 66.65 65.96 65.72 65.68
47.62 44.02 37.41 37.82 32.76 33.46 33.44 37.27 46.01 48.28 51.23 53.08 54.22 56.71 59.15 61.18 61.94 62.85 64.15 65.07 65.50 65.47 66.57 67.32 68.27 69.11 69.67 70.36 71.17 71.35 71.60 71.67 71.20 71.08 71.15 71.26 70.47 70.46 70.65 71.34 71.59 71.36 70.35 69.15 67.98 66.56 66.47 65.71 65.37

GFSSGP_sfc_wetblb_045.txt.gz
Wetbulb
74.60 75.27 73.87 71.36 60.56 59.64 56.55 58.03 62.78 60.80 61.72 65.02 66.04 63.59 62.45 62.55 60.21 58.05 69.21 71.31 71.54 72.16 74.37 74.75 76.79 77.65 77.43 77.95 77.97 77.68 77.37 77.08 77.59 77.22 77.23 77.23 76.77 76.69 76.48 76.44 76.27 76.22 76.15 75.96 75.90 75.54 75.40 75.46 75.15
74.86 73.07 71.13 66.48 58.36 53.50 56.19 60.86 60.13 62.75 64.17 65.94 65.45 64.46 63.19 61.12 65.60 67.06 68.63 72.38 72.70 73.29 73.93 75.69 77.12 77.75 77.24 77.62 78.01 77.89 76.78 76.80 77.17 77.25 77.13 76.81 76.70 76.38 76.17 76.06 75.73 75.54 75.40 75.54 75.57 75.68 75.62 74.96 74.85
74.33 73.04 63.40 60.75 59.95 54.83 56.53 61.04 62.27 63.93 65.36 64.28 63.50 65.94 64.43 63.00 66.91 68.24 71.48 72.60 73.07 73.22 74.13 76.63 77.63 77.94 77.17 77.17 77.31 77.56 76.87 77.08 77.12 77.19 76.78 76.68 76.38 76.14 75.98 75.90 75.81 75.72 75.75 75.48 75.18 75.10 74.74 74.77 74.63
72.73 71.11 67.78 60.57 56.11 60.00 60.21 62.57 63.72 63.30 64.57 65.37 65.28 62.34 66.45 68.95 68.38 70.36 72.27 72.90 72.72 73.14 74.12 76.89 77.36 76.97 77.03 77.27 77.24 77.36 76.80 77.23 77.19 76.92 76.76 76.44 76.28 76.12 75.90 75.90 75.88 75.79 76.24 75.82 75.40 74.93 74.63 74.55 74.28
72.72 67.68 60.12 58.11 56.84 60.77 63.59 65.02 64.56 62.91 63.24 63.96 64.70 61.55 63.19 68.27 71.10 71.61 72.16 72.78 72.16 72.95 74.61 76.22 77.70 77.39 77.44 77.12 77.44 76.78 76.60 76.45 76.63 76.77 76.46 76.22 76.09 76.01 75.79 75.98 75.90 76.40 76.13 75.50 75.14 75.00 74.89 74.38 74.47
64.51 65.47 57.55 55.50 56.99 60.73 63.75 65.36 64.84 63.88 64.02 63.91 63.44 63.23 64.49 70.15 69.86 71.15 72.40 72.58 73.17 73.17 74.79 75.70 77.12 77.35 77.35 77.04 76.98 76.65 76.68 76.64 76.26 76.43 76.52 76.14 75.90 75.65 75.43 75.38 76.07 76.24 75.88 75.27 74.77 74.53 74.58 74.75 74.69
62.33 60.59 56.86 56.83 56.88 59.79 63.20 66.77 64.56 63.54 63.30 62.94 65.87 61.62 64.84 67.25 70.50 71.71 72.32 73.11 73.58 74.27 74.98 75.61 75.59 76.58 76.71 76.66 76.57 76.48 76.51 76.52 76.44 76.24 76.29 76.13 75.48 74.97 74.94 75.16 75.35 75.41 75.10 75.10 75.02 74.86 74.55 74.53 75.02
65.12 62.52 57.08 58.27 57.94 58.76 64.93 65.78 66.36 64.28 62.99 67.49 67.42 61.33 62.17 67.13 70.91 71.91 72.20 72.71 73.21 74.02 74.88 75.41 75.73 75.72 76.07 76.46 76.52 76.46 76.43 76.39 76.36 76.27 75.89 75.81 75.57 75.36 75.36 75.91 75.27 75.58 75.24 74.95 75.09 74.82 74.52 74.89 75.24
66.18 60.48 56.59 57.57 58.22 60.87 66.03 64.28 66.34 67.52 64.95 65.36 66.90 66.34 68.07 69.68 70.93 70.65 70.66 71.40 72.16 73.19 73.94 74.61 74.75 75.59 75.99 76.13 76.07 76.21 76.35 76.15 76.04 76.10 75.78 76.41 77.94 77.26 76.35 75.62 76.03 75.91 75.31 75.76 75.49 75.04 75.33 74.47 75.37
64.07 60.15 57.93 61.47 62.56 62.91 65.16 65.69 65.33 64.45 63.56 64.01 65.49 67.89 68.84 69.44 69.54 68.81 68.57 68.86 70.36 71.53 72.84 73.93 74.06 74.51 75.51 74.91 76.41 76.62 75.98 75.97 76.50 76.63 77.10 77.45 77.13 76.95 76.15 76.61 76.05 76.19 76.02 75.73 75.69 75.80 75.41 75.60 76.16
62.77 58.89 61.05 61.67 63.54 65.25 65.58 65.30 66.64 64.07 61.62 64.55 64.49 66.15 67.49 68.25 68.62 68.54 68.83 69.33 70.06 71.38 72.23 73.38 74.30 75.10 74.97 74.81 75.73 76.28 75.39 75.74 76.15 77.09 76.69 76.37 76.45 77.00 76.57 77.00 77.15 77.24 75.50 77.13 76.73 76.92 77.29 76.02 76.96
58.89 61.93 62.44 62.89 63.86 64.26 64.58 66.60 64.78 64.55 63.19 66.77 67.78 67.85 67.65 67.55 67.87 68.12 68.49 69.19 70.14 70.93 72.21 73.55 75.00 75.52 75.51 75.22 75.53 75.92 74.99 75.25 74.96 75.41 76.28 75.55 75.10 76.01 76.66 76.73 77.37 77.00 77.31 77.50 76.60 77.01 77.24 77.19 77.00
59.70 61.77 63.57 64.58 64.53 63.60 66.76 64.24 65.26 64.54 67.29 68.36 67.99 67.71 67.44 67.79 68.16 69.11 69.65 70.06 70.57 70.30 71.77 73.28 74.93 75.74 76.07 75.88 75.60 75.76 75.34 74.47 74.61 75.10 75.05 74.78 75.04 76.74 76.88 77.44 77.19 76.94 77.47 77.66 77.40 76.79 76.88 76.40 76.51
62.90 63.11 63.34 63.18 63.12 64.77 64.43 64.84 65.37 65.67 67.36 66.81 66.99 67.07 67.70 67.70 68.14 68.93 69.28 69.21 69.71 70.62 71.42 73.25 74.16 75.42 75.88 75.67 76.07 75.52 75.36 74.95 75.04 74.39 74.48 75.30 75.02 76.58 76.50 77.04 76.80 76.93 76.93 77.42 77.29 77.74 76.87 76.41 75.46
59.72 56.80 57.87 60.48 62.50 62.31 65.78 62.06 62.81 66.39 66.99 65.65 66.04 66.98 67.49 68.09 68.91 68.75 69.42 69.56 70.25 70.63 71.78 72.64 73.97 75.00 75.76 75.67 75.45 75.20 74.72 74.43 73.79 73.95 75.12 75.09 75.49 76.64 77.31 76.75 76.30 76.29 77.17 77.21 77.16 77.53 76.91 73.45 70.09
54.97 56.52 53.75 58.89 61.83 62.49 63.67 57.37 64.25 66.86 65.84 64.97 65.59 66.21 66.80 67.84 68.78 69.80 70.34 70.71 71.55 71.35 71.58 72.90 73.17 74.18 74.95 75.52 75.33 74.72 74.04 73.73 73.91 73.99 74.58 75.41 76.33 77.23 77.21 76.30 76.30 77.27 76.98 77.93 77.90 76.28 75.20 69.55 68.56
51.05 50.25 52.17 54.78 60.42 60.21 62.02 58.08 63.45 67.04 66.24 65.14 65.22 66.10 66.48 67.35 68.85 69.99 71.05 71.45 71.97 72.56 72.38 72.57 73.45 73.52 74.44 75.25 75.02 74.71 74.55 73.82 73.79 74.46 75.60 76.60 77.30 77.19 76.89 76.49 76.45 77.33 76.12 76.55 75.40 75.76 74.06 70.47 70.03
47.81 48.55 50.50 52.24 55.72 58.34 59.62 58.41 60.76 66.09 66.10 65.56 65.41 66.20 66.51 66.88 67.97 70.05 71.11 72.02 72.63 73.12 73.67 73.79 73.73 74.27 74.69 74.42 74.68 73.97 73.30 73.50 74.98 75.21 75.80 76.81 77.30 77.70 77.24 74.90 75.40 76.77 75.98 74.51 73.56 75.29 73.15 71.65 71.18
49.99 49.97 51.34 53.67 55.05 56.50 56.29 56.74 59.47 64.72 65.70 65.51 65.72 65.88 66.26 66.78 69.06 70.61 71.40 72.05 72.39 72.97 73.18 73.62 73.72 74.84 74.01 72.96 72.07 72.02 71.10 73.02 74.49 75.57 76.75 76.88 77.19 77.55 77.64 75.43 76.30 75.46 77.45 76.30 76.63 74.91 73.09 71.26 71.46
48.94 48.35 50.37 52.01 52.14 52.75 53.92 55.28 59.46 63.55 64.72 65.92 65.54 65.75 66.09 67.02 68.24 69.62 70.88 71.67 72.05 72.32 73.12 73.77 74.00 74.95 74.26 73.67 73.69 72.97 73.34 73.86 75.08 76.11 76.88 77.41 77.19 77.66 77.39 76.52 76.29 76.65 75.67 76.16 75.65 73.88 71.40 70.09 70.73
47.88 47.16 49.21 50.24 51.06 55.82 55.04 53.75 57.89 62.62 65.03 66.25 66.83 67.14 66.60 67.36 67.38 68.77 69.70 70.69 71.76 72.05 73.31 73.93 74.84 75.57 74.96 75.34 74.36 74.08 74.63 74.69 74.11 74.55 75.68 76.50 77.19 77.55 77.93 75.96 75.84 76.92 76.52 74.92 75.57 73.94 72.05 68.58 70.61
45.72 49.54 49.07 49.84 49.49 47.27 56.36 48.39 56.02 60.59 62.05 64.11 65.78 66.53 66.97 67.38 68.36 68.83 69.39 70.31 71.15 72.50 73.23 74.33 74.78 75.39 75.15 76.07 74.48 74.66 72.27 71.86 73.47 74.67 75.50 76.13 77.24 77.18 77.52 77.63 77.26 77.15 76.02 75.98 75.33 73.81 72.18 70.61 68.30
47.69 50.36 49.42 49.51 49.55 48.89 49.92 48.81 52.92 59.29 59.71 61.85 64.52 66.24 67.38 68.32 68.48 68.50 69.26 70.64 71.44 72.54 72.45 73.16 74.56 75.14 75.50 75.69 75.63 74.32 74.06 73.72 74.48 74.87 76.54 77.20 77.64 77.22 77.14 77.61 77.62 77.18 76.29 76.23 75.51 73.55 71.66 70.45 69.57
52.41 50.03 49.32 48.74 48.72 43.75 48.88 48.44 50.50 55.36 59.53 62.41 64.43 66.04 67.27 68.32 69.08 69.68 70.37 70.84 71.20 72.22 72.73 72.78 74.07 74.66 75.51 75.39 75.32 75.29 74.84 74.90 73.55 74.30 74.10 74.58 74.92 75.73 77.10 77.33 77.44 77.41 76.91 76.11 75.39 74.62 73.10 71.62 70.05
50.46 47.91 42.49 41.04 41.35 41.73 50.32 46.94 49.91 55.06 59.90 62.58 63.87 65.33 66.77 68.08 68.90 69.57 69.89 69.77 71.45 71.82 72.70 73.33 73.81 73.67 74.92 74.93 75.05 75.20 75.27 75.65 75.40 75.29 74.01 74.97 73.92 74.34 76.33 77.28 77.08 76.83 77.02 76.52 75.97 74.33 73.14 72.06 69.90
48.54 47.49 42.67 38.10 39.72 42.79 48.07 45.03 49.72 55.77 57.27 61.90 63.26 65.53 67.04 67.45 68.67 69.17 70.77 71.06 70.76 71.69 72.53 73.07 73.23 73.30 74.16 74.64 74.72 75.30 75.98 75.04 74.91 75.58 74.49 74.17 74.40 74.93 77.32 76.85 77.27 77.20 77.03 76.71 75.74 74.00 72.79 72.49 71.04
47.92 45.92 49.33 44.66 43.58 42.47 45.99 49.11 52.65 55.64 56.66 58.08 62.42 63.96 65.24 66.92 67.91 68.50 69.43 70.71 70.96 71.27 72.18 73.00 73.38 73.39 74.20 74.42 74.73 75.09 75.50 75.46 75.00 76.32 76.57 74.81 76.63 75.44 76.18 76.63 76.71 77.15 77.02 76.62 75.66 73.92 72.73 71.45 71.31
49.16 50.73 43.13 45.33 38.92 37.99 43.02 44.75 47.22 53.36 54.80 57.82 59.78 62.60 64.34 66.13 67.24 68.43 69.94 70.77 71.44 71.43 72.29 73.46 73.66 73.51 73.95 74.47 74.75 74.68 74.99 75.70 76.00 76.25 76.17 76.17 77.00 76.58 76.10 76.60 77.13 77.13 76.76 76.38 75.54 74.47 73.83 71.68 70.63
46.16 46.59 47.27 47.07 44.96 40.65 39.63 43.59 52.70 54.94 57.46 57.21 58.94 62.11 63.47 64.58 65.73 66.87 69.11 71.00 71.83 72.15 71.54 72.42 73.20 73.48 73.83 74.21 74.72 74.86 75.00 75.46 75.91 75.74 76.11 76.27 76.91 77.06 76.86 76.79 76.78 76.52 76.17 76.17 75.13 74.62 73.65 71.76 71.69
49.73 48.24 47.97 43.49 42.56 43.99 44.18 44.25 52.79 55.44 57.63 58.81 59.34 60.96 62.65 64.40 65.60 66.62 67.02 69.20 70.44 71.39 71.55 71.75 72.74 72.76 73.57 74.10 74.62 74.65 75.44 75.58 75.43 75.61 75.93 76.48 76.21 76.93 76.92 76.96 76.53 76.33 76.13 75.94 74.92 73.93 73.27 72.08 71.20

GFSSGP_sfc_wetblb_048.txt.gz
Wetbulb
74.64 75.53 74.93 72.07 61.84 62.33 59.89 60.24 65.04 63.60 64.12 67.43 68.08 66.09 63.72 65.92 61.93 60.46 71.25 71.05 72.19 73.74 73.78 75.86 76.98 77.10 77.61 77.99 78.29 77.94 77.61 77.21 77.37 77.24 77.49 77.09 76.79 76.95 76.74 76.75 76.63 76.69 76.23 75.96 75.99 75.74 75.74 75.66 75.62
74.86 73.32 73.82 69.46 60.79 59.05 59.28 63.33 62.38 65.08 66.88 68.52 67.82 67.04 65.73 62.75 66.83 67.66 70.38 71.36 72.79 74.26 75.78 76.66 76.69 77.63 77.55 77.92 78.05 77.80 77.02 77.28 77.57 77.62 77.09 76.99 76.64 76.42 76.10 76.12 75.96 75.66 75.82 75.88 76.13 75.77 75.44 75.14 74.89
74.32 73.88 68.37 63.91 60.42 59.10 59.40 63.44 64.76 66.55 67.76 66.82 65.63 68.52 67.06 64.41 68.55 70.08 72.43 72.76 74.84 74.83 75.12 76.60 77.37 78.16 77.70 77.29 77.37 77.22 77.13 77.36 77.58 77.23 77.08 76.81 76.62 76.32 76.18 76.31 76.01 76.01 75.52 75.44 75.55 75.33 75.27 75.16 74.91
73.25 71.12 69.52 61.33 59.78 62.41 63.04 64.93 66.14 65.80 66.82 67.43 67.58 65.01 68.20 70.65 70.03 72.67 73.08 73.84 74.16 74.90 75.92 76.83 78.05 77.36 77.45 77.20 77.04 77.21 77.59 77.45 77.18 77.08 76.84 76.51 76.35 76.26 76.51 75.96 76.05 76.16 76.02 75.91 75.63 75.30 75.08 74.55 74.36
73.57 69.94 63.11 61.27 60.64 63.35 66.10 67.00 66.78 65.06 65.54 66.17 67.04 63.46 64.86 69.25 72.28 73.52 73.11 73.45 74.16 74.60 75.67 77.20 77.92 78.02 77.82 77.69 77.51 77.06 77.20 77.31 77.18 76.94 76.51 76.49 76.35 76.21 76.51 75.99 76.49 76.38 75.74 75.58 75.52 75.16 74.89 74.80 74.85
68.65 68.70 60.71 60.25 60.40 63.56 66.63 67.67 66.72 65.58 66.04 66.04 65.48 64.03 65.25 71.58 71.11 72.71 73.73 73.42 74.56 74.40 74.71 76.38 77.52 77.74 77.55 77.70 77.10 76.94 76.83 76.79 76.85 76.67 76.54 76.29 76.18 76.05 75.97 76.19 76.33 76.25 75.96 75.51 75.10 74.99 74.85 75.02 74.88
66.55 63.94 60.37 60.59 60.45 62.54 65.62 68.55 66.10 65.38 65.50 65.38 68.41 64.28 67.38 69.43 71.86 72.74 73.85 73.69 74.10 74.70 74.45 75.72 76.26 77.33 77.30 77.29 77.08 77.02 76.91 76.63 76.47 76.64 76.56 75.99 75.66 75.44 75.52 75.55 75.91 75.54 75.25 75.25 75.18 75.04 74.54 74.69 75.22
68.96 65.18 60.70 60.71 59.66 60.66 67.10 67.71 68.42 66.04 65.21 69.87 69.75 64.01 64.88 69.77 72.21 73.11 73.27 73.70 73.96 74.53 74.54 75.19 76.00 76.38 76.73 76.86 76.63 76.63 76.66 76.79 76.75 76.46 76.24 75.88 75.86 75.69 76.05 76.22 75.99 75.57 75.10 74.96 75.10 75.06 74.70 74.40 75.52
69.71 62.60 59.78 59.91 61.05 63.33 68.12 66.34 68.27 69.03 67.01 67.51 68.66 68.84 70.49 71.72 71.55 71.31 71.86 71.50 71.86 73.52 74.27 74.62 74.99 75.82 76.35 76.37 76.67 76.51 76.57 76.55 76.42 76.75 76.13 76.63 77.84 78.02 77.54 75.74 76.02 75.71 75.63 75.58 75.64 75.34 75.47 74.92 76.24
66.75 63.31 60.58 64.13 65.18 65.02 67.35 67.04 67.53 66.13 65.76 66.02 67.50 70.35 71.21 71.73 70.27 70.18 70.72 70.81 71.95 72.97 73.61 74.00 74.46 75.11 75.85 74.95 76.79 76.63 76.14 76.01 76.74 77.34 77.83 78.72 78.32 78.53 77.13 76.85 75.68 75.52 75.63 75.46 75.40 75.69 75.93 76.30 75.50
66.16 62.64 63.70 63.75 65.39 66.75 67.41 67.13 68.67 65.93 63.73 66.80 66.50 68.42 70.01 70.83 70.71 70.91 71.29 72.17 72.61 73.36 73.15 73.55 74.45 75.33 75.08 74.90 75.49 75.71 75.40 76.21 76.63 77.83 77.88 78.56 78.73 78.62 79.03 78.33 77.53 77.93 76.27 76.67 76.94 77.39 77.26 75.89 75.52
62.91 65.37 64.84 64.84 65.90 65.57 65.91 68.23 67.08 66.88 65.32 68.77 69.67 70.21 70.12 69.95 70.40 70.77 71.06 71.79 72.61 73.13 73.27 74.04 74.95 75.62 75.62 75.12 75.08 75.42 74.21 75.15 75.30 76.20 77.18 77.94 77.00 77.96 79.15 78.19 77.89 78.15 78.10 77.16 77.41 77.05 76.77 77.58 76.75
63.56 64.74 65.81 66.52 66.14 65.62 66.77 66.39 66.82 66.92 68.27 69.69 70.19 69.96 69.57 70.04 70.44 71.45 72.01 72.38 72.94 72.64 73.39 74.35 75.40 75.98 76.03 76.05 75.12 75.29 74.69 74.23 74.46 75.67 76.52 77.14 77.28 78.31 78.54 78.82 78.68 78.00 77.78 77.80 76.96 77.52 77.39 77.02 76.27
64.12 64.72 65.28 65.71 64.77 65.29 65.90 66.28 67.52 68.29 69.61 69.08 69.12 69.13 69.86 70.04 70.62 71.21 71.16 71.43 72.29 72.93 73.35 74.67 75.22 76.04 76.37 76.14 77.00 76.25 75.89 74.76 74.94 74.93 75.74 76.56 76.89 78.56 78.53 77.86 78.19 78.23 78.87 77.89 77.34 76.45 76.37 76.21 75.63
64.22 61.36 63.39 62.76 63.65 64.60 66.87 64.40 64.95 69.24 69.60 68.13 68.41 69.06 69.43 70.26 71.04 70.81 71.34 71.50 72.35 72.68 73.56 73.98 74.96 76.00 76.70 76.78 77.08 76.54 75.34 74.72 74.15 74.11 75.84 76.50 77.18 78.13 79.32 78.67 77.55 78.33 78.38 77.59 77.92 77.39 77.24 74.02 73.32
57.75 58.47 56.21 61.78 63.01 64.26 65.41 59.45 65.99 69.56 68.77 67.76 68.12 68.34 68.81 69.90 70.68 71.69 71.84 72.06 72.70 73.03 73.32 74.35 74.59 75.43 76.44 76.97 76.82 75.70 74.92 74.56 73.99 74.20 75.42 76.67 77.31 78.29 78.80 77.65 78.19 78.64 78.39 77.74 76.53 76.52 75.26 73.08 71.72
55.49 54.44 56.00 59.01 63.42 63.07 63.48 60.51 65.47 69.29 68.81 68.05 68.16 68.44 68.41 69.28 70.46 71.53 71.99 72.31 72.64 73.23 73.43 74.11 75.00 74.95 75.75 76.91 76.80 76.25 76.23 74.89 74.11 74.85 75.82 77.41 78.13 78.61 78.82 77.53 78.75 79.60 78.07 77.55 77.60 76.23 76.02 73.43 72.97
52.86 53.28 56.81 57.79 60.46 61.58 61.40 61.12 63.05 67.38 67.79 67.97 68.33 68.67 68.40 68.48 69.49 71.36 72.15 72.54 73.13 73.42 73.98 74.54 74.83 75.53 76.34 76.10 76.57 75.40 74.56 74.16 74.21 75.34 76.25 78.25 78.80 79.28 79.20 78.11 78.47 78.17 76.85 76.98 77.66 75.54 76.39 74.71 73.53
55.71 54.69 54.70 57.96 60.86 59.22 59.42 60.08 61.37 63.82 67.04 67.23 68.23 68.54 68.63 68.44 70.23 71.39 71.97 72.59 72.78 73.62 73.83 74.43 74.73 77.05 76.07 75.06 74.07 73.34 72.57 73.65 74.23 76.02 77.90 78.90 79.27 79.46 79.79 78.10 77.91 77.98 76.67 75.90 76.21 75.87 74.76 74.78 74.60
53.61 52.70 53.87 57.73 58.32 57.12 58.41 58.41 60.55 62.10 65.79 67.19 68.22 68.65 69.13 69.44 69.42 70.32 71.46 72.03 72.49 73.22 74.16 75.14 75.45 76.71 76.81 75.62 75.27 74.36 73.91 73.67 74.88 76.50 77.96 79.09 78.83 79.51 79.27 79.80 77.71 78.49 77.12 76.24 76.10 75.48 75.02 74.48 72.93
52.60 52.43 53.10 54.43 57.01 57.40 56.55 55.81 58.31 61.60 64.73 66.93 68.57 69.64 69.92 69.81 69.24 69.79 70.73 71.65 72.34 72.61 73.79 74.65 76.53 76.99 77.10 77.52 75.65 74.87 74.50 74.75 74.40 75.72 76.57 78.38 78.93 79.15 79.64 79.05 78.61 78.43 77.34 75.85 76.43 76.18 75.38 72.48 73.19
49.90 53.76 53.44 52.90 52.99 51.38 57.44 51.20 57.87 59.85 62.27 64.79 66.98 68.56 69.36 69.96 70.65 70.05 70.46 71.45 71.62 72.49 74.01 75.46 76.83 77.25 77.42 77.32 76.37 76.89 72.32 71.76 73.37 75.80 76.35 76.80 78.55 78.50 78.94 79.01 78.60 79.32 77.38 77.36 76.77 76.59 75.82 74.77 70.81
50.73 54.09 52.67 52.51 51.81 52.18 53.21 51.48 55.22 59.91 59.33 62.94 65.76 67.92 69.16 70.42 70.64 70.31 70.16 71.05 72.35 73.45 74.15 75.08 76.75 77.78 78.08 77.84 77.97 75.77 75.26 72.78 74.52 75.82 78.90 79.92 79.82 78.86 78.26 78.77 78.35 78.56 78.26 78.23 78.07 76.92 76.52 74.36 72.13
53.04 52.08 52.15 52.13 51.17 46.73 51.50 51.93 52.78 56.00 59.60 61.83 65.13 67.43 68.93 69.74 70.58 71.63 71.14 71.67 72.42 73.65 74.46 75.12 76.73 78.81 78.31 77.78 76.99 78.50 77.58 76.18 74.95 76.68 75.84 76.33 76.73 77.15 78.67 78.51 78.86 79.37 78.97 78.41 78.10 77.87 76.91 75.76 74.36
51.88 50.00 45.15 43.85 44.44 44.87 52.93 51.35 53.58 57.53 59.81 62.22 63.21 65.73 68.64 70.25 70.47 70.99 71.68 70.98 71.83 72.68 73.84 74.92 77.36 78.03 78.31 77.58 77.25 77.55 77.83 78.20 78.25 77.67 76.20 77.92 75.40 75.53 77.81 78.64 78.34 78.38 79.32 78.93 78.95 78.20 77.02 76.29 74.70
50.36 50.09 45.57 42.11 43.78 46.25 52.13 48.69 53.01 58.93 60.47 60.76 63.95 65.14 68.75 69.68 70.91 71.13 71.94 72.41 72.37 72.58 75.13 75.79 77.23 77.47 77.24 77.13 78.50 79.14 79.59 76.29 76.15 77.85 76.29 76.05 75.77 75.83 78.03 77.78 78.37 78.92 78.79 79.07 79.03 77.74 76.66 76.46 75.45
50.75 48.57 51.66 48.17 49.15 46.48 49.45 52.33 55.70 57.77 58.66 59.80 61.04 62.87 64.38 67.78 70.30 71.17 72.13 72.69 73.32 73.71 75.19 76.60 77.45 78.12 78.06 77.22 78.95 79.00 78.87 78.70 77.08 79.16 79.74 77.03 79.23 76.71 77.53 77.60 78.08 78.43 78.73 79.07 79.00 77.46 76.92 76.23 75.77
52.82 53.57 46.86 47.87 43.14 42.40 46.36 48.61 50.04 54.85 56.14 58.98 59.66 61.04 63.76 65.66 68.82 70.83 72.05 72.82 73.73 74.18 74.98 76.31 77.65 78.08 78.34 78.12 78.30 77.79 78.53 78.92 79.19 79.49 79.16 79.59 79.80 79.32 78.01 77.63 77.66 78.14 78.56 78.95 79.07 77.98 77.79 76.50 75.07
50.15 49.57 50.36 49.85 48.08 44.87 44.11 47.43 55.17 55.49 57.64 57.92 59.41 61.31 63.26 65.11 67.77 70.58 71.69 72.63 73.80 74.54 74.46 74.89 76.26 77.40 77.11 77.67 78.19 78.54 78.40 78.08 78.54 78.35 79.45 79.86 80.16 80.57 79.06 79.23 77.75 77.42 78.27 78.97 78.68 78.45 77.85 76.49 75.66
52.61 51.00 51.22 46.61 46.61 47.97 47.70 48.48 55.05 55.83 56.98 58.91 59.50 61.37 63.30 65.38 66.80 69.50 70.86 72.20 72.77 73.35 73.95 74.24 74.82 75.23 76.02 77.61 78.46 78.36 78.89 78.88 78.24 78.49 79.28 80.05 79.86 80.68 80.63 79.52 78.94 78.09 77.96 79.16 78.34 77.64 77.06 76.32 75.32

GFSSGP_sfc_wetblb_051.txt.gz
Wetbulb
74.26 75.35 74.25 70.98 63.80 63.48 57.52 60.25 62.13 63.41 63.55 68.09 68.66 66.20 66.00 66.90 63.72 60.08 70.08 71.31 71.35 73.19 74.75 76.11 77.38 77.64 78.11 78.58 78.48 78.20 77.77 77.10 77.33 77.43 77.24 77.01 77.15 77.03 76.90 76.71 77.03 76.52 76.31 76.31 76.09 76.14 75.81 75.76 75.45
73.89 74.09 72.55 68.43 61.75 55.63 59.69 63.14 60.40 64.76 67.85 69.44 68.86 67.66 66.33 63.16 68.57 68.98 69.02 71.79 73.12 73.65 75.37 76.56 77.33 78.05 78.18 78.01 78.10 77.97 77.32 77.20 77.33 77.36 76.98 76.85 76.58 76.34 76.09 75.87 75.84 76.00 76.36 76.42 76.03 75.79 75.57 75.37 75.43
75.67 74.67 67.91 65.12 62.45 56.68 56.82 63.08 64.79 67.03 68.45 67.56 67.07 68.41 67.27 65.31 70.15 70.68 70.69 73.76 73.79 75.21 76.01 77.40 77.39 78.38 77.63 77.37 77.73 77.84 77.83 77.75 77.33 77.15 76.83 76.61 76.36 76.45 76.53 76.36 76.17 75.98 75.73 75.65 75.65 75.82 75.51 75.09 74.98
74.03 71.57 69.66 62.02 57.33 62.66 62.12 64.73 66.36 66.48 67.69 68.58 67.67 65.03 69.55 71.41 71.27 72.69 73.13 74.28 73.51 75.02 76.39 76.89 77.97 77.49 77.60 77.06 77.20 77.18 77.42 77.56 77.13 77.05 76.70 76.61 76.70 76.33 76.20 76.42 76.62 76.31 76.04 76.01 75.70 75.45 74.92 74.75 74.78
73.22 69.97 62.52 59.57 58.76 63.35 65.11 66.46 66.49 65.60 66.40 67.14 67.42 64.87 65.29 70.20 73.22 73.16 73.55 73.48 74.12 74.74 75.74 76.95 78.13 78.13 77.76 77.48 77.78 77.78 77.59 77.15 77.10 76.83 76.73 76.70 76.67 76.45 76.67 76.84 76.79 76.18 76.06 75.87 75.79 75.56 75.53 75.56 75.20
67.19 69.64 61.00 55.25 59.29 63.98 65.88 67.02 66.76 66.25 66.93 67.60 66.83 66.32 66.84 71.48 70.90 72.09 73.16 73.33 74.71 74.30 75.02 76.05 78.06 78.18 78.35 77.35 77.23 77.20 77.32 77.18 76.80 76.64 76.50 76.39 76.31 76.15 76.37 76.57 76.62 76.31 75.91 75.66 75.44 75.30 75.36 75.16 75.42
67.11 65.68 60.82 61.37 60.01 62.64 64.18 67.67 66.10 65.91 66.28 67.03 68.76 64.51 68.07 70.25 71.91 72.90 73.18 73.90 73.77 73.56 74.27 75.69 76.52 77.45 77.97 77.32 77.11 76.89 76.77 76.85 76.81 76.53 76.37 76.09 76.07 76.04 75.90 76.06 76.08 75.96 75.87 75.75 75.37 75.04 75.02 75.25 75.70
69.03 66.78 61.07 60.79 59.41 59.53 65.68 66.87 66.72 66.41 66.73 70.71 71.30 65.82 65.59 70.22 72.48 72.94 73.27 72.50 72.70 73.16 74.21 75.01 75.70 76.35 77.05 76.93 77.19 76.94 76.94 76.69 76.50 76.54 76.29 76.12 76.15 76.37 76.39 76.51 76.31 75.67 75.41 75.47 75.23 74.74 74.93 75.47 75.98
71.20 63.79 60.69 58.63 60.59 60.99 66.43 64.80 67.97 69.32 67.92 68.77 69.58 70.35 71.53 72.10 72.17 71.43 71.16 71.31 72.27 72.55 73.52 74.30 74.83 75.75 75.99 75.86 76.75 76.81 76.82 76.89 76.73 76.62 76.51 76.86 77.04 76.93 77.39 77.40 76.38 76.13 76.22 76.05 76.00 76.08 76.11 75.72 76.31
67.16 63.55 59.77 63.41 62.96 63.25 65.70 64.22 65.20 66.00 66.18 66.74 68.79 71.74 72.24 72.16 70.42 69.56 69.62 69.50 70.84 71.53 72.62 73.46 74.08 74.81 75.47 74.63 76.12 75.83 75.80 76.09 77.29 76.75 77.81 76.10 78.12 77.71 76.22 77.75 76.92 76.49 76.51 76.17 76.85 77.23 77.04 76.43 76.25
66.34 60.93 63.89 63.95 65.33 66.56 64.85 64.54 66.00 64.95 64.15 66.80 67.46 69.82 70.80 71.23 69.99 70.31 70.13 70.85 72.39 72.89 72.58 72.96 74.22 75.30 75.08 76.04 75.02 75.02 75.20 75.64 77.06 78.09 78.13 78.20 78.13 77.33 76.01 76.20 76.15 76.70 76.87 76.04 76.81 75.48 74.80 75.68 73.77
62.80 66.16 65.71 65.20 66.67 66.18 64.71 65.71 64.87 65.08 65.05 68.69 70.37 71.23 71.21 70.76 70.77 71.35 71.10 71.73 72.57 72.73 72.98 73.38 74.64 75.78 75.87 75.29 74.86 74.72 74.31 75.29 75.63 77.28 78.34 78.08 76.70 76.78 77.66 75.42 76.89 78.15 77.04 77.72 77.19 73.64 76.98 75.33 75.54
63.34 64.56 66.25 66.61 66.85 66.40 66.47 65.17 65.29 65.56 66.98 69.15 70.67 71.04 70.78 70.94 71.42 72.57 72.71 73.28 73.50 72.85 73.01 73.65 74.84 76.16 75.91 76.39 75.08 74.77 74.40 74.22 74.76 76.48 77.37 77.04 76.52 77.27 74.92 77.49 75.30 76.02 77.84 76.79 76.80 77.14 76.30 75.82 74.98
64.46 64.86 65.85 66.43 65.77 66.25 64.70 65.43 67.36 67.72 69.28 68.83 69.39 70.01 70.77 71.21 71.80 72.10 72.20 72.40 73.02 73.17 73.10 74.07 74.64 76.10 76.47 76.61 77.65 75.76 75.37 74.86 74.77 74.95 76.52 77.37 76.95 77.94 76.71 77.08 76.51 76.48 75.76 75.67 76.84 76.64 74.65 76.21 75.56
65.15 62.57 64.88 65.67 65.80 64.68 66.35 63.38 64.29 68.62 69.37 68.70 68.31 69.68 70.18 71.08 71.88 71.76 72.48 72.35 73.08 73.44 73.91 74.12 74.92 75.83 76.28 76.54 76.81 76.55 75.57 74.91 74.12 74.26 76.65 76.87 77.41 77.80 78.42 75.71 76.64 77.26 77.82 77.63 77.93 76.82 77.60 72.15 73.93
62.02 62.88 59.24 64.20 64.61 64.80 64.74 59.53 65.25 70.10 69.00 68.27 68.36 68.41 69.46 70.59 71.43 72.39 72.66 72.79 73.37 73.67 73.98 74.71 74.65 75.23 76.25 76.89 76.99 76.16 75.03 74.54 74.17 73.98 75.44 77.09 77.76 78.70 79.21 77.99 76.34 79.22 77.64 76.87 76.05 75.61 71.58 73.41 71.83
57.72 55.73 56.96 59.76 64.09 63.64 63.63 58.06 61.83 69.72 69.02 68.49 68.81 68.08 68.59 69.66 70.89 72.20 72.54 72.79 73.25 73.72 73.91 74.12 75.00 74.56 75.96 77.62 77.24 76.80 78.32 75.02 74.26 74.21 75.18 77.95 78.00 78.34 78.64 76.76 75.50 79.59 74.96 76.55 75.22 74.88 75.45 73.29 71.67
53.57 53.99 56.86 57.23 61.84 62.60 61.57 60.71 62.30 68.00 68.16 68.38 68.86 68.99 68.41 68.86 69.89 71.79 72.54 72.95 73.28 73.68 74.22 75.28 74.93 77.58 78.99 77.28 77.90 75.83 74.64 74.79 74.50 74.12 75.39 78.55 78.30 78.90 79.24 77.88 78.37 78.69 76.45 76.43 76.72 76.22 74.65 73.60 71.61
57.42 55.74 55.79 59.42 61.87 61.56 60.59 61.03 63.27 66.22 66.83 67.40 68.74 69.22 68.93 68.79 70.52 71.61 72.14 72.51 72.78 73.28 73.89 75.30 76.25 78.64 77.15 75.10 74.32 74.12 72.75 74.08 73.56 74.22 77.70 78.03 78.69 79.39 78.57 77.66 77.59 77.37 77.23 76.41 76.28 75.23 75.09 72.60 73.01
57.60 55.94 55.95 59.13 61.28 61.60 60.13 60.27 62.80 64.05 65.46 66.61 68.04 69.14 69.56 69.59 69.96 70.48 71.52 71.94 72.16 72.85 74.93 76.52 77.31 79.08 78.04 76.02 76.66 75.08 75.33 73.53 73.87 74.54 78.50 78.58 78.89 79.47 79.63 79.74 77.52 74.16 74.36 77.30 76.16 75.76 72.91 72.09 71.67
57.20 54.96 55.61 56.18 59.33 61.27 59.07 57.89 60.07 62.76 63.69 66.78 67.95 69.92 70.39 70.21 69.60 69.60 70.65 71.25 71.87 72.89 74.75 76.01 77.74 78.59 78.58 78.41 77.42 76.93 76.37 75.82 73.50 74.27 75.58 77.58 78.70 79.08 79.76 79.39 77.86 78.54 77.87 76.05 76.87 76.27 75.87 71.00 71.39
51.41 55.98 55.84 55.34 56.08 53.80 58.96 51.72 58.09 60.82 61.31 64.31 66.67 68.49 69.53 70.49 70.96 70.38 70.01 70.78 71.46 72.60 74.20 76.86 78.55 79.14 79.02 79.77 76.95 76.77 73.16 71.79 72.61 74.11 75.31 77.11 79.21 78.76 78.78 79.34 78.51 78.34 77.58 78.79 77.52 76.29 76.28 75.36 71.12
52.41 55.73 55.53 55.62 54.26 54.91 55.73 53.78 56.56 60.52 59.78 61.93 65.05 66.95 68.84 70.68 71.05 70.63 70.07 70.97 71.75 72.52 73.12 75.67 78.70 79.21 79.69 79.56 78.46 76.08 75.45 72.80 73.60 73.93 78.33 78.88 80.81 80.17 78.14 79.64 79.37 78.73 76.91 79.59 77.90 77.81 77.07 75.47 73.03
55.65 53.89 54.41 55.06 53.61 48.71 53.63 54.38 54.68 57.47 60.58 62.21 64.68 66.06 68.12 69.88 70.93 71.70 71.59 71.12 71.54 72.37 72.86 74.28 77.70 79.22 80.30 80.40 79.25 79.17 77.07 75.80 72.65 74.90 74.70 75.80 76.38 77.32 80.01 78.83 80.36 80.72 79.39 79.33 78.63 78.88 77.85 77.21 75.43
53.38 51.02 46.48 46.03 46.75 46.70 53.84 52.79 55.20 59.04 60.73 62.31 63.89 65.72 67.77 69.71 70.55 71.28 71.31 70.51 71.07 72.09 72.88 74.20 77.39 78.63 80.13 80.09 79.50 78.49 79.22 78.69 77.68 78.38 75.49 77.57 75.04 75.32 78.58 80.44 80.94 78.70 81.09 79.89 80.69 80.15 78.91 77.30 75.95
51.65 50.87 46.67 43.00 44.49 47.34 53.25 50.18 53.72 59.33 61.32 62.50 64.43 65.71 67.20 69.10 70.33 71.05 72.08 71.38 71.72 73.02 74.36 75.50 77.10 78.46 79.81 79.67 79.93 80.23 79.87 76.90 76.35 77.32 76.57 75.94 75.51 76.09 81.03 80.95 79.81 79.90 80.37 79.73 81.07 78.35 77.54 78.75 76.37
52.02 49.55 52.62 49.28 50.80 48.33 50.54 53.84 57.06 59.26 59.74 61.21 61.84 64.41 65.56 67.90 69.57 70.76 71.98 72.58 71.97 73.56 75.34 76.31 77.50 78.65 79.81 79.27 79.90 80.32 79.92 79.31 77.52 77.84 79.30 76.72 79.76 76.67 78.62 79.20 79.51 79.87 80.03 80.77 81.06 77.49 78.93 78.52 77.50
54.10 55.04 47.91 49.47 46.00 45.33 48.90 51.18 52.05 56.34 57.97 60.06 60.86 62.01 64.78 67.91 69.50 70.50 71.43 72.77 73.99 73.57 75.53 76.85 77.82 78.92 79.41 79.65 79.79 79.93 80.34 80.10 79.67 79.49 79.48 79.13 79.12 80.65 80.23 79.59 79.11 79.41 80.38 80.59 81.20 78.98 79.59 79.30 77.01
51.56 51.60 51.70 51.14 49.78 46.48 46.39 49.48 56.60 57.55 59.05 59.00 60.50 62.12 63.86 65.96 68.91 70.12 70.79 72.65 74.54 74.53 74.28 76.02 77.43 78.35 79.20 79.78 79.90 80.01 79.96 80.24 80.49 79.51 80.04 80.12 81.53 81.61 80.44 81.17 79.87 79.59 79.66 80.45 80.80 80.26 79.83 79.17 78.58
54.56 52.60 53.22 49.28 48.89 49.55 49.66 50.15 57.07 57.70 58.25 59.72 60.54 62.24 63.49 65.59 66.88 68.67 70.45 72.20 73.10 74.32 74.19 74.95 75.92 76.71 79.06 79.36 79.68 79.82 80.35 80.41 79.97 80.01 79.95 81.14 80.45 81.67 81.84 80.68 80.96 79.64 79.55 80.21 80.37 79.13 77.80 78.78 78.05

GFSSGP_sfc_wetblb_054.txt.gz
Wetbulb
73.96 74.12 73.99 70.98 62.13 61.82 57.45 58.77 63.68 62.08 63.72 67.64 68.01 66.75 64.45 66.47 63.43 58.39 69.81 71.20 70.67 72.19 74.31 75.89 78.07 78.59 78.65 78.29 78.06 78.07 78.06 77.78 77.29 77.55 77.29 76.96 77.10 77.66 77.42 77.21 76.67 76.70 76.68 76.69 76.63 76.11 75.91 75.66 75.49
73.69 73.62 72.26 68.18 59.65 53.54 56.26 62.42 60.99 63.07 66.35 68.29 68.04 66.78 65.79 63.56 67.10 66.71 67.92 70.52 71.79 72.67 73.75 75.57 77.39 77.97 77.90 78.50 78.47 78.25 77.51 77.45 77.64 78.00 77.80 77.18 77.13 77.03 76.16 76.13 76.40 76.67 76.40 76.47 76.08 75.83 75.72 75.52 75.41
74.51 74.30 67.36 64.15 61.02 55.37 55.56 63.26 63.80 66.15 68.10 67.32 66.28 68.80 67.24 65.18 67.66 68.17 69.81 70.15 73.05 73.30 75.63 76.84 77.47 77.77 78.51 78.48 78.30 78.27 77.81 77.55 77.93 77.61 77.08 76.92 77.01 76.93 76.65 76.38 76.13 76.00 75.91 76.08 76.05 75.83 75.55 75.36 75.22
72.38 71.43 69.21 60.68 56.90 60.22 59.99 63.86 65.99 65.82 67.47 68.37 67.49 64.73 68.80 70.58 69.57 69.77 72.00 73.62 72.66 74.29 75.21 76.63 77.58 77.84 78.02 78.23 78.25 78.11 77.33 78.07 77.97 77.30 76.63 76.68 76.78 76.69 76.60 76.77 76.49 76.27 76.02 75.86 75.55 75.50 75.33 75.11 75.19
72.82 70.07 62.68 59.51 57.90 60.38 64.37 66.41 66.87 65.40 65.88 67.08 67.63 63.97 65.20 70.00 71.57 72.06 72.40 72.70 72.59 73.83 75.27 76.50 77.96 78.26 78.13 78.14 78.18 77.73 77.97 77.79 77.62 77.20 76.94 76.79 76.82 76.69 77.02 76.92 76.56 76.36 76.25 76.05 75.89 75.91 75.69 75.61 75.49
67.58 68.90 56.48 54.40 57.70 62.16 64.53 66.90 65.97 66.13 66.70 67.63 66.13 65.32 66.11 71.45 70.45 72.15 72.88 73.18 73.98 73.98 75.02 75.92 77.61 78.47 78.33 78.17 77.84 78.18 77.68 77.14 77.22 76.93 76.77 76.49 76.55 76.72 76.97 77.03 76.67 76.19 75.93 75.88 75.66 75.83 75.78 75.72 75.78
66.06 64.49 60.08 56.22 57.64 61.23 63.43 67.17 64.21 65.36 66.03 66.49 68.73 63.95 66.96 69.10 71.38 72.65 73.03 73.83 73.78 73.30 74.76 75.53 75.22 77.11 78.09 78.04 77.35 77.46 77.20 77.04 76.90 76.63 76.52 76.41 76.36 76.44 76.61 76.67 76.47 76.29 76.03 75.84 75.64 75.40 75.52 75.69 75.89
67.21 64.50 61.14 59.23 57.59 59.05 64.62 65.47 66.06 66.92 65.80 70.65 70.17 63.89 63.24 68.54 71.50 73.17 73.31 72.86 73.13 72.84 73.68 75.17 75.54 77.03 76.19 75.94 77.22 76.82 76.90 76.82 76.71 76.66 76.49 76.30 76.33 76.50 76.36 77.51 77.34 76.05 75.87 75.72 75.60 75.53 75.69 75.18 76.25
69.36 61.87 59.16 60.27 60.87 61.86 64.87 64.17 67.35 68.81 68.47 69.49 70.21 68.66 68.99 70.48 72.05 71.68 71.78 70.16 70.87 72.45 73.09 73.83 74.12 76.27 75.79 76.16 76.29 77.04 76.93 76.85 76.66 76.72 76.83 76.88 76.78 76.53 76.44 77.90 77.84 76.65 76.18 75.77 75.79 75.99 75.19 75.44 76.02
64.93 60.42 59.64 64.26 62.92 62.49 63.06 64.84 65.37 65.10 65.78 67.39 68.51 70.18 70.46 70.77 71.01 68.91 69.86 68.75 69.33 70.91 72.34 73.29 73.40 74.27 75.04 73.55 75.86 76.47 75.91 75.83 76.50 76.69 75.39 76.15 77.24 77.30 76.51 76.88 78.42 77.84 77.50 76.70 76.02 76.04 75.55 75.82 74.92
65.46 59.46 62.20 64.21 64.20 65.44 63.12 63.29 65.69 64.38 63.24 67.90 66.75 68.12 69.45 69.60 69.58 69.49 69.37 70.72 70.86 70.58 71.64 72.62 73.93 74.90 74.12 74.24 75.13 75.19 75.20 76.11 76.44 77.54 74.31 76.53 75.78 76.50 76.88 76.12 76.00 76.75 77.31 76.02 74.52 73.90 73.90 75.55 75.47
62.50 62.24 61.97 64.07 65.21 64.57 62.00 63.04 63.44 64.65 65.49 69.73 69.96 70.01 69.65 68.85 68.85 69.24 69.21 70.19 71.48 70.87 71.70 72.72 75.12 75.96 76.03 75.80 74.40 74.92 74.60 75.26 76.40 77.96 80.12 79.63 77.68 75.90 73.07 74.41 75.87 74.46 75.89 74.15 73.70 73.31 74.41 74.32 73.75
62.86 62.79 65.50 65.63 66.92 63.52 63.89 63.56 63.24 64.14 67.14 69.94 70.79 70.14 69.45 69.33 69.55 70.21 70.88 71.22 72.64 71.34 71.72 73.11 75.51 76.71 79.29 77.70 75.48 74.54 76.30 75.72 74.86 77.60 78.98 77.96 74.26 74.89 76.28 75.17 73.91 76.08 73.94 73.69 73.07 76.08 74.62 72.58 73.27
64.38 64.21 65.23 65.58 65.24 66.60 63.72 64.18 63.99 63.80 67.08 68.50 69.47 69.09 69.65 69.62 70.44 70.96 70.98 71.60 72.21 72.89 72.62 73.88 75.15 76.57 78.08 78.98 80.40 77.54 79.00 76.13 77.85 77.19 77.52 79.61 77.61 76.40 73.28 77.08 74.85 75.51 75.44 74.70 75.54 77.49 76.26 76.79 75.55
63.48 61.36 63.09 64.46 64.91 64.44 65.24 61.59 62.96 64.38 66.51 66.56 68.09 69.00 69.62 70.44 70.79 71.15 72.23 72.06 72.67 73.36 73.22 73.63 74.52 75.73 77.09 78.13 78.48 79.02 78.53 75.52 76.21 77.57 78.52 78.94 79.17 79.75 78.64 76.20 75.36 76.86 77.34 77.86 77.25 77.36 74.52 71.67 74.46
60.05 60.73 57.06 62.38 64.95 65.64 64.32 57.63 60.94 66.92 66.73 65.95 67.08 68.33 69.11 70.11 70.58 72.68 72.95 72.98 73.76 72.53 73.00 74.58 73.26 74.84 76.12 76.95 78.05 77.41 76.71 76.34 76.84 76.29 76.52 78.32 79.22 80.93 80.01 75.62 75.75 76.62 76.73 74.05 76.62 73.62 74.84 74.07 72.15
59.31 55.72 57.78 60.04 63.80 63.86 62.21 58.90 61.88 64.59 64.19 66.32 66.55 67.25 68.15 69.46 70.76 71.92 72.04 72.88 73.14 73.38 73.90 74.17 74.66 74.68 75.48 77.45 77.34 77.06 77.90 78.36 77.48 76.90 77.26 78.17 78.76 79.76 78.80 74.64 73.26 73.50 75.12 76.01 76.38 72.74 76.42 72.77 72.69
55.15 54.68 57.98 58.16 62.08 63.21 60.65 61.22 61.77 63.21 63.05 63.23 66.75 67.05 67.86 68.17 69.42 71.74 71.90 72.41 72.78 73.99 74.95 74.53 75.03 76.73 76.19 76.65 77.44 76.57 76.45 76.83 76.74 77.44 77.41 78.57 79.12 79.27 78.55 76.50 74.40 76.69 76.62 74.41 75.51 75.27 75.47 74.27 72.47
57.75 55.39 55.35 58.39 60.55 61.29 59.82 60.51 60.92 61.53 61.53 62.08 66.83 67.06 66.75 67.59 70.28 71.64 71.96 72.60 73.08 73.77 74.36 74.38 75.68 77.08 76.04 75.54 74.64 74.86 73.51 75.37 76.48 76.91 78.20 79.07 80.07 80.16 79.99 78.77 77.08 77.51 77.06 77.31 77.64 76.39 75.97 70.27 72.63
57.06 55.61 54.51 57.10 61.17 59.89 59.49 60.87 60.51 60.43 62.14 64.06 66.15 67.25 67.64 67.90 68.97 70.76 71.60 72.04 72.27 72.84 73.72 74.68 75.23 76.52 76.81 75.85 75.78 75.19 75.68 74.98 74.87 76.06 77.90 79.41 79.00 80.31 79.97 78.96 77.18 78.93 74.67 76.33 77.85 76.76 72.16 73.97 72.69
56.08 55.69 55.36 54.73 60.08 61.04 59.74 57.47 60.54 62.64 65.40 67.53 67.47 68.59 69.01 68.80 68.48 69.70 70.67 71.35 71.95 72.46 73.59 74.46 75.19 77.24 76.92 76.69 76.80 77.42 77.13 77.25 74.66 74.60 75.32 77.60 79.07 79.94 79.80 79.18 78.09 78.21 78.55 76.21 77.13 76.65 75.42 69.37 71.75
51.53 57.82 57.54 56.25 56.54 53.26 59.73 50.94 59.51 61.16 61.98 64.62 66.37 67.21 68.30 69.32 69.99 69.43 70.24 70.84 71.49 72.48 73.93 74.87 75.58 76.49 76.83 77.52 75.55 75.67 72.60 71.71 72.70 74.43 75.13 76.73 78.35 78.76 79.93 79.23 78.98 79.14 78.46 76.35 76.28 77.32 77.20 75.69 71.42
53.57 56.84 57.31 56.46 54.18 54.66 55.87 53.98 55.60 60.41 59.35 60.94 64.37 66.99 67.68 69.93 69.99 69.63 69.68 70.77 71.83 72.83 73.70 74.69 75.69 76.04 77.07 75.94 76.82 74.86 74.19 73.17 74.85 74.81 75.64 77.55 78.55 78.85 78.96 79.47 79.25 79.28 78.14 77.58 75.95 77.10 77.33 77.56 73.85
56.10 54.13 54.59 55.02 53.18 49.21 52.99 53.77 54.76 56.85 60.05 61.56 63.36 65.92 68.35 68.53 70.46 70.95 70.91 71.24 71.33 72.70 73.52 74.52 75.61 75.65 76.82 77.14 76.10 77.15 74.41 74.49 72.30 74.36 74.37 76.17 76.82 77.85 78.88 79.38 79.01 78.96 78.19 78.37 78.08 77.95 77.87 77.17 76.44
53.78 50.71 46.23 45.28 46.80 46.66 53.19 51.81 55.36 59.56 61.68 62.01 63.14 65.35 67.47 69.75 70.47 70.98 70.64 70.22 70.95 71.61 72.54 73.68 75.66 75.91 76.70 77.10 76.71 75.78 77.64 74.87 74.96 76.06 74.40 75.16 75.41 75.81 76.83 78.09 79.31 78.43 79.01 79.47 78.80 78.51 78.54 77.68 76.76
51.68 50.52 46.71 42.03 44.02 46.89 52.53 49.73 53.57 60.33 61.98 63.69 65.09 65.61 66.76 68.12 70.60 71.16 71.48 70.72 70.79 71.39 72.34 73.35 74.79 75.47 76.87 76.60 77.62 77.05 77.00 77.22 74.40 75.03 75.25 74.43 76.02 75.79 78.65 77.63 77.87 78.77 78.98 78.33 79.59 78.98 77.78 77.82 77.01
51.13 48.69 52.37 48.12 49.77 47.24 49.64 52.97 56.42 59.30 60.05 61.28 61.17 64.80 66.06 67.29 69.68 70.96 72.23 71.42 71.05 71.47 72.34 72.59 74.25 75.32 76.48 77.11 77.68 78.10 76.84 76.20 76.83 75.24 76.38 77.34 76.95 76.42 81.67 78.37 78.05 78.67 79.19 78.95 78.34 77.84 77.76 78.07 77.01
53.32 54.32 47.55 48.84 43.56 43.77 47.51 50.92 51.76 56.19 58.67 60.27 60.16 61.21 64.82 67.40 69.09 70.73 71.76 72.13 71.81 71.82 72.82 73.19 74.47 75.05 76.52 77.45 77.73 77.86 78.27 76.70 76.24 77.71 75.39 75.53 77.56 80.76 81.46 78.63 78.48 78.26 78.21 78.84 78.35 77.96 78.31 77.26 76.89
51.11 50.81 50.84 50.01 48.80 45.00 44.89 48.86 57.56 58.79 59.28 59.80 60.48 62.48 63.56 66.52 68.30 69.96 71.42 72.90 72.53 72.27 72.61 73.19 73.51 75.74 76.50 77.56 77.94 77.71 77.90 78.28 77.32 76.11 77.11 76.58 77.58 77.80 78.70 80.34 78.33 77.89 77.88 78.03 78.36 77.94 77.53 77.23 76.86
53.64 51.67 52.29 48.89 47.72 49.32 49.16 49.35 57.69 59.11 60.69 60.83 61.41 63.22 63.82 65.68 68.37 70.10 71.66 72.43 73.14 72.78 72.76 73.26 73.90 74.59 76.77 77.74 78.03 77.88 78.24 78.55 78.12 77.05 77.19 77.73 77.83 79.65 78.42 79.12 79.15 77.75 77.39 77.75 77.93 77.17 76.50 77.48 76.70

GFSSGP_sfc_wetblb_057.txt.gz
Wetbulb
73.47 73.13 72.52 70.58 60.87 60.48 56.44 58.11 62.95 61.47 62.24 67.06 67.66 65.74 63.73 65.42 61.97 57.00 68.55 68.76 69.90 71.20 74.12 75.97 77.67 77.80 77.18 77.77 78.02 77.53 77.20 77.34 77.61 77.06 77.28 77.16 77.15 77.16 76.84 76.99 76.99 76.91 76.87 76.65 75.94 75.82 75.68 75.63 75.63
72.20 71.94 71.96 67.31 59.61 51.74 54.04 61.46 60.73 62.79 65.85 67.15 67.17 66.55 64.68 61.33 65.77 65.84 66.09 69.08 70.63 72.69 73.94 76.02 77.88 78.00 77.56 77.76 77.97 77.92 77.28 77.08 77.65 77.79 77.31 76.74 76.26 76.37 76.59 76.97 76.89 76.70 76.52 76.33 76.08 75.88 75.77 75.54 75.08
72.35 73.20 66.50 62.43 59.07 53.90 55.36 61.13 62.33 65.18 67.49 66.85 65.44 67.40 65.86 62.85 66.52 66.36 68.63 69.59 71.41 71.97 74.64 75.85 78.13 78.50 78.08 78.05 78.08 78.25 77.56 77.15 77.25 77.06 76.74 76.86 76.89 76.73 76.29 76.05 76.13 76.48 76.59 76.27 75.99 75.83 75.69 75.58 75.24
71.02 70.09 67.28 59.53 56.44 59.62 59.82 61.69 65.14 65.49 67.07 67.68 66.59 63.24 66.77 68.00 67.15 68.49 69.40 70.15 71.70 73.76 75.12 76.85 77.71 78.35 78.21 78.04 78.16 77.51 77.36 77.33 77.36 77.09 76.91 76.77 76.82 76.65 76.87 77.01 76.24 76.19 76.13 75.97 75.86 75.66 75.47 75.55 75.08
71.82 67.51 59.95 57.43 57.62 60.15 63.18 65.42 65.43 64.35 65.53 65.37 66.32 62.50 63.30 67.05 68.55 68.85 68.76 71.32 72.32 73.37 74.97 75.78 78.33 78.65 78.25 78.24 77.47 77.60 77.43 77.18 77.20 77.32 76.89 76.86 76.76 76.98 76.71 76.69 76.47 76.49 76.33 76.05 75.80 75.72 75.69 75.53 76.22
65.52 65.30 56.39 53.45 56.57 60.50 63.49 65.58 66.47 65.89 66.15 65.47 64.18 63.68 64.73 67.33 67.69 69.60 71.04 71.75 73.25 73.55 74.76 75.09 77.55 78.19 78.49 77.81 77.26 77.93 77.40 76.86 77.37 77.65 76.87 76.92 76.89 77.45 78.08 76.64 76.50 76.33 76.25 76.11 76.11 75.91 76.30 76.43 76.02
64.48 61.96 56.57 56.24 57.03 59.55 62.85 65.21 65.55 65.73 65.21 64.48 67.18 62.91 64.48 65.92 69.69 70.61 71.22 71.92 73.20 74.09 74.01 74.39 74.91 75.65 77.73 78.02 77.58 77.67 77.05 76.86 76.91 76.89 76.58 76.39 76.40 76.63 76.91 77.05 76.86 76.33 76.30 75.93 75.74 75.97 76.92 76.66 76.09
66.80 63.49 57.17 59.60 57.46 58.27 64.25 64.81 67.72 66.34 64.99 69.05 68.52 62.68 61.78 67.40 69.92 70.81 71.75 71.71 72.02 73.16 73.36 72.85 73.80 74.24 74.50 75.38 77.54 77.35 77.05 76.86 76.72 76.51 76.26 76.15 76.19 76.22 76.50 77.64 77.89 76.09 76.06 75.84 75.65 75.86 76.81 76.91 76.50
69.80 60.34 55.87 58.39 58.59 60.43 64.10 63.61 67.16 69.18 66.79 67.65 68.41 67.30 67.58 69.24 70.52 70.08 69.98 70.20 70.52 71.89 71.82 72.65 74.13 73.53 72.70 73.70 75.35 77.03 76.94 77.10 76.95 76.49 76.71 76.69 73.95 74.03 74.93 76.21 77.79 76.69 76.63 76.17 75.88 77.03 76.63 76.65 75.99
64.83 55.67 59.19 63.51 63.62 61.89 64.03 63.81 65.45 66.06 65.64 64.70 65.83 68.50 69.32 69.69 69.49 68.59 68.46 68.29 67.89 69.38 71.21 71.72 73.46 72.94 72.73 74.52 73.70 73.76 74.76 74.45 74.30 74.35 73.50 73.87 74.03 73.76 75.61 76.72 78.09 77.31 76.41 76.66 76.49 76.35 75.91 74.86 72.98
63.29 58.77 62.74 62.37 64.31 65.10 62.21 62.55 65.66 65.17 62.89 64.25 63.78 65.80 68.21 69.01 68.41 68.53 68.60 68.37 67.81 69.58 70.92 70.84 72.46 72.65 72.36 72.65 73.05 73.22 73.30 73.33 74.34 70.12 70.95 73.73 75.00 74.44 73.87 74.27 74.52 73.74 74.87 69.10 73.46 72.68 71.93 73.96 73.20
60.45 63.56 63.56 63.19 64.42 63.16 61.39 63.22 63.66 65.49 65.96 67.47 67.14 67.77 68.30 67.76 67.37 68.23 68.07 68.12 68.30 69.12 69.85 70.37 71.00 72.13 71.15 71.77 72.37 72.98 72.59 72.75 73.80 73.08 71.98 72.60 73.37 73.87 72.51 73.35 74.48 72.33 73.28 72.26 73.38 71.56 72.87 72.68 73.48
60.58 62.51 63.77 64.27 64.18 63.88 65.06 62.66 62.66 66.34 68.35 68.87 68.32 68.29 67.75 67.80 68.19 68.88 69.09 69.64 68.73 68.29 69.25 70.07 71.27 72.04 71.83 71.56 71.54 71.48 71.84 72.49 73.74 74.93 74.21 74.06 73.03 71.66 73.14 72.67 71.99 71.18 71.95 72.43 72.19 72.43 72.85 72.03 70.92
60.64 63.02 63.47 64.40 63.49 64.74 63.71 63.54 63.39 67.12 68.72 67.74 67.55 67.12 67.85 67.82 68.57 68.28 68.64 68.46 68.38 68.51 69.29 71.29 71.14 73.03 73.17 72.71 73.03 73.36 71.81 72.13 75.10 74.19 73.74 72.93 73.26 73.32 73.14 73.60 73.16 73.41 72.81 71.21 71.13 72.83 72.11 71.99 71.28
59.68 58.53 62.73 62.87 63.44 62.23 65.30 60.91 61.22 64.78 68.13 66.70 66.72 66.98 67.54 68.08 68.58 68.34 68.96 68.61 69.73 69.17 71.29 70.85 71.67 72.68 71.76 71.77 72.47 73.14 72.37 71.43 70.46 73.97 73.69 73.18 73.63 73.54 73.99 71.48 73.75 74.11 73.86 72.42 72.96 74.35 72.71 70.82 70.51
56.39 57.11 54.31 59.84 62.54 63.80 63.40 55.53 61.62 64.07 64.02 65.51 66.66 67.05 67.55 67.62 68.50 68.99 69.54 69.82 70.34 70.04 71.10 71.72 72.64 72.35 72.24 72.05 72.32 73.58 72.60 72.05 69.75 73.44 73.38 72.85 73.43 74.86 73.21 72.07 72.13 72.68 74.63 73.14 73.26 70.89 69.85 69.02 69.89
53.90 50.95 52.87 55.97 61.93 62.64 61.51 55.24 60.36 63.85 64.24 64.66 65.97 66.81 67.06 67.48 68.51 69.52 70.00 70.60 70.07 70.32 70.47 71.27 71.83 71.83 72.37 72.34 73.41 72.55 72.79 72.94 71.77 71.29 72.44 72.88 73.89 75.73 73.60 71.77 71.74 72.27 72.84 71.17 71.57 71.11 71.06 70.38 71.14
49.03 50.24 52.43 54.82 59.34 61.28 58.54 57.37 58.73 61.45 64.00 64.22 63.49 63.81 66.70 67.08 67.65 69.54 70.71 71.61 70.72 70.68 70.66 70.19 71.42 71.81 72.38 72.83 73.37 72.09 72.07 72.83 70.87 71.44 72.77 74.17 74.38 75.22 74.41 72.91 71.90 71.93 74.11 72.21 72.37 71.04 71.23 70.10 66.56
54.77 54.29 52.98 56.67 60.58 59.67 58.68 57.36 59.81 62.54 63.33 63.52 63.43 62.98 64.25 66.77 69.13 70.17 71.26 71.74 71.28 70.97 70.56 70.51 70.64 72.12 71.99 72.73 71.67 71.69 70.26 71.01 69.70 70.69 73.83 74.95 75.08 74.97 74.63 73.36 72.35 73.15 72.52 72.36 71.94 70.54 69.78 68.35 65.06
53.56 52.16 52.33 55.35 57.93 58.91 58.57 57.19 60.13 60.52 60.83 61.52 62.43 63.90 64.35 66.34 67.03 68.65 68.78 69.72 70.01 70.59 70.13 70.58 70.75 72.52 72.16 73.29 72.12 71.41 71.22 70.86 70.55 70.95 71.24 75.07 75.33 75.93 75.15 73.97 73.07 73.49 72.23 72.89 71.85 71.03 69.24 69.02 66.24
52.08 51.03 52.19 52.53 55.43 58.11 58.64 55.67 57.87 60.37 61.67 62.94 64.12 65.10 66.19 66.09 66.09 67.48 67.85 68.56 69.44 70.20 70.35 70.09 71.67 73.34 72.73 72.94 72.86 71.60 71.88 70.64 69.76 69.85 69.42 74.19 74.48 75.79 75.29 74.70 74.05 73.18 72.70 71.63 71.46 71.24 69.35 67.19 65.50
48.42 54.57 55.22 54.74 53.40 48.18 55.88 48.45 54.42 58.66 59.74 60.62 63.03 64.42 64.15 65.85 66.82 67.60 67.81 68.20 69.15 70.01 71.60 70.65 72.27 73.17 73.32 72.93 72.43 71.42 70.06 68.45 69.34 69.11 70.41 73.04 74.61 75.59 75.76 74.97 74.28 73.38 73.50 72.49 72.13 72.93 70.95 68.75 66.80
50.02 54.30 53.24 53.75 52.43 51.97 52.09 49.92 53.54 58.21 56.81 59.10 62.23 64.54 63.71 66.24 66.61 67.21 67.88 68.64 69.37 70.47 71.11 71.44 71.61 73.71 73.44 73.34 71.96 71.42 69.66 69.20 68.61 69.71 69.43 71.13 73.78 74.63 76.78 75.40 74.47 74.15 73.22 72.69 72.46 72.64 72.15 71.54 68.05
55.25 52.61 51.58 51.53 50.69 45.44 47.91 50.53 49.10 54.93 56.93 59.51 63.23 64.89 65.49 66.70 67.06 67.43 68.77 69.21 69.07 70.79 71.43 71.96 71.50 72.28 73.27 72.68 72.50 70.98 70.03 68.66 68.40 68.27 69.06 71.21 74.40 74.92 74.99 76.20 75.34 74.90 74.30 73.14 73.15 72.85 72.05 70.52 71.77
52.82 47.93 40.84 40.09 41.90 42.74 47.11 47.84 49.47 56.06 58.36 62.00 63.93 64.81 65.88 67.29 67.19 66.97 67.61 67.87 68.54 69.35 70.63 71.83 71.61 71.31 73.41 72.64 71.84 72.23 71.48 70.52 68.73 67.90 68.88 71.00 72.53 73.91 74.28 75.05 75.03 74.88 74.27 74.53 73.81 73.43 73.00 72.06 70.86
50.06 48.50 40.60 34.11 36.19 41.50 45.89 42.79 48.28 55.69 58.96 61.17 64.98 66.45 67.13 67.25 67.61 67.31 67.37 68.13 68.29 68.89 70.29 71.20 71.64 71.22 72.49 73.59 72.69 71.72 72.60 72.73 71.31 71.36 70.61 69.73 71.65 73.41 74.58 75.32 75.82 75.20 74.77 74.70 74.73 73.72 74.34 73.33 72.03
47.52 46.01 47.43 39.90 41.72 39.08 42.91 46.98 52.06 55.07 54.59 57.47 60.36 64.81 65.83 67.11 67.80 67.78 67.63 68.19 68.26 68.83 69.75 70.84 71.64 71.86 72.54 72.88 73.59 73.26 71.86 73.13 72.29 70.42 71.48 72.45 70.87 73.50 74.40 74.95 74.62 75.65 75.05 74.40 73.63 75.13 74.09 74.09 73.17
49.69 49.94 43.44 43.66 35.16 36.26 42.17 44.11 46.79 50.28 52.53 54.26 55.76 60.89 63.73 66.61 67.92 68.33 68.04 67.97 68.63 68.99 69.90 70.55 72.25 72.21 73.01 73.18 73.76 74.05 74.16 72.61 73.65 72.65 70.66 71.15 71.87 73.28 73.37 74.69 74.70 75.70 75.90 75.62 74.19 74.14 75.02 73.49 73.70
48.38 46.26 46.51 42.90 40.90 36.30 36.62 43.34 50.55 52.24 53.98 54.25 56.18 57.56 63.11 64.72 67.72 68.47 68.45 68.37 68.83 69.11 69.69 70.23 70.90 72.64 73.18 73.95 73.55 74.36 75.07 74.60 73.11 73.65 73.11 71.81 71.33 72.69 75.80 75.67 75.25 75.21 75.18 75.29 74.84 73.14 73.94 74.16 73.77
51.73 48.27 46.09 42.73 38.96 40.27 39.64 43.26 53.96 53.70 56.22 56.39 57.16 57.64 60.02 64.41 68.21 68.94 69.10 68.51 68.41 68.45 69.01 69.70 71.03 72.18 73.22 74.01 74.36 73.92 74.78 75.75 74.35 72.77 72.89 73.05 72.43 73.14 73.40 76.15 76.00 75.59 75.34 74.72 74.64 74.47 74.84 74.01 73.78

GFSSGP_sfc_wetblb_060.txt.gz
Wetbulb
73.68 73.33 72.37 70.68 59.39 58.98 55.79 57.86 62.54 61.73 62.48 65.47 65.57 64.21 62.83 63.38 60.92 53.82 67.32 68.41 70.37 71.72 74.38 75.74 77.70 77.31 76.89 77.14 77.14 77.26 77.00 77.27 76.89 77.03 77.02 77.02 77.05 76.91 77.00 76.82 76.80 76.97 75.99 75.66 75.76 75.81 75.78 75.76 73.86
72.16 71.80 70.94 66.94 58.71 50.67 54.21 61.18 60.52 62.46 65.23 66.40 66.78 66.00 63.64 61.06 65.27 65.18 65.25 69.45 71.55 73.48 74.67 75.16 77.50 77.60 76.86 77.00 77.21 77.17 77.08 76.95 77.18 76.94 76.72 76.48 76.78 76.93 76.99 76.93 76.81 76.67 76.56 76.15 75.87 75.65 75.59 75.37 74.81
71.94 72.16 65.48 62.08 58.23 53.37 54.59 59.99 62.73 65.26 66.80 66.34 64.78 66.35 64.49 62.30 65.63 65.34 67.74 70.28 72.66 74.02 75.03 75.66 77.87 77.63 76.58 76.81 77.27 77.14 77.06 77.07 76.59 76.48 76.36 76.34 76.12 75.88 76.18 76.51 76.77 76.62 76.20 75.90 75.69 75.40 75.43 75.45 75.23
69.65 70.00 67.45 59.78 56.62 59.21 59.79 62.26 63.94 64.60 66.51 67.27 65.75 61.96 64.97 67.67 65.67 67.37 69.53 71.40 72.69 74.10 75.46 77.50 77.57 76.58 77.00 77.02 77.42 77.23 77.03 76.82 76.51 76.91 77.19 76.91 76.61 76.59 76.62 76.21 76.07 76.01 75.99 75.85 75.44 74.92 74.97 75.16 75.18
71.05 67.47 59.45 56.22 57.01 60.59 62.75 64.54 64.35 63.60 64.78 64.76 65.37 61.32 62.07 66.34 68.41 68.52 69.06 72.50 72.70 73.70 75.28 76.27 77.95 77.96 77.74 76.99 77.47 76.90 77.22 76.92 76.65 76.98 76.82 77.06 77.08 76.74 76.65 76.46 76.32 76.21 75.94 75.55 75.11 74.72 74.47 74.58 75.11
66.09 63.97 56.52 53.95 56.50 60.74 62.67 65.10 64.92 64.81 64.97 64.08 62.91 62.93 62.30 66.87 66.92 67.97 69.95 72.42 73.86 74.04 74.75 75.68 77.87 78.46 78.13 77.36 77.35 77.20 76.99 76.79 76.98 76.84 76.98 77.09 77.37 76.98 76.62 76.52 76.38 76.36 76.08 75.86 75.72 75.16 74.83 74.64 74.69
63.65 61.53 56.39 56.61 57.37 59.11 62.68 65.71 63.43 64.56 64.09 63.35 66.35 61.09 61.53 64.43 66.99 68.42 70.49 72.99 73.59 74.43 73.96 74.43 74.87 75.63 77.39 77.19 77.25 77.26 76.85 76.76 76.92 76.71 76.51 76.71 76.83 76.87 76.91 76.63 76.47 76.19 75.88 75.52 75.58 75.63 75.16 74.88 74.72
65.65 62.08 56.86 57.44 55.42 58.08 63.79 65.17 67.01 65.43 64.06 68.36 66.99 59.30 58.44 63.93 68.52 69.79 72.08 72.19 72.94 73.31 73.53 73.12 72.76 73.62 74.68 75.16 77.18 76.85 76.76 76.71 76.68 76.49 76.39 76.20 76.10 76.33 76.36 76.97 77.47 76.33 76.24 76.08 75.27 75.25 75.35 75.23 74.70
68.83 61.01 55.13 57.68 58.99 59.99 64.10 63.98 67.51 68.06 65.60 67.09 67.64 64.54 64.33 68.31 69.25 69.27 69.91 70.98 71.40 72.52 72.31 72.63 72.82 73.24 73.55 74.03 75.44 76.96 76.96 76.76 76.68 76.17 76.37 76.61 73.17 73.53 74.65 75.93 76.52 76.24 76.04 75.91 75.52 75.11 75.72 75.19 75.02
63.91 58.57 58.92 62.64 62.57 61.71 63.79 64.53 65.20 64.51 64.54 64.78 64.99 65.50 67.46 68.47 67.53 67.50 68.08 68.68 69.65 70.08 70.94 72.37 72.80 71.84 72.17 74.73 73.21 73.38 74.06 74.21 73.96 73.91 73.75 73.14 72.83 73.00 74.55 75.49 76.77 76.63 76.22 76.08 76.53 75.97 75.50 75.10 72.49
62.51 58.57 61.71 63.37 64.69 64.18 63.37 63.98 67.18 64.08 61.97 64.17 62.76 64.66 67.10 67.01 67.52 67.63 67.84 68.89 68.76 69.74 71.14 72.49 72.82 71.32 71.61 72.25 72.62 72.70 73.11 73.13 73.22 72.93 71.32 72.23 73.90 73.69 74.42 73.28 74.65 73.49 73.30 67.22 70.83 70.98 71.65 71.93 72.19
56.93 61.84 62.96 62.91 64.71 63.99 62.23 64.01 65.06 65.90 64.36 67.26 66.41 66.84 67.22 66.70 67.13 67.88 67.51 67.85 68.54 69.47 70.13 71.53 72.62 71.58 70.80 71.73 72.35 72.51 72.45 72.46 72.73 71.82 70.27 72.53 72.16 72.97 73.14 72.48 73.01 72.81 72.78 70.13 71.72 71.23 71.40 72.00 72.51
57.50 60.23 64.06 64.82 64.15 63.27 64.64 63.23 64.92 64.86 66.85 67.64 67.23 67.39 66.73 66.75 67.37 68.58 68.68 68.17 68.64 68.90 69.47 70.20 71.75 71.35 70.76 70.63 70.66 71.13 71.42 71.82 72.92 73.14 71.44 73.34 71.79 70.61 71.73 71.90 71.28 71.30 71.67 71.57 71.21 71.29 71.98 71.85 72.05
57.58 58.76 62.97 63.42 61.35 62.61 63.29 64.12 65.42 65.09 66.92 66.11 66.45 66.18 66.80 67.12 67.36 68.14 67.95 67.26 67.87 68.90 69.03 69.68 70.24 71.08 70.73 70.13 68.83 69.95 70.11 70.87 72.59 73.51 73.17 73.10 70.54 71.27 71.62 71.39 71.33 71.71 71.45 71.27 71.14 71.02 71.90 70.50 70.50
54.83 52.90 58.76 62.60 61.75 62.86 64.33 59.79 62.30 66.00 66.24 64.84 65.34 66.11 66.83 67.23 68.06 67.29 67.85 67.55 67.91 68.53 69.21 69.02 69.79 71.27 70.60 70.16 70.52 71.71 71.97 71.20 73.07 73.32 73.09 71.95 71.61 72.35 71.69 71.44 71.56 72.37 72.20 71.06 70.85 71.27 71.48 70.07 69.13
51.94 51.88 48.78 59.17 61.13 63.71 63.04 54.35 62.95 66.32 64.87 63.76 64.74 65.93 66.61 66.91 67.62 68.16 68.73 68.03 68.15 67.99 67.99 69.35 71.17 71.74 70.99 71.26 70.98 72.34 71.13 69.41 70.89 72.98 72.79 72.77 72.99 73.11 72.31 72.29 72.52 72.60 72.87 72.36 71.64 70.86 68.82 68.05 68.52
47.29 44.99 48.87 53.15 61.48 62.30 60.93 56.84 60.95 66.25 64.99 63.85 64.58 65.27 65.96 66.56 67.52 68.18 69.17 69.00 68.99 68.52 68.86 69.26 70.32 71.23 69.93 70.57 70.74 71.33 71.55 71.43 69.51 71.63 71.45 72.02 73.76 73.85 71.88 71.24 71.59 71.84 71.61 70.73 70.81 69.31 69.09 69.48 69.76
43.01 45.84 48.77 51.42 59.51 61.62 59.37 57.25 59.95 62.55 64.91 64.09 64.69 65.04 65.35 65.71 66.64 68.19 69.04 69.81 69.65 69.08 70.30 69.85 70.08 70.76 70.42 70.70 70.67 70.74 70.41 70.93 70.45 69.81 71.06 71.58 73.16 73.45 72.11 71.44 70.94 70.64 72.09 70.48 71.15 68.70 70.89 69.20 65.29
50.33 49.79 49.74 53.65 59.99 59.90 57.71 57.00 59.14 61.32 61.98 63.74 64.35 64.73 64.97 65.62 67.65 68.61 69.11 69.80 69.59 69.01 70.09 69.74 69.63 69.73 70.65 69.80 70.03 69.11 68.28 69.36 69.62 69.15 71.43 72.45 73.16 74.26 72.80 71.72 71.32 70.25 71.66 70.66 70.75 69.06 68.41 66.52 63.70
50.20 49.24 50.14 53.95 56.64 58.29 58.33 57.48 60.10 59.95 59.73 62.95 64.31 64.78 65.27 65.87 66.61 67.69 68.51 69.14 69.38 68.54 69.66 69.71 70.01 69.91 70.41 70.67 70.29 70.32 69.40 69.35 69.81 68.93 71.78 72.99 73.41 74.18 73.77 72.51 71.57 70.73 71.48 71.27 70.82 69.97 67.64 67.64 64.02
49.41 48.19 49.45 50.13 54.17 59.01 57.47 55.04 56.07 58.92 61.86 63.02 64.54 64.74 65.60 66.05 66.15 67.20 67.86 68.63 69.39 68.64 68.71 68.84 70.26 70.30 70.68 71.04 70.13 69.93 70.56 68.83 68.74 68.10 67.80 72.63 73.98 74.81 74.25 73.40 72.32 72.44 71.67 70.95 70.39 69.67 68.01 65.91 64.57
46.03 52.57 52.56 52.11 50.52 47.41 57.01 46.41 53.99 57.51 58.45 60.30 61.00 62.68 63.88 64.80 67.30 67.54 67.97 68.58 69.32 69.35 69.77 69.54 70.65 70.69 70.95 71.80 70.58 70.03 70.20 69.64 68.21 67.74 68.22 70.71 73.76 74.13 74.48 73.58 73.04 72.14 72.22 70.83 70.46 71.18 68.92 66.15 63.39
49.31 53.31 51.77 51.73 47.67 45.82 52.09 48.75 51.48 57.31 55.23 57.67 60.19 62.18 63.87 65.22 66.39 67.07 67.99 69.12 70.11 70.24 69.41 70.22 71.10 70.91 71.13 71.93 71.29 70.35 68.87 68.93 67.97 68.13 67.79 68.24 72.14 73.54 74.88 74.00 73.09 72.42 72.16 72.11 71.03 71.35 70.37 69.09 66.75
54.19 50.27 49.14 46.72 44.28 40.19 46.29 48.93 47.10 53.02 55.68 57.68 59.90 61.94 63.97 65.18 66.20 67.14 68.01 69.11 69.05 70.15 69.91 69.51 70.38 71.18 71.49 71.95 71.56 70.62 69.57 67.69 67.66 66.63 67.31 67.53 70.67 72.11 74.16 74.61 73.10 72.76 72.41 72.03 71.54 71.38 71.15 70.68 69.11
51.52 43.51 38.79 35.65 37.79 38.35 45.46 44.48 49.35 57.09 59.11 59.95 59.94 61.19 63.53 65.70 64.90 66.35 66.90 67.12 67.85 68.80 69.59 69.13 69.75 70.36 71.64 71.48 71.35 71.03 70.37 69.04 68.31 67.49 67.02 67.63 70.72 71.43 72.20 74.21 73.12 73.28 72.99 72.48 72.10 71.63 71.12 69.76 69.67
47.55 47.14 39.77 33.94 33.50 39.99 43.19 42.06 48.18 56.48 61.73 62.22 62.52 62.64 63.54 65.66 65.29 65.61 67.04 67.68 67.65 68.49 69.46 69.61 68.90 69.72 71.11 71.73 71.27 71.12 70.34 70.49 69.68 68.10 67.96 67.52 70.94 72.72 73.08 73.98 74.61 73.85 73.70 72.94 72.54 71.81 71.96 71.60 70.38
46.97 44.36 48.41 38.36 36.22 35.97 40.07 44.96 49.50 51.73 54.54 57.27 61.37 62.74 63.05 65.42 65.80 66.18 67.06 67.97 68.04 68.52 69.09 69.60 69.33 69.25 71.20 71.31 71.67 71.43 71.72 70.83 70.22 68.98 68.23 68.88 69.74 72.82 73.09 73.79 74.43 74.23 73.90 73.00 73.29 72.05 72.11 72.70 71.45
51.48 48.84 41.05 37.04 36.96 33.13 37.26 40.34 45.44 47.84 49.86 51.39 59.68 62.00 63.66 65.69 66.34 66.92 66.98 67.79 68.40 68.86 69.54 70.13 70.17 69.58 70.04 71.66 71.66 71.01 70.74 72.15 72.87 70.20 68.61 70.35 70.25 70.92 72.42 73.01 73.58 74.43 74.15 73.43 72.49 72.80 73.06 72.93 72.32
49.06 47.31 42.25 43.09 37.86 37.21 33.27 40.70 47.25 48.71 50.53 51.12 56.09 63.15 64.53 65.67 66.46 67.14 67.23 68.11 68.34 68.98 69.51 69.93 70.25 69.96 70.01 70.90 71.98 71.98 71.47 70.75 71.55 72.29 70.18 69.86 69.62 70.97 71.15 72.88 73.29 73.14 74.28 73.58 72.60 72.12 73.45 72.57 72.52
49.96 46.62 44.96 41.41 36.81 36.47 37.53 42.22 49.73 51.07 52.23 52.63 53.49 62.43 65.70 66.48 67.09 67.75 67.68 67.56 67.92 68.00 68.67 69.34 70.19 70.42 70.69 71.28 71.40 71.88 72.26 72.23 70.82 70.68 72.74 71.40 69.84 69.79 71.15 74.10 73.42 73.29 73.68 74.51 73.82 72.48 73.14 73.62 72.39

GFSSGP_sfc_wetblb_063.txt.gz
Wetbulb
73.47 73.34 71.74 70.00 58.93 58.64 55.25 57.51 62.32 61.65 62.49 64.22 64.60 63.14 61.91 63.23 60.13 52.93 66.61 68.11 70.72 72.02 73.82 75.97 77.16 76.83 76.80 76.57 76.95 76.76 76.66 76.88 76.91 76.91 77.05 76.89 77.07 77.07 76.73 76.86 76.53 75.43 75.37 75.99 75.99 75.83 74.74 73.91 74.71
71.99 71.84 70.37 66.23 57.70 49.88 54.66 60.05 59.82 62.35 64.68 64.98 65.46 65.09 62.82 60.59 64.62 65.10 65.10 69.39 71.88 73.20 73.99 74.86 77.03 77.17 76.61 76.86 77.00 76.94 76.75 77.17 77.21 76.94 76.87 77.30 76.85 76.81 76.63 76.70 76.69 76.47 76.00 75.99 75.80 75.58 75.04 74.30 74.52
71.81 71.74 66.08 61.99 57.71 53.34 54.07 59.64 61.66 64.56 65.97 65.59 63.77 65.46 63.70 61.42 64.78 65.00 67.79 71.34 73.24 73.53 74.29 75.03 77.30 77.08 76.56 76.96 76.91 76.76 76.95 76.51 76.22 75.96 75.77 75.91 76.24 76.80 76.76 76.60 76.41 76.27 76.05 75.91 75.72 75.64 75.42 74.70 74.35
69.15 68.73 67.31 59.19 56.31 58.18 59.46 62.07 64.20 64.51 65.69 65.91 64.48 60.79 64.59 67.37 65.30 66.89 70.47 72.88 73.42 73.78 74.71 76.72 76.96 76.43 76.42 77.05 76.97 76.79 76.47 76.31 76.80 76.85 76.67 76.65 76.11 75.92 76.17 76.19 76.30 76.16 75.95 75.64 75.59 75.34 75.26 75.02 74.43
69.71 66.44 59.04 54.81 56.56 60.00 62.76 63.79 64.99 63.49 64.03 63.89 64.32 60.00 61.49 65.74 67.62 69.53 70.79 73.30 73.03 73.75 74.33 74.74 77.26 76.76 76.61 77.09 77.04 76.77 76.48 76.33 76.88 76.60 77.09 76.71 76.94 76.91 76.22 76.14 76.03 75.92 75.51 75.37 75.24 75.21 75.15 75.15 74.70
65.59 64.42 55.66 53.76 56.54 60.20 62.95 65.16 64.44 64.39 64.31 62.60 60.90 60.69 61.92 66.30 67.52 68.33 71.77 72.63 73.77 74.00 74.74 74.52 76.60 77.12 76.89 77.32 76.80 77.09 76.59 76.68 76.71 76.71 76.53 76.83 76.68 76.63 76.55 76.50 76.34 76.07 76.10 75.93 75.59 75.41 75.49 74.85 74.90
64.05 59.80 56.55 56.52 56.95 59.05 62.13 65.97 63.38 64.08 63.37 62.68 64.47 59.40 61.81 64.57 67.19 69.85 72.07 72.80 73.61 74.35 74.23 73.79 74.45 75.85 77.02 77.15 77.02 77.01 76.56 76.76 76.65 76.56 76.62 76.80 76.87 76.66 76.42 76.35 76.07 75.99 75.88 75.63 75.68 75.59 75.61 75.40 75.29
66.18 61.28 55.92 57.50 55.57 57.56 63.43 64.41 65.64 64.95 63.78 67.09 64.83 58.64 58.95 64.38 67.54 70.39 72.13 72.27 72.99 73.23 73.30 73.05 72.91 73.37 74.22 74.72 76.86 76.72 76.52 76.71 76.49 76.33 76.25 76.26 76.41 76.56 76.40 76.62 77.13 75.91 75.77 75.55 75.57 75.59 75.40 75.75 75.15
68.32 58.88 53.96 56.25 58.26 60.02 64.02 62.63 66.79 67.95 64.81 66.60 66.18 63.16 65.05 66.27 67.75 70.46 70.23 71.13 71.90 72.28 71.87 71.59 72.10 73.01 73.45 73.90 74.90 76.59 76.64 76.60 76.39 75.68 75.88 75.51 72.66 73.26 74.40 75.12 75.76 75.57 75.45 75.46 75.66 75.43 75.32 76.07 75.32
62.36 56.82 58.13 61.87 62.79 60.71 63.46 65.08 64.42 64.10 64.09 63.35 61.56 64.07 65.79 66.51 68.16 68.53 68.56 68.05 69.98 70.68 71.17 71.32 71.91 72.30 72.87 74.85 73.31 73.19 73.94 73.73 73.59 73.62 73.57 72.64 72.27 72.34 74.11 74.96 76.20 75.87 75.65 75.87 75.83 75.39 75.60 74.21 71.94
62.60 58.29 61.68 62.04 63.96 63.96 62.17 63.22 66.39 63.77 61.71 63.16 59.43 62.04 65.49 66.29 67.72 67.86 68.52 68.63 69.25 70.46 71.56 71.55 71.62 71.62 71.81 72.36 72.14 72.35 72.66 73.00 73.04 72.76 72.07 71.94 72.95 72.52 73.59 72.92 73.54 72.85 73.57 67.36 69.92 70.30 70.78 72.23 71.92
55.82 61.67 63.40 63.44 63.71 64.23 62.36 64.46 64.39 65.00 64.34 66.04 63.19 65.81 66.26 65.70 66.67 67.46 68.35 68.68 69.04 69.55 70.40 71.91 71.54 70.65 70.59 70.84 71.76 71.82 72.09 72.20 72.13 72.32 69.73 70.90 71.28 71.50 72.37 72.00 71.80 72.39 71.85 70.19 70.55 70.51 70.78 70.48 71.42
54.36 57.20 60.75 63.49 62.81 62.66 64.53 62.32 64.30 64.58 66.67 64.96 64.46 66.47 65.78 65.85 66.77 68.07 68.92 69.38 68.91 68.76 69.73 71.59 71.62 70.01 70.23 70.03 70.99 71.06 71.44 71.89 71.72 72.36 68.22 71.77 71.45 71.04 71.40 70.83 71.61 70.95 71.11 70.93 70.12 70.48 72.01 71.01 71.26
54.37 55.93 57.45 60.32 62.03 62.87 63.18 64.25 64.02 64.97 66.57 63.97 64.07 64.79 65.64 66.23 66.88 67.55 67.78 67.75 68.14 68.67 68.76 70.97 71.23 70.52 69.67 69.28 69.13 69.92 70.44 70.69 71.30 72.51 71.43 71.78 70.99 70.72 71.23 70.94 70.39 70.34 70.72 70.82 70.59 69.59 71.28 69.96 70.18
52.29 49.61 52.53 55.45 61.75 62.83 64.11 59.75 61.64 65.13 65.67 63.75 63.80 64.42 65.58 66.71 67.67 67.36 67.25 67.29 68.12 68.61 68.80 69.21 70.51 70.24 69.06 69.03 68.33 69.27 69.98 70.74 71.13 72.69 72.69 72.42 69.98 70.81 71.45 70.69 70.18 71.26 71.17 70.96 70.02 69.85 70.35 69.57 68.34
48.29 48.00 43.76 51.74 61.02 63.17 61.74 53.65 62.68 64.96 64.25 63.00 64.28 64.87 65.28 65.96 66.97 68.18 67.73 67.71 68.34 68.54 68.18 68.25 71.00 70.29 69.41 68.99 68.58 69.20 70.80 70.61 70.20 72.76 72.56 72.24 71.44 71.97 70.96 70.82 71.21 71.99 71.32 70.30 69.84 69.59 68.39 66.99 67.28
42.41 41.00 45.54 49.72 61.18 61.57 61.10 56.81 63.01 64.59 63.70 62.75 63.58 64.25 64.93 65.41 66.90 67.79 68.48 67.94 68.01 68.19 68.03 67.73 69.04 69.63 69.58 69.22 69.46 70.02 70.80 68.64 69.44 71.71 71.94 71.84 72.55 72.94 71.41 71.35 71.45 71.58 71.28 69.69 70.41 68.72 67.85 67.77 68.15
38.43 42.89 45.10 47.91 55.26 60.04 59.02 56.67 62.15 63.31 63.07 62.67 63.30 64.08 64.72 65.05 65.89 67.71 68.34 68.38 68.20 67.98 67.76 68.16 68.74 69.69 69.59 70.02 69.31 69.73 69.86 70.37 69.45 70.41 70.46 71.57 73.15 72.91 71.03 70.69 70.79 70.68 70.86 69.45 70.25 68.94 70.07 68.07 62.35
46.31 46.93 46.51 50.76 55.97 58.30 57.80 56.65 59.44 63.10 62.83 62.26 62.62 63.35 64.25 64.82 66.96 68.10 68.41 68.81 67.83 67.55 67.22 67.86 68.03 69.25 69.29 68.77 68.52 67.91 67.71 68.61 69.00 68.94 70.88 70.85 72.69 72.79 71.46 70.94 69.99 69.16 70.54 69.75 69.89 68.67 67.36 65.42 62.75
43.94 43.35 44.77 50.27 58.74 57.24 57.35 56.62 58.55 62.21 62.81 63.02 62.89 63.29 64.20 64.91 65.85 67.14 67.75 68.52 68.25 67.62 67.81 67.89 68.08 69.13 69.83 69.99 69.93 68.63 67.86 68.30 69.06 68.67 69.72 71.19 72.15 73.32 72.55 71.20 70.47 69.31 70.40 70.19 69.90 68.86 67.13 66.71 62.38
43.72 43.35 45.38 47.11 56.17 58.56 56.71 55.70 56.49 59.87 61.36 63.77 64.63 64.82 65.08 64.85 64.90 66.25 66.91 67.54 68.46 67.24 68.56 68.17 68.25 68.62 69.95 70.06 68.61 69.34 68.96 68.13 68.05 67.56 67.44 71.29 72.30 73.33 73.21 72.27 71.13 70.27 70.65 70.10 69.64 69.34 67.16 65.17 63.67
41.66 49.25 50.12 49.73 48.86 47.42 55.87 44.31 52.62 57.15 57.99 58.85 61.46 64.30 64.61 65.34 66.03 66.18 66.93 66.90 67.92 67.88 69.13 69.15 68.86 68.75 69.52 69.49 69.06 68.47 68.02 67.27 66.87 67.08 67.34 69.90 72.48 73.01 73.83 73.11 72.16 71.65 71.70 70.69 69.65 70.41 67.83 65.09 61.90
46.66 51.09 49.68 49.26 47.17 45.93 51.96 46.76 50.65 55.85 55.35 56.83 60.05 63.27 65.14 65.99 66.34 66.24 66.57 67.54 68.35 68.82 68.52 69.27 69.13 69.15 69.47 69.93 69.40 68.84 66.73 67.44 67.59 66.92 67.14 66.88 71.41 72.62 74.07 73.28 72.21 71.54 71.31 71.07 70.28 70.00 69.05 67.63 64.41
53.10 49.18 47.58 44.99 46.92 41.56 45.01 48.43 45.02 51.54 54.80 57.36 60.10 62.20 63.65 65.57 66.60 67.26 67.88 68.47 68.32 69.38 68.89 68.84 68.60 69.22 69.59 70.05 69.84 68.82 67.98 67.02 66.71 66.76 66.46 66.18 67.77 71.75 72.85 73.81 72.45 71.84 71.29 71.00 71.03 70.70 69.88 69.44 67.19
50.32 41.66 36.94 34.54 36.88 38.25 43.01 42.85 47.73 54.44 58.29 59.46 59.50 61.42 63.20 64.66 65.28 66.19 67.21 67.44 68.12 68.49 68.67 68.73 68.17 68.55 69.54 69.78 70.10 69.32 68.71 67.75 67.96 66.85 66.91 66.11 66.95 69.36 71.38 73.01 72.44 71.58 71.59 71.58 71.17 70.34 70.30 69.83 69.34
46.76 45.67 36.99 30.56 31.84 39.01 42.38 38.71 46.04 54.66 60.06 61.44 62.11 62.40 63.24 63.95 65.02 65.77 66.74 67.96 68.15 68.69 69.08 68.32 68.26 68.55 69.56 69.83 70.12 70.22 69.46 69.00 68.80 67.99 66.85 66.95 67.56 69.85 71.01 72.50 73.23 72.29 72.40 71.98 71.58 70.64 70.47 70.16 69.33
44.79 43.25 46.76 37.41 35.18 34.05 39.09 42.40 48.87 52.14 53.84 59.14 60.55 60.94 61.32 62.95 64.53 65.49 66.79 67.46 68.13 68.88 69.17 68.42 68.41 69.00 69.73 69.89 70.50 70.51 70.22 69.71 69.24 67.90 68.13 67.60 67.54 70.56 71.22 71.94 72.90 73.06 72.85 72.39 71.91 71.25 70.46 70.81 70.12
47.70 47.09 40.67 36.55 35.89 32.34 35.62 38.20 43.90 47.11 48.60 56.69 58.61 60.31 61.28 62.42 64.09 65.75 66.23 66.99 67.64 68.41 69.19 69.26 68.66 69.02 69.95 70.39 70.63 70.57 70.41 70.00 70.23 68.84 67.55 66.92 67.62 69.25 71.10 71.61 72.32 73.09 73.16 72.90 72.24 71.68 71.07 71.05 71.05
42.84 44.63 40.54 42.66 38.41 37.85 32.78 39.78 44.28 47.91 50.22 50.82 56.18 60.20 61.45 62.45 63.30 65.60 65.94 67.09 67.74 68.09 68.51 69.03 68.83 68.29 69.00 70.27 70.78 70.56 70.36 70.69 70.38 69.46 69.29 69.34 68.67 68.38 69.45 71.38 71.79 72.25 73.23 72.98 72.10 71.77 72.40 71.44 71.25
43.62 41.12 45.06 39.95 36.43 35.03 36.19 42.33 49.11 48.95 50.01 50.84 51.45 56.16 59.99 63.42 63.78 65.91 65.88 66.84 67.35 67.44 67.97 68.64 68.99 68.64 68.86 69.95 70.41 70.22 70.16 70.34 71.04 71.54 69.54 69.44 69.13 69.83 69.99 70.12 71.54 71.96 72.68 73.29 72.56 71.81 72.34 72.26 71.64

GFSSGP_sfc_wetblb_066.txt.gz
Wetbulb
73.45 72.92 71.53 69.42 59.61 58.51 55.52 57.59 61.62 61.15 60.56 63.19 64.07 62.62 61.46 63.01 59.92 53.89 65.65 67.90 70.81 71.84 73.57 75.00 77.05 76.59 76.41 77.12 76.77 76.95 76.96 76.91 76.83 76.99 76.87 76.45 76.46 76.57 76.51 76.37 75.81 75.40 76.21 75.69 75.73 74.36 74.08 74.60 74.65
72.21 71.95 70.09 66.22 57.60 48.50 54.01 59.69 59.75 62.09 64.17 63.93 65.18 64.12 62.88 60.25 64.14 64.79 65.11 69.22 71.53 72.68 74.01 74.37 77.06 76.81 76.82 76.90 77.12 76.70 76.98 77.03 76.87 76.83 76.95 76.48 76.76 76.84 76.85 76.81 75.70 76.06 76.19 75.94 75.57 74.99 74.16 74.41 74.49
72.10 71.81 65.84 62.02 56.74 51.54 54.30 59.54 61.45 63.85 64.73 64.11 63.26 64.97 63.46 61.28 64.85 65.14 67.01 71.19 72.63 72.97 73.80 74.43 76.81 76.96 76.90 77.02 76.75 77.24 77.12 76.96 76.42 76.37 76.76 76.71 76.52 76.64 76.64 76.73 76.49 76.35 76.02 75.99 75.70 75.45 75.04 74.71 74.87
69.05 68.26 66.68 58.30 56.03 58.48 59.21 61.89 63.99 63.54 65.25 65.37 63.80 60.78 64.09 66.61 65.12 66.60 70.64 72.77 72.87 73.38 74.25 76.12 76.36 76.42 76.43 76.41 76.87 76.43 76.06 76.36 76.01 76.16 75.83 75.81 76.56 76.42 76.53 76.66 76.44 76.24 76.03 75.86 75.75 75.53 74.68 74.60 74.44
69.15 66.95 58.45 53.99 56.42 59.95 62.23 64.09 64.80 63.50 63.66 63.16 63.52 59.79 61.24 65.48 67.81 70.00 71.71 72.80 72.35 73.16 74.23 74.63 77.20 76.17 76.94 76.57 76.72 76.26 76.33 76.63 76.83 76.80 76.60 76.32 76.22 76.09 76.25 76.31 76.14 75.95 75.60 75.50 75.48 75.43 75.21 74.49 74.55
65.08 64.34 54.69 52.94 56.52 60.07 62.62 64.43 64.72 64.05 63.45 61.80 60.73 60.59 61.83 66.43 68.27 70.12 72.54 72.59 73.47 73.35 73.54 74.38 76.24 76.38 77.07 76.97 76.51 76.28 76.52 76.68 76.75 76.99 76.77 76.51 76.60 76.33 76.52 76.28 76.26 75.98 75.96 75.72 75.70 75.45 75.28 75.04 74.63
64.38 59.07 55.49 56.67 56.95 58.64 61.64 65.52 63.87 64.11 62.66 61.17 63.05 59.18 62.22 65.41 67.97 71.31 72.21 73.22 73.80 73.92 73.30 73.04 73.24 74.92 76.90 76.89 77.15 76.45 76.68 77.03 76.69 77.11 76.91 76.84 76.60 76.43 76.41 76.42 76.32 76.15 75.85 75.81 75.65 75.29 75.45 75.37 75.10
65.66 61.03 56.06 57.11 55.12 57.01 63.64 64.35 65.29 65.03 63.10 65.33 64.50 58.68 59.33 64.87 69.31 71.64 72.20 72.71 72.88 73.08 73.13 72.64 73.29 73.73 74.40 74.86 77.32 76.45 76.82 76.58 76.35 76.41 76.50 76.61 76.35 76.39 76.31 75.70 76.61 75.25 75.93 75.76 75.59 75.59 75.37 76.08 76.08
67.95 58.57 53.09 55.27 57.92 58.29 63.73 63.09 66.16 67.31 63.81 65.38 64.53 63.15 64.40 66.72 70.67 70.65 70.32 71.36 71.96 72.18 71.88 72.15 72.26 73.28 73.59 74.07 75.36 76.09 76.74 76.49 76.22 75.71 76.03 75.11 73.67 74.13 74.64 75.02 75.39 75.48 75.93 75.55 75.44 75.51 75.65 75.93 75.71
61.74 56.92 56.75 60.07 61.32 59.04 63.40 64.43 63.90 63.71 63.64 61.17 61.93 64.40 66.12 67.46 68.97 67.64 67.21 67.40 69.11 70.68 71.48 71.36 71.94 72.67 73.40 74.72 73.78 73.55 74.58 74.24 73.97 74.10 74.41 73.93 73.49 73.93 74.56 75.23 75.33 75.23 75.69 75.85 75.68 75.43 75.62 73.66 73.61
61.92 58.26 61.15 62.10 63.27 63.10 63.64 63.79 65.52 62.95 61.27 60.67 60.24 62.37 64.93 66.63 67.68 66.58 66.88 67.62 68.46 70.37 71.88 71.02 71.68 72.38 72.86 73.22 72.82 72.86 73.09 73.62 73.79 73.90 73.50 73.31 73.58 73.53 73.84 74.01 74.08 74.02 72.42 69.74 71.83 71.01 72.64 73.06 73.32
56.01 60.35 62.75 62.88 63.84 61.99 60.69 64.22 63.63 64.15 63.78 64.34 63.33 64.20 65.01 65.89 66.61 66.54 66.87 67.78 68.73 69.70 71.14 71.31 71.52 71.64 71.72 71.75 72.12 72.43 72.32 72.87 72.79 73.12 72.34 71.72 72.39 72.94 72.69 73.25 72.71 73.50 73.08 71.94 72.39 72.28 72.13 71.98 73.09
55.46 56.49 60.02 63.12 62.80 61.99 63.33 62.81 63.70 63.86 65.08 64.02 64.21 64.54 64.61 66.13 66.97 68.11 68.39 68.89 69.47 69.29 70.45 71.16 71.32 70.82 70.91 70.63 71.67 71.64 71.86 72.35 72.48 72.82 70.55 72.73 72.75 72.43 73.15 72.80 72.72 72.89 72.94 72.48 71.50 72.05 72.90 72.71 72.52
53.15 55.53 56.54 58.11 58.20 60.28 60.70 62.40 63.64 64.20 63.22 62.57 63.45 63.97 65.04 66.31 67.18 67.97 68.17 68.22 68.60 69.17 69.60 71.03 71.22 70.43 69.93 69.78 70.59 70.75 71.40 71.69 72.20 72.81 72.64 71.30 72.86 72.07 72.73 72.98 72.40 71.80 72.06 72.02 71.71 71.98 72.73 72.01 72.34
51.51 48.14 50.30 52.10 56.07 60.64 64.21 59.88 61.02 63.79 62.61 62.24 63.12 64.48 65.06 66.04 67.42 67.26 68.42 68.13 68.42 68.86 69.44 70.25 70.85 70.15 69.26 69.46 69.76 70.23 70.69 71.26 71.40 72.43 73.30 72.63 72.55 71.76 72.79 72.60 72.20 72.48 72.96 72.53 71.56 72.42 72.76 71.73 69.95
46.54 46.54 43.18 50.25 52.86 62.52 60.42 52.58 62.33 63.80 61.18 61.09 63.28 64.06 64.67 65.68 66.73 67.76 68.84 68.46 68.70 68.65 68.18 69.41 71.62 70.31 69.07 69.07 69.01 69.32 70.40 70.79 70.83 71.71 73.07 73.41 73.00 72.22 72.64 72.48 71.37 73.03 73.39 72.21 71.92 72.12 71.38 69.69 70.03
40.42 39.94 43.51 47.82 55.17 60.68 59.48 54.39 61.90 64.02 62.10 60.36 62.13 63.15 64.22 65.24 66.61 67.84 68.27 68.53 68.67 68.39 68.09 67.61 69.79 69.22 69.27 69.16 69.33 69.23 70.16 70.78 70.58 71.74 72.79 73.24 73.02 73.44 72.58 72.44 72.25 73.46 72.50 72.13 72.34 71.10 70.24 70.01 70.77
36.83 38.97 42.50 47.18 52.32 59.18 57.29 55.86 61.02 62.76 62.59 61.60 61.95 62.77 63.41 64.39 65.64 67.62 67.81 68.55 68.58 68.37 68.18 67.74 68.06 68.86 68.99 69.07 69.43 69.79 70.85 71.45 69.60 71.28 72.40 72.96 73.08 74.01 72.76 72.67 72.34 72.74 72.85 71.56 72.06 71.61 71.13 69.43 66.10
43.22 44.83 45.79 49.56 52.67 56.93 55.89 55.64 60.36 61.83 62.15 61.79 62.54 62.88 63.08 63.71 66.26 67.80 68.47 68.24 68.09 68.04 67.28 67.41 67.02 67.92 68.93 68.67 68.11 68.64 68.76 70.37 70.60 70.40 72.18 72.66 73.41 74.33 72.58 72.35 72.01 71.60 72.51 71.85 72.33 70.89 70.34 67.70 65.75
42.63 40.81 40.89 47.48 53.16 54.92 53.97 55.40 59.69 61.22 61.33 62.39 62.61 63.07 63.36 64.16 65.22 66.73 67.40 67.35 67.33 67.17 66.89 67.23 67.27 67.86 69.45 69.53 69.63 69.21 68.88 69.74 70.85 70.59 71.63 72.15 73.07 74.53 73.16 72.49 71.96 71.29 72.09 71.50 72.08 71.43 69.91 69.20 65.53
40.29 40.22 40.84 45.09 52.95 56.89 55.12 53.23 55.34 60.92 62.30 62.82 63.45 64.26 64.37 64.35 64.45 65.57 66.55 66.96 67.31 66.39 66.54 66.80 67.52 67.81 69.55 69.76 69.40 69.45 69.13 69.15 69.48 69.32 69.61 71.44 72.45 74.04 74.12 73.33 72.67 71.58 72.22 71.73 72.00 71.56 70.51 68.46 66.77
35.04 44.39 45.33 46.43 45.77 46.15 54.62 44.18 51.90 55.98 59.89 61.63 62.27 62.81 63.62 64.62 65.62 65.86 66.51 66.77 67.36 67.03 67.60 67.46 67.69 67.78 69.41 69.63 69.28 69.17 68.29 67.13 67.71 68.98 69.45 70.64 72.51 73.12 74.29 74.05 73.24 72.81 72.64 71.87 71.92 72.01 70.83 69.14 67.28
40.89 47.39 45.64 46.33 44.82 45.92 47.08 43.83 46.73 54.75 55.12 58.96 61.80 63.25 64.06 65.03 65.67 65.73 66.31 67.36 68.12 68.35 68.12 68.34 67.84 67.96 68.83 69.60 69.43 68.92 68.72 67.79 67.97 68.46 69.16 69.18 72.16 73.12 73.98 74.36 74.02 73.28 72.80 73.06 72.40 72.30 71.33 69.56 66.83
50.52 46.50 45.01 43.70 44.49 40.56 44.50 46.91 45.45 50.13 54.75 57.43 60.36 62.90 64.67 65.33 65.95 66.37 67.38 68.09 67.91 68.88 68.21 68.99 67.98 67.76 68.41 69.12 69.41 68.79 68.64 67.38 67.74 67.54 67.58 68.01 68.85 72.17 73.26 74.39 73.94 73.89 73.16 73.07 72.81 72.71 71.97 71.21 69.93
47.89 41.25 34.63 33.10 36.70 37.93 43.20 41.92 47.93 51.14 56.95 58.73 59.63 60.61 63.06 65.94 65.98 66.15 66.07 66.53 67.44 67.65 67.87 68.43 68.37 67.78 68.35 68.73 69.24 68.96 68.61 68.25 68.22 68.11 67.56 67.22 67.77 69.34 71.82 73.50 73.83 73.41 73.36 73.24 73.33 72.70 72.43 71.79 71.38
43.65 42.43 35.39 29.81 30.06 37.88 40.06 38.89 45.67 52.84 55.07 59.59 60.92 61.90 62.76 64.66 66.50 66.55 66.90 66.80 67.17 67.65 67.98 67.92 67.86 67.93 68.53 68.71 69.22 69.67 69.37 68.64 69.19 68.92 68.61 68.61 68.04 69.31 71.30 72.45 74.15 74.02 73.93 73.53 73.50 72.55 72.03 72.38 71.97
41.86 41.79 44.93 36.71 34.28 33.43 37.72 41.80 47.53 51.09 51.95 57.09 58.72 60.57 61.65 63.48 65.50 66.35 67.44 67.86 67.76 67.91 68.00 67.88 67.67 68.03 68.76 69.15 69.46 69.67 69.86 69.22 68.96 69.20 69.33 69.07 69.08 69.88 71.00 72.23 73.10 74.17 73.85 73.81 73.50 72.66 72.51 72.70 72.33
42.67 45.02 38.99 35.04 33.56 31.38 35.16 37.59 43.04 46.54 50.52 51.61 57.14 59.23 61.16 63.20 64.34 65.67 66.85 67.60 68.53 68.70 68.85 68.83 68.45 67.76 68.80 69.49 69.86 69.93 70.00 70.07 69.86 69.28 68.95 69.11 68.90 69.89 71.43 72.03 72.49 73.50 73.95 74.05 73.67 73.34 73.37 72.66 72.59
39.34 39.00 39.01 40.48 38.94 36.76 32.10 39.16 43.93 47.50 50.31 50.72 54.99 59.24 61.22 62.04 63.39 64.75 66.23 67.27 68.32 69.09 69.11 68.96 68.45 68.30 68.65 69.39 69.74 70.06 70.21 70.35 70.47 69.52 69.32 69.18 69.38 69.27 69.98 71.82 72.47 72.78 73.64 74.01 73.54 73.74 73.70 72.78 72.93
41.22 38.82 36.71 34.98 34.24 34.71 37.43 40.96 49.41 48.80 49.46 50.56 52.21 59.66 61.56 62.21 62.79 64.05 65.60 66.90 67.31 68.02 68.71 68.93 68.62 68.51 68.95 69.64 69.88 69.91 70.45 70.74 70.05 69.99 69.95 69.96 69.00 69.29 69.97 70.72 71.99 72.58 73.41 74.08 73.49 73.25 73.78 73.16 72.96

GFSSGP_sfc_wetblb_069.txt.gz
Wetbulb
73.10 73.63 73.38 69.82 60.97 59.41 56.73 58.09 62.47 61.42 61.58 64.48 65.40 63.54 62.14 63.56 61.11 57.56 69.47 71.30 73.14 73.24 75.11 75.73 77.27 77.02 77.22 76.84 77.33 77.41 77.26 77.13 77.18 77.37 77.17 76.80 76.98 76.82 76.86 76.15 75.42 76.09 75.82 75.59 74.34 74.45 74.81 75.25 75.01
73.52 72.48 70.55 66.52 58.59 55.37 56.89 60.67 60.16 62.60 64.42 65.23 65.74 65.18 63.71 61.67 65.38 65.96 68.27 72.62 73.57 73.91 75.45 75.67 76.80 77.43 76.80 77.06 76.88 76.95 76.92 77.17 77.02 76.92 76.71 76.62 76.40 76.28 76.27 75.56 75.99 76.10 76.09 75.34 74.67 74.01 74.45 74.73 75.55
73.21 72.36 66.07 61.90 59.19 55.85 55.71 60.61 62.11 63.00 64.98 64.91 63.62 66.00 64.57 62.48 66.22 67.67 70.86 73.09 73.70 74.25 75.55 76.44 77.27 77.76 77.05 76.92 76.81 77.01 77.00 76.80 76.51 76.44 76.57 76.95 76.52 76.16 76.40 76.27 76.43 76.31 76.01 75.64 75.45 75.23 74.73 74.87 75.19
70.99 68.88 66.56 59.67 57.10 59.98 60.21 63.07 65.05 63.82 65.01 66.37 65.91 62.17 65.06 67.48 67.16 69.59 72.19 73.41 73.53 74.06 75.16 76.63 76.85 77.18 77.23 76.86 76.73 76.64 76.22 75.78 75.90 75.95 76.23 76.54 76.52 76.61 76.55 76.52 76.32 75.97 75.86 75.59 75.42 74.81 74.78 74.54 74.54
71.21 67.38 60.94 57.88 56.98 60.84 63.22 64.69 65.80 64.07 64.88 64.68 64.92 61.05 61.51 66.02 69.60 71.29 72.16 73.10 73.12 73.44 74.82 75.82 77.31 77.44 76.69 77.23 76.39 76.25 76.86 76.52 76.61 76.56 76.30 76.30 76.40 76.46 76.55 76.69 76.22 75.89 75.15 75.61 75.50 74.92 74.51 74.67 74.79
66.09 66.42 58.03 56.61 56.93 60.87 63.67 65.13 65.88 65.35 64.92 64.23 63.15 62.52 62.35 68.73 69.38 71.18 72.60 72.75 73.82 73.69 74.22 75.19 76.61 77.51 77.58 76.46 76.20 76.65 76.85 76.71 76.64 76.88 76.21 76.87 76.59 76.62 76.66 76.42 76.14 75.89 75.86 75.64 75.59 75.20 75.12 74.76 74.81
64.40 61.77 58.14 58.02 58.07 59.80 62.36 66.38 64.99 65.45 64.27 63.96 65.84 61.35 63.79 66.80 70.42 72.31 72.69 73.40 73.79 74.58 74.44 75.08 75.22 76.75 77.32 76.86 76.40 76.52 76.86 76.84 76.71 77.08 76.83 76.67 76.23 76.45 76.33 76.77 76.53 76.20 75.84 75.64 75.37 75.17 75.14 74.72 75.06
67.76 65.21 58.44 58.96 56.67 58.42 64.04 65.09 66.35 66.25 64.12 67.16 66.67 60.94 60.85 67.16 70.95 72.33 73.12 73.31 73.57 74.52 74.94 74.95 75.41 75.94 77.39 76.89 76.45 76.63 76.97 76.89 76.39 76.68 76.36 76.44 76.73 76.71 76.34 75.68 76.32 76.17 75.78 75.87 75.53 75.23 75.11 75.39 75.67
69.12 60.58 57.91 58.11 59.20 60.86 64.99 64.10 67.31 68.29 64.39 65.70 65.97 65.22 67.10 69.24 71.42 71.29 71.29 72.05 73.39 73.73 73.98 74.19 74.71 75.79 76.70 76.93 76.35 76.62 76.63 76.38 76.50 76.41 76.83 76.39 76.85 76.84 76.09 75.91 75.86 76.08 75.90 75.59 75.78 75.45 75.03 75.65 75.70
64.37 59.63 59.81 62.60 63.91 62.09 64.79 65.42 66.13 65.53 64.42 63.60 64.34 66.63 67.99 69.66 70.07 68.39 69.24 69.15 70.87 71.47 72.45 73.18 74.61 75.03 75.95 75.50 76.77 76.75 76.50 76.26 76.60 76.78 77.03 76.06 76.49 76.74 75.79 75.77 75.48 75.78 75.89 76.01 75.95 75.56 75.39 75.14 75.40
63.53 59.88 63.16 63.97 65.58 65.12 65.53 65.70 67.29 65.45 63.38 64.78 63.56 64.72 66.95 68.54 68.85 67.59 68.63 69.52 69.37 70.88 71.69 72.88 75.12 75.67 75.59 75.21 75.90 75.83 76.00 76.03 76.47 77.10 76.98 76.64 76.85 77.38 76.63 76.63 76.84 77.04 73.67 75.28 75.29 74.92 76.12 74.39 76.06
60.10 63.23 64.71 64.70 65.86 64.77 64.15 66.98 65.46 66.39 66.02 68.43 66.95 66.65 67.20 67.36 67.79 66.87 67.92 69.15 69.55 70.71 71.61 73.93 75.31 75.60 75.90 75.69 75.36 75.13 74.97 75.48 75.53 76.14 76.48 76.75 76.58 77.23 77.29 77.83 75.97 77.00 76.99 75.59 76.25 75.55 75.97 75.89 76.32
58.78 60.81 62.03 64.59 64.34 63.71 64.71 64.99 65.11 66.01 67.74 67.81 67.23 66.60 66.75 67.30 67.89 67.82 69.52 70.20 70.91 70.11 71.76 73.71 74.93 75.12 75.84 75.95 75.53 74.69 74.64 74.91 75.44 75.93 75.86 76.29 76.75 77.03 77.51 77.41 75.79 76.52 76.75 76.10 76.33 76.18 75.57 76.22 76.24
56.86 58.90 60.27 61.15 60.03 62.41 61.21 63.58 66.08 65.51 66.90 65.93 66.00 65.84 66.76 67.31 67.61 67.96 68.92 69.07 70.18 71.34 72.00 73.65 74.07 74.66 75.57 75.22 75.51 74.61 74.72 75.25 75.54 76.26 75.91 75.51 77.37 77.17 77.13 77.52 75.73 75.46 76.15 75.85 76.40 77.08 76.26 76.41 76.47
56.94 53.23 55.05 56.42 58.01 58.96 64.19 61.75 62.86 65.59 66.25 64.81 65.10 65.81 66.44 67.48 68.22 67.73 69.16 69.42 70.99 71.60 72.42 72.97 73.49 74.15 75.00 74.88 74.37 74.37 74.29 74.32 74.73 75.59 76.67 76.59 77.01 77.06 77.23 77.60 78.16 76.03 76.28 76.50 76.17 76.64 76.51 75.51 74.72
49.85 51.29 51.17 56.86 58.26 59.07 63.82 57.97 64.16 65.37 64.90 63.85 64.43 65.20 65.86 67.27 68.47 69.61 69.94 70.40 71.62 71.65 72.02 72.99 72.46 72.96 74.23 74.04 73.58 73.34 73.83 74.27 75.11 75.90 76.73 76.76 77.15 77.21 76.67 76.93 76.86 76.56 76.92 75.94 76.07 76.46 75.36 74.80 74.20
48.93 44.81 48.96 53.29 57.30 60.58 63.04 58.95 64.36 65.03 64.82 63.72 64.38 65.01 65.65 66.73 68.45 69.75 70.69 70.98 71.31 71.83 72.05 72.25 72.43 71.95 73.04 73.52 73.35 73.71 74.31 73.96 74.96 75.44 75.67 76.35 77.18 76.64 77.03 77.06 77.09 77.55 76.84 76.46 76.28 75.48 75.51 74.60 75.32
44.49 45.00 49.34 52.20 56.94 59.66 60.84 60.39 63.86 64.12 64.19 64.39 64.71 65.18 65.48 66.20 67.40 69.52 70.62 71.46 71.63 71.82 72.09 72.35 72.38 72.88 73.77 73.07 73.66 73.33 73.44 73.91 74.93 75.28 75.85 76.75 77.03 77.29 77.06 77.09 77.11 78.03 78.09 75.70 75.82 75.92 75.13 73.57 71.71
48.62 47.89 48.10 53.16 57.84 57.13 57.92 60.20 62.71 64.46 63.70 63.56 64.52 64.82 65.53 65.93 68.54 69.78 70.57 71.23 71.50 71.78 71.54 71.65 71.74 73.06 73.30 72.05 71.49 72.14 72.31 73.90 75.36 74.89 76.26 76.65 77.03 77.57 77.28 76.30 76.45 76.63 76.39 75.92 76.36 74.65 73.98 71.51 71.73
47.30 47.06 48.70 52.64 54.26 56.79 57.02 57.21 62.26 64.05 64.14 64.38 63.69 64.00 65.24 66.40 67.60 69.05 70.13 70.73 70.90 71.32 71.49 71.50 71.57 72.36 73.20 72.55 73.21 73.62 73.80 74.14 75.70 75.73 76.14 77.05 77.22 77.85 77.42 76.76 75.92 76.06 76.44 76.23 76.18 75.62 74.05 73.40 71.94
45.86 45.61 47.57 48.77 52.83 56.15 56.99 55.66 58.98 63.42 65.07 65.63 66.00 66.13 65.80 66.27 66.77 68.24 69.32 70.03 70.83 70.71 71.18 71.68 72.18 72.62 73.27 74.04 73.63 73.70 74.09 74.40 73.85 74.62 74.79 76.14 76.94 77.37 77.89 77.56 77.24 75.99 76.06 77.46 77.30 76.53 74.73 72.13 71.28
43.39 47.86 47.96 47.86 47.80 48.60 58.14 49.64 57.50 60.94 62.31 63.70 65.13 65.95 66.41 66.88 67.62 68.38 69.11 69.74 70.32 70.81 71.85 72.53 72.92 73.05 73.17 74.38 73.65 74.26 72.49 71.54 72.79 74.39 74.95 75.45 76.58 76.70 77.15 77.68 77.25 76.96 75.79 77.50 76.86 76.53 75.37 74.98 72.16
44.72 47.57 46.47 47.04 47.08 48.25 49.61 51.82 55.89 60.45 59.87 62.35 64.55 65.91 66.93 67.72 67.93 68.05 68.85 69.92 70.77 71.26 71.40 71.91 72.61 73.56 74.20 74.39 74.79 73.43 73.99 73.37 73.75 73.90 75.28 75.86 76.42 76.56 76.35 77.43 77.65 77.44 77.33 77.38 76.74 76.71 76.43 74.97 73.98
48.92 48.42 47.16 46.85 45.94 41.70 47.82 48.99 52.14 55.51 58.89 61.84 64.98 66.11 66.88 67.75 68.29 69.13 69.94 70.57 70.58 71.39 71.17 71.36 72.52 73.26 74.16 74.17 74.19 74.75 74.77 73.93 72.66 73.07 72.84 73.64 74.50 75.59 76.73 76.94 77.73 77.83 78.44 77.26 77.29 77.76 76.95 76.11 74.95
49.00 46.45 41.92 39.38 39.42 39.69 50.22 47.27 50.94 56.84 60.83 61.52 63.42 65.89 67.38 68.01 68.41 68.85 69.09 69.41 70.22 71.06 70.95 71.79 72.62 72.36 73.67 73.64 74.09 74.28 74.89 75.35 74.47 74.34 72.97 73.97 72.88 73.62 75.55 77.01 77.31 77.00 78.10 77.95 77.58 77.20 76.85 76.48 75.34
47.79 48.13 42.12 36.90 38.13 40.81 49.44 45.53 50.91 57.44 59.69 62.70 64.37 66.01 67.38 68.08 68.72 68.94 69.55 70.11 70.56 71.45 72.23 72.31 72.51 72.56 73.09 73.25 73.98 74.77 75.20 73.23 73.28 74.34 73.41 72.98 72.65 73.23 75.86 76.48 76.95 77.40 77.79 77.96 77.99 76.95 76.46 77.12 76.26
47.87 45.76 50.38 44.90 44.80 42.64 45.93 50.00 54.26 56.04 57.48 58.93 60.34 63.52 65.10 66.70 68.69 69.21 69.97 70.29 71.04 71.67 72.11 72.20 72.81 73.19 73.25 73.27 73.90 74.41 74.75 74.55 73.93 75.48 75.02 73.68 75.13 73.43 74.83 75.68 76.00 76.67 77.26 77.93 78.16 76.80 77.08 76.88 76.91
48.90 51.48 45.00 46.03 37.79 37.94 43.57 45.78 48.19 53.92 55.17 57.43 59.27 61.16 63.36 66.09 67.29 69.13 70.07 70.73 71.67 71.84 72.47 72.75 72.93 72.97 73.56 73.62 73.81 73.95 74.47 74.73 74.98 74.74 74.67 75.42 75.14 74.81 74.53 75.19 75.51 76.13 76.62 77.15 77.68 76.92 77.62 77.26 76.64
45.51 45.65 47.06 47.93 46.06 40.87 40.39 44.25 53.28 54.64 57.38 57.65 59.00 61.87 64.07 65.75 66.75 68.22 70.25 71.49 71.88 71.87 71.94 72.44 72.23 72.75 73.07 73.60 73.92 74.17 74.39 74.17 74.60 74.15 74.50 75.42 75.33 75.27 75.03 75.56 75.78 75.86 76.14 76.67 76.90 76.87 76.98 76.69 77.10
43.97 44.72 46.77 42.79 43.20 45.72 45.11 45.53 55.36 56.19 56.64 57.13 58.34 60.10 63.05 66.00 67.17 68.23 69.82 70.90 71.07 71.95 71.74 71.94 72.26 72.02 72.96 73.56 74.06 74.05 74.63 74.93 73.82 74.44 74.12 74.68 74.70 75.21 75.19 75.33 75.20 75.50 75.83 76.40 76.34 75.83 76.19 76.38 76.38

GFSSGP_sfc_wetblb_072.txt.gz
Wetbulb
74.76 74.77 74.81 72.31 62.59 61.58 57.88 59.10 63.19 63.28 62.92 66.72 66.32 64.27 64.25 66.11 63.22 60.61 72.91 74.48 74.89 74.45 75.72 76.71 77.72 77.41 77.11 77.29 77.34 77.30 77.38 77.46 77.04 76.67 76.64 76.88 77.07 76.83 76.64 75.85 75.77 76.29 75.81 74.61 74.73 75.22 75.56 75.19 75.31
75.24 74.27 73.88 66.99 61.15 56.59 58.91 61.66 60.99 63.75 65.58 67.27 67.29 66.77 65.01 64.10 68.24 69.11 71.02 74.55 75.41 75.44 76.25 76.20 77.55 77.75 77.27 77.47 77.46 77.59 77.48 77.55 77.06 77.17 76.75 77.08 76.82 76.72 75.97 75.64 76.40 76.23 75.53 74.92 74.42 74.92 75.14 76.08 75.47
74.97 73.49 67.25 64.69 61.88 59.30 58.95 63.10 64.52 66.39 66.93 64.94 66.26 68.38 67.24 65.58 69.11 70.47 73.96 74.84 75.56 74.61 76.03 76.66 77.64 77.67 77.22 77.15 77.21 77.28 77.20 77.20 76.96 76.76 76.55 76.43 76.24 76.36 76.03 76.33 75.66 76.21 75.94 75.80 75.25 74.75 75.17 75.58 75.66
72.97 71.61 69.93 61.55 58.82 62.00 61.56 64.70 65.28 65.41 66.55 67.75 67.75 65.20 68.27 70.06 70.44 72.49 74.74 75.18 75.29 75.29 75.65 76.70 77.42 77.36 77.11 77.46 77.28 77.05 77.22 76.95 76.87 76.58 76.78 76.65 76.49 76.46 76.69 76.88 76.30 76.22 75.86 75.67 75.19 75.22 74.97 74.73 74.48
72.95 69.96 62.35 60.92 59.65 62.37 65.09 67.26 67.83 64.46 66.29 67.16 67.85 64.41 64.61 69.38 72.06 73.98 74.65 74.77 74.42 74.32 75.61 76.47 77.99 77.57 77.39 77.27 76.50 76.31 76.24 76.40 76.29 76.58 76.60 76.68 76.53 76.83 76.74 76.74 76.33 75.50 75.75 75.50 75.00 74.91 75.08 75.03 75.08
67.19 68.47 60.44 57.37 57.73 63.64 66.62 67.64 68.86 67.57 67.54 67.39 66.45 65.94 65.01 70.96 71.53 73.41 74.61 74.36 73.61 74.04 74.67 75.95 77.15 77.87 77.50 76.46 76.91 76.89 77.20 77.10 76.95 76.99 76.88 76.73 76.79 76.93 76.54 76.64 76.19 75.42 75.47 75.53 75.36 74.97 74.89 75.03 75.09
65.21 64.74 60.77 59.78 58.98 62.07 65.33 68.87 67.82 67.56 67.33 66.76 69.23 65.31 65.99 68.62 71.77 73.77 74.20 73.96 73.12 73.85 74.51 75.65 76.80 77.24 76.88 76.54 76.85 76.69 77.01 77.18 76.93 76.68 77.04 76.70 76.78 76.69 76.87 76.61 76.33 76.11 75.89 75.75 75.50 74.97 74.46 75.08 75.02
68.95 66.67 60.92 61.06 59.15 61.65 66.60 67.17 69.16 68.95 67.15 70.76 70.26 64.86 63.71 69.40 71.40 73.41 73.39 72.95 73.12 73.50 74.49 74.92 76.62 77.40 76.80 76.48 76.95 77.05 76.90 76.93 77.27 77.09 76.77 77.06 77.10 76.85 76.67 76.76 76.50 76.20 75.89 75.69 75.61 75.28 75.11 75.56 76.03
70.75 63.79 60.80 61.25 60.43 63.80 66.68 64.80 67.84 71.06 68.29 68.21 68.98 68.21 70.12 70.47 71.70 72.11 71.50 71.60 72.41 72.85 73.97 74.55 75.22 77.11 76.73 76.24 77.38 76.80 77.27 77.07 77.13 76.82 76.50 77.49 76.94 77.06 77.08 76.33 76.22 76.22 75.85 75.89 75.39 75.13 75.22 75.92 76.14
65.63 62.91 61.75 65.37 66.16 65.30 66.97 67.94 68.68 67.48 66.99 66.63 67.23 69.49 70.83 71.13 70.02 70.58 70.11 69.85 70.97 71.90 72.85 73.55 74.60 76.26 76.03 75.32 76.86 77.09 76.61 76.79 77.20 77.68 77.82 77.09 77.57 77.29 76.59 76.55 75.91 75.99 76.11 75.94 75.58 75.49 75.21 75.89 75.31
64.47 60.70 65.15 65.96 67.23 65.96 67.66 67.72 69.62 67.54 65.91 67.79 66.54 67.73 69.91 70.38 70.15 70.51 70.50 70.98 71.39 72.45 72.44 72.96 74.89 76.10 75.63 76.40 75.97 76.12 76.33 76.52 77.11 77.79 77.66 77.19 76.97 76.96 76.76 76.33 75.93 76.27 76.08 76.27 76.03 76.08 76.26 75.78 75.56
60.31 63.85 66.22 66.81 67.71 65.77 66.13 69.20 67.63 68.39 68.70 70.94 69.85 69.63 69.83 70.03 70.25 70.58 70.69 71.35 71.61 71.97 72.08 73.36 75.33 75.91 76.10 75.99 75.48 75.61 75.46 75.93 75.70 76.97 78.18 77.50 76.60 77.42 76.93 76.78 76.16 77.54 78.25 76.19 77.81 76.44 76.89 76.74 76.83
59.98 62.39 64.99 67.12 67.68 66.45 66.96 66.74 66.71 67.56 70.19 71.15 70.35 69.31 69.37 70.07 70.17 70.96 71.41 71.88 71.74 70.91 71.82 73.62 75.31 76.15 76.35 76.40 75.48 75.32 75.56 75.71 76.19 76.91 77.60 78.06 77.86 76.95 77.54 77.59 77.43 78.40 77.65 76.56 76.67 76.55 76.83 76.90 76.38
57.15 59.54 62.05 64.35 65.27 65.57 64.55 66.13 67.24 68.50 70.40 69.82 69.28 68.83 69.63 69.82 70.03 70.47 70.76 70.95 71.12 71.67 71.97 73.92 74.86 76.00 76.35 76.10 76.72 75.85 76.50 77.00 76.75 77.01 77.42 78.23 78.98 78.57 76.87 76.49 77.42 76.99 77.41 76.85 76.74 76.72 76.74 76.79 76.74
56.72 54.83 57.35 59.47 63.84 62.95 65.90 62.95 64.93 69.34 69.85 68.74 68.69 68.88 69.27 69.96 70.43 70.07 70.80 70.97 71.64 72.22 72.67 73.68 74.40 75.18 76.21 76.20 76.36 75.82 76.39 76.51 76.57 77.24 78.49 78.06 78.58 78.85 77.40 76.68 77.13 76.98 77.47 77.85 76.70 76.40 77.24 74.81 75.40
51.68 53.51 52.22 57.86 62.59 63.61 65.22 60.18 66.68 69.27 68.87 67.95 68.24 68.48 68.75 69.63 70.36 70.91 71.40 71.67 72.11 72.26 72.65 73.84 73.61 73.78 75.59 75.80 75.63 75.41 76.01 76.02 76.48 77.00 77.62 78.23 78.67 78.55 77.72 76.87 77.03 78.76 78.04 76.86 75.78 75.11 74.62 73.40 74.02
50.43 47.50 50.06 58.09 63.14 63.51 64.13 61.73 67.37 69.13 68.59 67.71 68.18 68.20 68.66 69.18 70.21 71.12 71.62 71.84 71.87 72.67 73.35 73.28 73.74 73.00 74.82 75.79 75.26 75.62 76.50 76.01 76.67 77.18 77.63 78.38 78.93 79.22 78.52 77.18 76.27 77.43 76.94 75.35 74.50 74.57 75.33 73.30 73.32
47.29 47.03 50.26 55.31 60.69 63.21 62.95 62.92 66.63 67.80 68.08 67.80 68.18 68.12 68.23 68.67 69.58 71.22 71.79 72.24 72.18 73.04 73.69 73.58 73.33 73.68 75.08 74.65 74.90 74.78 75.29 75.81 76.56 76.75 77.17 78.31 78.76 78.93 79.19 77.80 77.27 76.90 75.45 74.96 75.42 75.53 75.67 74.67 73.73
50.29 49.41 49.35 54.40 61.35 61.43 61.39 63.19 65.57 66.89 67.45 67.30 67.97 68.09 68.04 68.88 70.91 71.82 72.19 72.32 71.79 72.63 73.02 73.17 73.05 74.05 73.77 73.03 72.40 73.31 73.67 75.02 75.99 77.09 77.84 78.87 78.80 78.90 78.80 77.35 76.80 77.10 76.10 76.22 76.67 76.15 75.06 72.67 74.78
49.65 49.34 49.85 54.15 59.31 60.41 60.88 60.98 64.61 67.06 66.69 68.01 68.13 68.17 68.02 69.02 70.14 70.96 71.73 72.30 71.59 72.06 72.88 73.10 73.40 74.06 74.40 72.87 73.52 74.14 74.67 75.44 76.15 76.98 78.08 78.79 78.70 79.22 78.39 78.86 78.03 77.76 75.78 76.20 76.00 76.45 73.78 72.86 73.66
48.92 48.35 49.59 50.91 56.10 59.40 59.79 59.07 60.65 64.95 67.22 67.80 68.92 69.67 69.37 68.80 69.27 70.12 71.00 71.80 72.23 71.62 72.62 73.17 73.97 74.27 74.61 75.28 73.91 75.28 76.09 76.17 75.62 76.12 76.39 77.54 78.48 78.75 78.80 78.03 78.26 78.15 78.79 75.25 76.29 76.29 75.65 71.83 73.48
46.66 50.32 49.32 50.45 51.69 51.27 58.87 52.39 59.25 61.70 64.43 66.17 67.57 68.54 69.08 69.46 70.18 70.87 70.98 71.52 72.05 72.26 73.20 73.89 74.16 74.39 74.35 75.64 75.90 76.81 73.88 72.87 73.54 75.19 75.71 76.38 78.21 78.24 78.51 78.42 77.53 77.94 78.17 76.57 76.13 76.25 76.70 76.04 70.95
48.31 50.92 49.80 49.07 49.78 52.00 55.42 54.33 57.31 62.04 61.87 64.58 66.94 68.19 69.22 69.94 70.12 70.28 71.27 72.08 72.80 73.26 73.00 73.84 74.40 75.12 75.87 76.10 76.66 74.99 75.41 73.34 74.19 74.47 77.06 78.09 78.42 78.39 77.87 78.64 78.72 78.72 77.16 77.17 76.96 76.07 76.56 76.20 74.45
51.29 49.43 49.36 49.28 47.77 44.64 51.36 52.77 54.77 58.62 62.01 64.87 67.08 68.39 69.40 70.06 70.52 71.24 71.89 72.77 72.98 73.58 73.17 73.37 74.34 75.70 75.46 75.42 74.66 76.39 77.00 76.19 74.35 75.00 74.25 74.82 75.56 76.56 78.13 78.10 78.79 78.55 77.46 77.47 77.40 78.43 77.04 77.10 76.31
50.56 47.35 43.93 41.78 41.36 41.03 50.23 50.30 54.40 59.31 63.82 64.72 66.19 68.12 69.53 70.62 71.11 71.15 71.33 71.51 72.52 72.93 73.15 73.11 75.64 75.95 75.78 74.81 74.68 75.59 76.35 76.82 76.42 76.21 74.77 76.02 73.95 74.34 76.50 78.55 78.47 77.93 79.06 78.25 78.31 78.04 77.67 76.59 76.48
49.70 49.64 44.24 40.35 40.91 42.64 48.09 46.61 51.86 59.54 61.44 64.57 65.34 67.14 69.16 70.04 71.08 71.51 72.12 72.24 72.36 72.82 73.31 73.77 75.58 75.99 75.65 75.56 76.56 77.39 77.84 75.02 75.37 76.16 75.15 74.83 74.32 74.42 76.62 77.57 78.03 78.49 78.32 78.64 79.04 78.22 76.96 78.20 76.76
50.77 47.31 52.16 47.31 49.17 46.26 46.88 49.22 55.32 58.58 59.70 62.02 62.62 64.80 66.72 69.13 70.46 71.17 72.25 72.76 72.89 72.93 74.14 74.77 76.10 76.72 76.78 75.04 77.31 77.39 77.64 77.10 75.80 78.68 77.27 75.77 77.06 75.67 76.34 76.70 77.27 77.52 78.00 78.45 78.99 77.30 77.85 78.20 78.22
51.60 53.96 47.13 48.42 42.09 41.65 46.45 47.70 47.99 54.26 57.89 60.63 61.57 62.16 64.79 67.01 69.53 70.84 71.79 72.66 73.40 73.71 73.85 74.36 75.62 76.32 76.01 75.90 76.21 75.86 76.46 76.94 77.41 76.89 76.93 77.46 76.91 77.04 76.72 76.43 76.18 76.65 77.56 78.13 78.84 77.71 78.33 78.49 77.74
49.36 48.52 50.42 50.73 48.87 44.54 43.40 47.00 54.73 55.63 58.05 59.12 60.86 62.52 63.67 64.63 66.95 69.86 71.67 72.90 73.71 74.10 74.28 74.19 74.33 74.83 75.00 76.00 76.57 77.24 76.21 76.35 76.51 75.85 76.44 77.06 77.48 77.51 77.57 76.96 76.58 76.08 76.76 77.87 78.16 78.11 77.56 77.63 78.46
49.33 49.78 50.34 46.47 46.40 48.96 48.29 48.01 56.64 56.88 58.26 60.55 61.11 62.44 63.52 65.04 67.14 69.09 71.39 72.99 73.39 73.69 73.91 74.04 74.41 74.28 74.89 76.59 77.48 76.63 77.19 77.69 75.78 76.17 76.61 77.24 77.20 77.94 77.75 77.78 77.34 76.86 76.65 77.75 77.91 77.55 76.79 77.35 77.53

GFSSGP_sfc_wetblb_075.txt.gz
Wetbulb
74.78 74.88 74.57 71.87 62.86 62.75 59.77 60.87 64.17 63.14 63.57 67.63 67.50 65.38 65.05 66.76 64.71 61.58 73.56 73.63 74.67 73.97 75.12 75.74 77.86 77.21 76.59 77.05 77.36 77.23 76.73 76.75 76.83 76.67 76.70 76.67 76.70 76.90 76.29 75.74 76.75 75.97 74.83 74.86 75.44 75.58 75.47 75.78 75.83
75.07 74.44 73.46 68.95 62.04 57.23 57.92 63.17 62.01 64.11 66.46 68.58 67.76 67.65 66.20 65.37 70.07 70.19 71.23 73.82 74.41 74.30 75.56 75.90 77.71 77.74 77.33 77.76 77.31 77.49 77.49 77.31 77.11 76.89 76.91 76.80 76.97 76.32 75.47 76.43 76.59 75.83 75.14 74.61 74.92 75.58 75.83 75.56 76.24
74.88 74.56 69.16 65.77 63.46 57.28 59.58 64.63 64.92 66.55 68.18 67.89 67.18 68.66 67.47 66.31 70.19 71.66 73.76 73.96 74.95 74.31 76.18 76.99 77.65 77.80 77.53 77.10 77.91 77.75 77.62 77.35 76.84 76.61 76.49 76.40 76.82 75.72 76.38 75.94 76.49 76.16 76.22 75.08 74.86 75.06 75.83 75.80 76.10
73.07 72.38 70.32 63.03 60.11 62.09 62.49 65.06 67.13 66.44 66.58 68.42 68.24 66.24 69.76 72.54 71.48 72.54 75.15 74.28 73.62 74.60 75.56 77.56 77.60 77.40 77.19 77.26 77.27 77.28 77.09 76.82 76.69 76.66 76.49 76.55 76.47 76.33 76.35 76.38 76.33 75.97 76.00 75.72 75.44 75.31 74.82 74.78 74.81
73.22 70.24 63.00 62.13 60.87 63.70 66.26 66.72 67.95 65.48 66.25 66.97 67.97 66.01 66.86 70.35 73.04 73.77 74.67 74.59 74.66 74.44 75.35 76.63 77.85 77.89 77.66 77.27 77.16 76.80 76.65 76.87 76.74 76.84 76.68 76.91 76.77 76.49 76.64 76.22 75.72 75.78 75.86 75.50 75.44 75.19 75.52 75.42 75.17
66.47 68.57 60.73 57.06 60.70 63.69 66.56 69.13 68.33 66.67 67.00 67.66 67.38 67.29 67.30 72.27 72.02 72.68 74.97 74.14 74.34 73.70 74.42 76.32 76.81 77.74 77.07 76.65 76.58 76.41 76.88 76.63 77.04 76.97 76.58 76.62 76.57 76.33 76.50 75.94 75.52 75.50 75.75 75.52 75.30 75.16 75.19 75.44 75.64
66.59 65.18 61.11 60.98 60.67 62.23 66.43 69.38 66.84 67.41 67.59 67.53 69.85 66.50 68.96 70.58 72.10 73.08 74.45 74.27 74.09 73.30 74.61 75.86 76.65 77.64 76.55 77.03 76.79 76.99 77.19 77.26 77.01 76.98 76.90 76.74 76.69 76.91 76.78 76.50 76.08 75.75 75.58 75.52 75.21 74.90 74.88 75.24 75.80
69.06 66.80 60.04 60.67 60.63 60.56 67.21 69.20 69.42 67.63 66.18 71.41 72.05 66.12 65.48 71.05 73.09 73.10 74.13 72.83 72.92 73.52 74.48 75.67 76.20 76.02 76.13 77.23 76.87 77.18 77.22 77.11 77.17 76.98 76.93 76.84 76.72 76.64 76.70 77.29 76.42 75.74 75.74 75.32 75.18 74.90 75.08 75.66 76.02
69.51 63.24 60.98 60.69 62.85 62.68 68.03 65.63 69.23 69.36 69.31 69.88 70.60 70.91 71.29 72.80 73.52 71.80 71.80 71.40 71.77 72.72 74.12 75.13 75.50 75.40 76.00 76.76 77.37 77.18 77.32 77.42 77.45 77.06 77.16 77.25 76.31 76.92 77.03 76.86 76.39 75.99 75.71 75.37 75.23 75.27 75.69 76.06 76.19
65.40 61.78 61.50 63.80 65.09 62.78 67.64 67.09 66.39 68.24 68.14 68.10 68.94 71.58 71.89 72.10 71.74 70.73 69.88 69.64 70.17 71.62 73.02 74.07 75.55 75.58 75.01 75.99 77.53 77.63 77.06 76.96 77.58 77.24 77.92 76.61 78.27 76.89 76.34 76.62 76.32 75.95 75.91 75.74 75.48 75.42 75.14 74.81 74.62
64.63 61.31 63.96 66.13 67.68 68.60 67.27 66.31 70.02 66.49 65.17 68.44 67.79 69.47 70.15 71.01 71.03 70.42 69.97 70.27 70.56 72.04 72.73 73.30 75.20 75.09 75.61 75.63 76.55 75.26 76.62 76.38 77.26 77.63 77.96 76.87 76.16 76.73 75.51 75.80 75.95 76.21 76.38 75.57 75.56 75.26 74.86 74.63 74.27
61.41 63.23 65.36 65.26 67.79 65.63 66.11 68.04 67.01 68.40 65.49 70.72 70.86 70.91 70.46 70.21 70.55 70.23 69.64 70.23 70.97 71.83 72.60 73.46 75.27 75.78 76.75 75.35 75.31 75.45 75.12 76.01 75.66 76.72 78.95 77.07 76.61 77.69 75.47 75.08 76.53 77.39 76.07 76.61 77.18 74.81 76.08 75.56 74.00
60.12 62.96 64.42 68.39 68.13 67.60 68.27 67.06 65.54 67.98 70.74 71.57 71.52 70.98 70.29 70.54 71.05 71.21 71.18 71.26 71.56 71.67 72.46 73.65 75.06 76.18 76.83 76.90 75.73 75.31 75.22 74.95 76.23 76.42 77.31 77.11 76.58 76.71 77.32 78.50 76.22 76.03 76.67 76.19 75.89 75.68 75.65 75.65 74.76
59.94 61.38 63.09 66.19 67.17 67.78 64.82 66.24 67.28 68.98 71.36 70.54 70.47 70.28 70.56 70.61 71.16 71.42 71.33 71.09 71.38 71.96 72.34 74.08 74.73 76.09 76.49 76.88 77.15 76.08 75.45 77.27 75.55 76.35 76.95 78.23 78.20 77.65 77.96 77.05 76.06 76.24 75.10 75.36 76.33 76.43 72.88 74.18 74.40
58.45 55.96 58.62 61.80 64.72 64.91 67.11 63.51 65.13 69.88 70.76 69.85 69.69 70.16 70.49 70.64 71.40 71.34 71.60 71.44 71.68 71.51 72.40 73.97 74.62 75.45 76.32 76.85 76.40 76.16 76.91 75.32 76.25 76.61 78.21 78.41 78.20 78.24 78.10 77.96 76.17 76.29 77.10 77.84 77.11 76.67 76.37 75.84 72.32
54.14 55.04 53.40 58.31 60.55 63.62 65.24 60.41 66.47 70.55 69.75 69.11 69.42 69.53 69.94 70.31 71.09 72.01 72.10 72.33 71.88 71.60 72.29 74.26 74.02 74.83 75.80 76.57 76.29 76.06 75.95 76.16 75.86 76.25 77.81 78.43 77.80 78.18 78.18 77.09 76.71 77.28 76.64 74.37 75.99 75.14 69.99 74.29 70.74
51.67 49.18 51.72 55.28 59.90 62.19 63.38 61.31 65.20 69.93 69.43 69.07 69.46 69.31 69.79 69.95 70.40 71.94 72.37 72.60 72.01 71.98 72.80 73.65 74.05 73.83 75.36 76.65 76.32 76.82 77.89 77.10 75.65 77.18 75.89 78.55 78.91 77.67 77.97 77.31 76.86 78.31 76.19 77.60 74.88 72.54 71.70 73.81 72.14
48.33 48.73 51.89 53.29 59.17 61.97 62.02 61.94 64.33 68.65 68.89 69.09 69.45 69.25 69.61 69.79 70.39 71.67 72.24 72.70 72.23 72.15 73.28 73.85 73.82 76.04 77.29 75.99 76.42 76.01 75.93 76.14 77.17 76.31 77.28 78.51 78.50 78.30 78.31 77.19 77.56 77.48 76.82 74.72 75.30 77.64 73.36 69.58 71.75
52.08 50.93 50.31 54.34 60.80 60.96 60.85 62.02 63.32 67.95 68.39 68.43 69.05 69.28 69.27 69.96 71.78 72.15 72.42 72.47 71.96 72.13 72.96 73.46 75.00 77.75 75.59 74.24 73.37 74.18 73.48 75.48 75.52 75.94 77.99 78.64 78.45 78.37 78.02 77.27 77.64 77.18 75.88 73.36 76.54 75.34 74.42 71.76 72.85
51.38 50.49 50.63 53.15 56.19 60.99 60.52 60.17 65.76 67.10 67.76 68.67 68.96 69.33 69.16 70.19 70.39 71.71 72.01 72.29 71.95 71.83 72.93 74.64 75.80 77.30 75.94 74.43 75.43 75.52 75.89 74.66 75.44 76.13 77.97 78.38 78.15 78.85 78.12 78.39 76.94 76.87 76.04 76.62 76.08 74.94 73.09 73.22 72.94
50.89 50.27 50.67 51.18 54.83 58.45 60.03 58.94 62.66 64.70 68.54 69.10 69.79 70.42 70.02 69.72 70.31 70.98 71.56 72.03 72.17 71.65 72.85 74.46 76.42 77.07 76.55 76.59 75.72 75.95 76.59 76.68 74.70 76.52 76.23 77.57 77.99 78.41 78.53 78.40 74.86 77.43 77.07 75.48 76.88 76.33 76.62 70.61 71.46
48.69 52.08 51.42 51.12 51.31 51.38 58.96 52.51 59.44 64.15 63.13 66.96 68.21 69.74 69.69 69.01 71.15 71.56 71.89 71.87 72.04 71.84 73.03 75.42 75.78 77.11 76.76 77.74 74.98 76.83 73.81 72.61 73.84 75.56 75.52 77.05 77.88 77.88 78.28 78.03 78.27 78.63 76.06 77.80 77.00 76.98 77.50 76.65 71.49
50.60 52.96 51.16 50.70 50.37 51.71 54.21 52.88 56.54 62.45 61.11 65.06 67.16 68.86 70.04 70.15 70.55 71.19 71.87 72.49 73.02 72.67 72.45 73.63 76.32 77.08 76.98 77.11 77.18 75.22 75.65 73.99 74.17 74.08 78.87 81.04 80.16 78.15 77.24 78.58 78.21 78.23 77.01 78.05 77.58 77.26 77.65 75.33 74.24
54.32 51.86 51.38 51.08 49.38 44.82 50.85 52.81 54.37 57.25 61.26 63.78 67.23 68.43 69.68 70.62 70.70 71.56 72.63 73.15 73.26 73.60 72.89 73.22 76.01 76.78 77.30 77.34 76.51 77.85 76.58 76.72 73.12 74.74 74.96 75.04 76.14 76.84 78.13 77.90 78.47 79.31 78.65 77.92 77.64 78.01 77.68 78.34 77.26
53.30 50.47 44.82 43.17 43.38 42.79 49.57 50.01 56.11 60.05 62.70 63.63 66.53 68.12 69.60 70.68 71.24 71.26 71.78 72.06 72.92 73.31 73.60 73.98 75.91 76.66 77.14 76.86 76.07 77.23 78.67 78.43 78.58 77.79 74.07 75.42 73.69 74.31 78.97 79.70 79.69 78.43 79.24 78.82 79.26 79.07 78.11 77.48 76.46
51.54 50.49 45.68 41.26 42.53 44.28 49.21 46.53 52.37 60.44 63.81 64.61 67.13 68.17 69.78 70.50 71.24 71.54 72.27 72.56 73.06 73.80 75.51 75.63 76.11 76.64 77.10 76.60 76.36 76.64 78.45 74.85 74.32 77.62 75.27 73.98 73.98 74.81 80.91 78.76 78.22 78.27 78.92 77.93 79.39 77.51 76.98 79.22 76.90
51.46 48.62 52.44 48.17 49.84 46.79 47.91 49.79 53.77 57.40 59.90 63.41 62.90 66.94 68.23 70.28 71.16 71.86 72.52 72.89 73.15 74.23 76.01 76.26 76.62 76.97 77.25 76.44 76.89 77.39 77.47 76.95 75.39 78.58 79.18 76.38 78.81 75.46 76.53 76.90 78.24 78.33 78.33 79.17 80.92 77.05 77.56 77.88 78.04
52.35 54.67 47.92 48.83 43.38 42.98 47.90 49.12 48.00 53.48 56.85 60.35 62.21 65.08 67.13 69.82 70.43 71.52 72.62 73.19 73.66 73.88 74.97 76.67 77.28 77.18 77.49 76.63 77.56 77.20 77.32 77.85 78.39 79.45 79.69 78.91 79.24 78.98 77.39 77.12 76.91 77.60 78.66 78.98 80.80 78.82 79.89 78.69 76.97
50.23 49.45 51.07 51.47 49.25 45.22 44.80 48.86 56.20 54.67 57.70 59.30 61.09 64.07 65.75 66.97 69.26 70.41 71.72 73.36 74.11 74.52 74.39 74.82 76.19 77.12 77.31 77.21 77.25 77.21 77.41 77.21 78.02 77.70 78.91 79.09 79.87 80.23 79.48 78.59 77.51 77.19 77.38 78.69 80.27 80.12 79.27 79.23 79.67
50.87 50.47 50.67 47.42 47.56 49.59 49.23 49.60 57.80 57.39 57.59 59.64 61.72 63.44 64.97 66.11 67.43 68.89 71.10 72.52 73.54 74.10 74.34 74.61 74.91 74.81 76.32 77.25 77.58 77.34 78.19 78.05 77.73 77.75 77.99 79.30 79.26 80.30 80.20 79.68 78.99 78.05 77.47 79.28 78.98 77.17 77.49 77.25 77.31

GFSSGP_sfc_wetblb_078.txt.gz
Wetbulb
74.03 73.83 74.11 71.88 62.65 62.59 58.53 59.52 64.22 62.57 63.12 66.58 67.07 66.04 63.58 65.28 63.60 59.99 71.65 73.66 73.95 73.84 74.73 75.25 76.84 77.04 77.01 77.36 77.21 77.75 77.01 77.52 76.96 76.64 76.45 76.78 76.86 76.48 76.26 76.55 76.35 75.03 75.48 75.84 75.89 76.03 75.83 76.17 76.69
73.99 73.09 73.05 68.86 60.12 55.83 56.54 63.80 61.54 63.94 65.81 68.11 67.94 67.28 66.17 64.48 68.92 68.88 70.74 73.70 73.97 73.88 74.35 74.99 77.45 77.90 77.47 77.46 78.06 77.78 76.95 76.76 76.61 77.15 77.34 77.05 76.67 75.75 76.56 76.57 75.89 75.25 75.06 75.31 76.29 76.17 76.08 76.14 76.47
74.21 74.12 66.90 64.32 61.33 55.16 57.45 63.37 63.80 66.32 68.29 67.12 66.96 69.09 67.37 65.49 69.36 70.19 72.99 73.77 74.18 74.12 75.30 76.05 78.29 78.24 77.62 77.48 77.98 77.77 77.54 77.31 77.02 76.95 76.89 77.06 75.83 76.57 76.30 76.40 76.44 76.32 75.23 75.23 75.72 76.36 76.08 76.05 76.18
72.32 71.37 69.21 61.44 59.01 61.45 62.55 65.29 65.91 65.89 67.82 68.76 67.69 65.47 68.81 71.53 70.19 72.33 73.69 73.91 73.65 74.41 75.44 76.94 78.50 78.10 78.00 77.46 77.61 77.59 76.96 76.97 77.12 76.74 76.76 76.71 76.30 76.93 76.63 76.55 76.22 76.17 75.94 75.89 75.72 75.39 75.45 75.03 75.33
72.24 69.25 61.96 61.47 60.08 63.98 65.80 67.24 66.66 64.76 66.35 67.18 68.09 64.74 65.96 70.29 72.97 73.33 73.49 73.75 73.35 73.56 74.93 76.22 78.26 78.19 78.01 77.94 77.65 77.38 77.19 77.14 77.40 77.27 77.07 76.87 76.91 76.72 76.53 76.31 76.14 76.06 75.84 75.81 75.48 75.50 75.61 75.45 75.14
67.29 68.38 60.55 58.91 60.96 64.19 66.06 67.72 66.88 65.98 67.15 67.60 66.91 65.55 66.45 71.51 71.90 73.06 73.69 73.52 73.71 73.04 73.68 75.31 77.70 77.87 77.41 76.65 76.38 76.65 77.03 76.94 77.46 77.43 77.17 77.45 76.99 76.85 76.39 75.78 75.75 75.97 75.72 75.81 75.59 75.84 75.70 75.34 75.17
65.11 64.21 60.29 60.19 61.27 63.17 65.93 69.09 66.43 66.64 66.47 66.65 69.13 64.68 67.88 69.59 72.45 73.26 73.32 73.59 72.59 72.88 74.46 75.58 76.03 76.67 77.31 77.19 77.36 77.39 76.99 77.16 77.47 76.92 76.84 76.92 76.71 77.02 76.74 76.61 76.20 75.83 75.83 75.69 75.42 75.53 75.70 75.48 75.39
66.68 63.80 59.40 61.28 59.83 59.64 67.32 68.02 68.96 65.52 65.66 70.76 71.23 65.07 64.80 69.26 72.44 73.59 73.64 71.71 71.38 73.31 74.42 75.60 76.56 75.50 76.25 76.11 77.10 77.05 77.07 77.27 77.14 76.92 77.15 77.01 77.16 77.11 76.81 77.55 77.11 76.31 75.71 75.54 75.38 75.44 76.23 76.32 75.77
68.89 60.45 57.45 60.30 60.16 61.32 67.60 66.57 68.16 68.11 67.02 68.97 70.07 69.75 70.35 71.56 72.68 72.39 72.37 70.54 72.06 72.21 73.63 73.56 74.36 75.13 76.41 76.57 76.48 77.11 77.25 77.42 77.36 76.93 77.20 77.31 75.75 76.30 76.07 77.36 76.73 76.03 75.88 75.69 75.36 75.56 75.50 75.31 75.75
64.06 60.31 61.18 63.37 64.02 61.10 64.06 66.71 63.54 66.25 67.01 67.68 69.24 70.95 71.45 71.61 71.35 70.49 68.91 68.75 69.77 71.50 73.10 73.67 73.36 73.89 75.75 75.23 76.65 77.06 76.45 76.17 76.84 76.89 76.27 74.23 74.90 78.27 75.31 76.55 77.09 76.36 76.17 75.91 75.84 74.30 72.92 74.19 73.59
64.21 59.97 61.90 62.01 63.53 65.18 64.93 65.89 69.56 66.26 65.11 67.40 67.15 68.73 70.22 70.35 70.53 70.18 68.76 69.41 70.47 71.59 72.61 73.31 74.30 75.44 74.71 75.67 76.62 76.85 75.57 77.14 77.42 77.92 76.98 76.99 76.36 74.59 74.89 76.17 75.15 75.53 76.23 74.42 74.72 73.25 72.65 73.47 74.01
60.74 63.33 64.32 63.25 64.05 65.10 65.52 67.37 65.53 66.87 67.03 69.54 70.26 70.44 70.39 69.42 69.61 69.14 68.26 68.92 70.97 71.66 72.55 72.37 75.00 74.60 76.78 76.20 76.64 74.32 75.38 76.62 75.43 77.23 80.06 74.40 77.14 72.54 72.83 74.23 76.79 75.66 74.58 74.08 73.46 72.94 73.74 74.72 73.37
60.30 61.81 62.97 64.71 64.68 67.94 65.86 63.23 64.34 64.21 69.30 70.04 70.79 70.21 69.69 69.70 69.84 69.95 69.76 69.99 71.29 71.68 72.20 73.74 75.49 72.84 72.53 79.00 75.16 74.31 75.27 75.25 76.44 76.70 74.50 73.24 74.76 75.43 75.51 76.34 73.06 73.68 74.10 72.97 72.16 73.84 73.36 73.04 73.81
60.63 60.67 61.08 64.03 65.30 67.90 64.85 64.49 65.60 66.47 70.07 70.18 69.78 68.94 69.68 69.50 69.95 70.13 69.86 69.92 70.70 71.79 72.41 74.29 74.67 77.15 78.35 77.51 79.24 76.53 77.29 74.91 76.44 76.48 76.09 75.51 75.76 77.16 77.97 76.26 74.08 73.09 74.55 74.00 73.09 72.15 73.57 73.97 74.77
58.06 56.62 58.18 61.15 63.51 64.90 67.31 63.03 63.80 67.69 69.87 68.91 68.77 68.93 69.46 69.88 69.70 70.02 70.67 70.55 71.29 72.12 73.21 73.79 74.35 75.94 77.60 77.12 79.27 79.55 72.33 76.16 76.25 77.79 77.34 75.11 74.98 78.39 76.47 76.54 76.80 74.10 74.27 77.14 76.20 73.34 73.37 73.26 70.83
53.86 54.67 52.43 57.68 60.23 63.80 64.77 59.89 65.61 68.79 68.00 67.83 68.70 68.69 69.09 69.61 70.20 71.13 71.77 71.35 71.70 72.02 73.10 73.94 73.26 74.72 76.31 78.57 78.50 78.17 73.85 78.65 75.54 75.80 76.84 73.97 76.06 79.66 77.96 77.62 77.56 77.83 73.98 75.84 75.45 72.93 71.95 73.35 69.95
52.27 48.21 51.13 54.06 59.88 60.03 61.73 60.87 66.70 66.05 66.58 67.47 67.93 68.58 68.66 68.87 70.36 71.71 71.89 72.16 71.92 72.58 73.08 73.63 74.60 74.15 75.37 77.73 77.08 77.75 76.42 77.24 78.74 74.67 73.86 79.32 79.34 79.53 79.47 75.68 78.31 79.83 76.63 76.91 76.05 70.71 70.09 74.09 72.38
48.26 48.35 49.86 51.91 56.83 58.47 57.64 61.33 63.30 62.89 62.76 64.63 67.84 68.25 68.26 68.32 69.51 71.95 71.81 72.45 71.61 72.50 73.43 74.52 74.79 75.54 76.50 76.24 78.15 77.14 77.60 75.06 74.55 75.40 76.08 78.68 79.01 79.24 79.52 77.89 78.94 78.93 76.09 75.64 73.40 73.38 74.37 70.68 71.39
51.80 50.46 49.48 52.23 56.39 56.69 57.09 60.11 60.78 61.29 60.83 61.90 65.86 67.74 68.18 68.40 70.73 71.62 72.22 72.49 71.71 71.67 72.99 74.79 75.07 75.64 75.28 74.78 74.16 75.08 74.64 76.85 75.06 75.63 78.68 79.58 79.01 79.10 79.21 78.33 79.02 78.96 71.82 73.85 77.05 77.29 76.09 73.81 70.25
52.34 50.02 49.84 52.31 54.32 56.01 59.17 60.16 59.90 59.99 59.70 60.94 63.64 67.43 68.10 69.13 69.13 71.22 71.96 72.18 71.62 71.17 72.83 73.88 74.87 75.54 74.89 75.46 75.42 76.54 76.60 76.41 78.26 78.53 78.90 78.63 79.54 79.61 77.97 75.79 78.38 78.94 76.43 78.01 76.00 73.42 72.80 74.39 73.36
51.16 49.69 49.83 50.19 53.17 54.68 57.24 58.74 57.28 59.69 63.06 65.30 67.09 69.31 69.09 69.74 68.78 70.46 70.91 71.57 71.70 71.32 72.83 73.08 75.34 75.55 75.42 76.75 75.72 77.20 77.21 77.03 76.84 76.61 77.13 78.66 79.22 79.47 76.38 78.41 78.91 79.18 78.51 76.26 78.02 77.28 74.73 73.39 72.68
48.40 52.45 51.31 50.81 50.03 47.36 54.05 47.94 58.81 60.58 61.76 65.24 66.30 65.47 68.20 68.78 70.45 70.38 70.45 71.59 71.45 71.82 73.67 73.96 75.30 75.88 75.09 77.13 75.03 76.18 74.04 74.09 75.52 71.58 76.64 77.66 79.32 79.00 79.36 79.25 78.91 79.92 77.75 76.01 76.55 77.22 72.42 73.56 72.38
50.34 53.25 51.64 50.55 49.38 49.34 50.28 50.64 54.97 63.04 60.93 60.15 61.40 64.76 67.98 68.07 70.40 70.55 71.11 71.59 72.18 72.60 73.05 74.11 74.47 75.91 74.72 74.97 76.59 75.17 75.01 74.41 77.03 76.21 76.44 77.54 80.11 80.09 77.75 78.96 79.75 79.89 78.50 77.95 77.69 78.03 76.42 73.37 74.46
54.08 51.86 51.69 51.00 48.68 44.01 48.49 49.12 51.90 59.35 58.53 57.41 62.78 66.53 67.80 68.26 69.48 71.16 72.43 72.54 72.59 72.97 72.86 74.03 73.82 74.69 74.90 74.68 75.27 75.78 74.34 76.61 75.54 76.55 75.08 76.17 76.69 78.44 79.82 78.77 79.57 79.68 77.09 78.64 78.53 79.03 78.32 78.46 77.65
53.03 49.56 43.67 42.71 42.65 41.86 48.58 47.56 52.26 59.88 64.51 62.54 61.82 67.11 69.00 68.97 69.45 70.71 71.10 71.88 72.22 72.15 72.05 73.01 73.51 73.29 74.32 74.26 73.94 76.48 74.84 75.35 77.56 76.47 75.69 74.20 75.06 75.35 77.31 80.16 79.36 78.71 79.12 78.82 79.64 79.51 79.12 78.96 77.80
50.89 50.03 44.87 39.79 40.97 43.42 48.98 45.84 49.26 56.71 59.41 67.39 68.60 67.83 69.80 70.37 68.91 70.72 71.81 72.37 72.56 73.11 72.46 72.61 73.59 73.29 74.09 74.78 73.26 74.40 76.96 74.63 75.31 77.58 74.56 76.42 74.52 75.24 77.28 77.90 78.96 79.49 79.20 78.97 78.90 78.39 78.23 78.68 77.93
50.57 48.45 52.21 47.36 48.60 45.18 47.25 50.06 52.74 55.66 58.03 63.31 64.08 65.70 67.03 65.31 70.52 70.93 72.39 72.71 73.27 73.30 73.42 72.89 73.70 73.93 74.34 73.95 74.65 73.52 76.31 76.69 74.20 77.92 79.24 75.27 77.52 77.49 77.67 78.09 78.82 78.85 79.03 78.74 79.19 77.34 77.66 78.75 78.45
51.70 53.71 47.29 48.52 42.10 41.86 46.00 49.09 48.81 53.05 55.34 61.92 63.77 62.16 64.01 64.26 67.63 71.36 71.74 72.82 73.53 73.98 74.63 74.45 74.63 74.37 74.79 74.20 74.64 74.01 73.57 75.56 76.07 74.20 78.18 77.64 79.72 79.75 78.07 78.12 77.98 78.40 79.40 79.43 79.12 77.45 78.50 78.18 77.21
50.25 49.12 50.07 50.03 48.19 43.23 42.83 46.87 56.04 55.43 56.51 57.48 63.98 63.65 63.31 65.15 66.61 70.00 72.22 72.99 73.77 74.39 74.55 75.04 74.58 74.93 75.28 75.50 74.45 74.19 73.98 74.31 74.34 75.66 76.19 77.09 77.62 79.72 79.53 79.47 78.57 78.17 77.94 79.14 78.91 78.07 77.91 77.16 77.55
51.45 49.78 49.94 45.96 45.65 48.46 48.29 48.44 58.47 58.26 56.63 57.70 59.79 64.83 65.48 65.42 66.34 65.64 71.00 73.17 73.58 73.92 74.28 75.02 75.08 75.46 75.75 76.02 75.28 74.45 74.64 74.31 73.95 73.10 77.05 77.48 78.63 80.37 81.05 78.89 79.51 77.89 77.56 77.94 78.05 77.20 75.72 77.29 77.03

GFSSGP_sfc_wetblb_081.txt.gz
Wetbulb
73.75 73.30 71.55 70.53 62.20 60.30 57.06 58.48 63.03 61.11 62.05 64.77 66.07 65.32 64.17 65.74 63.02 56.87 69.20 71.42 72.41 72.66 74.63 75.31 77.35 76.79 76.85 77.46 78.05 77.60 77.43 77.33 76.60 76.47 76.77 77.13 76.40 76.87 76.66 75.79 75.10 76.07 75.79 75.66 76.48 75.76 76.51 76.81 77.07
71.61 71.47 71.47 66.72 58.97 53.88 54.22 61.59 61.92 63.07 64.97 66.93 67.24 67.03 64.83 62.71 67.12 66.60 68.36 71.75 73.13 72.98 73.32 74.52 77.21 77.52 77.11 77.45 77.68 77.49 77.46 77.15 76.89 77.03 77.31 76.83 76.11 76.66 76.72 75.93 75.10 75.35 75.87 76.31 75.82 76.45 76.44 76.76 76.55
72.58 73.08 65.94 62.57 59.41 54.57 56.18 62.30 62.48 65.15 67.36 66.67 65.99 67.56 65.94 63.64 67.97 68.57 71.20 72.32 72.54 72.29 73.62 74.82 77.70 78.22 77.58 77.71 77.95 77.79 77.30 76.89 76.99 76.76 77.01 76.06 76.68 76.59 76.64 76.50 75.82 75.10 75.60 76.26 76.12 76.09 76.25 76.00 75.75
71.01 70.08 67.15 59.60 57.88 58.28 60.98 63.65 65.42 65.54 66.88 67.53 66.66 63.34 67.42 69.79 68.87 70.68 72.14 72.14 72.03 73.54 74.72 77.16 78.23 77.50 77.72 77.76 77.66 77.62 77.32 77.00 76.87 76.79 77.05 76.23 76.80 76.51 76.73 76.24 76.40 76.07 75.88 75.96 75.68 75.35 74.99 75.24 75.19
71.08 67.26 60.28 58.43 60.05 62.51 63.98 66.05 66.05 64.19 65.77 65.63 66.23 63.48 64.80 69.16 71.40 71.58 71.92 72.73 72.53 72.69 74.62 76.44 78.14 78.36 77.74 77.54 77.46 77.14 76.92 76.98 77.19 77.12 76.81 77.00 76.81 76.54 76.57 76.38 76.07 76.16 75.77 75.66 75.88 75.49 75.30 75.02 74.84
64.86 65.40 57.57 55.29 59.54 62.92 65.39 66.42 65.97 65.78 66.62 65.43 64.98 64.38 65.15 70.03 70.19 71.06 72.13 72.49 73.03 72.44 74.83 75.19 78.00 78.30 78.07 77.54 77.16 77.16 77.09 77.15 76.89 77.64 77.04 76.90 77.13 76.81 76.04 76.05 76.30 76.07 75.96 75.82 75.91 75.49 75.27 74.93 75.21
62.92 61.40 58.30 57.59 59.27 61.45 63.52 66.63 64.75 65.66 64.91 64.58 67.15 62.65 66.00 68.18 70.40 71.28 71.63 72.16 72.27 72.98 73.43 74.86 75.43 76.11 76.44 76.84 76.58 76.81 77.27 77.16 77.10 77.25 77.15 76.65 76.78 76.75 76.29 75.99 75.91 76.04 75.99 75.79 75.38 75.21 75.29 75.07 74.80
65.94 62.91 58.89 57.60 58.04 56.80 63.65 63.76 67.12 66.49 65.44 68.93 68.81 62.72 62.82 68.16 71.08 71.33 71.67 71.01 71.50 72.90 73.14 73.79 73.35 74.03 74.46 75.04 77.53 77.21 77.10 77.31 76.92 76.65 76.90 76.97 77.01 76.82 76.65 77.30 76.86 75.88 75.87 75.54 75.49 75.32 76.09 75.31 75.53
67.15 57.23 56.17 57.96 59.12 57.43 62.82 63.68 67.92 69.13 67.10 68.07 68.96 67.31 68.77 70.70 70.89 70.20 68.83 69.79 71.20 72.45 72.79 73.42 72.57 73.27 73.47 74.29 75.89 77.10 77.32 77.24 77.09 76.83 77.13 77.17 73.36 74.16 74.77 76.54 77.15 76.10 75.87 75.46 75.74 75.99 75.74 75.04 74.38
62.33 57.15 59.00 63.26 63.40 60.48 64.62 65.09 65.12 65.83 65.33 66.58 66.89 69.05 70.16 70.74 69.65 67.58 67.24 67.91 69.22 70.11 71.38 72.85 71.84 72.85 73.68 75.16 74.26 74.07 75.25 74.74 74.87 74.66 72.57 68.13 71.97 73.61 74.55 75.91 77.18 76.24 75.96 75.82 76.04 74.65 74.53 68.62 69.95
61.53 57.28 62.52 62.59 63.76 63.50 62.50 63.48 65.50 65.30 63.15 66.76 64.91 66.66 68.58 68.83 68.93 68.28 68.04 67.97 68.44 70.11 70.65 71.51 71.64 73.38 72.13 73.11 73.96 74.17 73.79 73.83 74.31 73.47 71.96 71.49 73.54 71.29 72.99 72.59 73.32 72.97 75.47 72.73 73.30 71.88 70.81 70.53 70.17
57.99 61.86 62.78 62.66 63.93 64.26 62.91 65.44 65.14 65.77 66.03 68.62 68.03 68.15 68.17 67.70 68.46 68.06 67.08 67.37 68.54 70.00 70.26 70.96 71.85 72.21 71.69 73.36 74.03 73.94 73.28 74.13 73.64 73.78 73.48 73.56 72.06 67.25 70.27 71.35 72.82 73.17 72.47 70.56 67.75 70.01 71.59 72.17 73.13
58.74 59.64 63.25 63.64 64.39 65.25 65.37 64.83 63.33 62.13 66.59 69.23 69.13 68.13 67.78 67.71 68.30 67.30 67.80 67.95 67.76 69.51 70.99 71.61 72.47 71.55 71.96 73.02 73.78 73.28 72.91 74.21 72.15 73.07 71.28 72.20 71.97 70.16 71.49 71.75 71.92 71.34 71.78 71.72 70.71 71.11 72.14 72.94 71.99
59.20 59.85 60.39 63.48 63.82 65.73 64.08 64.47 64.28 64.65 67.37 68.58 68.13 67.35 67.85 67.53 68.27 66.56 67.48 67.15 67.37 70.43 71.04 71.19 70.98 70.65 70.82 74.20 73.91 72.95 72.92 73.64 73.53 72.30 72.53 73.17 71.75 72.53 72.85 73.02 71.51 71.33 68.74 71.12 71.65 70.26 71.37 71.13 71.86
55.19 52.20 54.17 58.95 62.46 64.65 65.67 61.09 60.63 64.83 67.30 67.39 67.24 67.46 67.61 67.70 68.61 66.22 67.40 67.15 67.40 70.93 71.86 71.58 72.33 72.99 72.31 72.88 73.44 72.32 73.57 75.66 74.15 74.02 73.08 72.91 71.38 73.45 72.88 71.64 70.86 71.39 70.66 71.27 71.84 70.15 70.85 68.66 70.68
51.57 49.03 45.83 53.28 57.39 62.60 64.57 57.77 64.24 66.35 66.06 66.09 66.63 67.46 67.46 67.45 68.41 67.49 68.13 68.15 68.16 70.65 70.12 71.38 73.55 72.64 71.50 72.65 72.49 71.82 72.79 73.77 74.06 74.49 72.87 71.47 69.87 73.84 74.47 74.16 72.35 73.50 72.91 72.21 71.33 70.19 69.39 69.67 68.37
48.95 41.21 45.14 49.45 54.83 57.34 60.39 59.37 63.81 66.97 66.32 66.02 65.83 66.59 67.03 67.18 67.02 67.89 68.49 68.75 68.79 70.31 69.92 69.48 71.06 71.79 71.35 72.81 71.96 72.96 73.48 72.71 73.46 74.11 73.38 72.11 74.26 75.57 75.67 74.58 73.40 74.44 72.05 72.65 71.64 68.41 68.87 68.89 68.79
43.96 42.61 43.88 46.06 52.06 55.11 55.22 60.82 63.75 65.17 65.48 64.98 65.18 66.39 66.61 66.26 67.51 68.47 68.27 68.96 69.19 70.67 70.29 70.03 71.57 71.54 71.53 71.93 71.39 72.88 71.27 72.89 73.22 72.75 72.28 75.14 74.97 74.88 74.62 74.17 73.74 73.24 71.83 72.03 71.31 69.00 69.70 67.68 69.44
49.91 48.24 45.83 48.07 51.23 52.36 54.28 60.63 62.61 64.17 61.84 63.46 65.02 65.36 65.66 66.36 67.65 69.42 69.19 69.07 69.30 70.42 69.95 70.02 70.41 71.29 72.98 71.17 70.89 70.68 70.48 71.62 70.73 73.27 73.53 75.29 75.63 74.56 74.12 74.19 73.37 73.15 69.20 69.99 72.38 72.09 70.70 70.21 68.25
48.80 47.24 46.89 48.80 51.32 50.28 57.43 58.74 60.47 61.43 60.00 63.09 62.13 62.17 64.31 66.44 67.31 69.17 68.92 68.42 68.70 68.91 70.38 69.93 71.39 71.53 72.41 71.07 71.19 71.10 70.61 72.16 72.05 73.92 75.49 75.02 75.33 74.71 74.34 71.94 73.48 72.41 71.28 71.74 69.94 70.19 68.96 69.51 68.11
47.44 45.22 46.12 46.30 49.69 49.33 56.23 55.02 54.71 59.11 61.00 61.29 64.22 64.08 63.96 65.58 66.47 67.94 68.20 67.80 68.23 68.32 69.67 70.90 71.71 71.47 72.21 71.09 71.16 71.58 72.21 71.27 72.30 71.90 73.75 73.63 75.75 75.40 73.83 74.02 73.49 73.35 73.36 71.13 72.11 71.12 69.84 67.51 68.86
41.99 49.97 49.97 48.55 45.13 39.97 47.40 44.51 54.06 56.76 58.56 60.45 62.91 63.76 64.23 64.59 67.18 67.94 67.85 67.70 67.28 68.84 70.08 71.57 72.09 71.70 71.39 72.06 69.77 69.50 69.88 68.98 71.05 72.76 72.68 74.15 74.46 74.74 74.99 73.82 74.14 74.09 73.27 71.25 71.52 73.27 70.17 68.75 67.33
46.98 51.17 48.84 48.02 44.22 40.78 44.81 39.58 51.85 56.82 56.63 59.11 60.99 59.69 62.94 64.83 67.45 67.50 67.99 68.64 68.34 69.82 69.62 71.63 72.53 71.83 71.35 72.13 70.10 70.03 69.54 70.28 71.10 69.94 71.84 73.09 74.01 75.21 75.39 74.64 74.34 74.19 73.20 72.82 72.78 72.61 71.49 70.45 69.29
52.17 48.68 47.17 45.43 41.81 35.42 41.58 40.07 47.40 54.39 56.55 58.06 62.77 62.96 64.48 66.92 67.94 68.08 68.96 69.43 68.81 70.20 70.15 70.26 72.24 70.90 70.67 70.97 72.04 70.11 69.33 70.06 71.65 70.60 71.93 72.87 73.84 74.67 73.85 74.42 74.87 75.08 73.93 73.06 73.02 72.88 72.38 72.78 72.42
48.24 43.23 35.83 34.23 35.33 35.35 41.47 40.69 43.03 59.29 61.52 60.82 62.58 64.74 65.39 66.33 67.84 67.99 67.93 68.45 68.69 68.70 70.07 69.99 71.33 70.80 70.40 70.12 70.38 72.55 69.77 69.89 71.36 71.82 72.70 71.78 71.88 72.15 73.57 74.44 74.41 74.05 73.15 73.57 74.02 73.76 73.88 73.49 72.70
44.91 42.33 37.12 31.27 33.02 37.71 42.79 37.51 43.65 53.02 64.09 63.46 63.67 64.45 63.33 66.38 68.34 68.26 68.50 68.71 69.23 68.92 69.96 70.46 69.88 71.28 70.87 69.88 69.58 70.79 71.53 70.65 71.30 72.85 71.71 72.46 72.43 72.37 72.69 75.27 75.09 74.29 74.77 74.07 74.74 73.24 74.05 73.93 73.10
44.97 41.81 46.53 39.49 41.65 39.40 41.90 44.27 48.61 50.80 53.44 62.12 60.97 62.79 64.45 67.01 66.58 68.63 69.18 69.29 69.43 69.41 69.23 70.50 69.99 70.17 71.01 70.91 69.27 70.14 72.83 70.04 70.65 71.24 72.15 71.76 71.65 72.87 72.88 74.93 75.14 74.89 74.29 74.24 74.47 73.34 73.48 73.71 73.37
44.96 47.81 39.99 40.34 32.76 33.05 40.05 41.84 42.92 46.56 49.07 60.58 62.51 63.19 64.97 66.64 66.69 67.55 66.97 69.65 70.05 70.45 69.98 70.55 70.88 70.14 71.36 71.32 70.67 69.99 71.03 72.71 71.75 70.96 73.02 72.37 70.92 72.27 73.71 73.99 75.37 74.34 74.51 73.79 74.45 73.34 73.74 73.41 72.71
44.03 43.97 42.81 42.81 41.46 37.10 34.35 40.12 48.23 53.41 51.72 57.18 61.68 63.26 65.06 65.33 66.64 67.90 67.85 67.43 66.14 70.89 70.61 70.00 71.04 70.75 71.04 70.91 71.70 69.94 69.76 72.37 72.11 71.41 69.77 73.10 72.66 74.74 75.08 74.67 74.42 74.44 74.34 74.73 74.09 72.86 73.36 73.84 73.36
44.68 42.90 43.01 39.66 38.08 40.78 39.85 42.53 54.01 55.06 57.37 55.90 61.28 63.04 64.27 65.19 65.41 65.42 66.20 66.07 65.46 65.06 71.20 70.16 71.55 71.29 71.54 71.55 71.64 71.49 69.89 70.94 72.14 70.87 70.72 73.32 72.20 73.07 74.64 74.94 74.96 74.28 73.42 73.64 74.00 73.55 73.38 72.77 73.33

GFSSGP_sfc_wetblb_084.txt.gz
Wetbulb
74.35 73.32 71.60 70.05 62.01 59.52 55.23 58.05 62.91 60.69 61.75 64.42 63.81 63.66 62.77 64.84 62.08 54.87 67.52 70.40 71.36 70.69 74.34 76.02 77.53 77.02 77.18 77.96 77.72 77.33 77.33 76.61 76.37 76.88 77.05 76.34 76.63 76.43 74.98 75.45 75.95 75.40 75.97 76.25 75.98 76.39 76.59 76.87 77.25
72.34 71.72 70.48 66.94 58.60 52.89 54.42 61.06 60.08 61.93 63.97 65.87 66.78 66.41 64.47 62.15 66.24 65.46 67.69 71.57 72.23 73.07 73.84 75.16 77.35 77.59 77.35 77.55 77.54 77.37 77.17 76.68 76.56 77.02 76.85 76.34 76.37 76.46 75.49 75.07 75.10 75.99 75.71 76.06 75.82 76.39 76.57 76.86 76.45
71.11 71.28 65.71 62.44 57.68 53.11 55.65 60.89 61.83 64.49 67.24 66.12 64.83 67.39 64.78 62.21 66.11 66.39 70.47 72.40 72.68 72.63 73.64 74.42 77.57 77.98 76.71 76.97 77.39 77.46 77.09 76.58 76.97 76.88 76.08 76.47 76.34 76.53 75.63 74.94 75.43 76.18 75.92 76.05 76.25 76.22 75.91 76.02 75.95
70.02 69.21 66.76 59.13 54.34 58.51 59.38 63.49 64.52 64.84 65.33 66.50 65.61 62.03 66.57 69.00 67.81 69.38 72.03 72.01 71.91 72.60 73.87 76.44 77.19 77.14 77.63 77.54 77.19 77.23 77.13 77.17 77.06 76.94 75.95 76.61 76.46 76.78 76.35 76.12 75.41 75.68 75.99 75.77 75.40 75.92 75.65 75.26 75.10
70.15 66.73 59.81 57.87 58.62 61.58 62.51 65.05 65.64 64.16 64.40 64.85 65.76 62.46 64.12 68.23 70.64 71.20 70.92 72.49 72.25 72.92 74.77 76.33 78.25 78.25 77.95 77.62 77.54 77.38 77.14 76.91 76.99 76.74 76.56 77.00 76.56 76.43 76.45 76.15 75.96 75.52 75.41 75.52 75.30 75.30 75.27 74.88 75.52
64.91 64.61 57.54 54.73 57.70 61.89 64.08 65.47 66.10 64.24 65.29 65.03 63.98 63.40 63.70 69.38 69.33 70.22 72.29 72.14 72.96 73.68 74.96 75.66 77.94 78.18 77.95 77.40 77.35 77.19 77.03 77.16 77.18 77.17 77.11 76.90 76.57 76.23 76.59 76.15 76.27 75.99 75.77 75.68 75.38 75.40 75.23 74.89 75.40
62.39 60.30 57.93 56.89 57.09 58.51 61.31 65.66 64.38 64.23 64.30 63.91 66.61 61.82 65.01 67.24 69.72 71.83 71.91 71.78 72.72 74.79 74.01 74.64 75.04 76.58 77.50 77.11 77.35 77.31 77.19 77.19 77.32 77.16 76.89 76.82 76.50 76.18 75.99 76.16 75.99 75.82 75.68 75.49 75.19 74.96 75.23 75.45 75.48
64.79 61.51 57.77 58.40 56.69 56.81 61.39 63.50 67.05 64.89 64.18 68.59 68.17 61.49 61.91 67.25 70.00 71.41 71.30 70.67 72.58 73.07 74.12 73.88 73.34 73.11 73.43 74.09 77.19 77.38 77.21 77.34 77.35 77.24 76.81 77.07 76.89 76.65 76.26 76.82 76.64 75.74 75.32 75.29 75.35 75.02 75.45 75.56 76.46
67.45 57.66 54.58 58.22 58.46 58.58 62.17 62.49 66.99 69.16 65.85 67.24 68.05 66.82 67.64 69.46 70.47 69.55 68.90 69.94 70.68 72.18 72.80 72.42 72.35 72.87 73.48 74.32 75.43 77.08 77.43 77.27 77.03 76.57 76.61 75.74 73.47 73.59 74.34 75.93 76.21 75.68 75.24 75.18 75.46 75.60 75.53 75.59 75.79
61.45 54.32 57.54 63.10 63.45 61.26 62.37 61.35 63.97 64.85 64.96 64.56 66.55 68.17 69.24 69.22 68.65 67.25 67.80 68.41 69.06 70.66 71.75 71.62 71.98 72.16 73.20 75.30 74.21 73.93 75.11 74.75 74.27 74.06 72.45 69.87 71.69 73.11 74.33 75.40 76.13 75.71 75.38 75.24 74.38 74.27 73.86 70.16 70.74
59.04 56.76 63.26 63.67 63.93 64.20 62.57 63.79 64.92 64.34 62.23 64.93 64.62 66.04 67.85 68.06 67.37 66.90 68.06 68.65 69.33 70.77 71.59 71.37 71.54 72.53 72.40 73.58 73.25 73.29 73.64 73.79 73.72 73.01 67.56 70.68 71.67 70.87 72.92 73.28 73.36 72.92 74.52 72.23 71.19 71.08 69.99 70.64 70.04
54.86 60.31 63.01 64.34 65.07 63.39 63.08 65.26 63.55 65.79 65.38 67.68 68.10 67.90 68.12 67.20 66.92 67.04 67.34 68.17 69.31 70.07 71.27 70.76 71.30 72.23 70.62 72.42 73.22 73.06 73.10 72.84 72.83 72.63 71.43 72.21 70.31 68.19 69.94 72.12 72.55 72.02 71.26 69.07 68.38 69.31 70.98 70.65 71.42
56.33 58.66 61.84 64.28 64.29 64.96 64.90 64.72 65.09 64.25 67.32 69.19 68.84 68.39 67.77 67.57 66.69 67.83 68.47 68.61 69.26 68.81 70.07 70.10 71.25 71.29 71.42 72.40 72.65 72.24 71.86 73.01 72.62 72.00 72.51 71.53 71.06 70.39 70.70 71.22 71.14 71.57 70.90 70.35 70.13 69.91 70.47 71.24 71.52
57.92 57.90 58.92 63.78 64.30 64.87 63.74 64.37 62.55 64.39 68.01 67.24 67.60 67.22 67.30 67.70 66.69 67.24 66.92 67.35 68.49 68.81 69.19 70.22 71.03 71.32 71.88 72.32 72.52 72.00 71.80 72.56 72.20 70.74 70.66 72.53 71.10 70.72 67.79 70.59 70.77 70.09 69.19 69.52 70.92 69.42 69.92 70.93 70.96
57.97 51.33 51.75 61.46 64.34 63.81 65.85 61.54 59.99 65.99 67.10 65.67 66.48 66.29 67.08 67.48 67.93 66.09 67.00 66.11 68.66 69.18 70.36 70.45 70.56 70.33 70.99 71.84 72.98 71.47 71.71 72.43 71.78 71.61 71.24 72.04 72.39 70.91 71.11 69.98 70.32 69.75 68.04 69.27 70.21 69.52 69.83 69.12 69.27
50.87 46.80 43.01 54.40 62.93 64.41 63.51 56.72 63.81 66.10 67.07 64.81 65.52 66.30 66.84 66.65 65.95 66.75 67.02 67.22 69.52 69.95 69.65 70.44 71.82 71.08 70.98 71.07 71.76 70.28 72.61 73.27 72.84 72.77 72.59 71.52 71.58 72.44 71.24 70.61 69.93 70.63 69.69 69.61 69.89 68.90 68.93 67.75 67.20
45.99 42.24 43.63 47.02 63.27 62.95 61.76 58.05 62.54 66.72 66.68 64.34 64.62 65.90 66.17 66.18 65.51 66.69 67.24 68.12 70.07 70.16 70.01 70.52 71.31 70.26 71.19 70.58 71.71 71.62 72.36 73.02 73.40 72.36 71.61 68.91 72.97 74.69 73.01 72.87 70.61 71.73 70.12 70.10 70.11 68.94 67.70 67.32 66.89
41.93 41.15 41.26 43.38 48.17 60.84 59.42 59.92 61.59 64.35 65.65 65.25 65.10 65.72 65.94 65.78 66.13 66.87 67.30 68.64 70.34 70.13 70.33 69.67 70.96 69.63 71.59 70.14 70.44 71.77 70.62 72.12 72.74 72.00 72.25 73.31 74.36 74.21 74.12 72.15 72.00 72.57 70.78 70.73 69.79 67.63 68.33 68.18 67.33
47.02 44.83 44.57 48.45 50.82 48.09 57.60 60.02 61.25 61.67 64.45 62.81 64.20 64.96 65.25 66.39 66.39 67.05 67.42 68.43 69.59 69.68 68.89 69.61 69.46 68.63 70.62 69.26 68.66 70.02 68.71 70.40 70.57 71.45 72.85 74.19 73.79 74.06 73.46 72.83 72.75 71.22 69.55 70.33 70.06 69.46 67.82 68.41 66.86
47.56 45.30 44.52 47.24 50.25 46.59 58.18 59.14 62.08 62.38 63.69 61.50 61.61 64.33 65.28 66.15 66.44 66.38 67.31 68.13 68.88 68.55 68.56 69.42 69.73 68.91 70.43 69.89 69.50 69.80 69.92 71.04 70.46 72.30 72.52 74.34 74.54 73.47 72.69 72.56 70.65 69.88 68.40 70.09 69.10 68.83 67.93 68.33 66.93
45.32 42.48 44.79 44.62 47.90 56.55 57.82 56.59 59.61 62.41 63.56 64.30 63.99 65.79 66.18 65.78 65.82 65.68 66.49 66.72 68.68 68.29 68.28 69.32 69.74 69.92 70.35 69.84 70.07 70.22 70.73 70.49 70.13 70.86 72.91 73.49 74.37 73.77 71.69 73.00 72.41 72.34 71.40 70.01 70.07 69.83 68.53 65.96 67.84
40.69 48.25 48.22 47.06 43.11 38.50 51.15 40.02 53.16 57.89 57.91 60.25 64.04 64.37 64.71 64.83 66.16 66.82 66.23 66.18 67.74 68.73 69.33 70.04 70.29 70.42 70.70 69.50 69.33 68.70 68.89 67.35 70.33 70.47 71.96 72.43 74.44 73.40 73.21 72.80 72.91 72.36 72.16 70.45 70.86 71.08 68.49 67.60 66.36
46.59 50.05 47.12 46.29 41.69 39.10 40.73 39.35 46.78 55.55 54.36 56.70 60.35 63.14 64.34 65.89 66.37 66.17 66.58 66.52 67.79 69.11 69.42 70.64 70.38 70.53 70.97 69.96 69.10 68.70 67.95 68.25 70.43 71.13 71.33 72.05 72.73 73.10 73.56 72.50 73.06 72.63 71.44 70.97 71.50 71.82 70.52 69.37 68.09
50.75 46.59 44.50 41.24 39.02 34.60 38.25 38.34 41.79 52.57 55.54 57.73 59.51 62.56 64.48 65.52 66.38 66.90 67.91 67.22 67.55 68.50 69.92 70.68 69.87 70.03 70.97 70.35 68.13 68.30 67.87 68.29 69.18 68.81 70.00 71.01 71.90 72.98 73.26 73.47 72.94 72.85 72.29 71.74 71.44 71.59 70.94 71.78 71.16
46.19 39.92 33.79 33.38 33.11 33.14 36.95 37.65 39.98 55.51 58.63 59.74 59.52 61.00 64.02 66.04 66.65 66.45 66.90 66.40 66.51 67.31 68.49 70.72 69.93 69.18 70.11 70.67 69.55 68.25 68.55 68.31 69.61 68.81 70.09 70.44 71.16 72.04 72.00 72.69 73.27 73.10 72.61 72.45 72.51 72.41 72.47 71.97 71.14
41.43 40.29 34.89 30.41 30.88 34.34 39.47 35.95 41.86 50.08 60.13 61.44 62.66 63.06 62.00 63.35 65.64 66.49 67.59 67.26 66.53 67.83 67.83 69.97 69.86 69.07 69.49 70.08 70.11 70.33 68.84 68.68 70.05 70.39 71.02 72.00 71.83 71.66 72.52 72.22 73.15 73.07 71.68 72.22 72.89 72.30 72.30 72.76 72.12
42.58 37.84 42.07 36.58 35.43 34.35 37.36 42.58 48.05 55.13 54.72 59.34 60.80 62.67 63.23 65.38 66.18 67.09 68.09 67.97 67.51 67.72 67.94 68.32 70.17 69.54 69.42 69.34 69.18 69.10 70.85 68.70 69.19 70.93 71.00 71.83 71.90 71.41 71.88 73.41 73.34 72.90 72.76 72.33 72.93 71.76 71.89 72.55 72.28
40.70 42.74 37.92 35.79 31.05 29.85 36.31 38.06 40.26 49.22 52.65 56.30 59.60 61.67 64.25 64.47 66.34 67.47 67.83 67.77 68.22 68.10 68.94 68.72 69.62 70.02 69.79 69.28 68.90 68.98 69.64 70.93 68.59 69.84 70.66 70.32 71.01 70.82 71.20 72.94 74.06 73.19 72.93 72.84 72.90 71.70 72.15 72.16 71.42
38.98 37.50 36.78 37.84 36.20 32.57 31.99 36.82 50.01 50.77 54.62 54.87 57.85 61.21 63.47 64.12 66.18 67.39 67.93 68.50 68.46 68.54 68.86 69.35 68.80 69.46 70.01 70.06 69.13 68.51 68.88 70.16 70.39 69.55 69.84 71.87 69.72 70.88 72.21 71.91 73.88 73.41 73.04 72.34 71.96 72.25 71.74 71.89 71.46
41.22 37.70 35.56 31.93 33.85 35.73 35.06 37.56 51.93 54.48 55.73 56.71 59.07 61.44 62.74 65.54 66.19 67.30 68.26 67.77 66.69 66.61 68.47 68.83 69.69 69.16 70.02 70.62 70.07 68.59 68.36 69.36 71.04 70.84 69.11 70.11 71.09 73.10 73.05 72.49 73.59 73.52 72.81 72.64 72.13 71.61 72.46 72.04 72.18

GFSSGP_sfc_wetblb_087.txt.gz
Wetbulb
73.96 73.03 71.16 68.93 61.04 59.50 54.49 56.54 60.90 60.22 59.73 62.41 62.11 61.85 61.96 63.80 60.85 53.09 65.24 68.31 69.66 69.49 73.39 75.28 77.52 76.87 77.11 77.37 76.41 76.97 76.38 76.05 76.51 76.42 76.10 76.25 75.96 75.13 75.25 75.33 75.60 76.36 76.28 76.27 76.46 76.78 76.97 76.98 76.26
72.58 71.68 69.85 66.47 58.20 52.69 53.56 60.10 59.81 61.56 63.06 62.78 62.66 65.32 63.89 61.39 65.65 63.95 66.97 69.49 69.72 71.08 73.71 75.08 77.42 77.12 77.52 77.50 77.01 77.15 76.51 76.30 76.35 76.58 76.09 76.06 76.07 74.98 75.25 75.48 75.32 75.26 76.27 75.34 75.97 76.46 76.92 76.37 75.77
71.73 71.03 65.26 61.78 56.38 52.89 54.28 60.68 61.82 63.58 64.01 63.49 64.61 66.53 64.04 62.26 64.81 64.70 69.57 69.88 71.57 72.79 73.68 74.73 76.87 77.64 77.40 77.25 77.29 77.11 76.52 76.39 76.21 76.39 76.21 76.21 75.99 75.20 74.74 75.12 76.10 75.80 75.26 75.83 76.21 76.31 75.95 75.53 75.76
68.75 68.89 66.38 58.92 54.87 56.92 58.52 62.36 63.90 63.66 65.45 65.87 64.57 61.52 65.43 67.65 64.77 69.05 71.11 71.80 71.94 72.28 73.33 76.31 76.60 76.44 77.03 77.45 77.49 76.99 76.41 76.66 76.38 75.79 76.22 75.97 76.17 75.81 74.74 75.09 76.04 75.92 75.94 75.93 75.86 75.61 75.38 75.49 75.07
69.81 65.28 59.07 57.60 57.56 59.77 61.96 63.49 65.29 63.29 64.61 64.41 65.07 61.93 62.02 67.21 70.43 70.86 70.79 71.72 71.28 71.56 73.49 74.48 77.61 77.34 77.28 77.00 76.89 76.96 76.95 76.81 76.36 76.22 76.40 76.06 76.14 75.80 76.04 75.43 75.79 75.70 75.35 74.90 74.96 75.07 75.01 75.07 75.45
63.96 64.16 57.06 54.19 57.30 59.38 62.73 65.97 64.26 64.20 64.74 63.83 63.26 62.74 63.40 69.20 69.15 69.83 71.14 71.23 72.27 73.31 74.42 75.54 77.26 77.12 77.61 77.57 77.25 76.96 76.91 76.98 76.34 76.76 76.48 76.15 76.33 75.96 75.61 75.64 75.65 75.76 75.59 75.37 74.98 74.76 74.85 75.26 75.75
61.95 59.54 57.47 56.82 57.04 58.07 60.11 64.63 63.15 63.59 63.65 62.87 65.70 61.36 64.75 66.84 69.06 71.05 71.58 72.16 73.22 74.11 74.09 74.62 74.91 76.07 77.33 77.04 77.24 77.22 77.02 77.14 77.01 76.36 76.25 76.37 75.92 76.16 76.00 76.03 75.96 75.82 75.65 75.29 74.88 74.90 75.39 75.37 75.78
63.91 61.07 56.56 58.10 57.47 56.74 61.26 63.86 65.48 64.84 63.44 67.41 67.64 61.06 61.46 66.24 70.39 70.91 70.84 71.44 72.70 72.76 73.85 73.52 73.55 73.66 73.36 74.85 77.44 77.11 77.13 77.31 76.99 76.86 76.66 76.27 76.08 75.82 76.06 76.51 76.63 75.82 75.71 75.32 75.10 75.34 74.96 75.56 76.70
66.70 57.81 53.03 56.84 58.50 59.18 63.49 61.80 65.77 68.20 65.38 66.82 67.80 66.04 66.91 69.22 70.41 69.09 69.18 70.91 71.41 72.61 72.22 72.25 72.04 71.90 72.54 73.22 75.73 76.87 77.28 77.21 77.13 76.31 76.67 76.16 73.67 73.66 73.81 74.97 76.12 75.96 75.82 75.73 75.37 75.12 75.65 76.30 75.87
60.68 54.92 56.22 61.81 62.65 61.56 63.20 62.28 63.17 64.51 64.54 64.73 65.09 67.14 68.30 69.39 68.48 67.10 67.67 68.01 69.75 71.13 71.63 71.47 71.55 71.96 72.88 74.88 73.74 73.91 74.85 74.24 73.92 73.73 72.23 71.07 72.25 73.15 74.01 75.01 75.93 75.82 75.76 75.96 75.05 75.25 71.76 71.87 70.51
58.51 56.07 61.16 63.35 63.78 63.89 61.93 61.74 65.36 64.62 62.14 63.94 63.27 65.08 67.20 67.76 67.39 66.95 67.40 68.37 68.52 70.92 71.97 70.85 71.51 71.94 72.55 73.30 72.83 73.28 73.53 73.18 73.14 72.44 69.05 70.69 72.14 72.27 72.69 72.95 72.99 72.19 74.20 70.64 68.76 69.72 69.55 69.81 70.73
53.41 58.83 62.78 63.56 64.80 63.05 61.97 64.78 63.66 64.85 65.10 67.60 67.03 67.03 66.83 66.53 66.46 66.92 66.92 67.64 68.59 69.93 70.82 70.37 71.23 71.62 71.00 72.33 72.27 72.62 72.71 72.80 72.32 70.70 68.92 71.04 68.36 69.51 70.27 71.06 71.34 71.37 70.86 68.13 67.45 68.78 69.94 70.07 70.37
54.23 56.68 62.08 64.35 64.40 64.05 65.53 63.09 62.80 64.89 67.59 69.09 67.97 67.33 66.19 66.33 66.42 67.80 68.14 68.56 69.30 68.86 70.03 69.60 70.48 70.89 70.37 71.58 71.74 71.86 71.67 72.27 72.17 71.41 70.92 71.49 68.40 68.87 70.07 70.29 70.02 70.27 69.89 69.03 68.93 69.41 69.73 70.23 70.89
56.89 56.99 57.10 63.21 62.75 64.02 63.29 63.54 64.30 65.35 68.25 67.48 67.11 66.19 66.58 66.21 66.11 67.17 67.47 67.69 68.54 69.02 69.37 69.36 70.12 70.87 70.76 71.05 71.44 71.55 71.46 72.30 71.91 71.70 71.78 70.99 69.89 69.89 69.64 69.96 69.48 69.53 69.39 68.65 69.73 69.05 69.19 69.95 70.79
56.86 53.66 55.07 61.09 62.93 61.91 64.92 60.01 60.59 66.04 67.56 67.03 66.67 66.23 66.85 66.83 66.48 66.64 67.39 67.51 68.67 68.68 69.08 68.69 69.81 70.62 70.79 70.76 71.62 71.44 71.42 72.15 71.22 70.74 69.89 71.82 70.42 70.09 67.41 69.67 69.49 69.12 67.66 68.76 69.52 68.70 69.29 69.03 69.52
48.74 46.38 41.89 56.32 63.06 64.33 63.20 56.10 63.33 66.19 66.14 64.84 65.89 66.23 66.63 66.82 66.19 67.34 67.58 67.95 68.84 68.39 68.33 68.85 71.66 70.96 70.26 70.30 71.44 71.29 71.34 71.28 71.20 70.97 70.77 71.62 71.91 70.54 69.25 69.12 69.35 69.62 67.89 68.47 69.19 68.17 67.52 66.71 66.63
44.93 42.13 42.91 51.13 62.88 62.64 61.13 57.13 62.54 65.88 65.35 63.95 64.80 65.33 65.73 66.02 66.02 66.86 67.20 67.67 68.78 68.32 68.76 68.99 69.67 69.91 70.05 70.45 71.01 70.37 71.47 71.86 71.47 71.96 71.55 70.53 71.40 72.69 70.81 70.03 69.37 69.88 68.79 68.20 69.03 68.51 67.27 66.21 65.88
41.32 40.93 40.25 42.90 58.94 61.60 58.87 58.26 61.72 63.90 65.35 63.73 64.11 64.24 64.93 65.46 65.26 66.78 66.26 67.94 68.99 69.26 69.31 69.26 69.61 69.76 70.23 70.07 70.31 70.93 70.92 71.73 72.12 71.45 70.83 68.67 72.16 73.65 72.25 71.52 69.90 70.72 68.99 68.72 68.88 66.75 66.59 67.15 66.28
45.89 43.42 42.66 46.55 49.31 52.38 58.34 57.72 60.46 62.17 63.72 63.00 63.64 63.52 64.39 65.22 64.93 66.30 66.33 68.75 69.24 69.23 68.95 69.33 69.37 68.70 69.88 68.18 68.75 68.71 68.87 70.35 70.72 71.11 71.90 72.69 72.61 72.90 72.36 71.32 70.79 71.38 69.73 69.74 68.94 67.72 66.14 67.32 65.93
46.04 43.69 43.02 46.75 48.78 45.51 52.16 57.05 59.47 61.72 62.30 63.52 63.30 63.61 64.32 65.01 63.93 65.18 65.49 68.37 68.61 68.49 68.96 69.68 69.51 68.71 70.10 68.54 68.44 69.72 68.95 69.79 70.16 71.08 71.48 73.26 73.29 72.97 72.59 71.74 70.89 69.35 68.74 69.24 69.15 68.04 66.84 67.52 66.09
43.44 41.52 43.04 43.99 47.80 58.62 56.87 56.10 57.70 60.15 62.67 64.24 62.85 65.12 65.56 65.08 63.11 64.35 64.85 67.46 68.29 68.17 68.14 69.13 69.23 68.64 69.85 69.03 68.80 69.74 69.32 69.89 69.14 70.34 70.93 72.60 73.79 72.97 72.48 71.98 69.96 68.82 69.67 68.05 68.34 69.27 67.28 64.84 66.52
39.78 47.32 47.37 45.86 41.64 37.31 50.28 43.26 54.47 58.53 59.30 61.47 63.06 62.12 64.58 65.58 64.89 64.49 64.79 66.71 67.68 68.00 68.88 69.42 68.78 68.51 69.45 69.11 68.25 68.36 68.45 67.11 68.90 70.10 70.68 72.38 73.58 72.75 71.45 72.50 72.09 70.97 70.35 69.55 69.79 70.02 67.52 66.50 64.88
45.77 49.53 46.49 44.92 39.69 37.32 39.54 38.01 44.43 57.43 56.49 58.33 61.31 63.31 64.25 65.88 65.90 64.51 65.09 66.50 68.12 68.52 68.32 69.16 68.94 68.56 68.59 69.25 68.70 68.21 67.76 67.73 69.06 69.57 70.14 71.18 72.37 72.73 72.98 71.84 71.72 71.41 71.29 69.96 70.71 70.31 69.51 68.87 67.11
50.21 45.21 42.48 38.82 37.06 33.09 37.00 37.08 38.03 52.72 56.61 58.45 60.62 61.97 64.84 65.14 65.65 66.00 66.17 66.44 67.57 68.51 68.54 69.11 68.66 68.52 68.86 68.89 67.76 67.86 67.66 67.76 68.14 68.85 69.32 70.25 71.14 71.90 72.01 71.99 72.03 71.78 70.58 70.71 70.81 71.00 69.73 70.26 70.15
44.04 38.40 32.92 31.91 31.74 31.97 34.86 36.47 38.21 49.58 56.78 59.41 59.62 60.94 63.70 65.99 65.09 65.89 65.53 65.37 66.46 67.49 68.08 69.14 68.71 68.24 69.14 68.58 67.86 67.31 67.88 67.54 68.23 68.56 69.63 69.41 70.27 71.08 71.52 71.90 71.63 71.63 71.58 71.43 71.12 70.95 70.33 70.55 69.87
39.18 37.97 33.76 29.18 29.53 32.75 36.33 35.48 41.67 53.18 54.91 57.27 59.03 61.63 63.20 64.19 65.46 66.14 66.10 65.82 65.98 67.18 67.97 68.95 68.44 68.30 69.20 69.20 68.15 67.42 67.20 67.65 68.34 68.84 68.97 70.35 71.35 71.62 72.50 71.91 72.52 72.56 72.18 71.77 71.50 71.87 71.61 71.80 70.82
39.28 35.43 38.93 33.93 32.23 33.76 35.58 39.52 46.75 54.36 55.00 56.59 56.98 58.95 61.31 62.65 64.85 66.36 66.87 66.27 65.97 66.61 67.76 68.70 68.61 68.60 69.12 69.56 69.32 68.02 67.32 67.13 67.86 69.57 69.80 69.86 70.64 71.92 72.24 71.68 72.07 72.48 71.87 71.01 71.75 71.22 70.86 71.54 71.27
39.21 39.86 35.22 34.18 29.62 28.46 34.41 35.93 41.92 50.34 52.54 56.16 58.38 59.36 60.25 62.09 63.55 65.42 66.90 67.02 66.27 67.06 67.37 69.15 69.19 68.53 68.86 69.57 69.82 69.49 69.08 68.49 67.80 68.65 70.34 70.16 70.23 70.11 70.80 71.98 71.87 72.06 72.12 71.09 71.29 70.67 70.74 70.55 70.76
36.16 34.35 33.16 33.94 33.54 30.52 30.66 38.27 50.05 52.76 53.10 54.33 56.32 59.63 59.54 62.25 62.86 64.55 65.99 67.82 66.93 66.90 67.52 67.35 69.31 68.79 68.58 69.03 69.41 69.18 69.03 69.23 68.24 68.26 68.99 70.42 70.33 69.88 69.94 70.62 72.73 72.25 71.77 71.95 71.34 71.00 70.92 70.96 70.73
40.12 34.45 31.97 29.45 29.72 32.21 32.64 38.51 51.68 53.34 54.16 55.07 55.51 56.35 58.96 61.24 62.78 65.41 66.66 67.06 66.78 66.10 67.10 66.94 67.80 69.27 68.98 68.98 68.65 68.22 68.19 68.20 69.53 68.75 68.39 68.89 70.51 70.02 70.25 70.63 70.80 72.51 72.42 71.90 71.13 71.13 72.13 70.78 70.43

GFSSGP_sfc_wetblb_090.txt.gz
Wetbulb
73.44 72.42 70.45 68.78 60.21 59.25 54.05 56.23 60.57 58.95 58.24 60.79 61.56 60.17 59.80 62.41 59.82 51.82 64.17 66.90 69.06 69.35 73.34 75.31 77.04 76.49 76.98 76.67 76.90 76.36 75.88 75.95 76.59 75.85 75.63 75.41 75.01 75.02 75.13 76.27 76.55 76.43 76.58 76.36 76.50 76.43 76.81 76.47 76.54
72.13 71.48 69.37 66.13 56.99 52.47 53.45 59.88 59.05 60.97 61.41 61.49 62.00 64.60 63.34 60.88 64.78 62.72 65.42 68.30 69.39 71.55 73.59 75.11 77.46 77.13 77.24 76.92 76.89 76.30 75.86 76.32 75.95 75.93 75.73 75.88 74.72 75.11 75.60 74.98 75.83 76.14 76.01 76.21 76.40 76.61 76.11 75.86 76.16
71.79 70.95 64.89 60.50 56.75 53.00 53.84 60.23 61.58 62.12 61.74 61.22 63.43 65.29 64.04 61.57 63.65 64.24 67.68 68.76 71.09 72.93 74.06 74.81 77.13 77.61 77.44 76.87 77.02 76.39 75.94 76.44 76.11 75.81 75.56 75.87 74.86 74.70 74.62 75.36 75.59 75.68 75.94 76.40 76.35 76.15 75.95 76.06 75.71
67.77 67.35 65.84 59.12 55.33 57.17 58.18 60.87 62.51 61.87 63.92 65.26 64.88 61.68 64.22 66.85 63.98 68.26 68.88 71.07 72.12 72.67 73.87 76.23 77.25 77.40 77.19 77.06 77.16 76.54 76.34 76.12 76.16 75.99 75.94 75.56 75.37 74.40 75.25 75.18 75.83 75.88 75.84 76.10 75.85 75.91 75.50 75.37 75.36
69.31 65.53 57.87 57.24 56.68 57.97 61.20 64.13 64.37 62.74 64.16 63.70 64.86 60.23 59.98 66.63 69.18 69.14 70.06 71.72 71.59 71.87 73.62 74.56 76.88 76.74 77.15 77.33 76.87 76.31 76.32 76.37 75.73 76.14 75.81 75.43 75.65 75.67 74.93 75.15 75.81 75.12 75.17 75.66 75.56 75.36 75.26 75.44 75.41
63.94 64.24 56.47 54.47 56.59 59.32 61.76 64.32 64.53 63.97 63.73 63.62 61.86 61.92 63.02 68.77 68.34 69.24 70.67 71.20 72.17 72.55 73.52 74.49 76.57 77.18 76.80 76.51 76.63 76.34 76.64 76.48 75.82 75.91 75.90 75.91 75.78 75.86 75.39 75.34 75.31 75.48 75.15 75.12 75.03 74.93 75.56 75.91 76.38
62.03 59.77 56.82 57.01 56.84 58.09 59.83 64.08 63.93 63.74 63.11 62.46 65.01 61.02 65.20 66.67 68.65 70.19 70.65 71.65 72.96 73.97 74.11 74.66 74.62 75.77 76.88 76.73 76.83 76.88 76.78 76.37 76.39 76.06 76.08 75.98 75.95 75.59 75.69 75.73 75.59 75.79 75.31 75.01 74.84 75.45 75.63 76.18 76.51
63.59 61.16 56.64 57.34 57.08 57.26 61.63 63.30 65.49 65.01 62.48 66.68 66.41 60.26 61.76 65.94 69.72 70.81 71.19 72.09 72.54 73.23 73.72 73.67 73.89 74.22 74.05 74.91 76.34 77.00 76.71 76.69 76.71 76.14 76.13 75.83 75.66 75.64 75.77 76.04 76.41 75.40 75.26 74.84 75.15 74.93 75.45 75.99 76.31
65.88 57.27 52.91 56.28 57.90 58.86 63.45 62.66 64.98 67.32 64.92 66.82 67.62 65.14 66.32 69.27 69.97 69.29 70.02 71.03 71.81 72.68 72.40 72.66 72.65 72.65 73.21 74.33 75.75 76.69 76.99 76.93 76.93 76.06 76.11 75.46 74.23 74.09 74.11 75.24 75.73 75.56 75.31 74.98 74.81 74.56 75.81 75.69 76.00
59.60 54.14 56.00 61.11 61.87 60.71 62.63 61.98 63.66 64.35 64.12 63.48 64.21 66.58 68.60 69.02 68.10 67.58 67.48 67.24 68.81 70.53 71.73 71.67 71.69 71.76 72.86 74.64 74.52 74.52 75.34 74.71 74.73 74.26 73.04 73.15 73.45 73.97 74.28 75.12 75.73 75.56 75.83 75.12 75.26 73.67 74.45 72.33 72.37
59.16 56.24 59.62 63.20 63.91 63.50 62.53 61.24 65.39 63.48 62.15 63.61 62.74 64.98 67.19 67.36 67.04 67.18 66.79 66.75 67.93 70.32 71.84 71.13 71.06 72.08 72.90 73.40 73.43 73.66 73.76 73.76 73.36 72.98 71.01 72.58 73.01 73.59 73.89 73.83 73.39 73.86 73.11 69.85 71.14 70.24 70.94 72.20 72.57
52.34 58.97 61.33 63.12 65.10 63.29 61.37 64.03 60.98 63.18 64.78 66.55 66.13 67.31 67.04 66.23 66.43 66.84 66.72 67.73 68.79 69.94 71.10 70.79 71.29 71.97 71.98 73.02 72.88 73.08 73.22 73.44 73.15 71.76 70.06 71.73 71.42 71.62 72.38 72.50 72.89 72.82 71.90 68.70 69.85 70.91 71.16 71.68 72.24
53.42 55.63 59.88 63.86 63.61 63.58 64.70 63.56 63.70 64.16 67.54 67.47 67.22 67.36 66.42 66.28 66.37 67.35 67.41 68.04 68.92 69.56 70.09 70.09 71.01 71.31 71.15 72.24 72.29 72.54 72.75 73.15 72.67 71.37 71.46 71.15 70.43 70.42 71.72 71.52 71.74 71.95 71.85 70.33 70.57 71.35 71.49 71.74 72.33
55.67 55.86 56.58 62.58 62.32 64.68 62.69 62.49 63.93 65.81 68.16 66.80 65.93 65.64 66.28 66.11 66.37 66.82 66.84 67.03 68.15 68.99 69.41 69.52 70.50 71.23 70.98 71.38 71.76 71.96 72.14 72.78 72.83 72.43 72.01 72.16 70.66 70.49 71.26 71.01 70.81 71.30 71.02 70.57 71.66 71.25 71.05 71.76 71.86
55.38 51.17 54.84 59.98 61.85 61.80 64.77 60.49 61.30 66.24 67.29 65.17 64.75 65.10 65.92 66.18 66.80 66.70 67.29 67.25 68.19 68.62 69.38 68.50 69.89 71.01 70.66 70.82 71.54 71.78 72.07 72.78 72.53 72.05 72.00 71.91 71.45 71.26 70.85 71.43 70.94 70.93 69.78 70.21 71.31 70.99 71.30 71.41 70.35
47.39 45.74 41.21 56.47 61.40 63.43 62.12 56.23 62.64 66.51 66.34 64.62 64.49 65.05 65.12 65.12 66.21 67.39 67.80 67.65 68.25 68.12 68.27 68.60 71.20 70.92 70.57 70.33 71.39 72.06 72.01 72.48 72.63 71.74 71.18 72.40 72.01 71.19 69.30 71.19 71.19 71.00 69.63 70.89 70.86 70.22 69.53 69.27 69.11
44.90 41.22 40.97 53.99 62.10 62.29 61.69 57.62 63.12 65.87 65.49 65.16 64.29 64.43 64.95 65.04 65.46 67.26 67.93 68.09 68.48 67.99 68.12 68.19 69.92 70.18 70.49 70.37 71.31 71.69 72.21 72.21 72.26 71.88 71.65 72.16 72.20 72.28 70.50 70.39 71.16 71.03 69.43 70.32 71.60 70.58 69.41 68.95 68.92
41.11 40.29 40.27 42.97 57.31 60.08 59.34 57.25 61.86 64.49 64.85 64.75 64.69 64.36 64.87 64.96 64.35 66.86 67.51 68.25 68.62 68.12 68.37 69.06 69.69 69.87 70.13 70.70 70.96 70.91 71.78 72.16 72.64 72.47 72.26 72.11 71.21 73.84 72.09 71.75 70.96 71.22 70.10 69.76 70.84 70.17 69.50 69.55 68.89
45.22 43.19 41.90 45.22 55.19 57.51 57.48 56.43 59.47 62.85 63.46 63.26 63.77 63.99 64.53 65.02 65.78 66.86 67.28 67.75 68.37 68.14 68.24 68.44 68.53 69.00 69.64 69.37 69.72 69.72 70.22 71.46 72.29 72.38 72.77 70.96 72.14 73.29 72.72 72.40 71.77 72.00 70.90 70.85 70.88 70.23 68.73 69.54 68.81
44.96 42.99 42.10 45.50 49.09 48.21 47.48 52.01 58.85 61.08 62.26 63.30 63.30 63.26 64.07 64.89 65.05 65.64 66.01 66.39 67.49 67.81 68.14 68.30 68.83 68.93 70.00 69.22 69.89 70.65 70.04 71.29 71.75 72.35 72.57 73.92 74.13 73.48 72.22 72.59 72.16 72.05 71.05 71.51 71.12 70.80 69.47 69.81 68.53
42.60 41.24 41.95 43.28 47.20 56.83 54.70 51.46 55.63 59.83 61.96 63.64 64.20 64.50 64.36 64.56 64.62 63.71 64.77 65.72 67.59 67.71 68.04 68.49 69.09 68.89 70.31 69.43 69.82 69.80 70.39 70.69 70.75 71.69 71.84 73.08 73.79 74.19 74.12 73.27 72.10 70.93 71.55 70.66 71.00 71.03 70.64 68.12 69.03
38.70 47.07 47.13 45.08 40.67 36.82 48.55 36.43 49.58 56.73 58.20 60.59 62.81 62.60 63.85 64.33 64.92 64.04 64.08 65.52 67.20 67.95 68.90 69.16 69.50 69.00 70.16 69.20 69.33 69.73 68.78 68.68 69.91 70.60 72.23 72.95 74.55 73.42 73.21 73.45 72.34 71.06 71.85 71.25 71.46 71.63 70.66 69.79 68.47
45.39 47.80 45.76 44.26 39.49 36.28 39.93 36.53 39.70 54.88 55.59 57.98 60.62 62.83 63.19 64.77 64.43 63.87 64.36 65.72 67.65 68.63 68.58 69.27 69.42 69.18 69.68 69.57 69.18 69.02 68.87 69.27 70.83 70.99 71.89 72.47 73.65 74.03 73.27 73.56 73.51 72.38 71.97 72.38 72.84 72.12 72.05 70.95 69.95
48.49 43.40 40.68 37.57 35.93 32.95 35.87 36.19 36.04 50.08 52.29 57.31 60.26 62.08 63.68 64.48 66.09 64.67 65.42 65.97 67.66 68.67 68.87 68.96 68.39 68.34 68.62 69.49 68.45 68.31 68.70 68.81 69.22 70.53 70.39 71.22 72.30 73.44 72.96 73.32 73.16 73.43 72.79 72.13 72.44 73.39 72.32 71.97 72.92
42.59 37.56 31.39 31.29 31.07 31.75 32.94 35.62 41.44 49.13 53.15 54.71 55.20 58.89 63.50 65.17 65.97 65.33 64.31 64.63 66.81 67.70 67.95 68.50 68.20 67.70 68.30 68.86 68.49 68.00 68.61 69.27 69.49 69.77 70.39 70.28 71.41 72.44 73.14 73.16 72.85 73.33 73.25 73.02 73.24 73.54 72.83 73.09 72.89
38.25 37.13 32.77 28.33 27.92 32.20 34.97 33.88 43.08 54.14 56.13 58.26 59.86 59.60 60.05 63.83 65.96 65.96 65.21 65.27 66.15 67.47 67.65 68.18 67.93 67.99 68.26 68.60 68.56 68.02 68.18 69.20 69.37 69.84 70.55 70.85 71.53 72.36 73.76 72.90 73.20 73.81 73.67 73.45 73.15 73.18 73.22 73.68 72.95
37.47 34.05 35.77 32.53 30.17 32.79 34.58 40.85 47.10 54.85 54.56 55.87 56.22 58.36 59.22 61.31 65.27 65.96 66.69 65.67 65.82 67.16 67.58 68.21 68.23 68.37 68.72 68.89 68.68 67.78 67.57 68.23 68.92 69.99 70.43 71.08 72.05 73.00 73.46 73.36 72.42 73.70 74.06 73.18 73.59 73.14 73.35 73.79 73.76
38.22 38.41 34.35 33.18 28.83 28.13 33.02 39.38 43.32 49.77 51.83 54.62 54.68 56.15 58.54 60.70 63.42 66.04 66.84 66.69 65.95 67.14 67.90 68.36 68.89 68.58 68.87 69.38 69.20 68.56 67.89 68.10 68.74 69.65 70.21 70.97 71.69 72.33 73.16 73.39 73.26 73.15 74.08 73.32 73.07 73.14 73.01 73.07 73.02
35.04 32.94 32.50 33.31 31.78 29.81 29.90 38.69 49.86 51.45 53.29 53.06 54.47 56.70 58.69 60.93 63.32 63.86 66.08 67.19 66.54 66.89 67.58 68.12 68.68 68.62 68.77 69.38 69.62 69.50 68.69 68.18 67.97 68.72 70.35 71.58 72.24 71.88 71.84 72.63 73.18 73.16 73.49 73.73 72.72 72.99 73.00 72.61 72.92
36.84 33.24 30.53 32.12 30.25 29.99 33.83 37.66 51.84 53.18 54.34 54.98 54.26 55.97 58.55 60.10 61.41 62.65 64.83 66.30 66.94 66.35 66.96 67.29 68.69 68.70 69.03 69.23 69.85 69.57 69.78 69.50 68.69 68.30 69.16 70.47 71.34 71.98 72.05 71.91 72.65 73.63 73.39 73.66 73.22 72.77 73.66 72.78 72.55

GFSSGP_sfc_wetblb_093.txt.gz
Wetbulb
74.26 73.36 71.50 69.19 60.29 59.59 54.57 56.84 61.28 59.24 59.82 62.95 63.21 61.59 60.89 62.04 60.40 57.93 67.96 70.02 71.50 72.40 74.81 74.79 76.50 76.60 76.72 76.80 76.44 76.00 75.79 76.42 76.19 75.57 75.50 75.28 75.29 75.47 76.46 76.31 76.47 76.67 76.81 77.03 76.86 76.71 76.75 76.82 77.01
73.86 71.68 70.28 66.58 57.13 53.63 54.63 60.63 59.98 61.69 62.77 63.80 64.21 63.56 63.97 62.07 65.59 64.52 66.46 70.67 71.93 73.22 75.04 75.49 77.12 77.34 76.77 76.98 76.49 75.91 76.04 76.69 76.45 76.21 76.11 75.21 75.32 75.46 75.39 75.89 75.94 75.67 76.51 76.64 76.83 76.47 76.39 76.55 76.89
72.76 71.87 66.73 63.51 57.55 54.74 56.24 60.65 62.08 62.34 63.33 63.21 64.60 66.94 65.36 63.46 64.89 65.86 69.86 71.41 72.94 74.11 75.62 76.38 76.88 77.27 76.85 76.98 76.65 76.13 76.36 75.97 76.17 75.93 75.98 75.27 75.03 75.39 75.14 75.31 75.68 75.64 76.24 76.49 76.54 76.41 76.10 76.16 75.85
69.77 69.86 67.84 60.90 56.94 58.03 58.44 62.16 62.80 61.11 64.15 66.77 66.14 62.33 64.68 67.51 65.77 69.25 70.69 72.28 73.06 74.60 75.56 76.80 77.29 77.21 77.02 76.94 76.86 76.10 76.56 76.32 75.88 75.72 75.36 75.73 74.76 75.55 74.91 75.33 75.75 75.79 75.92 76.18 76.02 76.10 75.92 75.83 75.84
70.91 68.21 59.92 58.91 57.52 59.59 62.41 64.70 64.07 61.13 63.00 65.09 65.61 60.52 60.42 68.03 70.42 69.91 71.30 72.53 72.78 73.90 75.66 76.84 77.68 77.75 77.28 76.97 76.93 76.32 76.44 76.24 75.91 75.83 75.62 75.78 75.12 75.58 75.38 75.86 75.75 75.63 75.86 75.75 75.69 75.64 75.75 75.85 75.97
66.45 66.72 58.37 57.10 57.74 60.13 63.11 64.76 64.88 64.28 64.12 63.97 62.66 61.93 63.15 70.07 68.10 70.02 72.00 72.46 73.53 74.06 75.10 75.72 76.93 77.09 77.20 77.18 76.30 76.41 76.48 75.98 76.24 76.10 76.06 75.86 75.71 75.83 75.66 75.39 75.50 75.36 75.39 75.67 75.39 75.83 76.05 76.33 76.24
64.07 62.66 58.57 58.23 58.14 58.91 60.85 65.11 64.31 64.46 63.47 63.21 65.93 61.39 65.15 67.05 68.96 71.28 72.36 73.37 73.81 74.69 75.18 75.74 76.24 76.89 76.71 76.41 76.62 76.30 76.77 76.25 76.26 76.19 76.08 75.85 75.69 75.48 76.05 75.58 75.89 75.45 75.48 75.06 75.64 75.82 76.07 76.62 76.44
67.15 64.28 58.05 59.12 58.45 58.16 62.21 64.27 65.40 65.55 62.81 67.91 67.83 61.67 61.61 66.60 70.20 71.59 72.80 73.31 73.74 74.25 74.99 76.17 76.92 77.12 76.96 77.06 76.71 76.40 76.61 76.33 76.43 76.07 75.96 76.01 76.10 75.85 75.80 75.48 75.69 75.39 75.14 75.34 75.42 75.69 76.04 76.18 76.73
66.91 60.48 56.76 57.55 58.76 60.10 64.03 62.91 65.83 67.85 65.24 67.37 67.53 65.91 67.44 69.27 70.57 70.76 71.24 72.12 72.74 73.45 74.48 75.51 75.84 76.33 76.70 76.33 77.03 76.73 76.55 76.68 76.66 75.92 76.08 76.37 76.44 76.28 75.84 75.81 76.09 75.39 75.08 75.25 75.00 75.64 75.77 75.94 76.39
63.47 60.58 58.20 62.66 62.93 61.35 63.25 62.94 64.73 64.61 64.42 64.17 65.40 67.60 68.58 69.18 68.91 68.96 69.39 69.84 70.62 71.93 74.12 75.33 75.73 75.78 76.35 76.31 77.09 77.25 77.17 77.22 77.25 76.98 77.17 76.97 76.94 76.21 75.68 75.94 76.09 75.89 75.02 75.19 74.97 75.49 74.35 74.77 75.57
62.89 59.92 61.68 63.50 64.55 64.21 62.68 62.94 65.21 64.15 62.66 64.50 63.87 65.25 67.22 67.62 68.12 68.69 69.29 70.09 70.81 72.25 73.90 74.76 75.39 75.53 75.80 75.87 76.49 76.65 76.57 76.76 77.41 77.13 76.56 76.71 76.31 76.27 76.13 76.38 75.96 75.67 73.69 75.32 73.57 73.83 74.39 74.92 75.61
57.50 60.48 63.13 64.18 65.32 63.85 61.48 64.61 63.25 64.10 64.99 67.32 67.42 66.87 66.94 66.84 67.82 68.54 68.90 69.55 70.40 71.84 73.17 74.26 75.05 74.86 75.84 76.73 75.99 75.93 75.61 75.88 75.58 75.84 75.55 76.46 75.73 75.83 76.27 75.94 76.34 76.16 73.76 73.51 74.56 74.16 75.05 75.13 75.54
58.62 59.48 60.78 64.95 65.50 64.50 64.87 63.25 62.81 64.01 67.27 67.81 67.49 66.81 66.57 67.22 68.60 69.46 69.79 69.92 70.39 70.45 72.33 73.68 74.13 74.96 75.81 76.11 75.86 75.68 75.19 75.56 75.93 75.10 75.42 76.53 75.41 75.16 75.87 75.90 75.55 75.56 75.28 74.07 74.95 75.40 75.72 75.91 75.57
59.42 60.06 60.02 64.92 64.97 64.94 63.36 63.52 64.62 65.71 67.99 66.84 66.39 66.12 67.20 68.15 68.73 69.39 69.31 69.31 70.01 71.24 72.33 73.82 73.16 75.28 75.78 75.53 76.01 75.73 75.58 75.76 75.42 75.08 75.84 75.13 75.53 74.92 74.65 74.75 74.63 75.47 75.83 75.57 76.10 75.93 76.12 75.72 75.39
58.69 55.75 58.70 60.51 63.81 63.84 65.23 60.21 61.02 66.91 67.44 65.64 66.57 66.97 67.70 68.55 69.25 69.15 69.91 69.73 70.40 71.37 72.82 72.93 72.91 74.40 75.21 75.31 75.69 75.59 75.45 75.44 75.73 76.67 76.32 76.09 75.57 75.38 75.24 74.05 73.97 75.11 75.52 74.78 76.11 76.11 76.30 75.83 74.49
53.55 52.80 51.06 60.98 62.92 63.64 64.17 57.39 63.45 67.33 67.13 65.45 66.42 66.98 67.39 68.50 68.97 70.14 70.67 70.29 70.62 70.90 72.22 72.88 72.52 73.63 74.68 74.93 75.25 75.16 75.58 76.21 77.06 76.78 76.62 76.03 75.97 75.57 74.88 75.09 74.55 74.76 74.00 74.99 75.15 75.64 74.72 74.25 73.83
52.40 51.18 48.58 57.52 63.37 63.24 62.64 59.02 64.89 67.54 66.78 65.23 64.95 66.62 67.19 67.99 69.13 70.51 71.11 71.02 70.50 71.20 72.20 72.17 73.03 73.70 74.28 75.15 74.73 75.39 76.30 76.21 77.40 77.23 76.50 75.39 76.03 75.58 74.51 74.75 75.03 74.39 74.05 74.64 75.15 75.27 74.65 73.78 73.50
50.05 48.32 49.36 52.68 61.00 62.52 60.94 59.81 63.80 66.31 66.24 65.09 65.70 66.32 66.86 67.31 68.20 70.45 71.29 71.72 71.50 71.49 72.42 72.77 72.94 74.36 75.10 74.83 74.75 75.10 75.78 76.23 76.77 76.81 76.94 75.64 76.42 76.10 75.28 74.62 75.09 74.70 73.61 74.10 75.43 75.25 74.70 74.27 73.88
51.57 50.47 49.21 50.69 59.60 60.96 58.90 59.47 61.96 65.02 65.74 65.81 65.44 66.03 66.76 67.09 69.09 70.60 71.37 71.66 71.66 71.64 71.68 72.69 73.02 74.50 74.45 73.75 73.18 73.60 74.03 75.20 76.94 76.59 76.53 76.02 75.50 76.70 76.53 75.37 74.95 74.89 74.16 74.57 75.53 75.00 73.94 74.25 74.72
51.52 50.33 49.32 50.59 55.14 58.76 52.91 54.09 61.15 64.12 65.47 66.39 66.05 65.89 66.68 67.59 68.16 69.20 70.54 70.94 71.22 71.30 71.38 72.71 73.26 74.50 74.59 74.37 74.97 75.58 75.61 75.85 76.71 76.42 76.62 76.05 76.31 77.67 77.10 76.34 75.75 75.79 74.52 76.00 75.45 75.58 74.02 74.75 74.20
51.02 50.49 49.28 48.81 50.00 58.77 58.17 55.77 59.30 62.33 65.18 66.65 67.38 67.83 67.84 67.80 67.94 68.50 69.45 69.98 70.94 71.24 71.53 72.28 73.47 74.03 74.78 75.41 75.15 75.07 75.34 75.54 75.11 75.31 75.72 76.87 76.51 76.99 77.52 76.73 76.56 76.69 75.99 74.92 76.05 75.25 74.47 72.78 73.87
50.13 52.18 51.06 49.78 48.55 46.06 56.19 46.30 56.25 60.06 61.41 64.18 65.96 66.80 67.26 68.10 68.90 69.20 69.43 69.52 70.11 71.12 72.40 73.04 73.62 73.96 74.37 75.39 74.95 75.34 73.90 75.11 74.54 75.45 75.96 76.16 77.39 77.09 77.16 77.06 77.01 76.48 76.42 75.89 75.64 75.61 75.63 74.51 72.34
50.55 52.60 51.62 50.16 48.93 47.10 50.75 47.45 50.42 60.21 58.05 58.91 63.87 66.45 67.53 67.71 68.68 69.22 69.26 70.04 70.69 71.41 71.88 72.55 73.60 73.96 74.40 74.77 75.77 74.81 74.73 74.62 75.12 75.23 76.15 76.79 77.63 77.79 76.36 77.56 76.89 76.33 75.74 76.47 76.22 76.21 75.74 75.72 74.47
52.56 49.42 47.77 47.55 47.55 43.44 45.39 45.96 49.33 52.33 54.53 57.96 61.07 63.07 66.78 67.87 67.22 69.51 70.49 70.58 70.54 71.55 71.81 72.09 72.99 74.00 74.24 74.37 74.58 75.13 75.26 74.80 74.24 74.77 74.60 75.12 77.53 76.82 77.89 77.00 77.26 77.46 76.62 76.56 76.60 77.33 76.39 76.59 77.06
50.72 48.12 42.50 41.66 41.67 42.23 44.71 48.12 51.01 55.97 57.80 58.17 59.84 61.89 63.95 66.43 68.55 68.43 69.17 69.24 69.94 70.69 71.31 71.81 72.71 73.51 73.78 73.55 74.05 74.09 74.76 75.65 75.41 75.88 74.87 75.21 74.97 75.73 77.17 77.36 77.18 77.22 77.81 77.21 77.00 77.19 77.28 76.67 76.87
48.69 48.45 43.85 38.22 39.22 42.22 44.93 45.83 49.94 56.98 59.41 60.38 61.30 61.84 63.26 64.27 66.12 69.01 69.09 69.73 69.41 70.63 71.38 71.24 72.41 73.23 73.18 73.22 74.39 75.06 74.89 73.84 74.44 75.88 75.04 74.95 75.04 75.86 78.23 77.84 77.57 77.48 77.38 77.00 77.34 76.53 76.76 77.48 76.68
45.49 45.43 45.88 43.58 42.33 43.33 44.47 48.47 53.45 56.85 57.44 58.72 58.14 59.23 60.07 64.95 64.87 67.98 69.88 70.09 69.96 70.51 71.44 72.05 72.71 73.55 73.18 73.07 74.53 74.17 74.49 74.31 74.52 76.05 76.45 75.42 76.74 76.17 77.38 77.81 77.56 77.23 77.66 77.33 77.50 76.17 77.01 77.25 77.30
46.24 45.73 43.66 45.31 39.33 38.84 43.50 45.97 47.50 51.84 54.26 56.19 55.62 57.53 59.75 62.00 66.15 66.70 69.76 69.90 70.33 70.97 71.69 72.16 72.86 73.03 73.83 73.38 73.92 73.43 73.44 74.01 74.28 75.20 75.51 75.97 76.52 76.81 76.88 77.14 77.25 77.37 77.48 77.86 77.59 76.70 77.12 76.93 76.68
44.31 44.13 43.61 45.32 43.22 41.57 40.31 44.84 52.56 52.45 53.87 53.74 53.82 55.77 58.72 60.99 61.79 65.33 68.18 70.81 70.32 70.44 71.11 71.51 71.89 72.35 72.49 72.99 73.82 74.09 73.32 73.35 73.81 73.48 74.89 75.81 76.59 76.94 77.00 77.34 77.40 77.26 77.26 77.75 77.58 76.90 76.62 76.63 76.67
43.36 41.08 41.22 43.58 41.15 42.68 46.46 44.32 54.52 54.01 54.22 55.79 54.32 54.70 56.84 59.26 60.79 62.16 63.75 64.80 68.34 69.39 70.08 70.80 71.28 71.62 72.28 73.05 73.69 73.35 73.74 73.49 73.02 73.13 73.53 75.08 75.69 76.86 77.00 77.08 76.86 76.84 77.06 77.64 76.95 76.57 76.19 75.85 75.83

GFSSGP_sfc_wetblb_096.txt.gz
Wetbulb
74.12 73.80 74.21 71.41 62.01 59.83 55.86 59.05 62.48 62.21 62.94 65.31 66.22 63.81 63.39 64.52 62.91 60.59 70.83 72.65 73.73 74.09 75.28 76.08 77.52 77.07 76.72 76.65 76.32 75.89 76.70 76.43 75.83 75.76 75.60 75.38 75.73 76.65 76.67 76.44 76.60 77.07 77.24 77.10 77.06 77.03 77.24 77.45 77.27
74.41 72.01 73.10 69.66 59.69 54.83 58.49 62.17 61.69 63.53 65.12 66.38 65.45 65.49 64.66 64.11 67.46 67.60 69.21 73.01 74.14 74.54 75.48 75.60 77.27 77.44 77.17 76.79 76.00 75.82 76.72 76.44 76.29 76.53 75.52 75.66 75.31 75.96 76.37 76.05 76.35 76.77 77.03 77.02 76.70 76.84 76.89 77.07 77.49
73.69 73.36 68.16 64.96 60.37 58.77 58.13 62.94 64.11 64.82 65.82 66.14 64.49 68.92 66.96 65.64 67.43 68.25 71.96 73.37 74.32 75.12 76.29 76.91 76.83 77.24 77.02 76.81 76.28 76.06 76.69 76.53 76.50 76.26 75.53 75.58 76.12 75.51 75.78 76.14 76.03 76.52 76.79 76.72 76.84 76.29 76.33 76.36 76.89
72.63 72.14 70.07 61.61 58.09 61.38 61.42 64.38 64.80 63.74 65.54 68.09 67.65 64.74 67.44 69.73 68.29 70.65 72.65 73.61 74.21 75.21 76.18 76.59 76.92 77.32 77.08 77.13 76.50 76.47 76.51 76.37 75.90 75.76 75.97 74.95 75.98 75.66 76.47 76.03 76.14 76.38 76.30 76.31 76.36 76.34 76.23 76.35 76.22
73.66 70.58 63.53 59.35 60.25 61.90 64.61 65.39 65.07 63.10 65.84 66.72 67.11 62.72 64.47 68.55 71.47 71.75 72.52 73.34 73.94 74.81 76.46 76.99 77.65 77.03 77.02 76.84 76.59 76.45 76.61 76.26 75.99 75.94 76.00 75.12 76.03 75.89 76.10 76.22 76.22 76.42 76.12 76.17 76.04 75.86 76.09 76.36 76.77
68.05 69.28 60.39 56.82 60.49 63.12 65.74 67.04 64.32 63.58 66.76 65.97 65.43 64.23 65.88 70.82 70.17 71.72 72.98 73.58 74.56 74.71 76.18 77.09 77.19 77.19 77.03 76.99 76.64 76.39 76.51 76.26 76.39 76.18 75.74 76.17 76.25 75.89 76.09 75.84 75.92 75.98 76.20 75.90 75.87 76.40 76.72 76.52 76.66
65.22 64.81 61.04 60.32 61.02 61.61 61.90 67.49 65.42 65.73 65.49 64.98 67.99 63.92 67.04 68.13 70.77 72.40 73.07 73.75 74.44 75.23 76.04 76.59 77.06 77.70 77.21 76.90 76.61 76.42 76.38 76.52 76.42 76.38 76.23 75.90 75.89 76.20 75.87 75.45 75.78 75.92 75.76 75.75 76.12 76.45 76.69 76.66 76.71
68.38 66.72 60.78 61.81 59.98 60.25 62.59 65.12 66.52 66.75 65.13 69.44 69.56 63.66 64.11 68.06 71.46 72.43 73.07 73.44 74.31 75.21 75.98 76.09 76.59 76.92 77.45 77.29 76.80 76.68 76.48 76.56 76.48 76.60 75.89 75.96 76.44 75.98 75.70 76.12 76.26 75.81 75.87 75.84 76.29 76.34 76.56 76.80 76.64
69.58 63.25 59.75 60.35 60.66 61.78 66.06 64.26 67.49 69.80 67.01 67.71 68.62 68.17 68.72 69.96 71.55 71.74 71.76 72.43 73.72 74.57 75.20 75.84 76.77 77.13 76.74 77.03 77.14 76.81 76.73 76.68 76.31 76.34 76.05 76.14 77.08 75.71 75.84 76.56 75.70 75.72 75.73 75.53 76.06 76.25 76.41 76.76 76.53
66.64 63.38 60.76 64.20 64.89 63.70 65.78 65.64 66.09 66.70 66.19 66.09 67.65 68.98 69.37 69.62 70.23 69.87 70.26 70.97 72.32 73.20 73.79 75.66 75.84 76.29 76.60 76.18 77.67 77.64 76.90 77.28 77.48 77.30 76.99 76.60 77.19 76.62 75.85 76.54 75.90 75.61 75.41 75.75 75.73 74.84 74.75 76.82 75.80
65.69 63.48 64.20 65.23 66.34 66.55 63.99 63.48 65.74 65.49 63.91 65.58 66.82 67.37 68.10 68.64 69.47 69.97 71.15 71.99 72.25 72.99 73.73 74.94 76.24 76.14 76.07 77.94 76.92 76.81 76.54 76.43 77.04 77.32 76.73 76.59 75.95 76.16 76.33 76.13 74.98 75.21 76.04 75.19 75.55 75.78 76.15 76.29 75.76
62.68 64.22 64.83 66.04 66.58 64.38 63.05 64.38 63.13 65.18 66.07 68.93 70.10 68.86 68.35 67.99 68.61 69.99 70.85 71.70 72.41 72.60 73.87 75.39 75.74 76.52 76.43 76.83 76.04 75.72 75.97 76.06 75.75 76.61 77.22 75.98 75.45 75.86 75.73 74.52 75.03 74.55 75.37 75.55 76.95 75.67 76.65 76.77 76.72
62.48 62.61 63.23 65.79 66.84 66.03 66.03 64.42 63.67 65.69 68.34 69.52 69.39 68.42 67.77 68.04 69.28 70.89 71.78 72.36 72.79 72.70 73.57 74.60 75.19 75.31 77.18 77.03 75.76 76.05 75.98 76.38 76.66 76.30 76.93 76.43 74.98 75.26 75.30 75.55 75.02 74.83 75.05 75.54 76.77 76.62 76.46 76.92 75.88
64.61 63.34 62.20 65.00 65.66 66.60 63.66 62.88 65.48 67.50 67.89 68.38 67.61 67.42 67.83 68.16 69.52 70.80 71.23 71.15 71.04 72.10 73.30 74.40 74.06 75.67 76.37 76.62 76.80 76.08 76.81 77.04 76.51 76.32 77.07 77.03 75.90 75.47 75.35 75.32 75.12 75.30 75.97 76.18 77.41 77.35 76.72 76.25 75.97
62.63 59.53 59.81 62.18 64.90 64.21 66.51 61.94 61.91 68.69 68.05 67.10 66.49 67.01 67.66 68.90 70.55 70.49 70.94 70.60 70.98 72.23 73.61 74.02 73.74 75.96 76.21 76.62 76.64 76.67 76.80 76.66 76.51 78.16 77.44 77.34 76.71 76.73 76.33 75.26 75.43 75.50 76.27 77.03 77.22 77.54 77.65 76.08 75.07
60.01 59.02 56.63 61.40 63.59 65.31 65.10 57.94 63.79 66.32 66.80 66.63 66.05 66.54 67.52 69.51 70.47 71.19 71.01 71.03 71.29 72.14 73.33 73.98 73.51 75.21 76.14 76.26 76.20 76.00 76.92 77.52 78.23 78.63 77.32 77.59 77.82 77.46 76.91 76.00 75.48 76.22 75.94 76.89 76.59 76.72 76.06 74.41 73.31
58.59 55.81 55.22 58.63 63.53 64.57 64.30 58.90 64.13 68.81 67.46 67.67 66.86 66.84 67.85 69.32 70.49 70.94 71.10 71.49 71.25 72.31 73.34 73.62 74.18 74.39 75.57 76.88 76.89 77.06 77.92 76.89 76.90 79.09 77.29 77.97 77.90 77.56 76.67 76.13 76.84 76.72 75.85 75.84 76.02 76.13 76.47 73.79 74.07
55.25 55.28 54.31 56.99 61.78 64.05 62.13 60.28 64.50 67.52 68.04 67.10 68.54 68.17 68.37 68.71 69.51 70.59 72.39 72.43 71.36 72.20 73.30 73.95 74.38 75.48 76.20 76.34 76.55 76.39 77.09 79.05 77.27 77.35 78.12 77.66 77.92 77.95 76.43 76.31 76.76 76.05 75.45 75.38 76.62 76.77 75.57 74.96 74.28
58.09 55.95 54.58 57.40 63.70 62.72 61.36 61.19 64.62 67.12 67.57 66.95 67.17 68.11 68.23 69.04 70.07 71.44 72.93 73.29 72.19 71.84 72.79 73.65 74.47 76.38 75.91 75.15 74.48 75.11 75.04 77.98 76.73 77.08 78.11 78.06 77.55 77.85 77.93 76.06 76.77 76.19 75.24 76.36 76.71 75.47 74.89 73.41 75.79
56.82 54.52 54.06 54.84 60.86 61.23 54.97 56.21 60.27 66.06 66.36 67.77 67.77 66.92 67.36 68.90 69.26 70.64 72.53 73.07 72.70 71.92 73.09 73.97 74.86 76.60 76.63 76.04 76.48 76.59 75.96 76.51 76.56 77.45 78.02 77.54 77.54 77.91 77.28 77.62 76.13 76.55 75.49 76.99 76.71 76.81 73.32 74.31 75.19
56.63 55.09 53.64 53.51 55.02 57.59 57.32 58.41 61.53 63.53 66.51 66.77 67.72 68.35 68.97 68.44 69.12 69.20 71.26 72.75 73.02 72.18 72.78 74.06 75.12 76.49 77.06 77.25 77.42 78.07 78.59 78.74 77.02 77.53 76.37 77.11 77.61 77.31 77.19 77.06 77.19 77.52 77.53 74.75 76.75 76.55 76.16 71.94 74.82
52.66 56.74 54.51 52.57 52.09 52.35 59.10 49.08 58.00 62.64 63.95 64.90 67.01 67.10 68.49 68.62 69.41 70.41 71.11 72.19 72.86 73.11 73.56 74.19 75.62 76.39 76.88 77.92 77.14 77.00 74.31 73.30 75.09 76.24 76.70 76.51 76.92 77.44 77.07 77.06 77.35 77.38 76.96 76.91 76.76 76.99 76.72 75.99 72.28
54.19 57.04 55.44 53.44 52.38 51.97 53.94 52.32 57.04 61.96 60.01 62.01 66.44 67.72 69.12 70.73 69.85 70.20 71.08 72.20 73.23 73.92 73.77 74.09 75.48 76.32 76.83 77.59 77.62 76.72 75.71 74.12 74.86 76.21 78.80 77.29 77.32 77.50 77.23 77.34 77.59 78.27 77.01 77.47 77.38 77.51 77.74 75.73 74.59
56.21 54.66 54.01 53.83 52.51 47.32 53.30 52.38 53.68 57.18 58.15 61.33 64.16 66.17 68.44 68.46 70.47 70.20 72.28 72.75 72.93 73.79 74.16 74.28 75.13 76.12 77.00 76.98 77.25 77.34 76.45 76.01 75.54 75.72 79.07 77.55 76.22 76.42 77.61 78.36 78.37 79.09 77.86 77.93 77.73 78.16 77.94 77.91 76.98
54.43 51.93 46.41 45.80 45.48 45.56 51.93 50.42 54.52 58.11 60.03 61.30 62.84 64.44 66.31 68.78 68.83 69.65 71.68 71.84 72.63 73.16 73.96 74.33 75.06 75.78 76.74 76.39 76.53 76.93 77.09 77.41 76.68 77.08 74.14 76.87 75.43 75.80 78.21 78.97 78.70 77.60 78.62 78.71 78.36 78.35 78.09 77.76 77.13
52.46 51.77 47.28 42.12 43.41 46.23 50.46 49.62 51.85 59.89 62.28 62.97 61.43 62.44 65.15 66.97 68.62 68.51 69.48 72.55 72.55 73.20 74.23 74.64 74.95 75.39 76.28 76.56 76.60 77.33 77.51 76.33 76.15 76.62 74.78 75.28 75.37 76.18 79.11 77.41 78.31 77.99 77.73 78.30 78.68 77.42 76.44 77.83 77.08
52.05 49.38 52.65 48.25 50.30 47.24 49.61 53.96 57.87 59.54 60.30 61.28 59.02 59.80 61.86 66.19 68.32 69.04 72.08 72.39 72.89 73.22 74.05 74.84 75.25 75.85 76.51 76.16 76.92 77.03 77.36 77.00 76.09 76.84 76.93 75.88 77.31 76.55 78.56 78.23 76.86 77.15 77.61 78.22 78.62 77.03 77.48 77.89 77.67
51.25 53.39 47.71 48.80 43.81 42.85 46.63 50.27 51.54 54.44 55.81 58.22 57.26 57.07 59.99 62.76 67.30 69.16 69.53 72.02 72.96 73.86 74.27 75.02 75.48 75.04 75.90 75.97 76.33 76.45 77.09 77.34 77.22 76.68 76.64 77.00 77.34 77.82 77.83 78.39 78.11 77.45 77.38 77.91 78.09 77.57 78.13 77.79 76.83
49.13 49.25 50.38 50.45 49.16 45.18 44.44 48.34 54.20 54.27 55.26 55.46 55.09 56.26 58.24 60.65 62.85 65.76 64.28 68.48 72.80 73.67 73.36 74.33 75.09 75.31 74.93 75.77 76.27 76.44 76.20 76.84 76.93 76.02 76.36 76.90 78.17 78.33 78.27 78.74 78.59 78.11 77.79 78.25 78.63 77.80 76.96 77.46 77.05
48.67 48.76 50.37 47.05 46.71 49.10 49.06 47.87 55.17 54.87 55.72 55.99 55.33 55.92 56.65 58.73 60.09 61.92 64.00 65.43 67.50 70.58 72.65 73.72 74.24 74.35 75.11 75.77 75.63 75.95 75.75 76.57 76.11 76.01 76.20 76.74 77.16 78.40 78.19 78.18 78.88 78.56 78.43 78.76 77.91 76.20 76.44 76.81 76.52

GFSSGP_sfc_wetblb_099.txt.gz
Wetbulb
73.93 73.60 74.65 72.23 62.24 61.93 59.36 59.32 64.47 63.17 63.53 66.52 66.66 64.78 65.31 66.93 63.13 60.26 71.84 73.83 74.53 74.06 75.17 76.45 77.56 76.67 76.72 76.47 76.17 76.25 76.25 75.84 75.73 75.63 75.49 76.17 76.81 76.76 76.71 76.76 77.40 77.54 77.46 77.25 77.41 77.03 77.57 77.44 76.98
73.75 72.82 73.11 69.24 61.12 57.63 58.92 63.87 62.04 65.03 65.94 67.31 66.69 66.34 66.42 64.91 68.41 68.71 70.56 73.97 74.45 74.25 74.76 76.28 77.80 77.47 76.90 76.38 76.12 76.43 76.34 76.31 76.31 75.76 75.49 75.33 76.43 76.48 76.32 76.82 77.13 77.31 77.35 76.97 77.22 77.27 77.49 77.54 77.43
75.40 73.40 68.21 66.12 60.96 57.15 58.78 62.93 64.16 65.65 66.60 65.97 66.22 68.62 68.70 64.51 68.53 70.11 73.17 74.16 74.42 74.72 75.44 77.19 77.52 77.58 77.12 76.53 76.34 76.50 76.45 76.28 76.24 75.66 75.88 76.53 75.75 76.30 76.51 76.47 76.88 76.98 76.99 77.33 76.56 76.74 76.74 77.29 76.54
72.27 71.02 69.42 63.51 58.81 62.47 63.47 63.88 65.18 64.88 67.02 67.61 68.14 65.12 68.96 70.46 69.59 72.10 73.76 74.51 74.50 75.11 76.00 76.89 77.31 77.02 77.14 76.73 76.37 76.26 76.39 76.20 76.16 75.80 75.42 75.78 76.16 76.58 76.30 76.41 76.66 76.85 76.72 76.93 76.74 76.66 76.46 76.74 76.55
72.26 71.12 63.51 59.78 60.65 63.91 66.03 65.69 64.94 64.47 66.53 66.84 67.71 65.09 65.35 69.56 72.06 73.09 73.66 74.21 73.83 74.40 75.79 76.53 78.03 77.13 76.83 76.79 76.66 76.56 76.40 76.01 75.93 76.02 75.42 76.33 76.00 76.22 76.16 76.30 76.61 76.47 76.47 76.53 76.31 76.33 76.74 76.59 76.71
68.12 68.87 60.31 57.32 60.38 64.44 66.34 66.47 65.50 66.10 67.05 67.44 66.94 65.87 66.61 71.74 71.28 72.73 73.59 73.94 73.70 74.29 75.53 76.54 77.14 77.08 76.86 76.85 76.53 76.77 76.28 76.29 76.32 76.01 76.17 76.46 76.16 76.03 76.36 76.39 76.36 76.53 76.56 76.44 76.81 76.94 76.90 76.83 76.82
65.46 65.91 60.33 59.93 60.82 62.78 65.46 67.47 64.98 66.21 66.71 66.47 69.20 65.33 67.88 69.42 71.87 72.82 73.66 74.39 74.12 75.14 74.79 76.18 76.98 77.38 76.93 76.87 76.52 76.71 76.60 76.28 76.33 76.31 76.07 76.13 76.00 76.28 76.03 76.00 76.31 76.28 76.58 76.70 76.92 76.86 76.95 77.03 76.61
69.56 65.82 61.08 62.12 60.94 61.37 65.35 67.45 67.83 67.22 66.67 69.79 70.76 64.48 64.50 69.58 72.30 73.02 73.51 73.65 73.79 74.69 75.09 75.79 76.07 76.56 77.04 77.01 76.67 76.82 76.42 76.42 76.31 76.26 76.04 76.37 76.42 76.24 76.17 77.04 76.33 76.56 76.53 76.58 76.58 76.72 76.94 76.79 75.88
71.82 62.15 58.63 60.50 60.27 63.50 65.72 64.84 68.45 70.92 68.05 68.20 70.10 68.62 69.14 71.15 72.33 72.12 71.94 72.54 73.20 73.29 73.84 74.52 75.86 75.91 76.86 76.39 77.10 76.68 76.69 76.28 76.71 76.06 75.69 75.97 75.96 75.71 75.78 76.42 76.14 76.25 76.05 76.33 76.28 76.31 76.73 76.85 76.44
67.18 59.88 62.33 65.58 65.03 65.18 66.51 66.65 67.41 66.99 66.84 67.27 68.61 69.15 69.97 70.88 71.22 70.55 70.44 70.69 71.60 72.05 73.46 74.42 75.05 75.16 75.58 75.23 77.24 77.44 76.32 77.04 76.96 76.60 76.89 76.21 76.75 76.01 74.57 75.92 76.03 75.77 76.05 75.92 75.47 75.80 76.89 77.28 76.28
66.98 60.18 66.09 66.24 66.38 67.12 66.30 66.63 65.87 66.41 64.74 67.03 65.91 67.36 69.06 70.02 70.52 70.32 70.39 70.95 71.96 72.84 73.23 74.93 75.82 76.10 76.06 76.76 76.41 75.63 76.54 75.71 76.49 76.96 75.97 77.72 75.07 75.90 74.32 74.90 75.12 75.34 75.89 75.16 75.46 74.33 74.22 76.02 74.01
63.33 66.00 65.96 66.76 67.01 66.98 65.27 66.23 63.76 66.57 66.37 69.53 68.43 69.16 69.03 69.33 69.36 69.69 70.25 71.22 72.03 72.54 74.16 74.67 76.31 76.91 76.08 76.08 74.90 75.13 75.45 75.75 75.28 75.40 76.47 76.23 75.59 76.74 78.06 74.11 74.10 75.71 75.04 75.60 74.99 75.16 76.52 74.83 74.80
64.11 64.49 65.38 68.17 67.50 67.08 65.97 62.99 63.68 65.57 68.62 71.02 71.21 68.98 68.40 68.88 69.36 70.51 71.13 72.08 72.38 72.65 73.49 74.17 75.90 77.14 76.74 77.72 75.77 74.00 75.61 75.28 75.14 75.76 76.86 76.62 75.20 74.83 75.04 75.54 74.50 74.79 75.24 75.40 75.92 75.32 75.85 75.95 74.64
65.58 64.72 64.30 66.76 67.06 67.21 64.72 63.36 64.74 66.85 69.58 70.11 69.82 68.03 68.56 68.63 69.31 70.31 70.81 71.36 72.04 72.97 73.23 74.36 74.49 76.91 76.82 76.77 77.35 76.57 75.25 76.31 77.39 75.46 76.32 76.31 76.13 75.75 74.53 75.42 74.24 74.61 74.83 75.86 77.28 75.91 74.35 75.47 74.34
65.36 62.92 62.74 64.75 66.66 64.66 66.61 62.44 62.39 67.43 68.87 68.13 67.86 67.99 68.11 68.71 69.80 69.87 70.99 71.39 72.02 72.77 73.72 73.86 74.49 75.61 76.36 76.22 76.37 77.99 76.15 75.21 76.45 75.88 77.78 77.03 76.77 76.37 76.96 75.48 77.77 74.74 76.20 76.74 76.51 77.29 76.85 76.54 73.38
62.58 62.55 58.09 62.89 63.74 65.84 65.30 58.09 65.03 67.70 68.09 66.83 67.36 67.50 67.59 68.42 69.56 70.70 71.25 71.37 72.10 72.79 73.55 73.96 74.12 75.19 76.03 76.68 76.85 77.04 76.47 75.46 75.41 76.73 76.64 77.47 77.60 77.47 77.75 75.37 74.83 76.09 75.80 75.30 74.95 76.37 74.68 72.97 72.68
61.28 56.99 57.16 59.53 64.87 64.57 61.72 59.53 63.90 66.54 67.73 66.25 66.85 66.93 67.46 68.67 69.78 70.53 70.83 71.04 71.92 73.20 73.74 73.63 74.64 74.97 75.71 76.73 76.71 76.76 77.98 77.25 76.80 76.84 77.37 78.01 77.85 77.50 77.54 75.78 77.03 76.96 75.83 76.09 75.18 74.78 73.37 73.89 72.74
56.52 56.76 58.10 58.55 62.21 64.02 61.09 59.44 63.58 65.65 66.64 65.85 66.53 66.85 67.71 68.70 69.48 70.36 70.22 71.26 71.77 73.16 73.95 74.46 74.49 75.92 77.05 76.41 77.78 77.05 75.97 77.29 77.73 76.88 75.75 77.99 78.00 77.75 77.50 76.59 77.18 76.81 76.56 74.64 74.47 77.46 74.74 75.68 73.31
58.69 57.32 56.68 59.95 63.52 62.45 58.89 59.50 62.62 66.72 66.57 66.67 65.88 65.86 66.37 67.45 70.24 70.68 71.07 71.48 71.22 72.53 73.23 74.38 74.83 76.70 76.30 75.05 74.26 75.00 74.42 76.90 77.25 77.10 77.61 77.83 77.80 77.69 78.03 76.23 76.45 76.97 76.65 74.81 76.47 74.45 75.09 72.99 73.90
58.71 57.07 56.60 61.01 64.04 60.17 57.84 57.87 61.47 64.74 65.67 67.21 67.98 66.72 67.17 68.17 68.84 69.97 70.93 71.68 70.76 71.56 72.90 74.23 75.53 76.55 76.45 75.20 77.21 77.33 76.34 76.56 77.78 76.82 77.63 78.54 77.30 77.47 77.19 78.23 76.18 78.28 75.53 76.77 76.31 76.35 74.28 73.17 73.73
58.13 56.49 55.98 56.38 61.89 59.48 57.01 56.95 59.52 63.97 66.07 67.30 68.26 68.16 68.88 68.12 67.64 69.15 70.16 71.65 71.87 71.45 72.87 74.03 75.94 76.73 77.43 79.32 78.21 77.58 78.27 77.21 76.07 76.54 76.47 77.04 77.37 77.16 77.89 77.01 77.76 77.49 77.13 75.20 76.44 76.33 77.06 73.46 72.86
54.08 58.33 57.28 56.66 56.12 53.59 58.42 48.84 57.44 61.99 64.17 66.53 67.61 68.06 67.77 67.81 68.89 69.39 69.94 71.56 71.59 71.82 73.16 74.59 75.95 77.01 77.31 78.04 77.97 77.34 74.24 73.15 74.02 77.36 76.24 76.76 77.70 78.05 77.41 77.54 77.49 77.64 76.50 77.72 76.76 75.74 77.39 77.06 72.23
55.11 58.89 56.82 55.88 54.90 56.97 54.81 53.76 53.48 61.49 60.58 63.64 66.99 68.41 68.22 68.47 69.97 68.68 69.96 71.62 72.48 72.79 72.67 74.27 75.75 77.15 78.03 78.11 78.54 76.42 75.70 74.95 76.53 75.22 77.71 78.27 78.29 77.65 77.10 77.47 77.75 77.60 77.05 78.94 78.93 77.28 78.51 75.13 74.89
58.60 56.78 57.25 56.39 54.33 50.32 56.23 53.88 52.85 57.01 60.05 63.53 66.45 67.76 68.92 69.27 69.38 70.90 70.66 71.92 72.11 73.03 73.11 73.68 75.44 77.59 77.75 77.79 77.36 77.71 76.29 76.44 74.46 74.59 75.79 75.76 75.79 76.61 77.77 77.31 77.69 78.16 76.07 77.76 77.36 78.27 78.03 78.68 78.45
57.07 54.73 48.80 47.56 47.67 47.70 56.37 53.77 55.03 60.19 61.69 62.17 63.12 64.80 67.92 69.76 71.48 71.45 70.02 70.63 71.92 72.21 72.74 73.71 76.87 77.35 77.35 76.99 77.37 77.45 77.47 77.10 76.88 76.55 75.78 73.05 74.74 73.84 77.81 78.87 78.11 77.57 78.50 78.11 78.81 78.84 78.40 77.72 77.22
54.75 53.97 48.97 43.94 45.05 47.58 53.88 52.49 55.17 62.44 61.76 61.72 61.51 63.13 66.08 68.55 71.01 71.57 71.17 72.04 71.95 72.58 73.11 73.88 77.15 77.51 76.96 77.10 77.85 79.23 78.39 76.31 75.31 77.01 75.53 75.58 73.14 75.32 78.77 77.66 77.56 78.08 78.22 78.12 78.84 77.32 76.50 79.13 77.17
54.22 51.20 54.73 50.72 51.76 48.53 52.75 55.81 59.68 62.05 62.14 60.92 59.39 60.48 62.39 66.86 70.70 71.30 70.52 71.77 71.64 73.19 73.75 74.52 76.78 78.45 77.42 77.15 78.91 78.96 79.01 78.38 76.91 78.44 78.19 76.22 77.89 77.20 78.68 77.24 78.04 78.08 77.80 78.35 79.15 77.76 77.41 78.01 77.87
53.15 55.79 49.95 50.68 45.84 44.63 51.08 52.68 53.76 56.13 57.51 58.35 57.27 57.75 60.54 64.88 68.70 70.76 69.90 70.21 72.34 72.90 73.79 75.07 76.17 77.31 77.41 77.81 77.63 77.37 77.82 78.32 78.17 77.43 77.12 78.41 78.60 77.72 74.53 78.02 76.94 77.25 77.78 77.98 79.09 78.71 78.43 78.25 77.08
51.78 51.35 52.48 52.61 51.12 47.31 46.86 51.28 59.07 57.57 56.22 57.34 56.22 57.03 58.74 61.37 63.69 66.51 68.71 68.91 71.39 70.46 70.61 74.44 75.47 76.47 76.92 77.27 77.75 78.60 77.50 77.88 78.18 77.21 77.02 77.12 78.55 78.26 78.25 78.57 77.97 77.53 77.08 77.63 78.70 78.70 78.42 77.71 78.11
52.68 51.83 52.79 48.47 48.69 50.57 49.62 46.94 57.42 58.75 59.15 58.10 56.57 56.49 57.80 59.11 62.14 64.64 65.47 65.41 63.10 64.36 67.61 72.69 69.37 75.05 75.22 76.37 76.86 77.11 77.60 77.55 77.46 77.40 77.17 77.49 77.99 79.03 78.27 78.68 78.58 78.35 77.92 79.32 77.63 76.66 76.16 76.45 76.23

GFSSGP_sfc_wetblb_102.txt.gz
Wetbulb
73.77 73.53 74.03 70.73 60.87 61.33 57.78 59.86 64.13 61.29 62.20 64.55 66.43 65.67 63.89 64.82 62.41 58.49 71.91 73.11 73.03 73.50 75.01 75.47 77.37 77.31 76.83 76.51 76.15 76.16 75.88 75.78 75.75 76.05 76.70 77.08 77.07 77.58 77.96 78.04 78.21 78.20 78.13 77.61 77.58 77.53 77.45 77.57 76.73
73.28 72.48 72.53 68.11 59.60 55.77 57.96 63.07 61.27 63.03 64.51 66.48 66.93 66.71 64.55 62.17 67.03 68.39 70.38 73.17 72.98 73.09 74.16 74.58 77.19 77.41 76.81 76.27 76.92 76.41 76.38 76.19 75.84 75.73 75.68 76.85 76.61 77.10 77.14 77.50 77.58 78.17 77.87 77.89 77.45 77.56 77.60 77.37 76.90
73.63 73.88 67.27 62.87 60.19 57.58 57.73 62.43 62.66 64.47 65.52 65.85 65.95 67.63 65.38 63.73 68.30 69.63 72.44 72.80 72.71 73.65 75.18 76.40 77.59 77.67 76.87 76.79 76.74 76.66 76.39 76.31 75.76 76.46 76.66 76.07 76.83 76.75 76.90 77.14 77.22 77.45 77.38 77.16 76.81 77.11 76.75 76.48 75.95
71.96 70.92 68.50 61.38 58.67 62.43 62.07 63.57 64.03 63.59 65.78 67.52 67.10 63.10 66.99 70.06 69.41 71.07 72.76 72.90 73.26 74.64 75.49 77.45 77.89 77.24 76.82 76.99 76.29 76.66 76.46 75.94 75.84 75.98 75.93 76.37 76.13 76.45 76.73 76.92 77.04 77.17 77.14 77.04 76.73 76.81 76.86 76.49 76.08
71.79 69.68 61.67 59.70 61.01 62.93 64.72 64.56 65.56 63.77 64.84 66.11 65.72 62.85 64.46 69.85 71.73 72.07 72.69 73.67 73.19 73.94 75.14 76.22 78.03 77.70 76.88 76.70 76.48 76.58 76.34 76.00 76.31 76.04 76.26 76.26 76.43 76.37 76.57 76.96 76.82 76.85 76.88 76.60 77.04 77.11 77.11 76.59 75.92
67.03 68.27 60.11 58.14 61.11 62.96 64.50 65.88 66.63 65.43 66.56 66.08 64.24 63.93 65.42 70.89 70.70 71.96 72.94 73.80 73.80 73.20 74.71 75.74 77.50 77.45 76.97 76.43 76.80 76.41 76.31 76.55 76.30 76.53 76.59 76.31 76.84 76.59 76.78 76.71 76.88 76.80 77.02 77.13 77.15 77.11 76.98 76.80 75.77
65.65 64.82 59.59 59.51 61.29 62.10 63.56 67.47 66.06 65.85 65.70 64.46 67.00 63.16 66.41 68.79 71.15 72.16 72.85 74.05 73.75 74.48 75.01 75.59 75.90 76.65 77.13 76.76 77.13 76.79 76.67 76.57 76.32 76.55 76.94 76.88 76.67 76.60 76.49 76.82 76.71 76.80 76.99 77.07 76.90 76.96 77.13 76.34 75.53
68.88 66.17 60.31 61.19 60.94 61.08 66.27 67.08 68.58 66.98 64.98 69.07 68.90 63.07 63.42 68.81 71.30 71.87 72.07 73.42 72.71 73.66 74.30 75.66 76.06 76.14 75.79 75.87 76.88 76.88 76.87 76.57 76.67 76.20 76.56 76.52 76.62 76.46 76.46 77.44 77.30 76.91 76.91 76.63 76.65 76.99 76.92 76.02 75.48
70.21 60.17 58.08 60.22 61.49 63.36 66.80 65.11 68.67 70.36 67.59 68.47 69.01 67.29 68.68 70.48 71.40 71.05 70.86 71.30 72.25 73.37 73.84 74.36 75.06 75.94 76.58 75.89 76.13 76.65 76.99 76.77 76.44 76.00 76.26 76.71 75.45 75.18 75.49 77.33 77.29 76.43 76.57 76.43 76.63 76.65 76.63 76.00 75.79
65.33 58.82 59.45 65.42 65.90 64.33 65.37 65.13 66.93 66.89 66.65 67.19 65.79 68.28 69.45 69.99 70.14 69.72 69.44 69.39 70.35 71.62 72.62 74.73 74.99 74.95 75.94 74.39 76.59 76.40 75.79 76.24 77.38 75.70 76.22 74.07 74.54 74.58 74.91 76.15 76.74 75.95 75.90 75.79 76.24 76.80 76.98 76.52 74.62
64.36 60.17 64.90 66.34 67.38 66.28 66.36 66.41 67.70 65.87 64.62 66.42 64.28 66.30 68.41 68.86 69.40 68.72 69.56 70.73 69.99 72.79 73.07 73.65 75.21 75.96 75.71 74.89 75.34 76.07 75.97 75.92 76.19 73.91 77.38 77.27 75.90 73.66 73.20 74.96 74.47 75.43 75.71 74.95 74.50 76.02 75.58 76.28 75.02
61.21 65.13 66.46 67.31 67.45 65.83 65.70 67.41 65.61 65.84 66.79 67.53 67.66 68.10 68.32 67.86 68.18 68.40 68.85 70.58 71.91 72.59 73.22 74.95 76.15 77.95 77.11 71.80 74.22 75.83 74.71 76.42 74.95 75.60 77.86 76.97 75.71 74.73 76.05 74.94 75.45 73.68 77.21 72.63 76.01 71.64 72.73 75.20 73.50
63.54 64.76 67.02 67.24 67.53 66.70 66.51 64.90 65.26 65.67 68.89 69.41 68.26 68.28 67.83 67.68 68.17 69.28 70.41 70.74 72.88 70.93 74.30 75.11 76.49 76.46 76.80 72.90 73.54 71.97 73.60 74.80 74.53 77.41 76.42 77.37 72.70 77.11 75.71 75.68 74.90 73.61 76.65 74.43 75.01 73.93 76.04 75.18 73.95
64.31 64.39 65.31 66.80 66.62 65.65 63.54 63.22 63.93 66.19 69.24 69.03 67.43 67.40 67.69 67.53 68.15 70.00 70.87 70.40 71.68 72.97 72.96 74.72 75.87 76.46 77.97 75.92 73.48 71.74 73.11 73.58 74.50 76.21 78.48 76.16 76.15 74.30 75.94 76.98 75.50 76.27 74.61 75.13 74.12 72.86 74.02 72.21 74.56
64.57 61.90 63.51 65.10 65.14 64.68 65.44 61.46 61.53 67.53 68.69 68.23 67.19 67.19 67.18 67.50 68.81 69.53 71.12 70.87 71.56 72.14 73.58 73.59 74.66 76.14 77.24 78.59 75.93 73.55 73.84 74.10 76.39 75.41 79.44 78.79 77.55 78.13 72.51 75.94 74.38 76.35 77.46 76.80 77.56 75.52 77.65 74.32 74.26
60.71 62.16 57.24 64.55 65.46 65.88 64.42 57.56 62.58 67.01 67.09 66.74 66.43 66.45 66.62 67.30 68.15 69.77 71.16 71.74 72.41 72.59 73.78 74.23 73.51 74.91 76.86 78.84 76.99 73.07 74.36 70.64 71.05 75.68 76.29 78.76 79.23 79.19 78.78 77.30 74.54 77.53 77.52 72.78 76.22 75.26 74.00 75.32 73.72
59.73 55.63 56.76 58.92 65.61 64.06 62.95 58.99 62.72 66.19 67.00 65.41 65.78 65.83 66.09 66.94 68.39 69.81 70.45 71.25 71.74 73.42 74.11 73.86 74.95 74.47 76.31 78.36 76.88 75.57 73.69 74.45 75.51 76.67 78.20 77.69 78.77 78.71 77.66 77.27 77.84 78.25 75.78 75.53 72.59 71.34 74.79 74.84 71.59
54.48 55.96 57.82 57.92 62.38 63.46 60.99 59.67 62.40 64.08 65.23 65.06 65.53 65.80 66.05 66.62 67.43 69.71 69.95 71.07 71.79 73.51 74.54 75.80 75.37 76.56 78.62 77.34 79.87 76.43 78.65 75.40 75.56 73.97 76.40 77.53 77.18 77.55 75.02 77.48 77.91 78.61 76.94 73.84 72.09 75.27 74.74 75.24 70.01
57.19 57.45 57.07 59.02 64.55 62.30 60.30 59.57 60.44 63.00 65.97 64.61 64.72 65.44 65.78 66.70 68.60 69.14 69.60 70.69 71.68 73.14 73.98 75.33 76.46 77.57 76.82 76.33 76.04 77.06 76.46 78.14 76.88 74.03 76.55 76.31 78.07 78.05 76.05 75.70 77.72 78.75 72.53 75.13 76.59 75.87 75.73 75.29 75.44
54.89 55.80 56.67 60.10 63.18 61.36 60.03 57.76 61.17 63.15 63.89 65.89 65.17 65.47 65.94 66.42 67.04 68.87 69.36 70.21 71.25 72.46 73.97 74.96 76.38 77.17 77.72 76.62 76.33 75.49 72.56 76.36 77.23 76.97 78.22 78.46 78.43 78.77 77.01 77.31 77.10 77.17 76.17 77.79 77.30 78.08 74.20 74.52 74.82
54.28 55.26 55.17 56.97 60.43 59.43 58.29 55.43 56.08 60.33 61.65 63.94 67.01 67.20 67.53 67.64 66.41 68.10 69.47 69.68 70.54 71.99 73.41 74.68 76.62 76.73 77.62 78.88 76.40 72.34 74.20 76.90 76.89 75.51 76.85 77.45 78.00 78.14 78.61 78.11 78.52 74.43 77.26 76.46 78.18 77.77 76.77 73.75 73.58
52.68 59.13 57.28 59.78 56.51 52.51 60.09 49.90 56.59 59.73 61.30 63.10 65.49 67.59 67.24 67.66 67.99 68.10 69.55 69.60 69.87 71.57 73.37 75.34 77.27 76.69 77.21 75.44 78.26 77.66 76.24 71.92 76.86 76.44 76.73 77.22 77.18 78.57 78.33 78.68 79.14 78.59 77.43 77.72 78.22 75.48 76.46 77.71 74.01
55.09 58.75 57.64 57.13 55.94 55.28 55.90 53.69 55.62 59.18 57.53 61.35 64.09 67.46 68.37 68.33 67.76 68.50 69.46 70.07 71.09 71.95 72.73 74.63 76.62 77.07 78.03 78.48 78.08 76.83 71.07 66.17 73.12 72.09 78.40 78.20 78.22 76.81 77.67 79.11 79.08 78.36 72.92 74.97 78.77 78.44 78.49 76.90 74.21
58.32 56.63 57.25 56.15 53.95 50.29 55.11 54.86 54.10 55.17 58.53 63.53 66.41 67.38 68.56 69.04 68.72 69.37 69.24 70.55 69.97 71.85 72.43 74.16 75.49 76.89 77.77 78.24 77.22 77.43 72.71 70.48 72.53 72.97 77.13 76.65 77.33 77.77 77.91 78.15 79.34 78.50 74.37 77.29 78.75 79.03 79.06 78.20 76.75
55.71 54.23 48.66 47.44 47.32 46.53 56.74 54.43 56.14 58.86 60.20 61.05 63.65 64.51 66.68 68.85 68.88 69.66 69.96 70.44 69.81 71.24 71.78 73.94 74.99 76.39 77.54 77.23 77.49 77.25 77.06 72.03 71.83 75.50 75.59 74.42 75.62 76.01 77.19 78.32 79.12 79.01 79.93 78.44 79.13 79.89 79.19 78.61 77.89
54.35 54.32 49.51 43.64 44.57 47.17 56.41 51.79 55.27 61.54 61.73 62.00 63.44 64.63 66.36 67.90 68.50 69.80 70.46 70.17 70.85 71.08 72.11 73.76 75.26 76.13 76.91 77.35 77.88 78.53 78.18 76.05 74.64 75.79 74.97 71.84 73.18 72.32 76.62 77.69 78.17 78.91 78.07 77.87 78.85 78.69 77.83 78.73 77.75
53.79 51.55 55.47 50.64 51.18 47.99 52.78 55.74 59.02 60.90 60.21 60.57 60.39 62.24 63.92 66.44 69.52 68.68 70.60 71.04 70.11 71.54 70.93 74.07 75.27 76.14 76.83 76.82 77.74 78.67 78.87 78.85 77.72 79.59 79.85 77.12 72.82 73.83 78.46 77.41 78.24 78.78 78.05 78.67 78.79 78.06 77.95 78.10 79.11
53.96 55.80 49.62 50.97 44.54 44.17 50.83 52.17 53.29 56.09 56.84 57.93 57.82 58.76 60.99 64.13 66.28 69.15 68.76 68.50 71.41 71.66 71.74 73.34 76.35 76.56 77.26 77.59 77.79 77.80 78.35 78.82 78.99 80.55 79.20 80.81 75.70 73.63 72.62 69.05 77.45 79.37 79.17 79.34 78.30 77.56 77.98 77.54 77.85
51.59 50.43 52.02 51.92 50.69 46.02 46.54 50.06 58.87 58.45 57.84 56.53 56.84 57.35 58.86 61.45 63.56 64.96 66.72 67.55 69.42 69.98 68.10 69.20 71.44 75.90 76.49 77.60 77.83 77.72 77.80 78.30 79.03 78.44 79.27 78.75 80.53 73.89 66.84 66.60 70.56 77.97 78.56 78.75 79.09 77.73 77.26 76.36 77.10
52.76 51.89 52.49 48.36 48.14 50.41 48.96 48.84 58.59 59.78 59.29 58.53 57.13 56.70 58.55 60.63 62.78 64.44 65.32 64.95 65.17 67.76 68.12 67.63 67.65 69.24 71.19 73.63 76.74 77.21 78.46 78.42 77.91 78.14 78.49 79.23 79.08 80.24 75.39 72.61 76.19 76.25 78.21 77.84 78.04 76.72 76.96 76.36 76.70

GFSSGP_sfc_wetblb_105.txt.gz
Wetbulb
73.64 72.93 71.78 69.62 59.76 59.69 56.04 59.55 61.17 60.75 61.79 64.98 65.98 64.31 62.79 64.42 61.45 56.51 70.15 71.81 72.36 73.54 75.14 76.02 77.68 77.01 76.85 76.14 76.15 76.00 75.84 76.11 76.68 77.25 77.68 77.37 77.38 78.06 78.21 77.83 77.47 77.81 78.40 77.78 77.48 77.49 76.77 76.87 76.90
72.58 71.02 71.25 66.77 57.48 54.01 54.62 61.92 58.63 62.89 65.58 66.23 65.17 64.02 63.01 61.45 67.03 67.77 68.48 71.79 72.95 73.45 73.37 75.10 77.37 77.40 76.28 77.04 76.66 76.29 76.01 75.95 75.73 76.56 77.00 76.88 77.27 78.19 77.80 77.56 77.49 78.20 78.07 77.48 77.75 77.54 77.15 76.25 76.62
72.55 72.54 65.58 62.25 57.90 54.34 54.60 60.57 60.33 64.63 66.05 64.30 63.81 65.24 64.60 63.39 68.21 68.06 70.62 72.42 72.84 72.28 73.22 75.00 77.53 77.28 77.07 76.66 76.95 76.58 76.61 75.87 76.54 76.09 76.44 76.91 76.68 77.48 77.37 77.75 77.41 77.31 77.14 77.31 77.22 76.44 76.17 76.03 76.24
70.83 69.82 67.49 60.47 55.90 61.39 61.37 60.82 62.57 63.51 64.13 65.13 64.58 61.74 66.69 69.37 68.14 69.51 71.13 71.50 72.46 73.28 74.86 76.92 77.62 76.71 77.22 76.59 76.76 76.59 76.55 75.76 76.07 75.99 76.35 76.46 76.62 77.04 77.24 77.27 77.62 77.29 77.24 76.93 77.13 76.74 76.35 76.13 76.11
70.64 67.94 60.09 58.69 59.59 62.45 61.87 62.85 64.53 62.74 63.43 63.77 64.98 61.89 63.42 68.49 70.41 70.57 70.96 73.55 72.43 73.65 75.04 75.50 77.95 77.40 77.03 76.81 76.63 76.70 76.21 75.80 76.63 76.34 76.42 76.70 76.80 77.05 77.27 76.97 77.19 76.94 76.91 77.22 77.01 76.90 76.18 76.02 75.82
65.23 66.32 58.43 55.70 59.70 62.79 64.60 66.25 65.03 63.75 63.66 63.94 63.58 62.80 63.61 68.82 69.29 70.57 72.32 72.32 73.57 73.17 74.32 74.93 77.44 77.57 77.01 76.99 76.44 76.42 76.39 76.15 76.71 77.16 76.48 77.22 77.06 77.03 77.78 76.95 76.92 77.28 77.28 77.28 76.99 76.86 76.28 75.51 75.00
63.30 62.69 58.23 59.27 59.40 61.51 64.50 67.85 65.62 62.95 62.89 62.97 65.79 61.04 64.03 67.06 70.44 72.11 72.05 72.31 72.73 73.54 73.65 74.40 74.95 75.69 76.69 77.13 76.86 76.75 76.53 76.72 76.72 76.70 76.59 77.24 76.65 76.65 77.18 76.94 77.03 77.56 77.17 76.92 76.65 76.66 76.08 75.46 74.67
66.80 63.65 59.70 60.37 59.14 60.42 66.36 66.73 67.77 64.86 63.59 67.37 67.17 61.01 61.12 66.70 71.30 71.88 71.52 71.65 72.38 72.91 73.22 73.70 74.07 74.12 73.77 74.51 77.00 76.91 76.78 76.80 76.61 76.43 76.51 76.96 76.44 76.67 77.02 77.57 77.78 77.12 77.03 76.72 76.76 76.53 75.77 75.36 75.44
68.10 59.69 56.85 58.97 59.97 62.25 66.92 65.57 69.02 69.10 65.86 66.31 66.99 65.83 67.06 69.72 71.15 70.52 69.76 70.73 70.68 72.46 73.01 73.38 73.37 73.05 73.22 73.77 75.41 76.37 76.70 76.67 76.36 76.35 75.92 76.52 72.65 73.02 74.63 76.51 77.24 76.92 76.73 76.42 76.36 76.15 75.41 75.08 75.34
62.92 57.52 57.53 63.19 64.76 63.95 66.02 66.22 66.97 66.13 65.75 65.99 65.18 67.40 68.32 69.70 69.96 68.49 68.49 68.17 69.23 69.98 71.97 72.89 72.85 73.22 73.38 74.59 73.57 73.40 74.56 73.52 73.23 73.02 72.70 72.33 72.19 71.67 74.27 75.50 76.61 76.53 76.47 76.39 76.14 76.08 76.00 76.08 72.96
62.12 58.30 60.17 61.45 65.53 66.14 64.82 65.90 67.88 65.63 61.89 63.19 62.98 65.11 66.66 68.30 68.24 67.26 67.79 68.90 69.44 71.04 71.44 72.56 72.27 72.95 72.29 73.67 73.55 73.13 72.76 72.98 72.98 72.74 72.06 71.88 71.37 72.37 72.51 72.81 72.85 72.28 75.37 73.22 75.41 75.08 74.68 74.38 73.95
62.44 63.91 63.84 66.50 66.74 65.85 65.10 66.54 64.95 65.31 64.79 66.52 66.09 66.53 66.57 66.95 67.51 67.93 68.17 68.89 70.31 70.44 70.54 71.73 73.34 70.22 69.24 70.21 71.99 72.36 72.87 71.89 72.00 71.47 73.26 70.58 71.73 70.64 70.52 71.74 71.79 71.85 72.67 70.20 71.66 69.59 70.50 71.48 73.59
62.18 63.34 64.24 66.95 66.13 65.58 66.96 64.91 64.82 64.57 68.07 67.60 67.23 66.99 65.59 65.38 67.23 68.43 69.41 70.22 71.10 70.96 71.82 71.88 70.26 69.46 68.13 66.14 70.07 71.45 71.30 72.03 71.92 72.71 72.93 72.36 71.89 70.04 71.12 70.95 71.88 70.77 71.34 70.61 69.87 72.34 70.45 70.05 70.83
63.06 64.55 63.99 65.94 65.05 65.02 64.10 64.36 64.60 66.35 69.00 66.45 66.19 65.66 65.23 64.98 67.02 68.53 69.16 68.99 69.09 70.88 72.19 72.76 69.11 69.30 68.39 66.17 70.19 69.20 71.49 71.58 72.01 72.06 73.92 73.45 71.50 71.29 71.68 71.54 71.50 71.95 72.92 72.78 69.70 70.55 70.75 70.86 70.06
63.63 60.84 62.89 64.10 63.51 63.00 64.43 60.27 61.63 67.46 68.55 66.86 65.44 65.30 65.47 65.03 67.73 67.56 69.24 69.33 70.63 71.72 72.46 72.17 70.74 69.89 68.19 68.54 71.75 69.97 70.92 71.92 72.36 72.74 74.12 72.86 72.48 72.13 70.67 71.44 72.82 72.73 72.21 70.56 69.99 70.18 73.22 72.08 70.82
53.92 59.27 55.60 61.54 63.23 63.77 63.05 56.25 62.92 67.02 66.61 66.13 66.19 65.30 65.14 65.55 68.14 67.98 68.41 67.89 70.17 70.10 70.17 71.59 74.33 72.13 72.02 71.34 70.57 68.66 70.16 70.00 69.68 73.98 73.08 74.17 74.12 74.13 72.20 72.98 72.05 71.54 71.36 69.99 71.69 69.82 68.25 70.75 71.08
51.32 50.01 55.03 59.51 63.90 62.31 61.31 57.31 62.80 65.89 65.52 65.30 65.00 64.53 64.33 65.29 67.44 68.19 68.97 68.28 70.09 70.07 69.55 69.47 72.26 71.78 72.46 71.22 70.74 68.18 68.72 70.78 70.71 73.77 73.96 73.61 73.60 74.23 72.90 72.85 73.42 72.33 72.79 71.58 69.71 70.33 69.45 69.77 69.21
46.66 49.67 56.53 57.39 61.71 62.08 59.69 59.31 61.40 64.02 64.67 64.20 64.15 63.64 63.26 64.87 65.69 68.13 69.03 69.31 70.83 70.14 69.39 70.64 70.97 72.24 71.37 72.90 71.99 71.46 71.37 71.87 72.26 72.40 73.63 73.73 74.52 74.29 71.73 73.62 72.25 73.15 70.94 69.96 69.44 69.43 72.92 71.15 68.14
51.79 53.38 55.08 59.53 62.81 59.71 58.25 58.25 59.13 62.96 64.31 64.18 63.51 61.55 62.51 63.93 65.66 67.46 68.32 69.82 70.59 70.31 69.06 71.96 71.10 72.80 71.22 72.08 71.87 72.17 71.81 72.20 71.44 70.92 74.24 74.06 74.14 73.63 71.26 71.46 72.37 71.81 71.37 70.97 69.28 71.34 70.85 70.86 70.78
50.56 51.54 55.98 59.81 62.23 59.38 58.57 57.57 60.32 62.44 63.29 64.02 64.22 61.82 63.58 63.34 64.47 65.81 66.93 69.24 69.59 69.64 70.04 71.79 72.65 72.33 70.88 72.44 72.97 72.74 70.72 72.87 72.90 73.45 73.84 74.27 74.11 73.99 73.07 72.15 72.03 73.34 71.55 71.17 71.47 72.08 70.81 70.81 69.11
49.05 46.82 55.23 56.88 57.51 60.04 56.99 54.83 56.69 60.97 62.84 63.38 63.56 65.40 65.13 63.85 63.45 64.66 65.82 68.21 69.41 69.42 70.71 72.08 72.35 72.60 73.07 72.27 71.32 70.38 70.49 72.17 72.11 72.40 72.90 73.97 74.16 74.31 74.22 74.07 73.19 71.63 72.88 71.21 71.88 71.38 70.48 68.37 68.96
44.04 55.54 58.13 55.22 53.64 50.04 56.62 45.67 53.79 57.61 58.81 60.61 61.88 64.60 64.12 64.58 65.63 65.17 65.12 67.44 68.66 69.81 71.59 72.80 72.70 72.06 73.42 73.77 71.27 67.41 69.21 68.97 70.68 72.24 73.52 73.72 74.36 74.39 73.48 74.11 73.32 73.42 71.72 71.71 72.28 73.79 72.73 71.77 69.67
48.82 60.37 57.87 55.44 52.00 53.34 52.70 48.65 52.84 57.21 56.25 58.85 61.68 61.77 63.81 65.30 66.13 65.58 66.07 67.33 69.20 70.40 71.06 73.27 72.78 72.24 72.42 73.64 72.40 71.36 68.24 66.44 69.37 70.99 72.28 73.10 73.82 74.39 74.12 73.78 73.51 72.98 71.15 71.15 71.42 72.65 72.25 72.78 71.95
55.61 53.69 56.14 54.32 52.29 47.58 52.04 49.98 51.27 54.89 57.06 58.32 60.36 60.98 64.67 65.87 66.90 67.16 68.09 67.16 68.80 70.12 71.30 72.62 73.07 72.52 73.48 72.82 72.62 70.94 65.30 64.45 68.40 70.18 71.67 72.17 72.71 72.77 73.96 74.16 73.22 72.82 72.84 71.73 72.90 72.75 72.97 72.66 72.76
53.01 46.59 41.15 41.92 44.67 43.93 52.82 49.58 51.20 57.52 57.31 58.16 58.31 60.73 66.44 67.44 67.00 66.64 67.08 67.24 68.43 69.10 70.58 71.40 73.29 72.56 72.86 73.41 72.70 71.42 69.62 70.01 70.63 70.38 70.85 71.40 71.30 71.69 72.13 73.69 73.84 73.49 72.84 72.58 73.64 73.39 72.53 72.93 72.91
48.41 46.15 42.32 40.69 39.70 41.14 50.25 47.35 52.87 59.03 61.31 62.40 63.18 64.42 65.64 66.82 67.09 67.37 67.80 67.89 67.75 68.89 70.31 71.10 72.31 72.88 73.21 73.04 72.87 72.19 71.11 69.91 67.23 69.68 71.98 70.84 71.23 71.14 71.43 74.50 74.17 73.77 74.32 74.24 73.40 72.26 72.91 73.59 72.30
49.07 44.73 49.77 43.55 44.00 41.04 48.83 54.15 58.31 59.28 59.20 60.43 61.12 62.60 63.04 64.09 65.70 68.46 67.40 69.13 69.00 68.42 69.92 70.77 71.71 72.85 73.89 73.53 73.56 72.87 72.81 70.90 70.02 70.05 72.46 70.66 71.76 73.28 73.85 73.86 74.14 74.11 73.74 73.77 73.78 72.64 72.07 72.69 72.98
48.26 49.71 42.68 42.75 36.72 35.81 46.71 50.43 51.05 54.13 55.90 57.10 57.75 59.11 61.53 63.62 65.13 66.26 67.34 68.61 70.14 69.78 70.15 69.81 69.90 69.29 72.31 73.81 74.09 73.86 73.72 73.78 74.11 73.80 72.95 72.02 72.60 71.31 70.43 70.70 72.50 73.79 74.14 74.07 72.68 72.50 73.26 73.36 72.13
46.60 44.05 44.65 44.21 42.86 37.96 42.19 45.58 57.26 55.02 55.46 55.63 56.39 58.05 60.33 61.94 64.30 64.32 64.59 65.79 67.47 68.45 67.74 68.16 67.18 65.86 65.79 66.40 69.87 73.16 73.61 73.80 74.04 73.62 72.66 72.50 72.06 71.31 68.77 69.36 68.02 70.26 73.57 73.86 73.43 72.92 72.43 72.52 72.66
47.67 45.40 45.03 40.29 39.70 45.32 46.87 46.72 58.13 57.11 55.92 55.63 55.50 57.61 60.09 62.58 63.25 64.06 64.32 64.63 65.06 66.66 66.39 67.00 67.99 66.51 65.81 66.69 69.26 72.58 73.11 73.73 73.82 73.79 74.19 73.12 71.52 71.30 69.99 67.42 67.75 70.05 73.28 73.50 72.95 72.00 72.92 72.47 71.59

GFSSGP_sfc_wetblb_108.txt.gz
Wetbulb
73.25 72.87 72.06 68.81 59.47 58.50 55.78 57.90 62.05 60.70 61.09 63.51 64.01 62.69 61.36 63.20 60.33 54.58 69.46 71.30 73.14 73.38 75.05 76.25 77.45 77.18 76.85 76.56 76.34 76.50 76.85 76.77 76.66 77.33 77.51 77.76 77.25 77.49 77.61 77.44 77.44 77.49 77.55 77.27 76.88 76.95 76.84 76.47 76.27
72.29 71.72 71.16 66.44 57.22 53.37 55.07 61.08 59.43 61.95 63.20 64.91 64.91 64.67 62.96 61.06 66.71 67.11 68.06 71.92 73.56 74.18 74.40 75.32 77.21 77.00 76.27 75.92 75.85 75.75 75.69 76.43 77.08 76.69 77.21 77.62 77.54 77.77 77.57 77.57 77.49 77.43 77.76 77.37 76.92 76.76 76.51 75.94 75.66
71.70 71.25 65.28 61.57 55.88 54.06 54.51 61.15 60.93 63.11 64.17 63.78 62.66 65.96 64.59 63.35 67.65 67.83 70.37 73.04 73.42 72.89 74.12 74.70 77.16 76.82 76.79 76.49 76.85 76.32 75.59 75.59 76.48 76.95 76.79 77.04 77.52 77.52 77.47 77.36 77.13 77.17 77.84 76.65 76.77 76.62 76.34 75.91 75.66
70.24 69.81 66.66 59.21 54.67 58.56 59.69 61.50 61.97 62.24 64.11 65.36 64.99 62.14 66.72 68.92 67.74 69.91 71.93 72.49 71.76 72.54 74.12 76.58 76.63 76.84 76.63 76.82 76.69 76.52 76.04 76.86 76.09 76.45 76.80 76.95 77.28 77.44 77.35 77.45 77.28 77.11 77.03 76.71 76.13 76.16 76.40 76.62 76.76
70.64 67.18 58.58 58.23 57.69 59.17 61.89 62.25 62.51 61.02 63.03 63.89 64.70 61.74 62.84 67.69 70.60 71.31 71.23 71.82 71.77 73.31 74.52 74.74 77.61 77.06 76.83 76.54 76.59 76.53 75.46 76.00 76.19 76.23 76.31 76.84 76.96 77.35 77.15 77.13 77.13 77.07 76.90 76.76 76.41 76.41 76.36 76.23 76.48
65.02 66.06 57.28 55.48 58.67 62.50 64.25 63.86 63.17 62.31 63.57 63.83 63.12 62.40 62.43 68.55 68.64 70.21 72.10 72.52 73.49 73.73 74.40 75.09 76.91 77.02 77.04 76.62 76.48 76.24 75.89 76.76 76.38 76.46 76.83 76.78 77.10 77.36 77.03 76.85 77.08 77.16 77.05 76.71 76.43 76.02 75.81 75.60 76.69
63.56 61.71 58.28 59.15 59.16 60.81 64.19 65.60 62.35 62.68 62.50 62.36 65.05 60.59 63.48 66.07 69.75 71.75 72.41 73.16 73.79 74.12 73.78 74.17 74.37 75.83 76.77 76.71 76.66 76.35 76.53 76.54 76.32 76.27 76.61 77.01 77.00 76.96 76.90 77.30 77.35 77.05 76.86 76.41 75.96 75.52 75.23 75.60 76.09
66.48 62.99 56.81 58.93 58.55 60.00 65.05 64.00 64.24 63.62 62.57 66.64 66.42 60.22 60.33 66.29 70.94 71.53 71.84 72.13 72.24 73.23 73.88 73.62 73.29 73.23 73.62 74.15 76.71 76.52 76.62 76.50 76.31 76.37 76.59 76.62 77.18 76.72 76.82 77.67 78.05 76.75 76.44 76.24 75.74 75.24 74.96 75.02 75.87
68.14 59.11 54.62 56.30 59.33 61.11 66.47 63.80 66.93 69.02 64.39 65.08 66.22 65.18 67.20 69.99 70.69 69.32 69.73 70.67 71.16 72.14 72.58 73.13 72.78 72.79 72.96 73.62 75.06 76.28 76.74 76.25 75.92 76.45 76.32 75.29 72.18 73.71 74.37 76.54 77.60 76.50 76.36 76.24 75.99 75.38 74.64 74.75 75.25
62.23 55.99 57.32 61.53 62.73 62.60 65.35 65.09 64.71 64.35 62.98 63.99 64.46 67.73 69.32 69.62 68.94 68.11 68.39 68.32 69.40 70.43 71.88 72.60 72.73 72.16 72.86 74.78 73.37 73.01 74.50 72.88 72.59 72.38 72.61 71.88 71.11 72.30 73.94 75.63 77.19 76.64 76.44 76.27 75.86 75.50 75.44 75.24 73.35
60.44 56.59 61.41 61.00 62.66 62.90 65.23 64.98 67.45 63.17 62.04 62.60 62.57 65.85 67.75 68.06 68.11 68.21 67.72 68.88 69.39 71.18 71.70 72.31 72.13 72.26 72.06 72.89 72.43 72.84 72.73 71.97 71.85 71.65 71.08 71.09 71.28 72.44 72.06 72.69 72.95 72.25 75.39 73.03 74.50 73.70 73.73 73.48 73.46
58.45 63.81 64.00 65.66 66.43 64.46 64.23 66.34 64.12 64.49 64.18 65.78 65.89 67.15 67.85 67.83 67.25 67.61 67.41 68.33 68.90 70.20 71.37 71.90 71.69 70.60 69.04 71.49 71.58 71.45 71.48 72.06 71.64 71.63 70.96 69.42 70.02 70.24 70.89 71.10 71.16 70.91 71.53 70.05 71.69 70.06 71.04 70.47 71.09
61.30 63.54 64.66 65.90 66.33 66.62 66.91 64.73 63.67 63.71 66.24 67.14 66.90 67.70 67.18 66.45 66.45 68.44 69.09 69.68 69.98 69.36 70.92 70.89 70.59 67.71 66.07 68.73 70.12 70.26 71.02 71.22 71.08 70.59 72.12 70.91 70.45 68.89 69.98 70.79 70.81 70.48 69.76 69.81 69.47 70.25 69.40 69.30 68.49
57.78 64.59 65.36 65.25 64.59 66.14 64.32 63.54 64.24 64.15 66.27 66.41 65.64 64.92 66.57 66.48 67.06 67.84 69.02 69.16 69.06 70.17 70.21 69.89 69.91 68.98 65.60 66.11 69.16 68.14 69.96 70.91 71.31 71.60 71.61 71.47 70.59 69.10 69.79 69.71 70.25 70.10 71.35 70.79 69.04 69.47 70.40 70.07 68.11
65.22 60.49 61.44 63.82 63.63 63.61 64.29 60.04 61.01 67.05 68.30 64.44 64.69 64.81 64.81 67.05 67.96 68.12 69.42 68.83 70.40 70.90 70.52 69.03 68.71 69.20 65.98 66.82 69.45 69.29 71.29 70.76 71.25 72.05 72.45 71.51 70.13 70.45 70.23 70.32 70.34 70.72 70.26 68.16 68.47 70.94 69.95 70.27 70.23
57.71 58.88 56.21 62.36 61.83 63.88 61.51 54.96 62.91 66.83 66.48 63.77 64.53 64.55 64.16 67.45 68.33 68.82 69.41 69.01 70.93 70.92 70.57 70.21 71.20 68.26 66.25 68.45 70.14 68.33 69.40 70.07 69.70 71.60 71.72 71.64 71.06 70.34 71.58 71.08 70.21 70.33 70.56 69.49 71.01 68.38 67.59 69.81 69.78
45.41 49.50 53.67 56.43 62.28 61.37 60.02 56.02 62.03 66.14 66.02 65.04 64.74 63.44 63.66 65.74 67.62 69.07 70.07 70.30 70.93 70.92 70.87 70.08 69.93 69.81 69.86 70.75 69.27 67.26 68.91 68.94 69.74 72.08 72.76 72.40 73.10 73.53 71.84 72.26 71.04 71.38 71.24 69.80 68.73 69.26 68.39 68.37 67.42
41.78 48.08 53.27 56.31 60.45 60.80 58.25 57.34 62.01 64.88 64.88 63.49 63.99 64.71 64.09 65.12 65.83 68.20 69.42 70.33 70.22 70.28 68.57 71.46 70.63 70.59 70.57 70.69 69.47 69.36 69.76 70.03 71.49 72.01 72.21 73.14 73.42 72.34 71.65 73.41 71.56 71.31 69.65 68.91 68.53 68.70 70.52 69.27 67.63
46.00 50.35 56.42 59.09 61.09 59.79 57.32 57.21 60.32 63.32 63.33 62.00 63.42 64.09 63.10 65.06 66.26 67.38 69.01 69.61 69.22 68.36 69.02 69.22 69.69 70.14 70.77 70.00 69.11 68.98 68.55 70.26 70.35 70.54 73.08 72.64 73.38 71.95 71.04 71.39 71.31 70.77 69.66 68.89 70.17 71.81 69.48 69.20 69.29
46.16 47.13 52.80 58.52 59.80 58.78 57.43 56.76 59.76 62.32 62.46 62.82 63.32 63.42 61.85 64.78 65.08 66.41 68.20 68.76 68.37 67.43 69.67 69.63 70.57 69.70 69.90 71.74 71.43 71.69 71.27 71.32 70.84 70.63 72.85 73.30 73.50 71.87 71.08 70.70 70.92 71.46 70.22 70.11 70.07 70.93 70.04 68.64 67.59
44.68 43.94 53.49 55.76 58.71 59.18 57.08 55.42 56.37 61.11 62.45 63.59 64.53 64.53 65.29 64.01 64.09 65.14 67.14 68.08 67.99 68.55 70.00 71.03 70.87 69.32 70.10 71.47 71.27 70.12 70.52 71.01 70.86 71.39 71.30 72.70 73.13 73.23 73.18 72.18 71.46 71.30 71.10 69.79 70.18 70.70 70.53 68.52 68.80
40.14 48.61 57.29 55.24 53.72 48.22 56.63 46.78 53.25 58.00 59.90 62.00 63.28 63.70 64.76 63.52 64.41 65.34 66.46 67.37 67.72 69.26 70.83 71.28 71.18 70.84 71.73 71.16 69.11 68.35 69.02 68.12 69.85 70.25 71.30 72.27 72.71 72.96 73.48 72.98 72.04 71.66 70.91 70.52 71.28 73.09 71.25 70.18 69.48
45.49 59.16 56.99 55.29 52.34 51.34 51.81 48.45 48.03 57.08 57.31 59.40 61.83 63.13 64.42 64.81 64.08 64.42 66.60 67.62 68.53 70.14 71.01 70.99 71.01 70.47 72.14 72.11 69.75 68.81 68.06 68.50 69.29 70.52 71.58 71.75 72.07 72.79 72.90 72.99 72.82 71.05 70.07 70.34 71.10 71.86 70.77 71.84 71.06
59.16 56.43 54.15 53.51 49.94 44.46 51.01 48.77 50.19 52.93 55.71 59.65 62.04 63.09 64.79 64.16 66.38 64.70 67.37 68.06 68.46 70.12 71.45 70.92 69.99 69.86 71.16 71.60 71.27 69.28 65.93 66.83 68.03 69.53 70.47 70.86 71.11 72.12 72.41 72.61 72.24 71.94 71.33 70.39 72.18 71.81 71.40 71.23 72.03
51.22 48.58 39.20 40.66 41.89 40.60 49.24 49.92 49.81 56.06 58.48 60.08 60.90 62.40 63.46 63.95 65.07 66.62 65.75 66.73 67.50 68.87 70.61 71.64 70.29 69.95 71.63 71.31 71.40 69.29 65.55 66.33 69.14 69.26 70.02 70.15 70.51 71.11 71.79 72.50 71.80 71.38 71.51 71.59 72.54 71.71 71.26 71.30 71.06
46.10 46.03 40.15 36.24 37.61 41.40 49.54 47.08 54.00 57.37 59.28 59.71 61.59 63.70 64.46 65.98 66.65 67.69 67.74 66.91 67.33 68.68 70.30 71.87 70.59 70.29 71.43 71.42 71.36 69.85 69.24 70.41 70.43 69.99 70.30 70.88 70.77 70.37 71.57 72.85 72.98 72.72 72.35 72.15 72.26 71.16 71.59 71.59 71.45
45.29 45.62 47.28 43.04 43.87 42.62 49.16 53.63 57.16 58.72 58.29 60.95 61.20 63.28 63.23 64.56 66.71 67.17 68.53 69.03 67.62 67.75 69.44 70.89 71.51 70.77 70.59 72.14 71.65 70.62 70.23 69.17 67.14 68.55 70.87 71.62 70.64 70.69 73.08 73.23 73.10 73.00 72.84 72.71 72.35 71.64 71.07 71.40 71.66
49.08 49.92 43.56 42.84 36.25 36.36 45.42 49.59 50.35 55.11 57.18 58.91 58.91 60.14 62.30 64.45 66.05 67.02 67.90 67.85 68.77 68.89 70.27 70.79 70.29 68.42 67.20 68.14 69.56 71.91 70.93 70.44 68.87 68.72 69.99 70.51 70.46 71.98 71.66 71.36 72.70 72.87 72.72 72.46 72.53 70.79 71.89 71.53 71.33
45.34 43.12 43.98 42.24 40.07 35.97 39.94 46.55 56.84 55.98 56.43 55.79 57.20 59.86 61.20 63.15 63.68 64.97 66.01 67.63 67.63 68.10 68.10 67.38 66.46 65.11 64.58 66.29 67.70 69.17 71.27 72.75 72.33 71.83 72.00 71.62 70.83 70.06 68.20 70.81 69.95 71.35 72.42 72.79 71.78 70.77 72.14 70.85 71.06
46.07 43.26 41.96 39.01 39.27 41.46 43.23 48.10 56.57 56.22 56.24 56.76 57.29 58.91 61.77 62.81 63.30 63.66 64.69 65.57 66.30 66.82 67.00 67.04 66.19 66.53 66.93 68.05 68.69 69.66 70.89 72.12 72.36 72.40 71.83 71.46 70.64 70.21 68.16 68.71 67.04 68.14 70.79 72.07 72.00 71.68 72.17 70.68 70.75

GFSSGP_sfc_wetblb_111.txt.gz
Wetbulb
73.09 72.61 71.96 68.76 58.03 57.17 55.21 56.61 61.18 58.35 58.36 61.60 61.74 60.97 60.52 62.28 59.58 53.02 68.54 70.71 72.73 73.23 74.10 75.10 77.04 76.61 76.46 76.44 76.69 76.44 76.47 76.20 76.50 76.39 77.16 76.84 77.20 77.31 77.11 77.19 77.00 77.24 77.39 76.88 76.76 76.59 76.26 76.18 75.99
71.87 71.82 71.32 65.53 56.17 52.38 53.06 59.62 57.83 60.46 62.22 62.21 63.05 63.78 62.40 60.71 66.36 67.33 68.21 72.26 73.25 73.84 74.30 74.82 76.66 76.96 76.09 75.91 76.03 76.52 76.65 76.57 76.41 76.76 76.91 77.04 77.25 77.42 77.22 77.34 77.49 77.30 77.28 76.96 76.65 76.24 76.02 75.90 75.80
71.65 71.72 64.43 59.97 56.31 53.41 54.03 59.85 59.57 62.32 63.27 62.04 63.05 65.65 64.39 63.45 66.84 67.37 70.58 72.76 73.80 73.35 74.03 74.65 76.33 76.33 75.52 75.24 75.39 75.47 76.02 76.50 76.51 76.87 76.55 76.93 77.08 77.29 77.32 77.24 77.31 77.33 77.44 76.60 76.46 75.69 75.44 75.28 75.27
70.17 67.28 65.35 58.03 54.40 58.98 59.59 60.25 61.43 61.62 63.86 65.41 64.95 61.58 66.05 68.80 67.58 69.41 72.43 73.08 72.86 72.87 73.51 75.54 76.82 76.52 76.26 76.08 75.96 75.31 75.12 75.88 76.67 76.30 76.31 77.16 77.14 77.12 76.95 76.73 77.03 76.57 76.43 76.46 76.27 76.21 75.66 75.44 76.09
70.68 66.36 57.91 57.08 57.28 59.46 61.87 62.60 62.07 60.41 62.15 63.72 64.20 60.78 61.96 67.85 70.47 71.61 71.60 72.07 71.88 72.31 73.61 74.17 76.82 76.25 76.63 75.97 76.02 76.11 75.93 75.78 76.03 76.55 76.13 76.90 77.17 77.16 77.18 76.74 76.63 76.68 76.24 76.02 76.21 76.32 76.16 75.91 75.94
64.98 64.90 56.88 54.66 57.15 61.88 62.08 62.90 62.69 62.33 63.17 63.25 62.45 61.74 61.72 69.13 69.34 70.16 71.06 70.85 73.12 73.16 73.47 74.32 76.15 76.53 76.47 75.96 76.30 75.42 76.16 76.02 76.25 76.25 76.34 76.94 77.03 76.84 76.79 76.66 76.85 76.60 76.47 76.30 76.18 76.04 76.24 76.34 76.59
63.42 61.41 56.05 57.88 57.94 59.05 61.14 63.99 62.08 61.91 62.06 62.00 64.66 59.66 63.21 66.49 69.10 70.36 70.76 72.13 73.13 73.76 73.47 73.19 74.12 75.56 76.44 75.98 76.06 76.14 76.61 76.23 76.07 76.05 76.44 76.62 76.70 76.62 76.65 76.99 76.91 76.50 76.16 75.94 75.69 75.49 75.65 76.36 76.61
66.20 61.81 56.22 57.48 57.62 58.30 62.94 63.38 64.62 62.89 61.46 66.03 65.44 59.62 59.97 65.16 70.20 71.75 71.96 72.24 72.35 72.74 73.33 72.54 72.93 73.25 73.20 73.87 76.17 76.30 76.60 76.24 76.10 76.30 76.38 76.52 76.63 76.57 76.73 77.70 77.41 76.30 75.83 75.55 75.41 75.35 75.54 75.49 76.09
67.78 58.03 54.46 56.57 58.62 59.69 64.38 62.21 66.78 67.16 63.37 64.72 65.68 64.44 65.62 69.66 71.00 70.00 70.06 70.41 71.31 72.47 71.89 71.93 72.11 72.42 72.63 73.28 74.72 75.96 76.34 76.11 76.27 75.77 76.28 75.01 72.45 73.44 74.10 76.32 76.80 76.11 75.72 75.58 75.52 75.11 75.33 75.36 75.39
61.88 55.04 57.17 61.49 62.97 61.33 63.76 64.59 64.27 62.68 62.17 62.24 63.27 65.99 68.84 69.56 68.90 68.10 67.98 68.43 69.29 70.44 71.45 71.63 71.63 71.89 72.38 74.60 72.82 72.73 73.63 72.25 72.58 72.30 71.69 71.14 71.46 72.13 73.92 74.92 76.02 75.97 75.83 75.69 75.41 75.00 75.08 75.17 71.77
60.93 56.07 61.32 62.09 64.64 64.72 63.41 63.90 65.52 61.74 60.26 62.10 61.76 64.73 67.53 67.75 67.54 67.83 68.25 68.40 68.65 70.79 71.59 71.51 71.15 71.79 71.80 72.41 71.77 72.16 71.56 71.13 71.16 71.34 70.70 70.79 71.15 71.73 72.16 71.85 71.99 72.15 74.39 72.26 73.28 72.68 72.68 73.01 72.74
56.91 61.36 62.60 64.28 63.89 62.33 63.29 64.91 62.82 63.03 63.01 65.80 66.40 67.03 67.06 66.35 66.84 67.53 67.66 68.28 69.18 70.37 70.94 71.39 71.34 71.10 71.55 71.82 71.28 71.25 71.14 70.77 70.47 70.45 70.00 69.70 69.66 70.38 70.70 70.77 70.81 70.51 70.84 69.94 70.80 69.55 70.16 70.08 71.60
58.39 61.97 64.57 65.89 64.75 64.88 65.84 63.93 63.58 63.13 65.17 67.49 67.48 67.29 66.38 66.44 67.06 67.73 68.31 69.00 69.58 69.50 70.75 70.86 70.82 69.08 69.98 70.03 70.26 70.09 70.88 71.16 70.59 70.59 70.32 69.59 69.49 68.77 69.59 70.00 69.93 70.11 69.15 69.22 68.97 69.29 70.33 67.75 66.64
57.34 63.15 64.72 65.27 65.30 65.18 62.62 62.86 62.90 64.02 67.15 66.11 66.25 65.92 66.29 66.60 66.88 67.34 67.83 67.90 68.75 69.80 70.48 70.39 69.35 67.22 67.45 68.20 69.19 68.61 69.71 70.37 70.72 69.76 70.84 69.81 69.80 68.09 68.76 69.38 69.53 69.51 69.99 69.85 68.29 69.05 70.52 67.32 67.08
63.13 59.18 62.82 63.72 64.27 63.19 64.50 60.49 59.68 64.41 65.18 64.83 65.60 65.74 66.22 66.11 67.29 67.16 68.35 68.29 68.75 70.01 70.22 69.84 68.67 65.92 65.62 67.10 69.08 68.20 70.66 70.56 70.56 71.89 70.88 70.09 69.71 69.41 68.85 69.21 68.97 69.43 69.56 67.69 69.03 70.24 67.50 68.78 68.61
58.35 57.81 54.85 61.87 62.46 63.12 61.29 54.90 61.63 66.77 65.40 63.40 64.86 65.62 65.31 65.81 66.88 68.22 69.22 68.94 69.77 69.92 69.15 69.00 70.48 67.93 65.05 66.77 69.19 69.14 69.23 69.49 70.13 71.32 71.59 70.64 70.36 69.95 69.97 69.85 69.52 70.26 69.33 69.16 69.05 67.56 67.32 68.74 68.88
44.89 46.75 52.44 55.88 62.70 62.26 59.57 55.25 61.17 65.71 63.98 62.77 62.93 63.94 65.02 65.10 67.04 68.20 69.28 69.92 70.09 69.97 69.21 68.90 67.71 66.01 65.76 68.91 68.56 66.97 68.53 68.90 69.21 71.30 71.06 71.42 71.50 71.84 70.66 70.42 70.00 70.42 70.20 68.84 68.42 68.66 68.84 67.46 66.60
40.57 46.55 52.04 53.93 58.59 60.87 57.93 56.35 61.36 63.99 62.68 62.00 63.88 63.04 64.01 65.58 66.32 68.13 69.00 70.43 70.31 70.20 69.44 69.04 68.67 68.64 69.51 69.38 67.51 68.16 68.34 68.49 69.80 71.20 71.39 71.21 72.68 71.90 72.28 70.81 70.99 70.10 68.69 68.20 67.75 68.15 69.61 68.71 67.78
44.41 43.59 50.50 58.00 60.73 59.41 57.58 56.89 60.07 62.41 63.05 62.74 63.03 63.65 64.00 64.85 67.41 68.66 69.03 70.46 69.51 69.02 68.55 68.95 68.84 69.01 69.73 68.70 67.19 67.17 66.95 68.54 69.96 70.56 71.68 72.20 72.57 71.34 71.59 71.13 70.43 70.28 69.37 68.15 70.38 70.16 68.84 68.42 67.70
44.64 43.69 52.31 57.65 59.35 58.84 57.44 57.34 59.64 61.51 61.61 62.63 62.33 63.25 63.22 64.88 66.07 67.31 68.15 69.26 68.03 67.95 68.82 68.39 69.02 69.26 69.67 70.33 70.32 69.82 69.35 70.23 69.89 70.26 71.80 71.98 72.53 70.88 70.64 70.21 69.67 69.76 69.69 69.30 69.35 69.94 68.36 67.28 66.94
41.66 43.50 47.50 54.85 58.39 59.41 57.63 55.33 57.44 60.68 62.33 62.65 63.06 64.57 64.53 63.70 64.06 65.94 67.07 67.80 67.12 67.10 68.21 68.38 69.18 69.18 69.66 71.39 70.57 69.74 70.48 70.50 70.07 69.68 70.74 71.50 72.57 71.57 71.09 71.03 70.37 70.81 70.30 68.92 69.60 70.34 69.69 68.20 68.72
37.14 46.40 49.45 56.05 52.44 48.50 56.22 46.65 54.77 57.35 58.84 60.40 61.72 62.61 63.18 63.02 64.17 65.95 66.51 66.57 66.26 67.63 69.17 69.32 69.46 68.29 69.87 70.87 69.42 68.54 68.56 67.31 69.04 69.40 70.46 71.30 72.14 72.40 72.93 72.28 71.47 71.51 70.73 69.83 70.54 72.39 70.40 69.36 68.69
43.73 51.58 48.83 54.88 50.21 49.15 51.08 48.23 47.40 56.82 56.39 58.67 60.06 61.35 64.06 63.08 63.98 65.42 66.29 66.99 67.05 69.09 69.19 70.02 69.36 69.55 70.27 69.99 69.29 68.27 68.33 68.23 69.51 70.00 70.31 70.59 71.30 71.91 72.45 72.08 71.53 70.11 69.51 70.05 70.89 70.73 70.39 71.03 70.25
57.77 54.65 52.42 50.64 48.45 42.89 48.47 49.35 48.24 53.51 55.97 58.30 60.91 62.84 64.43 64.26 64.55 64.03 66.93 67.91 67.01 69.49 69.82 70.20 69.18 69.65 70.86 70.90 69.01 68.27 67.88 67.82 67.85 68.86 69.87 69.96 70.52 71.20 71.36 72.30 71.83 70.77 69.65 69.48 71.32 71.27 70.37 70.70 70.86
54.05 45.64 40.42 41.10 40.27 40.23 46.24 49.00 49.82 55.26 58.49 60.29 60.82 62.31 64.31 64.49 63.89 66.68 64.70 66.85 66.71 68.51 69.36 69.75 68.39 68.15 70.03 70.52 69.73 68.56 67.10 67.59 68.09 69.02 69.67 69.44 69.46 70.18 71.19 71.06 70.82 70.46 70.87 70.23 71.75 70.75 70.55 70.77 69.97
49.60 45.30 40.07 35.36 37.56 39.76 47.99 45.05 50.76 57.36 59.62 60.67 62.89 63.44 64.52 64.59 65.65 66.08 65.97 66.18 67.12 68.21 69.73 69.46 68.36 67.95 69.72 69.99 70.59 69.33 67.36 66.50 68.74 69.36 69.80 70.09 70.03 70.59 71.27 71.69 71.64 71.61 71.42 71.16 71.51 70.71 70.71 71.02 70.63
44.29 43.02 45.91 40.56 39.13 41.57 46.17 52.97 56.85 58.34 58.60 59.88 61.07 62.24 63.09 65.05 66.07 66.17 67.75 67.71 66.93 67.22 69.29 70.10 69.26 68.80 69.91 70.04 70.35 69.05 67.65 69.14 69.07 69.39 69.77 70.43 70.55 70.69 70.87 71.98 72.41 72.03 71.94 71.97 71.23 70.62 70.73 70.51 70.41
46.26 47.80 40.60 38.79 34.62 35.20 43.48 46.86 50.20 53.78 55.65 58.19 58.45 60.28 61.36 63.50 66.66 66.79 67.81 68.58 68.39 67.46 68.80 71.21 70.45 69.13 68.61 69.96 70.03 70.56 69.76 69.51 67.67 68.28 69.04 70.50 70.24 70.15 70.66 71.65 72.58 71.98 71.66 71.70 71.31 70.76 70.36 70.48 70.64
44.44 41.68 40.27 40.42 37.91 36.91 38.39 44.04 55.21 55.51 55.91 56.74 58.63 60.28 61.60 63.18 64.75 65.94 67.30 68.36 67.89 67.98 68.00 68.07 66.86 66.68 66.50 67.98 68.25 68.47 69.71 70.94 69.92 68.75 69.08 69.73 69.95 70.04 70.69 70.69 71.50 71.84 71.67 71.48 71.05 70.07 70.12 70.09 69.63
43.39 41.33 40.57 38.14 37.01 42.45 41.55 46.79 56.56 57.41 57.14 57.26 57.98 60.58 62.12 63.17 63.39 65.15 65.88 67.05 66.87 67.17 66.74 65.82 65.76 65.79 66.92 67.67 67.91 68.45 68.70 69.44 70.53 71.06 72.07 71.56 70.18 70.06 69.02 68.69 69.08 70.11 70.50 71.49 71.73 70.76 71.45 70.69 69.50

GFSSGP_sfc_wetblb_117.txt.gz
Wetbulb
73.70 73.05 71.82 69.24 60.30 60.11 57.03 57.44 60.25 54.92 56.08 60.18 60.02 60.56 61.61 64.00 60.54 56.18 70.30 71.97 72.37 73.05 75.07 75.41 76.15 76.40 76.41 76.07 75.98 76.00 76.04 76.73 77.17 77.00 77.12 77.21 76.97 77.06 76.76 76.57 77.17 76.83 77.37 76.71 76.63 76.60 76.74 76.82 76.44
73.14 72.29 71.47 67.87 59.14 54.88 55.76 60.13 56.03 57.12 60.19 61.04 64.77 64.84 63.65 61.64 66.19 67.22 69.09 72.31 73.09 73.76 75.26 75.74 75.93 76.77 76.27 76.24 76.18 75.98 76.14 76.86 77.01 76.81 76.80 77.00 76.88 77.06 76.56 77.08 76.98 77.03 77.15 76.60 76.49 76.16 76.27 76.24 76.20
71.46 72.05 65.82 61.92 57.32 55.42 56.08 59.43 58.52 61.16 61.32 63.24 64.19 66.87 65.02 62.64 66.77 68.40 71.92 73.10 73.58 74.34 75.43 76.08 76.43 76.48 76.26 76.23 76.34 76.39 76.32 76.78 76.81 76.94 76.67 76.87 77.01 76.96 76.88 77.31 76.97 76.90 76.90 76.57 76.30 76.21 76.21 76.35 76.75
68.94 68.71 66.71 60.29 57.17 59.65 59.80 60.72 61.45 60.19 63.05 66.03 65.71 62.61 66.01 68.57 68.15 70.85 73.14 73.75 73.87 74.60 75.43 76.48 76.13 75.80 75.64 75.74 76.18 76.28 76.02 76.54 76.50 76.87 76.55 76.69 77.37 76.94 76.87 77.01 76.99 76.79 76.32 76.04 76.27 76.44 76.02 75.77 75.89
70.62 66.42 59.48 58.58 58.48 59.95 62.22 63.02 62.65 59.96 61.52 64.69 65.00 61.45 63.12 69.01 72.05 72.53 73.22 73.69 73.44 74.55 74.94 75.66 76.22 75.91 75.56 75.40 75.04 75.56 76.01 76.08 76.33 76.54 76.31 76.71 76.80 77.02 76.91 76.77 76.74 76.48 76.49 76.35 76.20 76.36 76.02 76.26 76.28
65.24 66.17 57.67 55.74 57.91 60.59 62.71 63.96 62.98 62.91 64.34 63.89 63.16 62.66 64.48 70.68 70.93 72.14 73.48 73.80 74.29 73.10 74.97 75.85 75.98 76.21 76.07 75.48 75.62 75.16 75.61 76.29 76.33 76.33 76.66 76.68 76.59 76.81 77.43 76.83 76.47 76.47 76.30 76.14 76.41 76.51 76.02 75.99 76.06
63.65 62.77 56.87 57.91 57.84 58.98 61.49 65.77 63.43 63.32 63.47 62.49 65.28 61.15 64.80 67.85 71.32 72.66 73.46 73.86 73.19 73.97 75.36 75.63 75.92 76.30 75.61 75.56 75.77 75.78 75.32 75.70 76.19 76.73 76.86 76.58 76.40 76.49 76.77 77.07 76.69 76.02 75.97 76.03 76.33 76.81 76.86 76.26 76.19
65.43 62.72 57.80 58.56 57.91 58.00 63.15 63.94 64.60 64.04 62.47 66.86 66.57 60.82 61.68 67.63 71.42 72.74 72.55 72.61 73.00 74.25 74.75 75.00 75.72 75.97 76.08 75.40 75.76 76.12 76.00 75.71 76.33 76.57 76.64 76.91 76.51 76.84 76.90 77.34 77.21 76.33 76.05 75.91 76.02 76.10 76.01 76.07 75.79
66.20 59.34 56.17 57.18 58.78 59.62 64.17 61.59 64.75 66.93 63.90 65.03 66.18 65.59 67.54 70.03 71.50 70.63 70.83 71.81 72.12 73.39 74.35 74.86 74.82 75.43 75.83 75.83 75.83 75.77 75.83 76.09 76.28 76.64 76.60 76.85 77.24 76.64 75.93 77.13 76.47 76.00 76.00 75.69 75.41 75.16 74.97 75.72 76.32
63.80 57.98 58.35 61.86 62.38 61.33 63.20 63.43 63.58 62.72 63.02 63.31 64.83 67.71 69.14 70.07 69.44 67.84 68.98 69.33 70.40 71.73 73.20 74.76 74.60 75.11 75.37 75.39 76.41 76.63 76.36 76.50 77.10 76.99 77.05 76.60 77.06 76.75 76.12 76.84 76.44 76.22 75.77 75.57 75.05 75.19 75.08 74.87 75.48
63.50 57.86 62.20 62.70 64.50 64.15 63.12 63.10 64.06 62.31 60.81 63.35 63.68 65.95 68.23 68.33 67.19 67.30 69.20 69.93 70.84 72.02 73.12 74.19 74.85 75.48 75.74 75.77 76.16 75.49 75.74 75.43 76.00 76.46 76.39 76.22 76.00 76.41 76.54 76.25 76.06 76.06 75.02 75.65 75.62 75.41 75.52 75.11 76.13
59.40 62.20 63.36 64.11 65.29 64.09 62.84 62.86 61.89 63.47 63.81 65.61 66.83 67.58 67.55 66.67 66.46 67.34 68.78 69.90 71.24 71.93 72.71 74.09 74.76 75.52 76.17 75.81 74.77 74.67 74.52 74.66 74.15 74.99 75.89 75.28 74.84 75.44 75.24 74.81 75.84 75.98 75.42 75.73 75.86 75.52 75.61 74.82 75.39
58.83 60.43 63.64 65.33 65.69 64.46 64.94 62.10 61.51 61.72 65.40 67.16 67.66 67.52 67.15 67.67 68.23 69.24 70.04 70.67 71.70 71.67 72.60 73.81 74.83 75.29 75.60 75.46 74.67 74.61 74.58 74.30 74.28 74.75 75.10 75.34 74.71 74.60 74.64 75.41 75.13 75.22 75.94 75.45 75.31 75.49 74.98 74.04 73.85
60.49 63.38 64.86 64.86 65.25 64.86 62.24 61.61 62.44 62.84 66.24 66.51 66.75 67.02 68.05 68.62 69.10 69.41 69.51 69.71 70.82 71.81 72.46 73.72 74.17 75.05 75.01 74.50 75.33 74.81 75.35 75.11 75.00 75.02 75.21 75.28 74.92 74.86 75.06 75.28 75.09 75.71 76.01 75.80 75.79 75.42 75.57 74.88 74.62
64.66 62.16 63.98 63.80 64.73 62.99 62.78 59.34 59.81 64.11 66.43 65.75 66.40 67.31 68.05 68.85 69.48 69.09 69.78 69.80 71.29 72.14 72.92 73.07 73.44 73.98 74.12 75.04 74.66 74.91 75.64 75.28 74.87 74.96 75.33 75.02 75.54 75.94 75.53 75.34 75.50 75.99 76.43 76.25 75.93 75.42 76.18 75.51 74.62
61.72 61.83 58.57 62.84 63.95 63.71 62.47 54.49 60.58 64.90 64.54 63.81 65.92 66.91 67.52 68.61 69.39 70.38 70.62 71.32 72.35 72.72 72.93 73.37 73.20 72.93 73.70 74.55 74.46 74.63 75.52 75.51 75.78 75.92 74.95 74.64 75.90 76.30 76.19 76.16 76.17 77.02 76.62 75.93 75.45 75.64 75.66 75.26 75.85
56.68 55.27 56.80 59.99 63.55 61.93 60.83 58.64 62.38 64.96 63.98 63.34 64.23 66.13 67.15 68.15 69.42 70.56 71.03 71.69 72.55 73.22 73.47 73.33 73.64 72.08 72.93 73.67 74.38 74.63 75.31 75.49 76.07 76.83 76.30 76.03 75.80 75.97 77.28 76.26 76.54 77.39 77.06 75.61 75.52 76.09 75.84 74.82 74.67
53.90 51.97 55.09 56.50 61.48 62.02 59.58 59.40 62.91 64.53 63.34 63.55 64.05 65.59 66.98 67.54 68.56 70.40 70.91 72.00 73.08 73.63 74.00 74.04 73.51 71.98 71.51 73.39 73.71 74.23 74.77 74.83 75.99 77.02 76.35 76.25 76.18 76.73 76.94 76.13 77.00 76.92 76.18 75.70 76.39 76.55 75.76 74.76 73.88
51.32 49.35 52.10 58.89 62.26 61.08 59.50 59.84 61.80 63.98 63.40 63.12 63.55 64.06 66.56 66.99 69.62 70.82 70.80 72.24 72.75 73.41 73.45 73.70 73.44 72.70 71.09 71.85 71.64 72.40 72.85 73.95 75.05 76.65 76.16 76.61 76.66 76.77 77.24 76.57 76.85 76.91 76.11 76.39 77.04 76.86 75.57 74.95 75.50
49.39 48.48 56.22 59.35 61.46 60.82 59.76 58.89 61.80 63.53 63.31 63.98 63.13 63.15 64.67 66.97 68.06 69.96 70.67 71.79 72.37 72.96 73.33 73.29 73.27 72.97 72.00 72.08 72.27 73.10 73.77 74.33 75.21 75.72 76.22 76.71 76.61 76.41 77.13 76.88 76.55 76.80 76.49 76.58 77.22 77.08 75.55 75.45 75.39
48.63 48.46 55.51 56.35 60.00 60.89 59.72 57.74 59.33 62.56 63.48 63.74 63.77 64.41 65.05 66.16 67.27 69.13 70.19 71.51 72.27 72.46 73.00 73.30 73.35 72.35 72.73 73.88 73.07 73.83 74.23 75.27 73.95 74.41 75.22 75.96 76.77 76.17 76.39 76.66 76.62 77.36 77.17 75.71 76.82 77.03 76.74 74.37 75.34
47.92 49.88 54.51 58.00 56.03 52.00 58.28 50.14 56.53 59.69 60.96 62.01 62.58 63.34 63.74 66.08 67.87 69.10 69.84 70.92 71.76 72.55 73.37 73.48 73.52 72.48 73.83 75.06 73.27 73.62 72.22 72.08 75.08 75.71 76.02 76.69 76.88 76.66 76.09 76.41 76.36 77.67 77.16 76.94 77.88 77.44 77.11 76.91 74.50
49.01 51.52 52.64 55.87 55.37 54.06 54.84 52.60 54.63 58.78 58.64 60.32 62.60 63.75 64.41 65.37 66.35 68.37 69.68 71.07 72.13 72.59 72.75 73.13 73.74 73.84 74.20 74.94 74.85 73.67 74.83 75.85 74.41 75.25 75.95 76.67 77.10 77.00 76.35 76.75 76.83 77.33 77.16 77.36 77.95 77.42 77.66 76.66 75.04
58.00 54.74 55.73 56.13 54.52 46.78 52.19 52.47 52.51 55.94 59.34 61.47 63.61 64.61 65.08 65.10 66.30 68.21 69.94 71.02 71.33 72.50 72.57 72.95 73.32 73.84 74.43 74.60 74.77 75.23 75.14 75.28 75.74 74.66 73.95 75.62 75.37 75.75 76.67 77.03 77.03 77.24 77.00 76.78 77.88 77.61 77.00 76.83 76.65
57.06 53.67 47.65 46.57 46.48 46.07 52.38 51.38 54.36 58.57 60.55 63.14 63.36 64.17 65.62 65.18 66.88 67.50 68.42 69.63 70.56 70.99 71.86 72.47 73.36 73.33 74.22 74.55 74.52 74.43 74.51 74.89 74.56 75.40 76.49 75.99 74.36 75.59 76.06 77.03 76.92 76.66 77.10 76.55 77.95 77.91 77.47 77.38 76.24
53.41 52.30 46.53 40.96 43.51 46.80 53.05 49.68 54.32 59.61 61.45 63.41 65.28 65.63 64.88 65.73 67.25 67.79 68.42 69.82 70.15 70.14 71.75 72.36 73.07 73.49 74.16 74.33 74.98 74.96 75.13 74.00 74.35 75.24 74.61 74.81 75.42 78.18 77.16 76.41 77.15 77.08 77.11 76.77 77.55 77.22 77.18 77.87 77.24
51.39 48.86 53.03 48.86 49.14 48.42 51.53 53.81 58.59 59.65 60.66 62.19 63.90 64.37 63.73 66.00 67.05 67.03 68.69 69.48 70.38 69.82 71.26 72.40 72.83 73.34 74.24 74.27 76.00 75.50 74.63 74.01 74.17 75.23 75.89 75.46 76.72 77.19 76.50 76.88 76.74 76.89 76.80 76.92 77.20 76.42 76.97 77.32 77.38
53.41 54.44 46.91 49.20 43.43 42.16 48.36 50.52 53.39 55.86 58.64 61.50 62.49 63.31 64.23 66.03 67.02 67.50 68.54 69.79 70.71 70.35 71.84 72.84 73.45 73.39 73.99 74.85 75.27 76.00 74.66 74.42 73.81 74.28 75.14 75.91 76.39 76.62 76.90 76.62 76.60 77.22 77.19 77.27 77.05 76.39 77.00 76.57 76.46
49.67 49.66 49.53 50.39 48.61 44.82 44.74 49.95 58.33 58.54 59.57 60.67 62.54 63.68 64.45 65.44 66.31 67.75 67.77 70.20 71.08 71.44 71.22 72.91 73.18 73.19 73.42 74.45 75.36 75.26 74.76 74.25 74.63 74.31 74.74 75.29 76.01 76.35 76.40 76.54 76.80 76.89 76.99 77.04 76.96 77.10 76.54 76.04 76.44
49.35 48.65 50.05 47.22 45.39 49.33 49.55 49.49 58.54 59.84 60.84 61.53 61.72 63.48 65.40 66.14 67.14 67.87 68.04 68.96 69.48 70.33 71.15 72.10 73.52 73.54 73.90 74.35 74.68 74.51 74.52 75.16 74.97 74.49 73.81 74.63 74.94 75.92 76.15 76.26 75.98 76.07 76.56 76.73 76.54 75.83 75.61 75.93 75.54

GFSSGP_sfc_wetblb_120.txt.gz
Wetbulb
74.17 73.53 72.43 70.28 64.61 63.48 58.54 58.48 59.63 57.34 57.98 61.05 62.14 62.14 64.51 66.31 62.64 59.07 71.71 73.49 73.75 74.26 75.48 75.72 76.84 76.53 76.32 76.40 76.39 76.53 77.15 77.55 77.31 77.58 77.58 77.04 76.89 76.79 77.10 76.99 76.99 77.14 77.34 76.88 76.89 76.96 76.82 76.77 76.48
74.71 72.97 73.90 70.64 61.78 56.10 57.68 60.93 57.12 59.61 61.27 62.51 65.53 65.90 65.30 63.22 67.44 68.62 70.93 73.63 74.39 74.77 75.13 75.85 76.15 76.41 76.05 76.19 76.31 76.61 77.37 77.28 77.05 77.24 77.39 77.16 77.07 76.53 77.11 77.26 77.29 77.23 77.78 76.66 76.68 76.69 76.58 77.03 76.01
72.58 73.02 69.17 66.07 62.83 56.33 57.28 59.77 60.25 61.17 62.09 65.75 65.50 68.52 66.98 63.80 68.28 70.03 73.23 74.39 75.05 75.12 75.58 76.33 76.51 76.59 76.32 76.58 76.62 76.80 77.20 77.19 76.93 77.01 77.32 77.09 77.20 77.54 77.28 77.23 77.20 77.09 76.82 76.66 76.52 76.62 76.58 76.51 76.30
70.41 69.85 69.96 62.63 59.38 61.40 60.97 60.92 62.25 61.34 66.76 67.84 67.58 64.72 67.53 70.27 70.00 72.54 74.21 74.59 74.24 74.79 76.03 76.22 76.41 76.56 76.56 76.75 76.76 76.74 77.02 77.07 76.94 76.76 76.90 76.96 77.09 77.10 77.38 77.16 76.68 76.43 76.43 76.31 76.61 75.86 76.46 76.23 75.82
71.14 69.21 63.82 61.13 60.38 62.50 63.16 63.75 62.99 64.55 66.32 66.86 67.06 64.38 64.89 70.45 73.21 73.77 74.04 73.80 73.27 74.37 75.51 75.82 75.42 75.38 75.43 75.43 76.24 76.55 76.72 76.94 77.02 76.57 76.58 76.74 77.01 77.13 77.32 77.10 76.93 76.54 76.60 76.84 76.43 76.71 76.59 76.97 76.82
67.69 68.73 61.01 58.45 59.92 62.62 64.04 64.78 63.84 64.37 66.72 66.40 65.49 64.98 66.52 71.94 72.24 73.34 73.68 73.59 74.11 73.17 75.71 75.07 76.01 76.23 75.62 75.16 75.19 76.25 76.55 76.75 76.82 76.74 76.59 76.47 76.95 77.40 77.35 77.08 76.77 76.61 76.77 77.10 76.80 76.44 76.16 76.39 76.14
66.35 66.31 60.46 61.29 60.49 62.02 63.72 66.19 64.45 65.42 65.37 65.38 67.11 63.74 66.79 70.23 72.88 73.46 73.61 74.08 73.40 75.18 75.84 75.97 76.57 76.83 76.23 76.19 76.06 75.88 76.47 76.72 77.08 76.75 76.69 76.62 76.65 76.77 77.41 77.03 76.44 76.52 76.66 76.86 76.83 76.74 76.57 76.59 76.54
67.44 65.36 61.25 62.02 60.15 61.02 65.80 66.40 67.15 66.40 65.23 68.70 68.28 62.68 64.10 69.00 72.74 73.18 73.28 73.12 73.17 74.86 75.11 75.53 75.49 76.51 75.70 76.02 75.76 75.90 76.07 76.53 76.58 77.14 77.19 77.18 77.06 77.08 76.97 77.15 77.08 76.38 76.35 76.19 76.25 76.24 76.33 76.13 76.20
68.44 62.84 57.83 60.11 61.08 62.44 66.28 62.62 66.67 68.51 66.54 66.70 67.61 67.01 69.67 71.82 72.41 71.60 71.59 71.85 72.78 73.35 74.61 75.09 75.59 76.13 75.90 76.32 76.62 76.24 76.31 76.61 77.06 76.97 76.65 76.91 77.75 76.22 76.94 76.75 76.44 76.21 75.79 75.58 75.48 75.40 75.24 75.97 76.48
66.78 63.29 58.36 63.15 64.28 63.61 65.22 64.80 65.74 65.28 65.42 65.45 65.96 69.20 70.70 71.07 70.70 69.57 70.00 69.97 71.41 72.82 73.81 74.59 74.38 74.56 75.34 75.33 77.09 77.15 76.62 76.27 77.45 77.14 77.41 77.92 76.78 77.16 76.10 76.76 76.36 75.82 75.25 75.28 75.18 75.10 75.01 76.32 75.54
65.33 61.39 61.58 61.57 65.03 66.72 63.08 63.15 66.54 65.00 63.35 65.78 65.30 67.40 68.94 69.61 69.24 69.36 70.35 70.69 71.50 72.68 73.34 73.96 75.83 76.21 76.38 76.51 76.65 75.90 75.83 76.12 77.11 77.08 77.05 75.85 75.31 75.72 75.54 76.09 76.18 76.17 75.62 76.16 76.38 77.29 76.03 75.85 76.21
62.49 64.38 64.83 64.94 66.67 66.00 64.73 65.40 64.89 65.70 65.47 67.90 68.00 68.76 68.92 68.38 67.88 69.02 69.94 71.06 71.92 72.65 73.22 74.05 75.50 76.31 76.02 75.16 74.82 74.77 74.59 75.11 74.84 76.11 76.14 75.70 75.19 76.23 75.95 75.78 76.09 77.32 76.66 76.77 76.61 75.67 76.24 75.35 76.17
62.60 64.76 65.54 66.97 65.43 65.20 65.63 62.08 62.91 63.86 66.60 68.37 68.52 68.55 68.26 67.82 68.10 70.15 70.90 71.89 72.80 72.18 73.20 74.05 75.30 75.85 75.80 75.87 74.69 74.08 73.66 74.35 74.82 75.27 75.74 76.09 75.61 75.90 76.12 76.92 75.96 76.84 76.94 76.14 76.35 76.02 75.81 74.97 75.17
63.38 63.64 64.87 66.43 65.46 66.29 62.32 63.11 62.20 63.03 67.00 67.07 67.72 67.75 68.36 68.58 68.77 70.07 70.65 71.28 72.08 72.62 73.10 74.10 74.60 75.33 75.96 75.84 76.11 74.81 74.76 75.03 74.96 74.31 76.18 77.16 76.46 76.41 76.32 76.30 75.90 76.57 76.58 77.08 76.60 76.92 75.97 74.75 74.55
62.14 62.40 64.71 65.38 65.17 63.75 63.83 58.70 59.18 63.98 66.76 66.43 67.22 68.10 68.80 69.61 70.44 70.22 71.10 71.42 72.60 72.82 73.56 73.71 74.49 75.25 76.03 76.21 75.48 74.67 74.66 74.61 74.42 75.03 77.19 77.12 76.98 77.23 77.36 76.12 76.26 76.66 77.40 77.80 77.47 77.99 77.62 74.87 74.67
62.08 62.93 59.75 64.06 64.31 62.12 61.35 56.17 61.77 66.53 66.08 65.81 66.97 67.94 68.66 69.83 70.46 71.30 71.95 72.42 73.42 73.06 73.15 73.95 73.96 75.06 75.95 76.11 75.73 74.78 75.30 74.93 74.65 75.55 75.78 76.71 77.24 77.64 77.84 76.66 75.94 77.46 77.94 76.82 76.47 76.32 75.50 74.83 75.14
61.18 57.29 58.94 61.09 65.52 62.74 61.48 56.97 61.77 66.50 65.52 65.89 67.27 68.05 68.56 69.60 70.66 71.78 72.53 72.97 73.56 73.56 73.88 73.69 74.27 74.29 75.51 76.21 75.95 76.37 77.19 75.20 75.56 76.02 75.84 77.15 77.04 77.59 78.48 76.54 76.56 79.26 77.67 76.46 76.49 75.99 76.34 75.24 75.29
56.45 57.48 59.97 60.01 64.05 63.73 61.54 60.68 62.91 64.37 64.13 64.72 66.13 67.10 68.59 69.24 70.11 71.93 72.74 73.64 74.30 74.00 74.79 75.32 75.17 75.20 75.98 75.76 76.29 76.13 75.54 75.38 75.94 76.20 76.20 77.17 76.97 77.71 78.39 76.28 77.56 78.38 77.18 76.05 77.02 77.61 76.97 76.47 75.76
59.34 57.45 57.76 61.70 64.71 62.68 60.37 61.31 62.60 63.44 62.99 62.51 63.93 65.92 68.18 68.65 71.21 72.45 72.88 73.69 73.90 74.61 74.75 74.71 75.07 75.40 74.60 74.35 73.62 73.61 73.27 74.65 75.39 75.98 77.24 77.77 77.32 77.83 79.21 76.65 77.25 78.22 76.54 77.23 78.25 77.60 76.50 75.27 76.96
56.86 55.35 58.05 61.15 64.20 63.46 61.19 60.45 64.31 65.08 63.04 61.80 63.53 65.46 67.72 68.52 69.64 71.37 72.75 73.30 73.82 74.14 74.82 75.20 75.62 76.11 74.19 74.36 75.03 74.86 74.91 74.71 75.27 76.20 77.24 77.06 77.54 77.89 77.46 78.08 77.31 77.54 76.83 77.58 78.28 78.02 75.58 75.37 76.87
54.27 54.13 58.18 58.05 61.99 63.08 61.71 58.89 61.50 64.28 66.07 64.64 64.24 64.81 65.87 67.68 69.27 71.21 72.07 72.86 73.75 74.27 74.66 75.11 75.85 76.02 75.90 75.47 75.26 75.44 77.53 77.20 75.85 75.37 75.89 76.66 77.14 77.12 77.70 78.21 77.91 78.51 77.54 76.03 77.84 77.94 78.31 74.25 76.80
53.63 54.10 58.25 59.85 58.27 53.53 62.17 52.65 59.00 62.37 62.94 63.88 65.17 63.71 64.20 67.48 69.82 70.98 72.04 72.53 73.30 74.21 75.18 75.45 76.17 76.21 75.60 76.03 75.33 75.35 73.10 73.80 76.33 78.14 76.25 76.13 77.19 77.09 77.15 77.38 78.05 78.37 77.44 77.99 78.48 77.87 78.43 78.81 75.01
53.69 54.00 54.59 56.35 55.08 55.25 57.14 54.55 58.97 62.93 60.35 62.64 65.23 63.92 65.10 65.57 69.00 70.16 70.93 72.79 73.89 74.53 74.60 74.69 76.10 75.73 75.56 76.72 76.60 74.69 74.77 73.81 74.25 75.12 76.11 76.79 77.77 77.67 76.90 77.70 77.83 77.83 76.80 78.08 78.95 78.85 79.13 77.77 76.35
55.66 53.79 55.24 56.22 54.24 49.24 53.79 54.59 56.68 59.32 60.81 62.83 64.60 66.58 66.74 65.58 68.61 70.24 71.88 73.10 73.64 74.68 74.64 74.45 75.20 76.11 76.38 76.52 75.96 76.24 75.55 74.87 74.26 74.76 74.32 74.93 75.41 76.20 77.51 77.31 78.15 78.34 78.52 77.64 78.15 79.30 78.79 78.57 78.37
55.22 53.60 48.96 47.70 48.31 47.70 55.48 53.76 56.18 61.91 63.37 64.32 65.87 66.39 67.67 66.92 67.15 68.68 70.34 72.15 73.08 73.68 74.32 74.26 75.05 75.44 76.23 76.22 75.72 75.73 76.11 76.04 75.99 75.63 74.91 75.33 74.63 74.79 77.04 77.97 77.94 77.63 78.80 78.15 78.82 79.03 78.59 78.69 77.57
53.55 54.28 49.52 44.50 46.44 49.15 56.26 50.89 57.17 63.01 64.83 66.50 68.02 68.04 68.47 68.23 67.50 66.99 70.61 72.20 72.94 73.37 74.28 74.46 74.86 75.11 75.94 75.96 76.60 76.57 76.41 76.44 77.69 76.29 75.01 74.43 74.64 75.73 77.48 77.68 77.77 77.99 78.34 78.09 79.01 77.45 77.10 78.21 78.25
51.75 50.26 55.22 50.86 52.71 50.32 54.12 56.05 61.42 63.21 63.41 64.78 65.87 67.63 66.83 68.21 66.78 68.56 70.00 72.00 72.81 73.30 74.05 74.66 74.95 75.84 76.17 75.78 76.82 77.01 76.79 76.63 77.86 77.54 76.89 75.90 76.52 75.37 76.65 76.94 76.91 77.32 77.45 78.13 78.52 76.40 77.43 77.95 77.51
53.43 55.44 48.88 50.37 46.17 45.05 50.96 52.44 55.77 60.52 61.76 64.11 65.23 66.72 67.73 68.03 67.18 68.87 70.42 71.72 73.01 73.38 73.86 74.89 75.47 75.75 76.11 75.83 76.17 76.08 76.42 77.04 77.51 78.01 77.33 77.45 77.36 76.73 77.11 76.69 76.88 77.07 77.51 77.67 78.18 77.00 78.02 78.11 76.89
50.85 50.81 51.81 51.65 50.46 47.30 46.66 50.98 61.98 61.73 63.27 64.26 65.61 67.32 68.09 68.53 68.94 69.00 70.85 71.92 72.84 73.20 73.31 74.31 75.10 75.38 75.51 75.86 75.73 76.21 75.83 76.61 77.13 76.02 76.95 77.98 77.69 77.49 77.28 77.56 76.88 76.75 76.94 77.66 78.20 77.01 77.00 77.15 77.17
54.22 51.76 52.41 48.05 48.34 51.11 50.76 51.64 62.86 63.79 63.86 65.70 66.18 67.53 68.62 69.00 69.25 68.57 69.93 71.44 72.67 72.94 72.90 73.37 75.03 74.95 75.51 75.99 76.16 75.46 75.90 75.97 75.57 76.54 77.02 77.68 78.27 78.84 78.13 77.68 77.18 77.06 76.90 77.39 77.16 75.91 75.58 76.10 75.84